<?xml version="1.0" encoding="UTF-8" standalone="no" ?>
<gpx xmlns="http://www.topografix.com/GPX/1/1" xmlns:xsi="http://www.w3.org/2001/XMLSchema-instance" xsi:schemaLocation="http://www.topografix.com/GPX/1/1 http://www.topografix.com/GPX/1/1/gpx.xsd" version="1.1" creator="VisuGPX - https://www.visugpx.com">
  <metadata>
    <name>Boucle au dessus de Frégus</name>
    <desc><![CDATA[Boucle avec des passages non franchissable en VTT (Porté nécessaire) peu intéressante pour du VTT]]></desc>
  </metadata>
  <wpt lat="49.00243" lon="1.08928">
    <ele>120.77</ele>
    <name><![CDATA[001]]></name>
  </wpt>
  <wpt lat="38.85555" lon="-94.79902">
    <ele>3.01</ele>
    <name><![CDATA[GARMIN]]></name>
  </wpt>
  <wpt lat="50.98288" lon="-1.4639">
    <ele>3.01</ele>
    <name><![CDATA[GRMEUR]]></name>
  </wpt>
  <wpt lat="25.06178" lon="121.64027">
    <ele>3.01</ele>
    <name><![CDATA[GRMTWN]]></name>
  </wpt>
  <wpt lat="43.57746" lon="1.45163">
    <ele>97.22</ele>
    <name><![CDATA[MAP]]></name>
  </wpt>
  <trk>
    <name><![CDATA[ACTIVE LOG: 19 MAI 2011 10:04]]></name>
    <trkseg>
      <trkpt lat="43.5043" lon="6.75623">
        <ele>31.86</ele>
        <time>2011-05-19T08:04:20Z</time>
      </trkpt>
      <trkpt lat="43.5043" lon="6.75623">
        <ele>37.63</ele>
        <time>2011-05-19T08:04:21Z</time>
      </trkpt>
      <trkpt lat="43.5043" lon="6.75623">
        <ele>36.19</ele>
        <time>2011-05-19T08:04:22Z</time>
      </trkpt>
      <trkpt lat="43.50423" lon="6.75624">
        <ele>32.34</ele>
        <time>2011-05-19T08:04:35Z</time>
      </trkpt>
      <trkpt lat="43.50422" lon="6.75623">
        <ele>35.71</ele>
        <time>2011-05-19T08:04:36Z</time>
      </trkpt>
      <trkpt lat="43.50422" lon="6.75623">
        <ele>31.38</ele>
        <time>2011-05-19T08:04:38Z</time>
      </trkpt>
      <trkpt lat="43.50422" lon="6.75623">
        <ele>37.63</ele>
        <time>2011-05-19T08:04:39Z</time>
      </trkpt>
      <trkpt lat="43.50422" lon="6.75623">
        <ele>34.26</ele>
        <time>2011-05-19T08:04:42Z</time>
      </trkpt>
      <trkpt lat="43.50422" lon="6.75623">
        <ele>39.07</ele>
        <time>2011-05-19T08:04:54Z</time>
      </trkpt>
      <trkpt lat="43.50422" lon="6.75623">
        <ele>38.11</ele>
        <time>2011-05-19T08:04:55Z</time>
      </trkpt>
      <trkpt lat="43.50422" lon="6.75623">
        <ele>32.82</ele>
        <time>2011-05-19T08:04:56Z</time>
      </trkpt>
      <trkpt lat="43.50422" lon="6.75623">
        <ele>36.19</ele>
        <time>2011-05-19T08:04:57Z</time>
      </trkpt>
      <trkpt lat="43.50422" lon="6.75623">
        <ele>36.67</ele>
        <time>2011-05-19T08:04:58Z</time>
      </trkpt>
      <trkpt lat="43.50418" lon="6.75629">
        <ele>37.15</ele>
        <time>2011-05-19T08:05:04Z</time>
      </trkpt>
      <trkpt lat="43.50426" lon="6.75641">
        <ele>33.3</ele>
        <time>2011-05-19T08:05:14Z</time>
      </trkpt>
      <trkpt lat="43.5045" lon="6.7566">
        <ele>36.67</ele>
        <time>2011-05-19T08:05:28Z</time>
      </trkpt>
      <trkpt lat="43.50454" lon="6.75664">
        <ele>33.3</ele>
        <time>2011-05-19T08:05:30Z</time>
      </trkpt>
      <trkpt lat="43.50455" lon="6.75665">
        <ele>36.67</ele>
        <time>2011-05-19T08:05:31Z</time>
      </trkpt>
      <trkpt lat="43.50473" lon="6.75651">
        <ele>35.23</ele>
        <time>2011-05-19T08:05:43Z</time>
      </trkpt>
      <trkpt lat="43.50475" lon="6.75647">
        <ele>35.71</ele>
        <time>2011-05-19T08:05:46Z</time>
      </trkpt>
      <trkpt lat="43.50476" lon="6.75641">
        <ele>37.63</ele>
        <time>2011-05-19T08:05:52Z</time>
      </trkpt>
      <trkpt lat="43.50476" lon="6.75637">
        <ele>37.63</ele>
        <time>2011-05-19T08:05:57Z</time>
      </trkpt>
      <trkpt lat="43.50477" lon="6.75636">
        <ele>35.71</ele>
        <time>2011-05-19T08:05:59Z</time>
      </trkpt>
      <trkpt lat="43.50481" lon="6.75632">
        <ele>34.74</ele>
        <time>2011-05-19T08:06:03Z</time>
      </trkpt>
      <trkpt lat="43.50485" lon="6.75626">
        <ele>39.07</ele>
        <time>2011-05-19T08:06:06Z</time>
      </trkpt>
      <trkpt lat="43.50489" lon="6.75618">
        <ele>35.71</ele>
        <time>2011-05-19T08:06:10Z</time>
      </trkpt>
      <trkpt lat="43.50498" lon="6.75599">
        <ele>39.07</ele>
        <time>2011-05-19T08:06:17Z</time>
      </trkpt>
      <trkpt lat="43.50503" lon="6.75582">
        <ele>38.59</ele>
        <time>2011-05-19T08:06:23Z</time>
      </trkpt>
      <trkpt lat="43.50523" lon="6.75555">
        <ele>40.51</ele>
        <time>2011-05-19T08:06:35Z</time>
      </trkpt>
      <trkpt lat="43.50529" lon="6.7555">
        <ele>36.19</ele>
        <time>2011-05-19T08:06:37Z</time>
      </trkpt>
      <trkpt lat="43.50531" lon="6.75548">
        <ele>37.15</ele>
        <time>2011-05-19T08:06:38Z</time>
      </trkpt>
      <trkpt lat="43.50557" lon="6.75528">
        <ele>33.78</ele>
        <time>2011-05-19T08:06:46Z</time>
      </trkpt>
      <trkpt lat="43.50561" lon="6.75525">
        <ele>36.67</ele>
        <time>2011-05-19T08:06:47Z</time>
      </trkpt>
      <trkpt lat="43.50605" lon="6.75499">
        <ele>39.07</ele>
        <time>2011-05-19T08:06:59Z</time>
      </trkpt>
      <trkpt lat="43.50637" lon="6.75489">
        <ele>39.55</ele>
        <time>2011-05-19T08:07:10Z</time>
      </trkpt>
      <trkpt lat="43.50658" lon="6.75485">
        <ele>40.51</ele>
        <time>2011-05-19T08:07:18Z</time>
      </trkpt>
      <trkpt lat="43.50677" lon="6.75481">
        <ele>41.47</ele>
        <time>2011-05-19T08:07:25Z</time>
      </trkpt>
      <trkpt lat="43.50713" lon="6.75458">
        <ele>43.88</ele>
        <time>2011-05-19T08:07:43Z</time>
      </trkpt>
      <trkpt lat="43.50732" lon="6.75446">
        <ele>45.32</ele>
        <time>2011-05-19T08:07:54Z</time>
      </trkpt>
      <trkpt lat="43.50755" lon="6.7543">
        <ele>45.8</ele>
        <time>2011-05-19T08:08:09Z</time>
      </trkpt>
      <trkpt lat="43.50767" lon="6.75417">
        <ele>42.44</ele>
        <time>2011-05-19T08:08:18Z</time>
      </trkpt>
      <trkpt lat="43.50783" lon="6.75409">
        <ele>45.8</ele>
        <time>2011-05-19T08:08:24Z</time>
      </trkpt>
      <trkpt lat="43.50795" lon="6.75406">
        <ele>41.95</ele>
        <time>2011-05-19T08:08:28Z</time>
      </trkpt>
      <trkpt lat="43.50798" lon="6.75406">
        <ele>41.95</ele>
        <time>2011-05-19T08:08:29Z</time>
      </trkpt>
      <trkpt lat="43.50827" lon="6.75414">
        <ele>38.11</ele>
        <time>2011-05-19T08:08:38Z</time>
      </trkpt>
      <trkpt lat="43.5084" lon="6.75421">
        <ele>42.44</ele>
        <time>2011-05-19T08:08:42Z</time>
      </trkpt>
      <trkpt lat="43.50862" lon="6.75445">
        <ele>38.59</ele>
        <time>2011-05-19T08:08:52Z</time>
      </trkpt>
      <trkpt lat="43.50871" lon="6.75459">
        <ele>38.59</ele>
        <time>2011-05-19T08:08:57Z</time>
      </trkpt>
      <trkpt lat="43.5088" lon="6.75493">
        <ele>41.95</ele>
        <time>2011-05-19T08:09:10Z</time>
      </trkpt>
      <trkpt lat="43.50889" lon="6.75525">
        <ele>44.84</ele>
        <time>2011-05-19T08:09:24Z</time>
      </trkpt>
      <trkpt lat="43.50892" lon="6.7554">
        <ele>45.8</ele>
        <time>2011-05-19T08:09:41Z</time>
      </trkpt>
      <trkpt lat="43.50892" lon="6.7554">
        <ele>44.84</ele>
        <time>2011-05-19T08:09:48Z</time>
      </trkpt>
      <trkpt lat="43.50891" lon="6.75554">
        <ele>41.47</ele>
        <time>2011-05-19T08:09:56Z</time>
      </trkpt>
      <trkpt lat="43.50891" lon="6.75557">
        <ele>41.95</ele>
        <time>2011-05-19T08:09:57Z</time>
      </trkpt>
      <trkpt lat="43.50887" lon="6.75575">
        <ele>41.95</ele>
        <time>2011-05-19T08:10:01Z</time>
      </trkpt>
      <trkpt lat="43.5088" lon="6.75606">
        <ele>40.51</ele>
        <time>2011-05-19T08:10:07Z</time>
      </trkpt>
      <trkpt lat="43.50876" lon="6.75634">
        <ele>40.99</ele>
        <time>2011-05-19T08:10:12Z</time>
      </trkpt>
      <trkpt lat="43.50871" lon="6.75659">
        <ele>37.15</ele>
        <time>2011-05-19T08:10:16Z</time>
      </trkpt>
      <trkpt lat="43.50869" lon="6.75665">
        <ele>36.67</ele>
        <time>2011-05-19T08:10:17Z</time>
      </trkpt>
      <trkpt lat="43.50861" lon="6.75679">
        <ele>36.19</ele>
        <time>2011-05-19T08:10:19Z</time>
      </trkpt>
      <trkpt lat="43.50858" lon="6.75685">
        <ele>40.03</ele>
        <time>2011-05-19T08:10:20Z</time>
      </trkpt>
      <trkpt lat="43.5084" lon="6.75713">
        <ele>38.11</ele>
        <time>2011-05-19T08:10:29Z</time>
      </trkpt>
      <trkpt lat="43.50839" lon="6.75716">
        <ele>40.99</ele>
        <time>2011-05-19T08:10:31Z</time>
      </trkpt>
      <trkpt lat="43.50839" lon="6.75717">
        <ele>39.07</ele>
        <time>2011-05-19T08:10:41Z</time>
      </trkpt>
      <trkpt lat="43.50839" lon="6.75717">
        <ele>41.95</ele>
        <time>2011-05-19T08:10:42Z</time>
      </trkpt>
      <trkpt lat="43.50841" lon="6.75717">
        <ele>41.95</ele>
        <time>2011-05-19T08:10:59Z</time>
      </trkpt>
      <trkpt lat="43.50842" lon="6.75718">
        <ele>42.92</ele>
        <time>2011-05-19T08:11:13Z</time>
      </trkpt>
      <trkpt lat="43.50842" lon="6.75718">
        <ele>38.59</ele>
        <time>2011-05-19T08:11:21Z</time>
      </trkpt>
      <trkpt lat="43.50841" lon="6.75718">
        <ele>41.95</ele>
        <time>2011-05-19T08:11:23Z</time>
      </trkpt>
      <trkpt lat="43.50841" lon="6.75719">
        <ele>40.03</ele>
        <time>2011-05-19T08:11:24Z</time>
      </trkpt>
      <trkpt lat="43.50831" lon="6.75728">
        <ele>38.59</ele>
        <time>2011-05-19T08:11:29Z</time>
      </trkpt>
      <trkpt lat="43.50822" lon="6.75745">
        <ele>39.55</ele>
        <time>2011-05-19T08:11:37Z</time>
      </trkpt>
      <trkpt lat="43.50821" lon="6.75746">
        <ele>37.15</ele>
        <time>2011-05-19T08:11:45Z</time>
      </trkpt>
      <trkpt lat="43.50819" lon="6.7575">
        <ele>39.55</ele>
        <time>2011-05-19T08:11:48Z</time>
      </trkpt>
      <trkpt lat="43.50816" lon="6.75755">
        <ele>37.63</ele>
        <time>2011-05-19T08:11:50Z</time>
      </trkpt>
      <trkpt lat="43.50806" lon="6.75776">
        <ele>38.11</ele>
        <time>2011-05-19T08:11:58Z</time>
      </trkpt>
      <trkpt lat="43.50806" lon="6.75783">
        <ele>40.03</ele>
        <time>2011-05-19T08:12:01Z</time>
      </trkpt>
      <trkpt lat="43.50821" lon="6.75806">
        <ele>40.03</ele>
        <time>2011-05-19T08:12:14Z</time>
      </trkpt>
      <trkpt lat="43.50834" lon="6.75815">
        <ele>40.99</ele>
        <time>2011-05-19T08:12:22Z</time>
      </trkpt>
      <trkpt lat="43.50838" lon="6.75816">
        <ele>37.63</ele>
        <time>2011-05-19T08:12:24Z</time>
      </trkpt>
      <trkpt lat="43.50842" lon="6.75817">
        <ele>43.88</ele>
        <time>2011-05-19T08:12:26Z</time>
      </trkpt>
      <trkpt lat="43.50844" lon="6.75818">
        <ele>38.59</ele>
        <time>2011-05-19T08:12:27Z</time>
      </trkpt>
      <trkpt lat="43.50854" lon="6.75823">
        <ele>40.03</ele>
        <time>2011-05-19T08:12:33Z</time>
      </trkpt>
      <trkpt lat="43.50861" lon="6.75823">
        <ele>37.15</ele>
        <time>2011-05-19T08:12:38Z</time>
      </trkpt>
      <trkpt lat="43.50865" lon="6.75824">
        <ele>41.47</ele>
        <time>2011-05-19T08:12:40Z</time>
      </trkpt>
      <trkpt lat="43.50866" lon="6.75823">
        <ele>40.99</ele>
        <time>2011-05-19T08:12:41Z</time>
      </trkpt>
      <trkpt lat="43.50876" lon="6.75826">
        <ele>39.55</ele>
        <time>2011-05-19T08:12:46Z</time>
      </trkpt>
      <trkpt lat="43.5088" lon="6.75829">
        <ele>41.47</ele>
        <time>2011-05-19T08:12:48Z</time>
      </trkpt>
      <trkpt lat="43.50907" lon="6.75828">
        <ele>44.84</ele>
        <time>2011-05-19T08:12:59Z</time>
      </trkpt>
      <trkpt lat="43.50909" lon="6.75827">
        <ele>40.03</ele>
        <time>2011-05-19T08:13:00Z</time>
      </trkpt>
      <trkpt lat="43.50921" lon="6.75827">
        <ele>43.88</ele>
        <time>2011-05-19T08:13:06Z</time>
      </trkpt>
      <trkpt lat="43.50947" lon="6.75819">
        <ele>47.24</ele>
        <time>2011-05-19T08:13:20Z</time>
      </trkpt>
      <trkpt lat="43.50948" lon="6.75819">
        <ele>43.4</ele>
        <time>2011-05-19T08:13:21Z</time>
      </trkpt>
      <trkpt lat="43.50958" lon="6.75808">
        <ele>44.36</ele>
        <time>2011-05-19T08:13:27Z</time>
      </trkpt>
      <trkpt lat="43.50991" lon="6.75787">
        <ele>45.32</ele>
        <time>2011-05-19T08:13:41Z</time>
      </trkpt>
      <trkpt lat="43.51033" lon="6.75774">
        <ele>42.44</ele>
        <time>2011-05-19T08:13:55Z</time>
      </trkpt>
      <trkpt lat="43.51043" lon="6.75772">
        <ele>45.32</ele>
        <time>2011-05-19T08:13:58Z</time>
      </trkpt>
      <trkpt lat="43.51064" lon="6.75759">
        <ele>40.99</ele>
        <time>2011-05-19T08:14:08Z</time>
      </trkpt>
      <trkpt lat="43.51066" lon="6.75757">
        <ele>45.32</ele>
        <time>2011-05-19T08:14:09Z</time>
      </trkpt>
      <trkpt lat="43.51068" lon="6.75755">
        <ele>49.16</ele>
        <time>2011-05-19T08:14:10Z</time>
      </trkpt>
      <trkpt lat="43.5107" lon="6.75753">
        <ele>44.84</ele>
        <time>2011-05-19T08:14:11Z</time>
      </trkpt>
      <trkpt lat="43.51089" lon="6.75735">
        <ele>41.95</ele>
        <time>2011-05-19T08:14:19Z</time>
      </trkpt>
      <trkpt lat="43.51093" lon="6.75733">
        <ele>42.44</ele>
        <time>2011-05-19T08:14:20Z</time>
      </trkpt>
      <trkpt lat="43.511" lon="6.7573">
        <ele>43.88</ele>
        <time>2011-05-19T08:14:22Z</time>
      </trkpt>
      <trkpt lat="43.51133" lon="6.75715">
        <ele>39.55</ele>
        <time>2011-05-19T08:14:34Z</time>
      </trkpt>
      <trkpt lat="43.51136" lon="6.75715">
        <ele>44.36</ele>
        <time>2011-05-19T08:14:35Z</time>
      </trkpt>
      <trkpt lat="43.51138" lon="6.75714">
        <ele>39.55</ele>
        <time>2011-05-19T08:14:36Z</time>
      </trkpt>
      <trkpt lat="43.51143" lon="6.75713">
        <ele>44.36</ele>
        <time>2011-05-19T08:14:38Z</time>
      </trkpt>
      <trkpt lat="43.51145" lon="6.75712">
        <ele>40.99</ele>
        <time>2011-05-19T08:14:39Z</time>
      </trkpt>
      <trkpt lat="43.51151" lon="6.75711">
        <ele>40.03</ele>
        <time>2011-05-19T08:14:42Z</time>
      </trkpt>
      <trkpt lat="43.51153" lon="6.7571">
        <ele>44.36</ele>
        <time>2011-05-19T08:14:43Z</time>
      </trkpt>
      <trkpt lat="43.51155" lon="6.7571">
        <ele>39.07</ele>
        <time>2011-05-19T08:14:44Z</time>
      </trkpt>
      <trkpt lat="43.51156" lon="6.7571">
        <ele>45.32</ele>
        <time>2011-05-19T08:14:45Z</time>
      </trkpt>
      <trkpt lat="43.51158" lon="6.75709">
        <ele>40.03</ele>
        <time>2011-05-19T08:14:46Z</time>
      </trkpt>
      <trkpt lat="43.51163" lon="6.75708">
        <ele>42.92</ele>
        <time>2011-05-19T08:14:49Z</time>
      </trkpt>
      <trkpt lat="43.51178" lon="6.75706">
        <ele>40.03</ele>
        <time>2011-05-19T08:15:03Z</time>
      </trkpt>
      <trkpt lat="43.51177" lon="6.75706">
        <ele>44.36</ele>
        <time>2011-05-19T08:15:04Z</time>
      </trkpt>
      <trkpt lat="43.51177" lon="6.75706">
        <ele>40.03</ele>
        <time>2011-05-19T08:15:05Z</time>
      </trkpt>
      <trkpt lat="43.51177" lon="6.75707">
        <ele>45.32</ele>
        <time>2011-05-19T08:15:07Z</time>
      </trkpt>
      <trkpt lat="43.51177" lon="6.75707">
        <ele>44.84</ele>
        <time>2011-05-19T08:15:08Z</time>
      </trkpt>
      <trkpt lat="43.51178" lon="6.75707">
        <ele>43.4</ele>
        <time>2011-05-19T08:15:15Z</time>
      </trkpt>
      <trkpt lat="43.51181" lon="6.75707">
        <ele>45.8</ele>
        <time>2011-05-19T08:15:20Z</time>
      </trkpt>
      <trkpt lat="43.51184" lon="6.7571">
        <ele>42.44</ele>
        <time>2011-05-19T08:15:25Z</time>
      </trkpt>
      <trkpt lat="43.51185" lon="6.7571">
        <ele>46.76</ele>
        <time>2011-05-19T08:15:26Z</time>
      </trkpt>
      <trkpt lat="43.51188" lon="6.7571">
        <ele>47.24</ele>
        <time>2011-05-19T08:15:30Z</time>
      </trkpt>
      <trkpt lat="43.51191" lon="6.7571">
        <ele>41.47</ele>
        <time>2011-05-19T08:15:32Z</time>
      </trkpt>
      <trkpt lat="43.51192" lon="6.75709">
        <ele>43.88</ele>
        <time>2011-05-19T08:15:33Z</time>
      </trkpt>
      <trkpt lat="43.51205" lon="6.75723">
        <ele>43.88</ele>
        <time>2011-05-19T08:15:51Z</time>
      </trkpt>
      <trkpt lat="43.51199" lon="6.75726">
        <ele>47.24</ele>
        <time>2011-05-19T08:16:01Z</time>
      </trkpt>
      <trkpt lat="43.51198" lon="6.75726">
        <ele>44.36</ele>
        <time>2011-05-19T08:16:02Z</time>
      </trkpt>
      <trkpt lat="43.51197" lon="6.75726">
        <ele>45.32</ele>
        <time>2011-05-19T08:16:03Z</time>
      </trkpt>
      <trkpt lat="43.51192" lon="6.75726">
        <ele>46.28</ele>
        <time>2011-05-19T08:16:13Z</time>
      </trkpt>
      <trkpt lat="43.51191" lon="6.75726">
        <ele>42.44</ele>
        <time>2011-05-19T08:16:15Z</time>
      </trkpt>
      <trkpt lat="43.51192" lon="6.75726">
        <ele>46.76</ele>
        <time>2011-05-19T08:16:18Z</time>
      </trkpt>
      <trkpt lat="43.51191" lon="6.75726">
        <ele>43.4</ele>
        <time>2011-05-19T08:16:23Z</time>
      </trkpt>
      <trkpt lat="43.51188" lon="6.75728">
        <ele>47.72</ele>
        <time>2011-05-19T08:16:31Z</time>
      </trkpt>
      <trkpt lat="43.51188" lon="6.75728">
        <ele>43.4</ele>
        <time>2011-05-19T08:16:32Z</time>
      </trkpt>
      <trkpt lat="43.51189" lon="6.75729">
        <ele>42.92</ele>
        <time>2011-05-19T08:16:35Z</time>
      </trkpt>
      <trkpt lat="43.51193" lon="6.75731">
        <ele>47.72</ele>
        <time>2011-05-19T08:16:39Z</time>
      </trkpt>
      <trkpt lat="43.51201" lon="6.75734">
        <ele>40.99</ele>
        <time>2011-05-19T08:16:45Z</time>
      </trkpt>
      <trkpt lat="43.51202" lon="6.75735">
        <ele>45.8</ele>
        <time>2011-05-19T08:16:47Z</time>
      </trkpt>
      <trkpt lat="43.51202" lon="6.75736">
        <ele>45.32</ele>
        <time>2011-05-19T08:16:48Z</time>
      </trkpt>
      <trkpt lat="43.512" lon="6.75749">
        <ele>47.24</ele>
        <time>2011-05-19T08:17:07Z</time>
      </trkpt>
      <trkpt lat="43.51199" lon="6.75752">
        <ele>50.13</ele>
        <time>2011-05-19T08:17:23Z</time>
      </trkpt>
      <trkpt lat="43.51207" lon="6.75759">
        <ele>51.57</ele>
        <time>2011-05-19T08:17:41Z</time>
      </trkpt>
      <trkpt lat="43.51208" lon="6.75759">
        <ele>50.61</ele>
        <time>2011-05-19T08:17:43Z</time>
      </trkpt>
      <trkpt lat="43.51211" lon="6.75765">
        <ele>53.97</ele>
        <time>2011-05-19T08:18:00Z</time>
      </trkpt>
      <trkpt lat="43.51216" lon="6.75768">
        <ele>53.49</ele>
        <time>2011-05-19T08:18:07Z</time>
      </trkpt>
      <trkpt lat="43.51218" lon="6.75769">
        <ele>56.86</ele>
        <time>2011-05-19T08:18:19Z</time>
      </trkpt>
      <trkpt lat="43.51218" lon="6.75769">
        <ele>53.01</ele>
        <time>2011-05-19T08:18:20Z</time>
      </trkpt>
      <trkpt lat="43.51219" lon="6.75769">
        <ele>56.37</ele>
        <time>2011-05-19T08:18:22Z</time>
      </trkpt>
      <trkpt lat="43.51219" lon="6.75769">
        <ele>55.89</ele>
        <time>2011-05-19T08:18:23Z</time>
      </trkpt>
      <trkpt lat="43.51221" lon="6.75767">
        <ele>54.45</ele>
        <time>2011-05-19T08:18:27Z</time>
      </trkpt>
      <trkpt lat="43.51221" lon="6.75763">
        <ele>53.49</ele>
        <time>2011-05-19T08:18:30Z</time>
      </trkpt>
      <trkpt lat="43.51221" lon="6.75756">
        <ele>50.13</ele>
        <time>2011-05-19T08:18:45Z</time>
      </trkpt>
      <trkpt lat="43.51221" lon="6.75752">
        <ele>50.13</ele>
        <time>2011-05-19T08:18:49Z</time>
      </trkpt>
      <trkpt lat="43.51228" lon="6.75743">
        <ele>47.72</ele>
        <time>2011-05-19T08:19:06Z</time>
      </trkpt>
      <trkpt lat="43.51228" lon="6.75743">
        <ele>47.72</ele>
        <time>2011-05-19T08:19:11Z</time>
      </trkpt>
      <trkpt lat="43.51229" lon="6.75744">
        <ele>47.72</ele>
        <time>2011-05-19T08:19:27Z</time>
      </trkpt>
      <trkpt lat="43.51228" lon="6.75745">
        <ele>48.2</ele>
        <time>2011-05-19T08:20:13Z</time>
      </trkpt>
      <trkpt lat="43.51231" lon="6.75746">
        <ele>46.28</ele>
        <time>2011-05-19T08:20:17Z</time>
      </trkpt>
      <trkpt lat="43.51236" lon="6.75747">
        <ele>47.72</ele>
        <time>2011-05-19T08:20:20Z</time>
      </trkpt>
      <trkpt lat="43.51238" lon="6.75747">
        <ele>46.28</ele>
        <time>2011-05-19T08:20:22Z</time>
      </trkpt>
      <trkpt lat="43.51249" lon="6.75753">
        <ele>44.84</ele>
        <time>2011-05-19T08:20:35Z</time>
      </trkpt>
      <trkpt lat="43.51251" lon="6.75751">
        <ele>44.84</ele>
        <time>2011-05-19T08:20:40Z</time>
      </trkpt>
      <trkpt lat="43.51256" lon="6.75747">
        <ele>43.88</ele>
        <time>2011-05-19T08:20:55Z</time>
      </trkpt>
      <trkpt lat="43.51254" lon="6.75745">
        <ele>44.84</ele>
        <time>2011-05-19T08:21:01Z</time>
      </trkpt>
      <trkpt lat="43.51253" lon="6.75744">
        <ele>44.84</ele>
        <time>2011-05-19T08:21:05Z</time>
      </trkpt>
      <trkpt lat="43.5127" lon="6.7573">
        <ele>44.84</ele>
        <time>2011-05-19T08:21:19Z</time>
      </trkpt>
      <trkpt lat="43.51298" lon="6.75749">
        <ele>46.76</ele>
        <time>2011-05-19T08:21:34Z</time>
      </trkpt>
      <trkpt lat="43.51324" lon="6.75756">
        <ele>47.72</ele>
        <time>2011-05-19T08:21:49Z</time>
      </trkpt>
      <trkpt lat="43.51356" lon="6.75745">
        <ele>49.16</ele>
        <time>2011-05-19T08:22:05Z</time>
      </trkpt>
      <trkpt lat="43.51358" lon="6.75744">
        <ele>46.28</ele>
        <time>2011-05-19T08:22:06Z</time>
      </trkpt>
      <trkpt lat="43.51366" lon="6.7574">
        <ele>49.65</ele>
        <time>2011-05-19T08:22:09Z</time>
      </trkpt>
      <trkpt lat="43.51415" lon="6.75717">
        <ele>48.2</ele>
        <time>2011-05-19T08:22:27Z</time>
      </trkpt>
      <trkpt lat="43.51464" lon="6.75704">
        <ele>49.65</ele>
        <time>2011-05-19T08:22:45Z</time>
      </trkpt>
      <trkpt lat="43.5151" lon="6.75725">
        <ele>49.65</ele>
        <time>2011-05-19T08:23:02Z</time>
      </trkpt>
      <trkpt lat="43.51517" lon="6.75733">
        <ele>48.68</ele>
        <time>2011-05-19T08:23:06Z</time>
      </trkpt>
      <trkpt lat="43.51519" lon="6.75735">
        <ele>52.05</ele>
        <time>2011-05-19T08:23:07Z</time>
      </trkpt>
      <trkpt lat="43.51521" lon="6.75736">
        <ele>50.13</ele>
        <time>2011-05-19T08:23:08Z</time>
      </trkpt>
      <trkpt lat="43.51525" lon="6.75741">
        <ele>47.24</ele>
        <time>2011-05-19T08:23:11Z</time>
      </trkpt>
      <trkpt lat="43.51527" lon="6.75741">
        <ele>49.16</ele>
        <time>2011-05-19T08:23:21Z</time>
      </trkpt>
      <trkpt lat="43.51529" lon="6.7574">
        <ele>50.13</ele>
        <time>2011-05-19T08:23:29Z</time>
      </trkpt>
      <trkpt lat="43.51531" lon="6.7574">
        <ele>48.2</ele>
        <time>2011-05-19T08:23:47Z</time>
      </trkpt>
      <trkpt lat="43.51531" lon="6.7574">
        <ele>52.05</ele>
        <time>2011-05-19T08:23:48Z</time>
      </trkpt>
      <trkpt lat="43.51531" lon="6.7574">
        <ele>50.13</ele>
        <time>2011-05-19T08:23:49Z</time>
      </trkpt>
      <trkpt lat="43.51531" lon="6.75741">
        <ele>46.76</ele>
        <time>2011-05-19T08:24:24Z</time>
      </trkpt>
      <trkpt lat="43.51531" lon="6.75741">
        <ele>49.16</ele>
        <time>2011-05-19T08:24:33Z</time>
      </trkpt>
      <trkpt lat="43.51554" lon="6.75757">
        <ele>48.68</ele>
        <time>2011-05-19T08:24:46Z</time>
      </trkpt>
      <trkpt lat="43.51581" lon="6.75781">
        <ele>49.65</ele>
        <time>2011-05-19T08:24:59Z</time>
      </trkpt>
      <trkpt lat="43.51628" lon="6.75834">
        <ele>51.57</ele>
        <time>2011-05-19T08:25:18Z</time>
      </trkpt>
      <trkpt lat="43.51671" lon="6.75888">
        <ele>51.57</ele>
        <time>2011-05-19T08:25:35Z</time>
      </trkpt>
      <trkpt lat="43.51698" lon="6.75919">
        <ele>53.01</ele>
        <time>2011-05-19T08:25:46Z</time>
      </trkpt>
      <trkpt lat="43.51703" lon="6.75924">
        <ele>52.05</ele>
        <time>2011-05-19T08:25:48Z</time>
      </trkpt>
      <trkpt lat="43.51771" lon="6.75962">
        <ele>54.45</ele>
        <time>2011-05-19T08:26:10Z</time>
      </trkpt>
      <trkpt lat="43.51859" lon="6.76008">
        <ele>53.49</ele>
        <time>2011-05-19T08:26:35Z</time>
      </trkpt>
      <trkpt lat="43.51906" lon="6.76049">
        <ele>56.86</ele>
        <time>2011-05-19T08:26:48Z</time>
      </trkpt>
      <trkpt lat="43.51961" lon="6.76096">
        <ele>54.93</ele>
        <time>2011-05-19T08:27:03Z</time>
      </trkpt>
      <trkpt lat="43.5203" lon="6.76186">
        <ele>55.89</ele>
        <time>2011-05-19T08:27:25Z</time>
      </trkpt>
      <trkpt lat="43.5206" lon="6.76247">
        <ele>58.78</ele>
        <time>2011-05-19T08:27:39Z</time>
      </trkpt>
      <trkpt lat="43.52066" lon="6.76259">
        <ele>56.86</ele>
        <time>2011-05-19T08:27:42Z</time>
      </trkpt>
      <trkpt lat="43.52067" lon="6.76263">
        <ele>53.49</ele>
        <time>2011-05-19T08:27:43Z</time>
      </trkpt>
      <trkpt lat="43.52069" lon="6.76267">
        <ele>55.89</ele>
        <time>2011-05-19T08:27:44Z</time>
      </trkpt>
      <trkpt lat="43.52074" lon="6.76278">
        <ele>57.82</ele>
        <time>2011-05-19T08:27:47Z</time>
      </trkpt>
      <trkpt lat="43.52091" lon="6.76314">
        <ele>55.41</ele>
        <time>2011-05-19T08:27:57Z</time>
      </trkpt>
      <trkpt lat="43.52094" lon="6.76321">
        <ele>58.3</ele>
        <time>2011-05-19T08:28:00Z</time>
      </trkpt>
      <trkpt lat="43.52097" lon="6.76326">
        <ele>60.22</ele>
        <time>2011-05-19T08:28:03Z</time>
      </trkpt>
      <trkpt lat="43.52099" lon="6.76329">
        <ele>58.78</ele>
        <time>2011-05-19T08:28:05Z</time>
      </trkpt>
      <trkpt lat="43.521" lon="6.76333">
        <ele>58.3</ele>
        <time>2011-05-19T08:28:13Z</time>
      </trkpt>
      <trkpt lat="43.52102" lon="6.76332">
        <ele>56.37</ele>
        <time>2011-05-19T08:28:22Z</time>
      </trkpt>
      <trkpt lat="43.52102" lon="6.76331">
        <ele>60.22</ele>
        <time>2011-05-19T08:28:38Z</time>
      </trkpt>
      <trkpt lat="43.52102" lon="6.76331">
        <ele>56.86</ele>
        <time>2011-05-19T08:28:39Z</time>
      </trkpt>
      <trkpt lat="43.52102" lon="6.76331">
        <ele>60.7</ele>
        <time>2011-05-19T08:28:50Z</time>
      </trkpt>
      <trkpt lat="43.52102" lon="6.76331">
        <ele>59.26</ele>
        <time>2011-05-19T08:28:51Z</time>
      </trkpt>
      <trkpt lat="43.52098" lon="6.76331">
        <ele>57.82</ele>
        <time>2011-05-19T08:29:04Z</time>
      </trkpt>
      <trkpt lat="43.52087" lon="6.76304">
        <ele>57.82</ele>
        <time>2011-05-19T08:29:15Z</time>
      </trkpt>
      <trkpt lat="43.52082" lon="6.76294">
        <ele>56.37</ele>
        <time>2011-05-19T08:29:17Z</time>
      </trkpt>
      <trkpt lat="43.52025" lon="6.76171">
        <ele>57.82</ele>
        <time>2011-05-19T08:29:34Z</time>
      </trkpt>
      <trkpt lat="43.52013" lon="6.7615">
        <ele>55.41</ele>
        <time>2011-05-19T08:29:37Z</time>
      </trkpt>
      <trkpt lat="43.5193" lon="6.76069">
        <ele>54.93</ele>
        <time>2011-05-19T08:29:53Z</time>
      </trkpt>
      <trkpt lat="43.51908" lon="6.76051">
        <ele>55.89</ele>
        <time>2011-05-19T08:29:57Z</time>
      </trkpt>
      <trkpt lat="43.51892" lon="6.76037">
        <ele>52.05</ele>
        <time>2011-05-19T08:30:00Z</time>
      </trkpt>
      <trkpt lat="43.51886" lon="6.76032">
        <ele>55.41</ele>
        <time>2011-05-19T08:30:01Z</time>
      </trkpt>
      <trkpt lat="43.51881" lon="6.76027">
        <ele>52.05</ele>
        <time>2011-05-19T08:30:02Z</time>
      </trkpt>
      <trkpt lat="43.5187" lon="6.76018">
        <ele>57.82</ele>
        <time>2011-05-19T08:30:04Z</time>
      </trkpt>
      <trkpt lat="43.51865" lon="6.76013">
        <ele>55.89</ele>
        <time>2011-05-19T08:30:05Z</time>
      </trkpt>
      <trkpt lat="43.51826" lon="6.75986">
        <ele>52.53</ele>
        <time>2011-05-19T08:30:12Z</time>
      </trkpt>
      <trkpt lat="43.51785" lon="6.75968">
        <ele>55.89</ele>
        <time>2011-05-19T08:30:19Z</time>
      </trkpt>
      <trkpt lat="43.51772" lon="6.75963">
        <ele>53.49</ele>
        <time>2011-05-19T08:30:21Z</time>
      </trkpt>
      <trkpt lat="43.51753" lon="6.75955">
        <ele>54.45</ele>
        <time>2011-05-19T08:30:24Z</time>
      </trkpt>
      <trkpt lat="43.51736" lon="6.75946">
        <ele>52.05</ele>
        <time>2011-05-19T08:30:27Z</time>
      </trkpt>
      <trkpt lat="43.51724" lon="6.7594">
        <ele>56.37</ele>
        <time>2011-05-19T08:30:29Z</time>
      </trkpt>
      <trkpt lat="43.51695" lon="6.75916">
        <ele>50.61</ele>
        <time>2011-05-19T08:30:34Z</time>
      </trkpt>
      <trkpt lat="43.5169" lon="6.7591">
        <ele>52.53</ele>
        <time>2011-05-19T08:30:35Z</time>
      </trkpt>
      <trkpt lat="43.51623" lon="6.75828">
        <ele>51.09</ele>
        <time>2011-05-19T08:30:48Z</time>
      </trkpt>
      <trkpt lat="43.51603" lon="6.75805">
        <ele>54.45</ele>
        <time>2011-05-19T08:30:52Z</time>
      </trkpt>
      <trkpt lat="43.5159" lon="6.75791">
        <ele>51.09</ele>
        <time>2011-05-19T08:30:55Z</time>
      </trkpt>
      <trkpt lat="43.51585" lon="6.75786">
        <ele>51.09</ele>
        <time>2011-05-19T08:30:56Z</time>
      </trkpt>
      <trkpt lat="43.51564" lon="6.75761">
        <ele>50.13</ele>
        <time>2011-05-19T08:31:05Z</time>
      </trkpt>
      <trkpt lat="43.51569" lon="6.75749">
        <ele>48.2</ele>
        <time>2011-05-19T08:31:10Z</time>
      </trkpt>
      <trkpt lat="43.5157" lon="6.75748">
        <ele>53.49</ele>
        <time>2011-05-19T08:31:11Z</time>
      </trkpt>
      <trkpt lat="43.5157" lon="6.75743">
        <ele>50.13</ele>
        <time>2011-05-19T08:31:13Z</time>
      </trkpt>
      <trkpt lat="43.5157" lon="6.75741">
        <ele>51.57</ele>
        <time>2011-05-19T08:31:14Z</time>
      </trkpt>
      <trkpt lat="43.51575" lon="6.7573">
        <ele>54.45</ele>
        <time>2011-05-19T08:31:19Z</time>
      </trkpt>
      <trkpt lat="43.5159" lon="6.75697">
        <ele>57.82</ele>
        <time>2011-05-19T08:31:33Z</time>
      </trkpt>
      <trkpt lat="43.51591" lon="6.75694">
        <ele>56.86</ele>
        <time>2011-05-19T08:31:34Z</time>
      </trkpt>
      <trkpt lat="43.51596" lon="6.75685">
        <ele>52.53</ele>
        <time>2011-05-19T08:31:38Z</time>
      </trkpt>
      <trkpt lat="43.51597" lon="6.75682">
        <ele>55.89</ele>
        <time>2011-05-19T08:31:39Z</time>
      </trkpt>
      <trkpt lat="43.51591" lon="6.75638">
        <ele>56.37</ele>
        <time>2011-05-19T08:31:55Z</time>
      </trkpt>
      <trkpt lat="43.5159" lon="6.75636">
        <ele>56.37</ele>
        <time>2011-05-19T08:31:56Z</time>
      </trkpt>
      <trkpt lat="43.51588" lon="6.75627">
        <ele>61.18</ele>
        <time>2011-05-19T08:31:59Z</time>
      </trkpt>
      <trkpt lat="43.51587" lon="6.75625">
        <ele>60.7</ele>
        <time>2011-05-19T08:32:00Z</time>
      </trkpt>
      <trkpt lat="43.51583" lon="6.75597">
        <ele>62.62</ele>
        <time>2011-05-19T08:32:12Z</time>
      </trkpt>
      <trkpt lat="43.51599" lon="6.75578">
        <ele>63.58</ele>
        <time>2011-05-19T08:32:26Z</time>
      </trkpt>
      <trkpt lat="43.51611" lon="6.75578">
        <ele>66.95</ele>
        <time>2011-05-19T08:32:34Z</time>
      </trkpt>
      <trkpt lat="43.51629" lon="6.7558">
        <ele>68.39</ele>
        <time>2011-05-19T08:32:44Z</time>
      </trkpt>
      <trkpt lat="43.51635" lon="6.7558">
        <ele>68.39</ele>
        <time>2011-05-19T08:32:48Z</time>
      </trkpt>
      <trkpt lat="43.51659" lon="6.75572">
        <ele>71.27</ele>
        <time>2011-05-19T08:33:03Z</time>
      </trkpt>
      <trkpt lat="43.51676" lon="6.75544">
        <ele>74.64</ele>
        <time>2011-05-19T08:33:20Z</time>
      </trkpt>
      <trkpt lat="43.51688" lon="6.75526">
        <ele>77.52</ele>
        <time>2011-05-19T08:33:32Z</time>
      </trkpt>
      <trkpt lat="43.51689" lon="6.75525">
        <ele>76.56</ele>
        <time>2011-05-19T08:33:33Z</time>
      </trkpt>
      <trkpt lat="43.51695" lon="6.75517">
        <ele>78.48</ele>
        <time>2011-05-19T08:33:39Z</time>
      </trkpt>
      <trkpt lat="43.51699" lon="6.75506">
        <ele>77.04</ele>
        <time>2011-05-19T08:33:45Z</time>
      </trkpt>
      <trkpt lat="43.51701" lon="6.75482">
        <ele>80.89</ele>
        <time>2011-05-19T08:33:55Z</time>
      </trkpt>
      <trkpt lat="43.51698" lon="6.75469">
        <ele>77.52</ele>
        <time>2011-05-19T08:34:00Z</time>
      </trkpt>
      <trkpt lat="43.51692" lon="6.75453">
        <ele>80.89</ele>
        <time>2011-05-19T08:34:06Z</time>
      </trkpt>
      <trkpt lat="43.51676" lon="6.75419">
        <ele>84.25</ele>
        <time>2011-05-19T08:34:19Z</time>
      </trkpt>
      <trkpt lat="43.51674" lon="6.75417">
        <ele>80.89</ele>
        <time>2011-05-19T08:34:20Z</time>
      </trkpt>
      <trkpt lat="43.51663" lon="6.75402">
        <ele>84.25</ele>
        <time>2011-05-19T08:34:28Z</time>
      </trkpt>
      <trkpt lat="43.51632" lon="6.75402">
        <ele>85.21</ele>
        <time>2011-05-19T08:34:43Z</time>
      </trkpt>
      <trkpt lat="43.51623" lon="6.75383">
        <ele>88.1</ele>
        <time>2011-05-19T08:34:53Z</time>
      </trkpt>
      <trkpt lat="43.51623" lon="6.7538">
        <ele>85.21</ele>
        <time>2011-05-19T08:34:54Z</time>
      </trkpt>
      <trkpt lat="43.51624" lon="6.7537">
        <ele>89.06</ele>
        <time>2011-05-19T08:34:58Z</time>
      </trkpt>
      <trkpt lat="43.51625" lon="6.75367">
        <ele>88.1</ele>
        <time>2011-05-19T08:34:59Z</time>
      </trkpt>
      <trkpt lat="43.51631" lon="6.75339">
        <ele>91.94</ele>
        <time>2011-05-19T08:35:12Z</time>
      </trkpt>
      <trkpt lat="43.51621" lon="6.75324">
        <ele>92.9</ele>
        <time>2011-05-19T08:35:22Z</time>
      </trkpt>
      <trkpt lat="43.51612" lon="6.75318">
        <ele>91.94</ele>
        <time>2011-05-19T08:35:29Z</time>
      </trkpt>
      <trkpt lat="43.51606" lon="6.75312">
        <ele>95.79</ele>
        <time>2011-05-19T08:35:34Z</time>
      </trkpt>
      <trkpt lat="43.51597" lon="6.75277">
        <ele>97.23</ele>
        <time>2011-05-19T08:35:51Z</time>
      </trkpt>
      <trkpt lat="43.51597" lon="6.75274">
        <ele>96.75</ele>
        <time>2011-05-19T08:35:52Z</time>
      </trkpt>
      <trkpt lat="43.51597" lon="6.75267">
        <ele>98.19</ele>
        <time>2011-05-19T08:35:55Z</time>
      </trkpt>
      <trkpt lat="43.51598" lon="6.75263">
        <ele>98.19</ele>
        <time>2011-05-19T08:35:57Z</time>
      </trkpt>
      <trkpt lat="43.516" lon="6.75255">
        <ele>100.6</ele>
        <time>2011-05-19T08:36:01Z</time>
      </trkpt>
      <trkpt lat="43.51613" lon="6.75232">
        <ele>103.96</ele>
        <time>2011-05-19T08:36:14Z</time>
      </trkpt>
      <trkpt lat="43.51621" lon="6.75223">
        <ele>102.52</ele>
        <time>2011-05-19T08:36:22Z</time>
      </trkpt>
      <trkpt lat="43.51624" lon="6.75222">
        <ele>105.88</ele>
        <time>2011-05-19T08:36:27Z</time>
      </trkpt>
      <trkpt lat="43.51641" lon="6.75219">
        <ele>107.32</ele>
        <time>2011-05-19T08:36:45Z</time>
      </trkpt>
      <trkpt lat="43.51652" lon="6.75221">
        <ele>109.25</ele>
        <time>2011-05-19T08:36:56Z</time>
      </trkpt>
      <trkpt lat="43.51661" lon="6.75221">
        <ele>111.17</ele>
        <time>2011-05-19T08:37:07Z</time>
      </trkpt>
      <trkpt lat="43.51663" lon="6.75221">
        <ele>109.73</ele>
        <time>2011-05-19T08:37:09Z</time>
      </trkpt>
      <trkpt lat="43.51671" lon="6.75219">
        <ele>112.61</ele>
        <time>2011-05-19T08:37:18Z</time>
      </trkpt>
      <trkpt lat="43.51676" lon="6.75218">
        <ele>111.17</ele>
        <time>2011-05-19T08:37:33Z</time>
      </trkpt>
      <trkpt lat="43.51677" lon="6.75218">
        <ele>110.69</ele>
        <time>2011-05-19T08:38:11Z</time>
      </trkpt>
      <trkpt lat="43.51676" lon="6.75219">
        <ele>114.05</ele>
        <time>2011-05-19T08:38:32Z</time>
      </trkpt>
      <trkpt lat="43.51676" lon="6.75219">
        <ele>111.17</ele>
        <time>2011-05-19T08:38:35Z</time>
      </trkpt>
      <trkpt lat="43.51676" lon="6.75219">
        <ele>114.53</ele>
        <time>2011-05-19T08:38:42Z</time>
      </trkpt>
      <trkpt lat="43.51676" lon="6.75219">
        <ele>114.05</ele>
        <time>2011-05-19T08:38:43Z</time>
      </trkpt>
      <trkpt lat="43.51676" lon="6.75219">
        <ele>109.73</ele>
        <time>2011-05-19T08:38:49Z</time>
      </trkpt>
      <trkpt lat="43.51676" lon="6.75219">
        <ele>110.69</ele>
        <time>2011-05-19T08:38:50Z</time>
      </trkpt>
      <trkpt lat="43.51676" lon="6.75218">
        <ele>112.61</ele>
        <time>2011-05-19T08:38:53Z</time>
      </trkpt>
      <trkpt lat="43.51676" lon="6.75218">
        <ele>109.25</ele>
        <time>2011-05-19T08:39:00Z</time>
      </trkpt>
      <trkpt lat="43.51676" lon="6.75218">
        <ele>112.61</ele>
        <time>2011-05-19T08:39:08Z</time>
      </trkpt>
      <trkpt lat="43.51676" lon="6.75218">
        <ele>111.65</ele>
        <time>2011-05-19T08:39:31Z</time>
      </trkpt>
      <trkpt lat="43.51676" lon="6.75218">
        <ele>110.69</ele>
        <time>2011-05-19T08:39:41Z</time>
      </trkpt>
      <trkpt lat="43.51676" lon="6.75219">
        <ele>111.17</ele>
        <time>2011-05-19T08:39:45Z</time>
      </trkpt>
      <trkpt lat="43.51675" lon="6.75218">
        <ele>111.65</ele>
        <time>2011-05-19T08:39:57Z</time>
      </trkpt>
      <trkpt lat="43.51675" lon="6.75217">
        <ele>115.01</ele>
        <time>2011-05-19T08:40:11Z</time>
      </trkpt>
      <trkpt lat="43.51675" lon="6.75217">
        <ele>114.53</ele>
        <time>2011-05-19T08:40:12Z</time>
      </trkpt>
      <trkpt lat="43.51674" lon="6.75217">
        <ele>112.61</ele>
        <time>2011-05-19T08:40:14Z</time>
      </trkpt>
      <trkpt lat="43.51674" lon="6.75217">
        <ele>113.09</ele>
        <time>2011-05-19T08:40:16Z</time>
      </trkpt>
      <trkpt lat="43.51674" lon="6.75217">
        <ele>113.09</ele>
        <time>2011-05-19T08:40:21Z</time>
      </trkpt>
      <trkpt lat="43.51675" lon="6.75217">
        <ele>111.65</ele>
        <time>2011-05-19T08:40:37Z</time>
      </trkpt>
      <trkpt lat="43.51672" lon="6.75213">
        <ele>112.61</ele>
        <time>2011-05-19T08:40:48Z</time>
      </trkpt>
      <trkpt lat="43.51671" lon="6.75213">
        <ele>111.17</ele>
        <time>2011-05-19T08:40:55Z</time>
      </trkpt>
      <trkpt lat="43.51672" lon="6.75213">
        <ele>111.65</ele>
        <time>2011-05-19T08:41:02Z</time>
      </trkpt>
      <trkpt lat="43.51674" lon="6.75212">
        <ele>113.57</ele>
        <time>2011-05-19T08:41:06Z</time>
      </trkpt>
      <trkpt lat="43.51684" lon="6.75206">
        <ele>114.53</ele>
        <time>2011-05-19T08:41:14Z</time>
      </trkpt>
      <trkpt lat="43.51695" lon="6.75192">
        <ele>116.94</ele>
        <time>2011-05-19T08:41:25Z</time>
      </trkpt>
      <trkpt lat="43.51696" lon="6.75191">
        <ele>113.09</ele>
        <time>2011-05-19T08:41:26Z</time>
      </trkpt>
      <trkpt lat="43.51697" lon="6.7519">
        <ele>117.42</ele>
        <time>2011-05-19T08:41:27Z</time>
      </trkpt>
      <trkpt lat="43.51717" lon="6.75178">
        <ele>120.3</ele>
        <time>2011-05-19T08:41:43Z</time>
      </trkpt>
      <trkpt lat="43.51744" lon="6.75174">
        <ele>123.67</ele>
        <time>2011-05-19T08:42:01Z</time>
      </trkpt>
      <trkpt lat="43.5176" lon="6.75174">
        <ele>123.67</ele>
        <time>2011-05-19T08:42:12Z</time>
      </trkpt>
      <trkpt lat="43.51777" lon="6.75169">
        <ele>127.51</ele>
        <time>2011-05-19T08:42:25Z</time>
      </trkpt>
      <trkpt lat="43.51791" lon="6.75161">
        <ele>127.51</ele>
        <time>2011-05-19T08:42:36Z</time>
      </trkpt>
      <trkpt lat="43.518" lon="6.75153">
        <ele>129.43</ele>
        <time>2011-05-19T08:42:45Z</time>
      </trkpt>
      <trkpt lat="43.51805" lon="6.75135">
        <ele>131.84</ele>
        <time>2011-05-19T08:42:57Z</time>
      </trkpt>
      <trkpt lat="43.51802" lon="6.75105">
        <ele>133.76</ele>
        <time>2011-05-19T08:43:14Z</time>
      </trkpt>
      <trkpt lat="43.51807" lon="6.75093">
        <ele>138.09</ele>
        <time>2011-05-19T08:43:21Z</time>
      </trkpt>
      <trkpt lat="43.51808" lon="6.75092">
        <ele>133.76</ele>
        <time>2011-05-19T08:43:22Z</time>
      </trkpt>
      <trkpt lat="43.51813" lon="6.75089">
        <ele>138.09</ele>
        <time>2011-05-19T08:43:26Z</time>
      </trkpt>
      <trkpt lat="43.51814" lon="6.75088">
        <ele>138.09</ele>
        <time>2011-05-19T08:43:27Z</time>
      </trkpt>
      <trkpt lat="43.51817" lon="6.75087">
        <ele>136.64</ele>
        <time>2011-05-19T08:43:30Z</time>
      </trkpt>
      <trkpt lat="43.51823" lon="6.75086">
        <ele>136.16</ele>
        <time>2011-05-19T08:43:35Z</time>
      </trkpt>
      <trkpt lat="43.51828" lon="6.75084">
        <ele>138.09</ele>
        <time>2011-05-19T08:43:39Z</time>
      </trkpt>
      <trkpt lat="43.51847" lon="6.75064">
        <ele>140.49</ele>
        <time>2011-05-19T08:43:59Z</time>
      </trkpt>
      <trkpt lat="43.51849" lon="6.7506">
        <ele>143.85</ele>
        <time>2011-05-19T08:44:02Z</time>
      </trkpt>
      <trkpt lat="43.5186" lon="6.75032">
        <ele>146.74</ele>
        <time>2011-05-19T08:44:18Z</time>
      </trkpt>
      <trkpt lat="43.5186" lon="6.7503">
        <ele>147.22</ele>
        <time>2011-05-19T08:44:19Z</time>
      </trkpt>
      <trkpt lat="43.5187" lon="6.75012">
        <ele>148.66</ele>
        <time>2011-05-19T08:44:33Z</time>
      </trkpt>
      <trkpt lat="43.51878" lon="6.75">
        <ele>150.58</ele>
        <time>2011-05-19T08:44:46Z</time>
      </trkpt>
      <trkpt lat="43.51879" lon="6.74998">
        <ele>148.66</ele>
        <time>2011-05-19T08:44:48Z</time>
      </trkpt>
      <trkpt lat="43.51884" lon="6.74989">
        <ele>152.51</ele>
        <time>2011-05-19T08:44:58Z</time>
      </trkpt>
      <trkpt lat="43.51887" lon="6.74984">
        <ele>150.58</ele>
        <time>2011-05-19T08:45:03Z</time>
      </trkpt>
      <trkpt lat="43.51889" lon="6.74979">
        <ele>152.03</ele>
        <time>2011-05-19T08:45:08Z</time>
      </trkpt>
      <trkpt lat="43.51895" lon="6.74967">
        <ele>154.43</ele>
        <time>2011-05-19T08:45:21Z</time>
      </trkpt>
      <trkpt lat="43.51904" lon="6.74947">
        <ele>154.43</ele>
        <time>2011-05-19T08:45:43Z</time>
      </trkpt>
      <trkpt lat="43.51908" lon="6.74942">
        <ele>159.24</ele>
        <time>2011-05-19T08:45:50Z</time>
      </trkpt>
      <trkpt lat="43.51908" lon="6.74941">
        <ele>159.24</ele>
        <time>2011-05-19T08:45:51Z</time>
      </trkpt>
      <trkpt lat="43.51911" lon="6.74938">
        <ele>155.87</ele>
        <time>2011-05-19T08:45:56Z</time>
      </trkpt>
      <trkpt lat="43.51912" lon="6.74937">
        <ele>159.24</ele>
        <time>2011-05-19T08:45:57Z</time>
      </trkpt>
      <trkpt lat="43.51922" lon="6.74919">
        <ele>159.24</ele>
        <time>2011-05-19T08:46:17Z</time>
      </trkpt>
      <trkpt lat="43.51927" lon="6.74914">
        <ele>162.12</ele>
        <time>2011-05-19T08:46:24Z</time>
      </trkpt>
      <trkpt lat="43.51936" lon="6.74901">
        <ele>162.6</ele>
        <time>2011-05-19T08:46:39Z</time>
      </trkpt>
      <trkpt lat="43.51936" lon="6.7489">
        <ele>161.16</ele>
        <time>2011-05-19T08:46:48Z</time>
      </trkpt>
      <trkpt lat="43.51936" lon="6.74888">
        <ele>164.04</ele>
        <time>2011-05-19T08:46:50Z</time>
      </trkpt>
      <trkpt lat="43.51935" lon="6.74886">
        <ele>161.64</ele>
        <time>2011-05-19T08:46:52Z</time>
      </trkpt>
      <trkpt lat="43.51932" lon="6.74882">
        <ele>162.6</ele>
        <time>2011-05-19T08:46:56Z</time>
      </trkpt>
      <trkpt lat="43.51917" lon="6.74877">
        <ele>165</ele>
        <time>2011-05-19T08:47:13Z</time>
      </trkpt>
      <trkpt lat="43.51896" lon="6.74868">
        <ele>165</ele>
        <time>2011-05-19T08:47:36Z</time>
      </trkpt>
      <trkpt lat="43.51894" lon="6.74866">
        <ele>165.96</ele>
        <time>2011-05-19T08:47:39Z</time>
      </trkpt>
      <trkpt lat="43.51887" lon="6.74857">
        <ele>165.96</ele>
        <time>2011-05-19T08:47:49Z</time>
      </trkpt>
      <trkpt lat="43.51884" lon="6.74852">
        <ele>165</ele>
        <time>2011-05-19T08:47:53Z</time>
      </trkpt>
      <trkpt lat="43.5188" lon="6.74835">
        <ele>170.29</ele>
        <time>2011-05-19T08:48:06Z</time>
      </trkpt>
      <trkpt lat="43.51877" lon="6.74803">
        <ele>170.29</ele>
        <time>2011-05-19T08:48:31Z</time>
      </trkpt>
      <trkpt lat="43.51878" lon="6.74787">
        <ele>173.17</ele>
        <time>2011-05-19T08:48:45Z</time>
      </trkpt>
      <trkpt lat="43.51886" lon="6.7476">
        <ele>175.1</ele>
        <time>2011-05-19T08:49:11Z</time>
      </trkpt>
      <trkpt lat="43.51893" lon="6.74735">
        <ele>176.54</ele>
        <time>2011-05-19T08:49:31Z</time>
      </trkpt>
      <trkpt lat="43.51896" lon="6.74707">
        <ele>177.98</ele>
        <time>2011-05-19T08:49:55Z</time>
      </trkpt>
      <trkpt lat="43.51896" lon="6.74703">
        <ele>178.46</ele>
        <time>2011-05-19T08:49:59Z</time>
      </trkpt>
      <trkpt lat="43.51899" lon="6.74684">
        <ele>181.83</ele>
        <time>2011-05-19T08:50:15Z</time>
      </trkpt>
      <trkpt lat="43.519" lon="6.74676">
        <ele>178.46</ele>
        <time>2011-05-19T08:50:21Z</time>
      </trkpt>
      <trkpt lat="43.519" lon="6.74674">
        <ele>181.83</ele>
        <time>2011-05-19T08:50:22Z</time>
      </trkpt>
      <trkpt lat="43.51899" lon="6.74663">
        <ele>182.31</ele>
        <time>2011-05-19T08:50:31Z</time>
      </trkpt>
      <trkpt lat="43.51897" lon="6.74648">
        <ele>183.75</ele>
        <time>2011-05-19T08:50:44Z</time>
      </trkpt>
      <trkpt lat="43.51891" lon="6.74624">
        <ele>186.63</ele>
        <time>2011-05-19T08:51:12Z</time>
      </trkpt>
      <trkpt lat="43.51891" lon="6.74624">
        <ele>187.59</ele>
        <time>2011-05-19T08:51:22Z</time>
      </trkpt>
      <trkpt lat="43.51887" lon="6.7461">
        <ele>189.52</ele>
        <time>2011-05-19T08:51:45Z</time>
      </trkpt>
      <trkpt lat="43.51882" lon="6.74594">
        <ele>190.96</ele>
        <time>2011-05-19T08:51:59Z</time>
      </trkpt>
      <trkpt lat="43.51882" lon="6.74593">
        <ele>187.11</ele>
        <time>2011-05-19T08:52:00Z</time>
      </trkpt>
      <trkpt lat="43.51882" lon="6.74592">
        <ele>191.44</ele>
        <time>2011-05-19T08:52:01Z</time>
      </trkpt>
      <trkpt lat="43.51881" lon="6.74588">
        <ele>188.08</ele>
        <time>2011-05-19T08:52:04Z</time>
      </trkpt>
      <trkpt lat="43.51884" lon="6.74567">
        <ele>189.04</ele>
        <time>2011-05-19T08:52:24Z</time>
      </trkpt>
      <trkpt lat="43.51892" lon="6.74561">
        <ele>192.4</ele>
        <time>2011-05-19T08:52:36Z</time>
      </trkpt>
      <trkpt lat="43.51908" lon="6.74554">
        <ele>193.84</ele>
        <time>2011-05-19T08:52:57Z</time>
      </trkpt>
      <trkpt lat="43.5191" lon="6.74553">
        <ele>191.44</ele>
        <time>2011-05-19T08:52:59Z</time>
      </trkpt>
      <trkpt lat="43.51912" lon="6.74552">
        <ele>195.77</ele>
        <time>2011-05-19T08:53:01Z</time>
      </trkpt>
      <trkpt lat="43.5193" lon="6.74544">
        <ele>194.32</ele>
        <time>2011-05-19T08:53:23Z</time>
      </trkpt>
      <trkpt lat="43.51934" lon="6.74543">
        <ele>197.69</ele>
        <time>2011-05-19T08:53:28Z</time>
      </trkpt>
      <trkpt lat="43.51934" lon="6.74543">
        <ele>194.32</ele>
        <time>2011-05-19T08:53:29Z</time>
      </trkpt>
      <trkpt lat="43.51936" lon="6.74543">
        <ele>198.17</ele>
        <time>2011-05-19T08:53:31Z</time>
      </trkpt>
      <trkpt lat="43.51956" lon="6.74535">
        <ele>199.61</ele>
        <time>2011-05-19T08:54:00Z</time>
      </trkpt>
      <trkpt lat="43.51957" lon="6.74535">
        <ele>201.05</ele>
        <time>2011-05-19T08:54:02Z</time>
      </trkpt>
      <trkpt lat="43.51973" lon="6.74537">
        <ele>202.49</ele>
        <time>2011-05-19T08:54:23Z</time>
      </trkpt>
      <trkpt lat="43.51975" lon="6.74538">
        <ele>201.05</ele>
        <time>2011-05-19T08:54:26Z</time>
      </trkpt>
      <trkpt lat="43.51978" lon="6.74539">
        <ele>204.9</ele>
        <time>2011-05-19T08:54:29Z</time>
      </trkpt>
      <trkpt lat="43.5198" lon="6.74541">
        <ele>202.98</ele>
        <time>2011-05-19T08:54:33Z</time>
      </trkpt>
      <trkpt lat="43.51982" lon="6.74543">
        <ele>201.53</ele>
        <time>2011-05-19T08:54:35Z</time>
      </trkpt>
      <trkpt lat="43.51985" lon="6.74548">
        <ele>204.9</ele>
        <time>2011-05-19T08:54:41Z</time>
      </trkpt>
      <trkpt lat="43.51992" lon="6.74563">
        <ele>204.42</ele>
        <time>2011-05-19T08:54:57Z</time>
      </trkpt>
      <trkpt lat="43.51996" lon="6.74583">
        <ele>209.22</ele>
        <time>2011-05-19T08:55:19Z</time>
      </trkpt>
      <trkpt lat="43.51997" lon="6.74587">
        <ele>206.34</ele>
        <time>2011-05-19T08:55:23Z</time>
      </trkpt>
      <trkpt lat="43.51998" lon="6.74588">
        <ele>206.82</ele>
        <time>2011-05-19T08:55:24Z</time>
      </trkpt>
      <trkpt lat="43.51998" lon="6.74589">
        <ele>207.78</ele>
        <time>2011-05-19T08:55:26Z</time>
      </trkpt>
      <trkpt lat="43.52012" lon="6.74607">
        <ele>207.78</ele>
        <time>2011-05-19T08:55:46Z</time>
      </trkpt>
      <trkpt lat="43.52018" lon="6.74616">
        <ele>211.15</ele>
        <time>2011-05-19T08:55:57Z</time>
      </trkpt>
      <trkpt lat="43.52019" lon="6.74619">
        <ele>209.7</ele>
        <time>2011-05-19T08:56:01Z</time>
      </trkpt>
      <trkpt lat="43.52026" lon="6.74632">
        <ele>213.07</ele>
        <time>2011-05-19T08:56:15Z</time>
      </trkpt>
      <trkpt lat="43.52026" lon="6.74633">
        <ele>213.07</ele>
        <time>2011-05-19T08:56:16Z</time>
      </trkpt>
      <trkpt lat="43.52031" lon="6.74642">
        <ele>212.59</ele>
        <time>2011-05-19T08:56:26Z</time>
      </trkpt>
      <trkpt lat="43.52035" lon="6.74648">
        <ele>211.63</ele>
        <time>2011-05-19T08:56:33Z</time>
      </trkpt>
      <trkpt lat="43.52039" lon="6.74652">
        <ele>213.55</ele>
        <time>2011-05-19T08:56:39Z</time>
      </trkpt>
      <trkpt lat="43.52046" lon="6.74669">
        <ele>215.95</ele>
        <time>2011-05-19T08:56:56Z</time>
      </trkpt>
      <trkpt lat="43.52056" lon="6.74688">
        <ele>218.36</ele>
        <time>2011-05-19T08:57:18Z</time>
      </trkpt>
      <trkpt lat="43.52057" lon="6.74691">
        <ele>216.91</ele>
        <time>2011-05-19T08:57:21Z</time>
      </trkpt>
      <trkpt lat="43.52065" lon="6.74706">
        <ele>220.28</ele>
        <time>2011-05-19T08:57:37Z</time>
      </trkpt>
      <trkpt lat="43.52076" lon="6.74731">
        <ele>220.28</ele>
        <time>2011-05-19T08:58:02Z</time>
      </trkpt>
      <trkpt lat="43.52078" lon="6.74739">
        <ele>222.68</ele>
        <time>2011-05-19T08:58:09Z</time>
      </trkpt>
      <trkpt lat="43.52078" lon="6.7474">
        <ele>223.64</ele>
        <time>2011-05-19T08:58:10Z</time>
      </trkpt>
      <trkpt lat="43.52082" lon="6.74762">
        <ele>222.68</ele>
        <time>2011-05-19T08:58:32Z</time>
      </trkpt>
      <trkpt lat="43.52082" lon="6.74763">
        <ele>225.57</ele>
        <time>2011-05-19T08:58:33Z</time>
      </trkpt>
      <trkpt lat="43.52082" lon="6.74776">
        <ele>226.05</ele>
        <time>2011-05-19T08:58:46Z</time>
      </trkpt>
      <trkpt lat="43.52089" lon="6.748">
        <ele>228.45</ele>
        <time>2011-05-19T08:59:07Z</time>
      </trkpt>
      <trkpt lat="43.52094" lon="6.74809">
        <ele>227.01</ele>
        <time>2011-05-19T08:59:16Z</time>
      </trkpt>
      <trkpt lat="43.52097" lon="6.74816">
        <ele>228.93</ele>
        <time>2011-05-19T08:59:24Z</time>
      </trkpt>
      <trkpt lat="43.52099" lon="6.7482">
        <ele>229.89</ele>
        <time>2011-05-19T08:59:28Z</time>
      </trkpt>
      <trkpt lat="43.52108" lon="6.74844">
        <ele>229.89</ele>
        <time>2011-05-19T08:59:53Z</time>
      </trkpt>
      <trkpt lat="43.52112" lon="6.74852">
        <ele>232.78</ele>
        <time>2011-05-19T09:00:03Z</time>
      </trkpt>
      <trkpt lat="43.52117" lon="6.7486">
        <ele>233.26</ele>
        <time>2011-05-19T09:00:11Z</time>
      </trkpt>
      <trkpt lat="43.52119" lon="6.74866">
        <ele>232.3</ele>
        <time>2011-05-19T09:00:18Z</time>
      </trkpt>
      <trkpt lat="43.5212" lon="6.74869">
        <ele>234.7</ele>
        <time>2011-05-19T09:00:21Z</time>
      </trkpt>
      <trkpt lat="43.52126" lon="6.74881">
        <ele>235.18</ele>
        <time>2011-05-19T09:00:33Z</time>
      </trkpt>
      <trkpt lat="43.52128" lon="6.7489">
        <ele>236.62</ele>
        <time>2011-05-19T09:00:43Z</time>
      </trkpt>
      <trkpt lat="43.52135" lon="6.74914">
        <ele>237.58</ele>
        <time>2011-05-19T09:01:06Z</time>
      </trkpt>
      <trkpt lat="43.52136" lon="6.7492">
        <ele>239.51</ele>
        <time>2011-05-19T09:01:11Z</time>
      </trkpt>
      <trkpt lat="43.52143" lon="6.74942">
        <ele>239.51</ele>
        <time>2011-05-19T09:01:31Z</time>
      </trkpt>
      <trkpt lat="43.52145" lon="6.74946">
        <ele>238.54</ele>
        <time>2011-05-19T09:01:35Z</time>
      </trkpt>
      <trkpt lat="43.52146" lon="6.74949">
        <ele>241.91</ele>
        <time>2011-05-19T09:01:38Z</time>
      </trkpt>
      <trkpt lat="43.52152" lon="6.74968">
        <ele>241.91</ele>
        <time>2011-05-19T09:01:57Z</time>
      </trkpt>
      <trkpt lat="43.5216" lon="6.74981">
        <ele>245.75</ele>
        <time>2011-05-19T09:02:12Z</time>
      </trkpt>
      <trkpt lat="43.52167" lon="6.74988">
        <ele>241.43</ele>
        <time>2011-05-19T09:02:22Z</time>
      </trkpt>
      <trkpt lat="43.52168" lon="6.74989">
        <ele>245.27</ele>
        <time>2011-05-19T09:02:23Z</time>
      </trkpt>
      <trkpt lat="43.52176" lon="6.75">
        <ele>245.75</ele>
        <time>2011-05-19T09:02:37Z</time>
      </trkpt>
      <trkpt lat="43.52188" lon="6.75016">
        <ele>249.12</ele>
        <time>2011-05-19T09:02:59Z</time>
      </trkpt>
      <trkpt lat="43.52195" lon="6.75023">
        <ele>248.64</ele>
        <time>2011-05-19T09:03:09Z</time>
      </trkpt>
      <trkpt lat="43.52207" lon="6.75042">
        <ele>250.56</ele>
        <time>2011-05-19T09:03:34Z</time>
      </trkpt>
      <trkpt lat="43.52211" lon="6.75053">
        <ele>252</ele>
        <time>2011-05-19T09:03:44Z</time>
      </trkpt>
      <trkpt lat="43.52209" lon="6.75074">
        <ele>251.52</ele>
        <time>2011-05-19T09:04:02Z</time>
      </trkpt>
      <trkpt lat="43.52208" lon="6.75078">
        <ele>253.44</ele>
        <time>2011-05-19T09:04:18Z</time>
      </trkpt>
      <trkpt lat="43.52208" lon="6.75083">
        <ele>253.44</ele>
        <time>2011-05-19T09:04:31Z</time>
      </trkpt>
      <trkpt lat="43.5221" lon="6.75078">
        <ele>252</ele>
        <time>2011-05-19T09:04:38Z</time>
      </trkpt>
      <trkpt lat="43.52208" lon="6.75073">
        <ele>253.44</ele>
        <time>2011-05-19T09:04:43Z</time>
      </trkpt>
      <trkpt lat="43.52208" lon="6.75073">
        <ele>253.44</ele>
        <time>2011-05-19T09:04:56Z</time>
      </trkpt>
      <trkpt lat="43.52208" lon="6.75073">
        <ele>252.96</ele>
        <time>2011-05-19T09:05:22Z</time>
      </trkpt>
      <trkpt lat="43.52209" lon="6.75075">
        <ele>253.93</ele>
        <time>2011-05-19T09:05:51Z</time>
      </trkpt>
      <trkpt lat="43.52208" lon="6.75072">
        <ele>253.44</ele>
        <time>2011-05-19T09:06:10Z</time>
      </trkpt>
      <trkpt lat="43.52208" lon="6.75072">
        <ele>253.44</ele>
        <time>2011-05-19T09:06:32Z</time>
      </trkpt>
      <trkpt lat="43.52208" lon="6.75072">
        <ele>252.48</ele>
        <time>2011-05-19T09:06:52Z</time>
      </trkpt>
      <trkpt lat="43.52207" lon="6.75073">
        <ele>251.04</ele>
        <time>2011-05-19T09:07:17Z</time>
      </trkpt>
      <trkpt lat="43.52206" lon="6.75073">
        <ele>254.41</ele>
        <time>2011-05-19T09:07:38Z</time>
      </trkpt>
      <trkpt lat="43.52206" lon="6.75073">
        <ele>253.44</ele>
        <time>2011-05-19T09:07:50Z</time>
      </trkpt>
      <trkpt lat="43.52206" lon="6.75073">
        <ele>252.96</ele>
        <time>2011-05-19T09:08:09Z</time>
      </trkpt>
      <trkpt lat="43.52209" lon="6.75074">
        <ele>253.44</ele>
        <time>2011-05-19T09:08:31Z</time>
      </trkpt>
      <trkpt lat="43.52208" lon="6.75072">
        <ele>252</ele>
        <time>2011-05-19T09:08:41Z</time>
      </trkpt>
      <trkpt lat="43.52208" lon="6.75073">
        <ele>252.48</ele>
        <time>2011-05-19T09:08:57Z</time>
      </trkpt>
      <trkpt lat="43.52209" lon="6.75073">
        <ele>253.93</ele>
        <time>2011-05-19T09:09:12Z</time>
      </trkpt>
      <trkpt lat="43.52209" lon="6.75074">
        <ele>252</ele>
        <time>2011-05-19T09:09:23Z</time>
      </trkpt>
      <trkpt lat="43.52208" lon="6.75074">
        <ele>252</ele>
        <time>2011-05-19T09:09:38Z</time>
      </trkpt>
      <trkpt lat="43.52207" lon="6.75088">
        <ele>253.93</ele>
        <time>2011-05-19T09:09:49Z</time>
      </trkpt>
      <trkpt lat="43.52214" lon="6.75101">
        <ele>253.93</ele>
        <time>2011-05-19T09:09:59Z</time>
      </trkpt>
      <trkpt lat="43.52222" lon="6.7511">
        <ele>256.81</ele>
        <time>2011-05-19T09:10:08Z</time>
      </trkpt>
      <trkpt lat="43.52222" lon="6.75111">
        <ele>256.81</ele>
        <time>2011-05-19T09:10:09Z</time>
      </trkpt>
      <trkpt lat="43.52226" lon="6.75114">
        <ele>256.33</ele>
        <time>2011-05-19T09:10:13Z</time>
      </trkpt>
      <trkpt lat="43.52237" lon="6.75119">
        <ele>258.25</ele>
        <time>2011-05-19T09:10:29Z</time>
      </trkpt>
      <trkpt lat="43.52242" lon="6.75121">
        <ele>260.17</ele>
        <time>2011-05-19T09:10:40Z</time>
      </trkpt>
      <trkpt lat="43.52252" lon="6.75129">
        <ele>260.65</ele>
        <time>2011-05-19T09:11:01Z</time>
      </trkpt>
      <trkpt lat="43.52268" lon="6.75135">
        <ele>262.58</ele>
        <time>2011-05-19T09:11:20Z</time>
      </trkpt>
      <trkpt lat="43.52269" lon="6.75136">
        <ele>263.54</ele>
        <time>2011-05-19T09:11:22Z</time>
      </trkpt>
      <trkpt lat="43.52276" lon="6.75134">
        <ele>265.94</ele>
        <time>2011-05-19T09:11:32Z</time>
      </trkpt>
      <trkpt lat="43.52284" lon="6.75125">
        <ele>267.38</ele>
        <time>2011-05-19T09:11:46Z</time>
      </trkpt>
      <trkpt lat="43.52286" lon="6.75117">
        <ele>268.35</ele>
        <time>2011-05-19T09:11:59Z</time>
      </trkpt>
      <trkpt lat="43.52286" lon="6.75117">
        <ele>268.35</ele>
        <time>2011-05-19T09:12:00Z</time>
      </trkpt>
      <trkpt lat="43.52302" lon="6.75097">
        <ele>268.83</ele>
        <time>2011-05-19T09:12:16Z</time>
      </trkpt>
      <trkpt lat="43.52319" lon="6.75076">
        <ele>270.75</ele>
        <time>2011-05-19T09:12:33Z</time>
      </trkpt>
      <trkpt lat="43.52339" lon="6.75052">
        <ele>272.67</ele>
        <time>2011-05-19T09:12:51Z</time>
      </trkpt>
      <trkpt lat="43.52349" lon="6.75034">
        <ele>274.59</ele>
        <time>2011-05-19T09:13:01Z</time>
      </trkpt>
      <trkpt lat="43.52363" lon="6.74991">
        <ele>277</ele>
        <time>2011-05-19T09:13:23Z</time>
      </trkpt>
      <trkpt lat="43.52379" lon="6.74956">
        <ele>279.88</ele>
        <time>2011-05-19T09:13:42Z</time>
      </trkpt>
      <trkpt lat="43.5238" lon="6.74954">
        <ele>280.36</ele>
        <time>2011-05-19T09:13:43Z</time>
      </trkpt>
      <trkpt lat="43.52402" lon="6.74921">
        <ele>282.28</ele>
        <time>2011-05-19T09:14:04Z</time>
      </trkpt>
      <trkpt lat="43.52407" lon="6.74915">
        <ele>282.28</ele>
        <time>2011-05-19T09:14:08Z</time>
      </trkpt>
      <trkpt lat="43.5242" lon="6.7491">
        <ele>282.28</ele>
        <time>2011-05-19T09:14:19Z</time>
      </trkpt>
      <trkpt lat="43.52419" lon="6.749">
        <ele>281.8</ele>
        <time>2011-05-19T09:14:25Z</time>
      </trkpt>
      <trkpt lat="43.52413" lon="6.74908">
        <ele>281.8</ele>
        <time>2011-05-19T09:14:34Z</time>
      </trkpt>
      <trkpt lat="43.52414" lon="6.74908">
        <ele>281.8</ele>
        <time>2011-05-19T09:14:35Z</time>
      </trkpt>
      <trkpt lat="43.52442" lon="6.74876">
        <ele>281.8</ele>
        <time>2011-05-19T09:14:53Z</time>
      </trkpt>
      <trkpt lat="43.52471" lon="6.74852">
        <ele>283.25</ele>
        <time>2011-05-19T09:15:14Z</time>
      </trkpt>
      <trkpt lat="43.52497" lon="6.74826">
        <ele>285.17</ele>
        <time>2011-05-19T09:15:35Z</time>
      </trkpt>
      <trkpt lat="43.52524" lon="6.74814">
        <ele>286.61</ele>
        <time>2011-05-19T09:15:50Z</time>
      </trkpt>
      <trkpt lat="43.52551" lon="6.74792">
        <ele>288.53</ele>
        <time>2011-05-19T09:16:08Z</time>
      </trkpt>
      <trkpt lat="43.52574" lon="6.74723">
        <ele>287.57</ele>
        <time>2011-05-19T09:16:27Z</time>
      </trkpt>
      <trkpt lat="43.52587" lon="6.7469">
        <ele>287.57</ele>
        <time>2011-05-19T09:16:34Z</time>
      </trkpt>
      <trkpt lat="43.52617" lon="6.74652">
        <ele>288.05</ele>
        <time>2011-05-19T09:16:46Z</time>
      </trkpt>
      <trkpt lat="43.52645" lon="6.74642">
        <ele>290.46</ele>
        <time>2011-05-19T09:16:55Z</time>
      </trkpt>
      <trkpt lat="43.52699" lon="6.74643">
        <ele>290.94</ele>
        <time>2011-05-19T09:17:13Z</time>
      </trkpt>
      <trkpt lat="43.52708" lon="6.74645">
        <ele>290.46</ele>
        <time>2011-05-19T09:17:17Z</time>
      </trkpt>
      <trkpt lat="43.5271" lon="6.74635">
        <ele>289.01</ele>
        <time>2011-05-19T09:17:26Z</time>
      </trkpt>
      <trkpt lat="43.52705" lon="6.74629">
        <ele>289.49</ele>
        <time>2011-05-19T09:17:37Z</time>
      </trkpt>
      <trkpt lat="43.52705" lon="6.74629">
        <ele>289.49</ele>
        <time>2011-05-19T09:17:54Z</time>
      </trkpt>
      <trkpt lat="43.52705" lon="6.7463">
        <ele>290.94</ele>
        <time>2011-05-19T09:17:58Z</time>
      </trkpt>
      <trkpt lat="43.52704" lon="6.74632">
        <ele>291.9</ele>
        <time>2011-05-19T09:18:00Z</time>
      </trkpt>
      <trkpt lat="43.52705" lon="6.74635">
        <ele>290.94</ele>
        <time>2011-05-19T09:18:02Z</time>
      </trkpt>
      <trkpt lat="43.52727" lon="6.74651">
        <ele>291.42</ele>
        <time>2011-05-19T09:18:15Z</time>
      </trkpt>
      <trkpt lat="43.52759" lon="6.74679">
        <ele>293.34</ele>
        <time>2011-05-19T09:18:36Z</time>
      </trkpt>
      <trkpt lat="43.52765" lon="6.74685">
        <ele>294.78</ele>
        <time>2011-05-19T09:18:41Z</time>
      </trkpt>
      <trkpt lat="43.52786" lon="6.74701">
        <ele>298.15</ele>
        <time>2011-05-19T09:18:59Z</time>
      </trkpt>
      <trkpt lat="43.5281" lon="6.74705">
        <ele>301.03</ele>
        <time>2011-05-19T09:19:18Z</time>
      </trkpt>
      <trkpt lat="43.52832" lon="6.74696">
        <ele>301.99</ele>
        <time>2011-05-19T09:19:36Z</time>
      </trkpt>
      <trkpt lat="43.52857" lon="6.74704">
        <ele>302.95</ele>
        <time>2011-05-19T09:19:53Z</time>
      </trkpt>
      <trkpt lat="43.52886" lon="6.74722">
        <ele>300.55</ele>
        <time>2011-05-19T09:20:07Z</time>
      </trkpt>
      <trkpt lat="43.52894" lon="6.74719">
        <ele>300.55</ele>
        <time>2011-05-19T09:20:09Z</time>
      </trkpt>
      <trkpt lat="43.52909" lon="6.74698">
        <ele>299.59</ele>
        <time>2011-05-19T09:20:14Z</time>
      </trkpt>
      <trkpt lat="43.52927" lon="6.74654">
        <ele>296.7</ele>
        <time>2011-05-19T09:20:22Z</time>
      </trkpt>
      <trkpt lat="43.52965" lon="6.74616">
        <ele>293.82</ele>
        <time>2011-05-19T09:20:29Z</time>
      </trkpt>
      <trkpt lat="43.52978" lon="6.74615">
        <ele>294.3</ele>
        <time>2011-05-19T09:20:31Z</time>
      </trkpt>
      <trkpt lat="43.53008" lon="6.74636">
        <ele>289.01</ele>
        <time>2011-05-19T09:20:37Z</time>
      </trkpt>
      <trkpt lat="43.53017" lon="6.74667">
        <ele>289.01</ele>
        <time>2011-05-19T09:20:41Z</time>
      </trkpt>
      <trkpt lat="43.53053" lon="6.74682">
        <ele>286.61</ele>
        <time>2011-05-19T09:20:49Z</time>
      </trkpt>
      <trkpt lat="43.53059" lon="6.74677">
        <ele>287.57</ele>
        <time>2011-05-19T09:20:50Z</time>
      </trkpt>
      <trkpt lat="43.53075" lon="6.74662">
        <ele>285.65</ele>
        <time>2011-05-19T09:20:53Z</time>
      </trkpt>
      <trkpt lat="43.53096" lon="6.74636">
        <ele>282.28</ele>
        <time>2011-05-19T09:20:58Z</time>
      </trkpt>
      <trkpt lat="43.53111" lon="6.74652">
        <ele>278.92</ele>
        <time>2011-05-19T09:21:07Z</time>
      </trkpt>
      <trkpt lat="43.53109" lon="6.74658">
        <ele>279.4</ele>
        <time>2011-05-19T09:21:08Z</time>
      </trkpt>
      <trkpt lat="43.53107" lon="6.74672">
        <ele>277.48</ele>
        <time>2011-05-19T09:21:10Z</time>
      </trkpt>
      <trkpt lat="43.53115" lon="6.74701">
        <ele>276.04</ele>
        <time>2011-05-19T09:21:14Z</time>
      </trkpt>
      <trkpt lat="43.5314" lon="6.74728">
        <ele>274.11</ele>
        <time>2011-05-19T09:21:19Z</time>
      </trkpt>
      <trkpt lat="43.53153" lon="6.74742">
        <ele>273.63</ele>
        <time>2011-05-19T09:21:22Z</time>
      </trkpt>
      <trkpt lat="43.53212" lon="6.74772">
        <ele>270.27</ele>
        <time>2011-05-19T09:21:34Z</time>
      </trkpt>
      <trkpt lat="43.53218" lon="6.74775">
        <ele>270.75</ele>
        <time>2011-05-19T09:21:37Z</time>
      </trkpt>
      <trkpt lat="43.53222" lon="6.74778">
        <ele>270.75</ele>
        <time>2011-05-19T09:21:55Z</time>
      </trkpt>
      <trkpt lat="43.5322" lon="6.74777">
        <ele>269.79</ele>
        <time>2011-05-19T09:24:40Z</time>
      </trkpt>
      <trkpt lat="43.5322" lon="6.74777">
        <ele>270.75</ele>
        <time>2011-05-19T09:24:42Z</time>
      </trkpt>
      <trkpt lat="43.5322" lon="6.74777">
        <ele>269.79</ele>
        <time>2011-05-19T09:25:34Z</time>
      </trkpt>
      <trkpt lat="43.5322" lon="6.74777">
        <ele>269.79</ele>
        <time>2011-05-19T09:25:47Z</time>
      </trkpt>
      <trkpt lat="43.5322" lon="6.74777">
        <ele>271.23</ele>
        <time>2011-05-19T09:25:50Z</time>
      </trkpt>
      <trkpt lat="43.5322" lon="6.74777">
        <ele>270.75</ele>
        <time>2011-05-19T09:25:52Z</time>
      </trkpt>
      <trkpt lat="43.53223" lon="6.74775">
        <ele>271.23</ele>
        <time>2011-05-19T09:26:08Z</time>
      </trkpt>
      <trkpt lat="43.53223" lon="6.74774">
        <ele>269.79</ele>
        <time>2011-05-19T09:26:16Z</time>
      </trkpt>
      <trkpt lat="43.53234" lon="6.74785">
        <ele>268.83</ele>
        <time>2011-05-19T09:26:34Z</time>
      </trkpt>
      <trkpt lat="43.53234" lon="6.74784">
        <ele>271.71</ele>
        <time>2011-05-19T09:26:43Z</time>
      </trkpt>
      <trkpt lat="43.53232" lon="6.74778">
        <ele>269.31</ele>
        <time>2011-05-19T09:26:55Z</time>
      </trkpt>
      <trkpt lat="43.53237" lon="6.74784">
        <ele>272.67</ele>
        <time>2011-05-19T09:27:09Z</time>
      </trkpt>
      <trkpt lat="43.53238" lon="6.74785">
        <ele>270.27</ele>
        <time>2011-05-19T09:27:12Z</time>
      </trkpt>
      <trkpt lat="43.5324" lon="6.74787">
        <ele>271.71</ele>
        <time>2011-05-19T09:27:15Z</time>
      </trkpt>
      <trkpt lat="43.53246" lon="6.74791">
        <ele>270.75</ele>
        <time>2011-05-19T09:27:30Z</time>
      </trkpt>
      <trkpt lat="43.53245" lon="6.74792">
        <ele>272.19</ele>
        <time>2011-05-19T09:27:46Z</time>
      </trkpt>
      <trkpt lat="43.53243" lon="6.74794">
        <ele>270.75</ele>
        <time>2011-05-19T09:28:03Z</time>
      </trkpt>
      <trkpt lat="43.53234" lon="6.74788">
        <ele>272.19</ele>
        <time>2011-05-19T09:28:19Z</time>
      </trkpt>
      <trkpt lat="43.53234" lon="6.74789">
        <ele>272.19</ele>
        <time>2011-05-19T09:28:40Z</time>
      </trkpt>
      <trkpt lat="43.53234" lon="6.74788">
        <ele>269.79</ele>
        <time>2011-05-19T09:29:06Z</time>
      </trkpt>
      <trkpt lat="43.53234" lon="6.74788">
        <ele>273.15</ele>
        <time>2011-05-19T09:29:11Z</time>
      </trkpt>
      <trkpt lat="43.53234" lon="6.74788">
        <ele>269.79</ele>
        <time>2011-05-19T09:29:30Z</time>
      </trkpt>
      <trkpt lat="43.53234" lon="6.74788">
        <ele>273.15</ele>
        <time>2011-05-19T09:29:36Z</time>
      </trkpt>
      <trkpt lat="43.53234" lon="6.74788">
        <ele>271.71</ele>
        <time>2011-05-19T09:29:37Z</time>
      </trkpt>
      <trkpt lat="43.53234" lon="6.74789">
        <ele>271.71</ele>
        <time>2011-05-19T09:29:47Z</time>
      </trkpt>
      <trkpt lat="43.53234" lon="6.74789">
        <ele>271.23</ele>
        <time>2011-05-19T09:30:07Z</time>
      </trkpt>
      <trkpt lat="43.53234" lon="6.74788">
        <ele>273.15</ele>
        <time>2011-05-19T09:30:44Z</time>
      </trkpt>
      <trkpt lat="43.53234" lon="6.74788">
        <ele>269.79</ele>
        <time>2011-05-19T09:30:45Z</time>
      </trkpt>
      <trkpt lat="43.53234" lon="6.74788">
        <ele>270.75</ele>
        <time>2011-05-19T09:30:46Z</time>
      </trkpt>
      <trkpt lat="43.53234" lon="6.74788">
        <ele>270.75</ele>
        <time>2011-05-19T09:31:13Z</time>
      </trkpt>
      <trkpt lat="43.53235" lon="6.74787">
        <ele>273.15</ele>
        <time>2011-05-19T09:31:41Z</time>
      </trkpt>
      <trkpt lat="43.53235" lon="6.74787">
        <ele>271.71</ele>
        <time>2011-05-19T09:31:48Z</time>
      </trkpt>
      <trkpt lat="43.53235" lon="6.74787">
        <ele>273.15</ele>
        <time>2011-05-19T09:31:56Z</time>
      </trkpt>
      <trkpt lat="43.53235" lon="6.74787">
        <ele>269.31</ele>
        <time>2011-05-19T09:32:01Z</time>
      </trkpt>
      <trkpt lat="43.53235" lon="6.74787">
        <ele>272.19</ele>
        <time>2011-05-19T09:32:08Z</time>
      </trkpt>
      <trkpt lat="43.53235" lon="6.74787">
        <ele>275.56</ele>
        <time>2011-05-19T09:32:24Z</time>
      </trkpt>
      <trkpt lat="43.53235" lon="6.74787">
        <ele>271.71</ele>
        <time>2011-05-19T09:32:25Z</time>
      </trkpt>
      <trkpt lat="43.53235" lon="6.74787">
        <ele>267.38</ele>
        <time>2011-05-19T09:32:36Z</time>
      </trkpt>
      <trkpt lat="43.53235" lon="6.74787">
        <ele>271.71</ele>
        <time>2011-05-19T09:32:37Z</time>
      </trkpt>
      <trkpt lat="43.53235" lon="6.74786">
        <ele>271.71</ele>
        <time>2011-05-19T09:32:50Z</time>
      </trkpt>
      <trkpt lat="43.53235" lon="6.74786">
        <ele>267.38</ele>
        <time>2011-05-19T09:33:16Z</time>
      </trkpt>
      <trkpt lat="43.53235" lon="6.74786">
        <ele>271.23</ele>
        <time>2011-05-19T09:33:17Z</time>
      </trkpt>
      <trkpt lat="43.53235" lon="6.74786">
        <ele>272.67</ele>
        <time>2011-05-19T09:33:22Z</time>
      </trkpt>
      <trkpt lat="43.53235" lon="6.74786">
        <ele>270.75</ele>
        <time>2011-05-19T09:33:25Z</time>
      </trkpt>
      <trkpt lat="43.53235" lon="6.74786">
        <ele>271.71</ele>
        <time>2011-05-19T09:33:27Z</time>
      </trkpt>
      <trkpt lat="43.53235" lon="6.74786">
        <ele>270.75</ele>
        <time>2011-05-19T09:33:34Z</time>
      </trkpt>
      <trkpt lat="43.53235" lon="6.74786">
        <ele>270.75</ele>
        <time>2011-05-19T09:34:08Z</time>
      </trkpt>
      <trkpt lat="43.53235" lon="6.74786">
        <ele>271.71</ele>
        <time>2011-05-19T09:34:16Z</time>
      </trkpt>
      <trkpt lat="43.53235" lon="6.74786">
        <ele>270.75</ele>
        <time>2011-05-19T09:34:34Z</time>
      </trkpt>
      <trkpt lat="43.53236" lon="6.74786">
        <ele>271.23</ele>
        <time>2011-05-19T09:35:26Z</time>
      </trkpt>
      <trkpt lat="43.53236" lon="6.74786">
        <ele>272.19</ele>
        <time>2011-05-19T09:35:30Z</time>
      </trkpt>
      <trkpt lat="43.53236" lon="6.74786">
        <ele>271.71</ele>
        <time>2011-05-19T09:35:48Z</time>
      </trkpt>
      <trkpt lat="43.53236" lon="6.74786">
        <ele>268.83</ele>
        <time>2011-05-19T09:36:33Z</time>
      </trkpt>
      <trkpt lat="43.53236" lon="6.74786">
        <ele>272.67</ele>
        <time>2011-05-19T09:36:34Z</time>
      </trkpt>
      <trkpt lat="43.53236" lon="6.74786">
        <ele>271.71</ele>
        <time>2011-05-19T09:36:38Z</time>
      </trkpt>
      <trkpt lat="43.53236" lon="6.74786">
        <ele>270.75</ele>
        <time>2011-05-19T09:36:44Z</time>
      </trkpt>
      <trkpt lat="43.53236" lon="6.74786">
        <ele>270.75</ele>
        <time>2011-05-19T09:36:55Z</time>
      </trkpt>
      <trkpt lat="43.53236" lon="6.74786">
        <ele>271.71</ele>
        <time>2011-05-19T09:37:07Z</time>
      </trkpt>
      <trkpt lat="43.53236" lon="6.74786">
        <ele>271.23</ele>
        <time>2011-05-19T09:37:13Z</time>
      </trkpt>
      <trkpt lat="43.53236" lon="6.74786">
        <ele>275.56</ele>
        <time>2011-05-19T09:37:23Z</time>
      </trkpt>
      <trkpt lat="43.53236" lon="6.74786">
        <ele>270.75</ele>
        <time>2011-05-19T09:37:24Z</time>
      </trkpt>
      <trkpt lat="43.53236" lon="6.74786">
        <ele>271.71</ele>
        <time>2011-05-19T09:37:25Z</time>
      </trkpt>
      <trkpt lat="43.53236" lon="6.74787">
        <ele>273.15</ele>
        <time>2011-05-19T09:37:43Z</time>
      </trkpt>
      <trkpt lat="43.53236" lon="6.74787">
        <ele>271.71</ele>
        <time>2011-05-19T09:37:45Z</time>
      </trkpt>
      <trkpt lat="43.53236" lon="6.74787">
        <ele>271.23</ele>
        <time>2011-05-19T09:37:57Z</time>
      </trkpt>
      <trkpt lat="43.53236" lon="6.74787">
        <ele>273.15</ele>
        <time>2011-05-19T09:38:27Z</time>
      </trkpt>
      <trkpt lat="43.53236" lon="6.74787">
        <ele>271.23</ele>
        <time>2011-05-19T09:38:29Z</time>
      </trkpt>
      <trkpt lat="43.53236" lon="6.74787">
        <ele>270.75</ele>
        <time>2011-05-19T09:38:46Z</time>
      </trkpt>
      <trkpt lat="43.53236" lon="6.74787">
        <ele>270.75</ele>
        <time>2011-05-19T09:38:50Z</time>
      </trkpt>
      <trkpt lat="43.53235" lon="6.74787">
        <ele>270.75</ele>
        <time>2011-05-19T09:39:00Z</time>
      </trkpt>
      <trkpt lat="43.53235" lon="6.74787">
        <ele>274.11</ele>
        <time>2011-05-19T09:39:21Z</time>
      </trkpt>
      <trkpt lat="43.53235" lon="6.74787">
        <ele>271.23</ele>
        <time>2011-05-19T09:39:22Z</time>
      </trkpt>
      <trkpt lat="43.53235" lon="6.74787">
        <ele>271.23</ele>
        <time>2011-05-19T09:39:23Z</time>
      </trkpt>
      <trkpt lat="43.53235" lon="6.74787">
        <ele>271.71</ele>
        <time>2011-05-19T09:39:28Z</time>
      </trkpt>
      <trkpt lat="43.53235" lon="6.74787">
        <ele>273.15</ele>
        <time>2011-05-19T09:39:40Z</time>
      </trkpt>
      <trkpt lat="43.53235" lon="6.74787">
        <ele>269.31</ele>
        <time>2011-05-19T09:39:57Z</time>
      </trkpt>
      <trkpt lat="43.53235" lon="6.74787">
        <ele>273.15</ele>
        <time>2011-05-19T09:39:58Z</time>
      </trkpt>
      <trkpt lat="43.53235" lon="6.74787">
        <ele>269.79</ele>
        <time>2011-05-19T09:40:25Z</time>
      </trkpt>
      <trkpt lat="43.53235" lon="6.74786">
        <ele>274.11</ele>
        <time>2011-05-19T09:40:30Z</time>
      </trkpt>
      <trkpt lat="43.53235" lon="6.74786">
        <ele>269.79</ele>
        <time>2011-05-19T09:40:32Z</time>
      </trkpt>
      <trkpt lat="43.53235" lon="6.74786">
        <ele>271.71</ele>
        <time>2011-05-19T09:40:33Z</time>
      </trkpt>
      <trkpt lat="43.53234" lon="6.74783">
        <ele>273.63</ele>
        <time>2011-05-19T09:42:03Z</time>
      </trkpt>
      <trkpt lat="43.53245" lon="6.7479">
        <ele>271.71</ele>
        <time>2011-05-19T09:42:19Z</time>
      </trkpt>
      <trkpt lat="43.53246" lon="6.74791">
        <ele>271.23</ele>
        <time>2011-05-19T09:42:38Z</time>
      </trkpt>
      <trkpt lat="43.53246" lon="6.74791">
        <ele>272.67</ele>
        <time>2011-05-19T09:42:45Z</time>
      </trkpt>
      <trkpt lat="43.53246" lon="6.74791">
        <ele>270.27</ele>
        <time>2011-05-19T09:42:47Z</time>
      </trkpt>
      <trkpt lat="43.53246" lon="6.74791">
        <ele>272.67</ele>
        <time>2011-05-19T09:42:52Z</time>
      </trkpt>
      <trkpt lat="43.53246" lon="6.74791">
        <ele>269.31</ele>
        <time>2011-05-19T09:43:01Z</time>
      </trkpt>
      <trkpt lat="43.53246" lon="6.74791">
        <ele>273.15</ele>
        <time>2011-05-19T09:43:02Z</time>
      </trkpt>
      <trkpt lat="43.53246" lon="6.74791">
        <ele>269.79</ele>
        <time>2011-05-19T09:43:07Z</time>
      </trkpt>
      <trkpt lat="43.53246" lon="6.74791">
        <ele>272.67</ele>
        <time>2011-05-19T09:43:08Z</time>
      </trkpt>
      <trkpt lat="43.53246" lon="6.74791">
        <ele>273.15</ele>
        <time>2011-05-19T09:43:29Z</time>
      </trkpt>
      <trkpt lat="43.53247" lon="6.74791">
        <ele>271.71</ele>
        <time>2011-05-19T09:43:40Z</time>
      </trkpt>
      <trkpt lat="43.53248" lon="6.74793">
        <ele>268.35</ele>
        <time>2011-05-19T09:43:52Z</time>
      </trkpt>
      <trkpt lat="43.53248" lon="6.74793">
        <ele>272.67</ele>
        <time>2011-05-19T09:43:53Z</time>
      </trkpt>
      <trkpt lat="43.53248" lon="6.74793">
        <ele>268.83</ele>
        <time>2011-05-19T09:44:05Z</time>
      </trkpt>
      <trkpt lat="43.53248" lon="6.74793">
        <ele>274.11</ele>
        <time>2011-05-19T09:44:06Z</time>
      </trkpt>
      <trkpt lat="43.53248" lon="6.74793">
        <ele>270.75</ele>
        <time>2011-05-19T09:44:09Z</time>
      </trkpt>
      <trkpt lat="43.53248" lon="6.74793">
        <ele>271.23</ele>
        <time>2011-05-19T09:44:20Z</time>
      </trkpt>
      <trkpt lat="43.53246" lon="6.74792">
        <ele>270.75</ele>
        <time>2011-05-19T09:44:23Z</time>
      </trkpt>
      <trkpt lat="43.53239" lon="6.7479">
        <ele>275.07</ele>
        <time>2011-05-19T09:44:29Z</time>
      </trkpt>
      <trkpt lat="43.53238" lon="6.7479">
        <ele>268.83</ele>
        <time>2011-05-19T09:44:30Z</time>
      </trkpt>
      <trkpt lat="43.53234" lon="6.74789">
        <ele>272.67</ele>
        <time>2011-05-19T09:44:34Z</time>
      </trkpt>
      <trkpt lat="43.53232" lon="6.74789">
        <ele>271.23</ele>
        <time>2011-05-19T09:44:40Z</time>
      </trkpt>
      <trkpt lat="43.53233" lon="6.74788">
        <ele>271.71</ele>
        <time>2011-05-19T09:44:49Z</time>
      </trkpt>
      <trkpt lat="43.53235" lon="6.74785">
        <ele>271.71</ele>
        <time>2011-05-19T09:45:05Z</time>
      </trkpt>
      <trkpt lat="43.53235" lon="6.74785">
        <ele>271.71</ele>
        <time>2011-05-19T09:45:22Z</time>
      </trkpt>
      <trkpt lat="43.53235" lon="6.74785">
        <ele>272.67</ele>
        <time>2011-05-19T09:45:47Z</time>
      </trkpt>
      <trkpt lat="43.53235" lon="6.74786">
        <ele>270.75</ele>
        <time>2011-05-19T09:46:04Z</time>
      </trkpt>
      <trkpt lat="43.53235" lon="6.74786">
        <ele>274.59</ele>
        <time>2011-05-19T09:46:20Z</time>
      </trkpt>
      <trkpt lat="43.53235" lon="6.74786">
        <ele>271.71</ele>
        <time>2011-05-19T09:46:22Z</time>
      </trkpt>
      <trkpt lat="43.53235" lon="6.74786">
        <ele>273.63</ele>
        <time>2011-05-19T09:46:39Z</time>
      </trkpt>
      <trkpt lat="43.53235" lon="6.74786">
        <ele>271.71</ele>
        <time>2011-05-19T09:46:42Z</time>
      </trkpt>
      <trkpt lat="43.53235" lon="6.74786">
        <ele>271.23</ele>
        <time>2011-05-19T09:46:48Z</time>
      </trkpt>
      <trkpt lat="43.53235" lon="6.74786">
        <ele>273.15</ele>
        <time>2011-05-19T09:47:15Z</time>
      </trkpt>
      <trkpt lat="43.53235" lon="6.74786">
        <ele>270.27</ele>
        <time>2011-05-19T09:47:20Z</time>
      </trkpt>
      <trkpt lat="43.53235" lon="6.74786">
        <ele>271.71</ele>
        <time>2011-05-19T09:47:23Z</time>
      </trkpt>
      <trkpt lat="43.53235" lon="6.74786">
        <ele>271.23</ele>
        <time>2011-05-19T09:47:35Z</time>
      </trkpt>
      <trkpt lat="43.53243" lon="6.7479">
        <ele>272.19</ele>
        <time>2011-05-19T09:47:47Z</time>
      </trkpt>
      <trkpt lat="43.53247" lon="6.74792">
        <ele>271.71</ele>
        <time>2011-05-19T09:48:01Z</time>
      </trkpt>
      <trkpt lat="43.53247" lon="6.74791">
        <ele>271.71</ele>
        <time>2011-05-19T09:48:07Z</time>
      </trkpt>
      <trkpt lat="43.53247" lon="6.74791">
        <ele>274.59</ele>
        <time>2011-05-19T09:48:12Z</time>
      </trkpt>
      <trkpt lat="43.53247" lon="6.74791">
        <ele>271.23</ele>
        <time>2011-05-19T09:48:18Z</time>
      </trkpt>
      <trkpt lat="43.53247" lon="6.74791">
        <ele>272.67</ele>
        <time>2011-05-19T09:48:31Z</time>
      </trkpt>
      <trkpt lat="43.53247" lon="6.74791">
        <ele>269.31</ele>
        <time>2011-05-19T09:48:32Z</time>
      </trkpt>
      <trkpt lat="43.53247" lon="6.74791">
        <ele>273.15</ele>
        <time>2011-05-19T09:48:36Z</time>
      </trkpt>
      <trkpt lat="43.53247" lon="6.74791">
        <ele>269.79</ele>
        <time>2011-05-19T09:48:40Z</time>
      </trkpt>
      <trkpt lat="43.53247" lon="6.74791">
        <ele>273.15</ele>
        <time>2011-05-19T09:48:41Z</time>
      </trkpt>
      <trkpt lat="43.53247" lon="6.74791">
        <ele>273.15</ele>
        <time>2011-05-19T09:48:45Z</time>
      </trkpt>
      <trkpt lat="43.53247" lon="6.74791">
        <ele>269.31</ele>
        <time>2011-05-19T09:48:47Z</time>
      </trkpt>
      <trkpt lat="43.53247" lon="6.74791">
        <ele>271.23</ele>
        <time>2011-05-19T09:48:48Z</time>
      </trkpt>
      <trkpt lat="43.53247" lon="6.74791">
        <ele>274.11</ele>
        <time>2011-05-19T09:48:50Z</time>
      </trkpt>
      <trkpt lat="43.53244" lon="6.7479">
        <ele>273.15</ele>
        <time>2011-05-19T09:48:54Z</time>
      </trkpt>
      <trkpt lat="43.53236" lon="6.74786">
        <ele>269.31</ele>
        <time>2011-05-19T09:49:02Z</time>
      </trkpt>
      <trkpt lat="43.53235" lon="6.74787">
        <ele>272.67</ele>
        <time>2011-05-19T09:49:08Z</time>
      </trkpt>
      <trkpt lat="43.53236" lon="6.74787">
        <ele>269.31</ele>
        <time>2011-05-19T09:49:11Z</time>
      </trkpt>
      <trkpt lat="43.53237" lon="6.74786">
        <ele>275.07</ele>
        <time>2011-05-19T09:49:23Z</time>
      </trkpt>
      <trkpt lat="43.53237" lon="6.74786">
        <ele>270.27</ele>
        <time>2011-05-19T09:49:24Z</time>
      </trkpt>
      <trkpt lat="43.53237" lon="6.74786">
        <ele>273.63</ele>
        <time>2011-05-19T09:49:29Z</time>
      </trkpt>
      <trkpt lat="43.53237" lon="6.74786">
        <ele>270.75</ele>
        <time>2011-05-19T09:49:38Z</time>
      </trkpt>
      <trkpt lat="43.53236" lon="6.74786">
        <ele>272.19</ele>
        <time>2011-05-19T09:49:44Z</time>
      </trkpt>
      <trkpt lat="43.53238" lon="6.74783">
        <ele>273.15</ele>
        <time>2011-05-19T09:49:57Z</time>
      </trkpt>
      <trkpt lat="43.53238" lon="6.74783">
        <ele>269.79</ele>
        <time>2011-05-19T09:50:02Z</time>
      </trkpt>
      <trkpt lat="43.53238" lon="6.74784">
        <ele>273.63</ele>
        <time>2011-05-19T09:50:04Z</time>
      </trkpt>
      <trkpt lat="43.53238" lon="6.74784">
        <ele>270.27</ele>
        <time>2011-05-19T09:50:05Z</time>
      </trkpt>
      <trkpt lat="43.53238" lon="6.74784">
        <ele>274.11</ele>
        <time>2011-05-19T09:50:15Z</time>
      </trkpt>
      <trkpt lat="43.53238" lon="6.74784">
        <ele>270.75</ele>
        <time>2011-05-19T09:50:17Z</time>
      </trkpt>
      <trkpt lat="43.53238" lon="6.74784">
        <ele>272.67</ele>
        <time>2011-05-19T09:50:22Z</time>
      </trkpt>
      <trkpt lat="43.53238" lon="6.74784">
        <ele>272.67</ele>
        <time>2011-05-19T09:51:00Z</time>
      </trkpt>
      <trkpt lat="43.53238" lon="6.74784">
        <ele>271.23</ele>
        <time>2011-05-19T09:51:03Z</time>
      </trkpt>
      <trkpt lat="43.53238" lon="6.74784">
        <ele>270.75</ele>
        <time>2011-05-19T09:51:09Z</time>
      </trkpt>
      <trkpt lat="43.53238" lon="6.74784">
        <ele>271.23</ele>
        <time>2011-05-19T09:51:16Z</time>
      </trkpt>
      <trkpt lat="43.53238" lon="6.74784">
        <ele>273.15</ele>
        <time>2011-05-19T09:51:23Z</time>
      </trkpt>
      <trkpt lat="43.53238" lon="6.74784">
        <ele>269.31</ele>
        <time>2011-05-19T09:51:28Z</time>
      </trkpt>
      <trkpt lat="43.53238" lon="6.74784">
        <ele>272.67</ele>
        <time>2011-05-19T09:51:35Z</time>
      </trkpt>
      <trkpt lat="43.53238" lon="6.74784">
        <ele>270.27</ele>
        <time>2011-05-19T09:51:39Z</time>
      </trkpt>
      <trkpt lat="43.53238" lon="6.74784">
        <ele>273.63</ele>
        <time>2011-05-19T09:51:43Z</time>
      </trkpt>
      <trkpt lat="43.53238" lon="6.74784">
        <ele>273.63</ele>
        <time>2011-05-19T09:51:44Z</time>
      </trkpt>
      <trkpt lat="43.53238" lon="6.74784">
        <ele>270.27</ele>
        <time>2011-05-19T09:51:45Z</time>
      </trkpt>
      <trkpt lat="43.53238" lon="6.74784">
        <ele>274.11</ele>
        <time>2011-05-19T09:51:48Z</time>
      </trkpt>
      <trkpt lat="43.53238" lon="6.74784">
        <ele>271.23</ele>
        <time>2011-05-19T09:51:49Z</time>
      </trkpt>
      <trkpt lat="43.53237" lon="6.74784">
        <ele>273.15</ele>
        <time>2011-05-19T09:52:03Z</time>
      </trkpt>
      <trkpt lat="43.53237" lon="6.74784">
        <ele>270.27</ele>
        <time>2011-05-19T09:52:09Z</time>
      </trkpt>
      <trkpt lat="43.53237" lon="6.74784">
        <ele>273.15</ele>
        <time>2011-05-19T09:52:13Z</time>
      </trkpt>
      <trkpt lat="43.53237" lon="6.74784">
        <ele>273.15</ele>
        <time>2011-05-19T09:52:30Z</time>
      </trkpt>
      <trkpt lat="43.53237" lon="6.74784">
        <ele>272.19</ele>
        <time>2011-05-19T09:52:33Z</time>
      </trkpt>
      <trkpt lat="43.53238" lon="6.74784">
        <ele>273.63</ele>
        <time>2011-05-19T09:52:38Z</time>
      </trkpt>
      <trkpt lat="43.53239" lon="6.74784">
        <ele>270.75</ele>
        <time>2011-05-19T09:52:39Z</time>
      </trkpt>
      <trkpt lat="43.53244" lon="6.74791">
        <ele>274.59</ele>
        <time>2011-05-19T09:52:54Z</time>
      </trkpt>
      <trkpt lat="43.53244" lon="6.74792">
        <ele>270.75</ele>
        <time>2011-05-19T09:53:05Z</time>
      </trkpt>
      <trkpt lat="43.53245" lon="6.74791">
        <ele>274.11</ele>
        <time>2011-05-19T09:53:09Z</time>
      </trkpt>
      <trkpt lat="43.53246" lon="6.74791">
        <ele>270.75</ele>
        <time>2011-05-19T09:53:20Z</time>
      </trkpt>
      <trkpt lat="43.53246" lon="6.74792">
        <ele>273.63</ele>
        <time>2011-05-19T09:53:23Z</time>
      </trkpt>
      <trkpt lat="43.53248" lon="6.74792">
        <ele>278.44</ele>
        <time>2011-05-19T09:53:34Z</time>
      </trkpt>
      <trkpt lat="43.53248" lon="6.74792">
        <ele>272.67</ele>
        <time>2011-05-19T09:53:35Z</time>
      </trkpt>
      <trkpt lat="43.53248" lon="6.74792">
        <ele>273.63</ele>
        <time>2011-05-19T09:53:36Z</time>
      </trkpt>
      <trkpt lat="43.53248" lon="6.74792">
        <ele>271.23</ele>
        <time>2011-05-19T09:53:38Z</time>
      </trkpt>
      <trkpt lat="43.53247" lon="6.74792">
        <ele>274.59</ele>
        <time>2011-05-19T09:53:50Z</time>
      </trkpt>
      <trkpt lat="43.53247" lon="6.74792">
        <ele>271.71</ele>
        <time>2011-05-19T09:53:54Z</time>
      </trkpt>
      <trkpt lat="43.53247" lon="6.74792">
        <ele>275.07</ele>
        <time>2011-05-19T09:54:06Z</time>
      </trkpt>
      <trkpt lat="43.53247" lon="6.74792">
        <ele>271.23</ele>
        <time>2011-05-19T09:54:07Z</time>
      </trkpt>
      <trkpt lat="43.53247" lon="6.74792">
        <ele>274.59</ele>
        <time>2011-05-19T09:54:12Z</time>
      </trkpt>
      <trkpt lat="43.53247" lon="6.74792">
        <ele>274.11</ele>
        <time>2011-05-19T09:54:13Z</time>
      </trkpt>
      <trkpt lat="43.53247" lon="6.74792">
        <ele>270.75</ele>
        <time>2011-05-19T09:54:15Z</time>
      </trkpt>
      <trkpt lat="43.53247" lon="6.74792">
        <ele>274.11</ele>
        <time>2011-05-19T09:54:16Z</time>
      </trkpt>
      <trkpt lat="43.53248" lon="6.74792">
        <ele>271.23</ele>
        <time>2011-05-19T09:54:30Z</time>
      </trkpt>
      <trkpt lat="43.53248" lon="6.74792">
        <ele>274.59</ele>
        <time>2011-05-19T09:54:48Z</time>
      </trkpt>
      <trkpt lat="43.53248" lon="6.74792">
        <ele>274.11</ele>
        <time>2011-05-19T09:54:49Z</time>
      </trkpt>
      <trkpt lat="43.53247" lon="6.74792">
        <ele>273.63</ele>
        <time>2011-05-19T09:54:54Z</time>
      </trkpt>
      <trkpt lat="43.53239" lon="6.74788">
        <ele>273.63</ele>
        <time>2011-05-19T09:55:03Z</time>
      </trkpt>
      <trkpt lat="43.53235" lon="6.74789">
        <ele>273.63</ele>
        <time>2011-05-19T09:55:08Z</time>
      </trkpt>
      <trkpt lat="43.53235" lon="6.74791">
        <ele>271.71</ele>
        <time>2011-05-19T09:55:18Z</time>
      </trkpt>
      <trkpt lat="43.53235" lon="6.74791">
        <ele>272.67</ele>
        <time>2011-05-19T09:55:27Z</time>
      </trkpt>
      <trkpt lat="43.53235" lon="6.74791">
        <ele>270.75</ele>
        <time>2011-05-19T09:55:30Z</time>
      </trkpt>
      <trkpt lat="43.53235" lon="6.74791">
        <ele>274.11</ele>
        <time>2011-05-19T09:55:32Z</time>
      </trkpt>
      <trkpt lat="43.53235" lon="6.74791">
        <ele>271.23</ele>
        <time>2011-05-19T09:55:33Z</time>
      </trkpt>
      <trkpt lat="43.53235" lon="6.74791">
        <ele>272.67</ele>
        <time>2011-05-19T09:55:36Z</time>
      </trkpt>
      <trkpt lat="43.53235" lon="6.74791">
        <ele>269.31</ele>
        <time>2011-05-19T09:55:40Z</time>
      </trkpt>
      <trkpt lat="43.53235" lon="6.74791">
        <ele>273.15</ele>
        <time>2011-05-19T09:55:42Z</time>
      </trkpt>
      <trkpt lat="43.53235" lon="6.74791">
        <ele>274.59</ele>
        <time>2011-05-19T09:55:51Z</time>
      </trkpt>
      <trkpt lat="43.53235" lon="6.74791">
        <ele>270.75</ele>
        <time>2011-05-19T09:55:55Z</time>
      </trkpt>
      <trkpt lat="43.53235" lon="6.74791">
        <ele>274.11</ele>
        <time>2011-05-19T09:55:56Z</time>
      </trkpt>
      <trkpt lat="43.53235" lon="6.74791">
        <ele>273.15</ele>
        <time>2011-05-19T09:55:57Z</time>
      </trkpt>
      <trkpt lat="43.53235" lon="6.74791">
        <ele>270.27</ele>
        <time>2011-05-19T09:56:02Z</time>
      </trkpt>
      <trkpt lat="43.53235" lon="6.74791">
        <ele>273.63</ele>
        <time>2011-05-19T09:56:06Z</time>
      </trkpt>
      <trkpt lat="43.53235" lon="6.74791">
        <ele>270.27</ele>
        <time>2011-05-19T09:56:13Z</time>
      </trkpt>
      <trkpt lat="43.53235" lon="6.74791">
        <ele>271.23</ele>
        <time>2011-05-19T09:56:17Z</time>
      </trkpt>
      <trkpt lat="43.53235" lon="6.74791">
        <ele>272.19</ele>
        <time>2011-05-19T09:56:38Z</time>
      </trkpt>
      <trkpt lat="43.53234" lon="6.74793">
        <ele>273.15</ele>
        <time>2011-05-19T09:57:02Z</time>
      </trkpt>
      <trkpt lat="43.53234" lon="6.74793">
        <ele>272.19</ele>
        <time>2011-05-19T09:57:13Z</time>
      </trkpt>
      <trkpt lat="43.53233" lon="6.74788">
        <ele>271.71</ele>
        <time>2011-05-19T09:57:26Z</time>
      </trkpt>
      <trkpt lat="43.53234" lon="6.74787">
        <ele>275.07</ele>
        <time>2011-05-19T09:57:36Z</time>
      </trkpt>
      <trkpt lat="43.53234" lon="6.74787">
        <ele>271.23</ele>
        <time>2011-05-19T09:57:37Z</time>
      </trkpt>
      <trkpt lat="43.53236" lon="6.74784">
        <ele>273.63</ele>
        <time>2011-05-19T09:57:49Z</time>
      </trkpt>
      <trkpt lat="43.53236" lon="6.74784">
        <ele>272.67</ele>
        <time>2011-05-19T09:57:51Z</time>
      </trkpt>
      <trkpt lat="43.53236" lon="6.74783">
        <ele>272.19</ele>
        <time>2011-05-19T09:58:16Z</time>
      </trkpt>
      <trkpt lat="43.53237" lon="6.74784">
        <ele>272.19</ele>
        <time>2011-05-19T09:58:53Z</time>
      </trkpt>
      <trkpt lat="43.5324" lon="6.74785">
        <ele>273.63</ele>
        <time>2011-05-19T09:58:56Z</time>
      </trkpt>
      <trkpt lat="43.53242" lon="6.74785">
        <ele>274.11</ele>
        <time>2011-05-19T09:58:58Z</time>
      </trkpt>
      <trkpt lat="43.53244" lon="6.74787">
        <ele>275.07</ele>
        <time>2011-05-19T09:59:01Z</time>
      </trkpt>
      <trkpt lat="43.53248" lon="6.7479">
        <ele>271.71</ele>
        <time>2011-05-19T09:59:07Z</time>
      </trkpt>
      <trkpt lat="43.53248" lon="6.7479">
        <ele>275.56</ele>
        <time>2011-05-19T09:59:25Z</time>
      </trkpt>
      <trkpt lat="43.53248" lon="6.7479">
        <ele>272.19</ele>
        <time>2011-05-19T09:59:28Z</time>
      </trkpt>
      <trkpt lat="43.53248" lon="6.7479">
        <ele>271.23</ele>
        <time>2011-05-19T09:59:35Z</time>
      </trkpt>
      <trkpt lat="43.53248" lon="6.7479">
        <ele>274.59</ele>
        <time>2011-05-19T09:59:37Z</time>
      </trkpt>
      <trkpt lat="43.53248" lon="6.7479">
        <ele>270.75</ele>
        <time>2011-05-19T09:59:40Z</time>
      </trkpt>
      <trkpt lat="43.53248" lon="6.7479">
        <ele>275.07</ele>
        <time>2011-05-19T09:59:50Z</time>
      </trkpt>
      <trkpt lat="43.53248" lon="6.7479">
        <ele>274.59</ele>
        <time>2011-05-19T09:59:51Z</time>
      </trkpt>
      <trkpt lat="43.53248" lon="6.7479">
        <ele>273.63</ele>
        <time>2011-05-19T09:59:53Z</time>
      </trkpt>
      <trkpt lat="43.53248" lon="6.7479">
        <ele>270.75</ele>
        <time>2011-05-19T09:59:55Z</time>
      </trkpt>
      <trkpt lat="43.53248" lon="6.7479">
        <ele>274.11</ele>
        <time>2011-05-19T09:59:57Z</time>
      </trkpt>
      <trkpt lat="43.53248" lon="6.7479">
        <ele>271.23</ele>
        <time>2011-05-19T09:59:58Z</time>
      </trkpt>
      <trkpt lat="43.53248" lon="6.7479">
        <ele>271.71</ele>
        <time>2011-05-19T09:59:59Z</time>
      </trkpt>
      <trkpt lat="43.53247" lon="6.74791">
        <ele>273.63</ele>
        <time>2011-05-19T10:00:01Z</time>
      </trkpt>
      <trkpt lat="43.53249" lon="6.74792">
        <ele>274.59</ele>
        <time>2011-05-19T10:00:25Z</time>
      </trkpt>
      <trkpt lat="43.53248" lon="6.7479">
        <ele>272.19</ele>
        <time>2011-05-19T10:00:36Z</time>
      </trkpt>
      <trkpt lat="43.53249" lon="6.74788">
        <ele>275.07</ele>
        <time>2011-05-19T10:00:42Z</time>
      </trkpt>
      <trkpt lat="43.53256" lon="6.74793">
        <ele>274.59</ele>
        <time>2011-05-19T10:00:59Z</time>
      </trkpt>
      <trkpt lat="43.53267" lon="6.74799">
        <ele>277</ele>
        <time>2011-05-19T10:01:06Z</time>
      </trkpt>
      <trkpt lat="43.53301" lon="6.7481">
        <ele>276.52</ele>
        <time>2011-05-19T10:01:26Z</time>
      </trkpt>
      <trkpt lat="43.53307" lon="6.74811">
        <ele>277.96</ele>
        <time>2011-05-19T10:01:29Z</time>
      </trkpt>
      <trkpt lat="43.53331" lon="6.74813">
        <ele>281.8</ele>
        <time>2011-05-19T10:01:43Z</time>
      </trkpt>
      <trkpt lat="43.53338" lon="6.74809">
        <ele>281.8</ele>
        <time>2011-05-19T10:01:47Z</time>
      </trkpt>
      <trkpt lat="43.53377" lon="6.74786">
        <ele>280.84</ele>
        <time>2011-05-19T10:02:04Z</time>
      </trkpt>
      <trkpt lat="43.53385" lon="6.74784">
        <ele>281.8</ele>
        <time>2011-05-19T10:02:07Z</time>
      </trkpt>
      <trkpt lat="43.53397" lon="6.74778">
        <ele>282.28</ele>
        <time>2011-05-19T10:02:12Z</time>
      </trkpt>
      <trkpt lat="43.53413" lon="6.7477">
        <ele>285.65</ele>
        <time>2011-05-19T10:02:20Z</time>
      </trkpt>
      <trkpt lat="43.53445" lon="6.74771">
        <ele>284.21</ele>
        <time>2011-05-19T10:02:33Z</time>
      </trkpt>
      <trkpt lat="43.53449" lon="6.74783">
        <ele>286.13</ele>
        <time>2011-05-19T10:02:37Z</time>
      </trkpt>
      <trkpt lat="43.53451" lon="6.74802">
        <ele>287.09</ele>
        <time>2011-05-19T10:02:43Z</time>
      </trkpt>
      <trkpt lat="43.53465" lon="6.74834">
        <ele>287.09</ele>
        <time>2011-05-19T10:02:56Z</time>
      </trkpt>
      <trkpt lat="43.53492" lon="6.74834">
        <ele>285.65</ele>
        <time>2011-05-19T10:03:04Z</time>
      </trkpt>
      <trkpt lat="43.53509" lon="6.74844">
        <ele>285.17</ele>
        <time>2011-05-19T10:03:08Z</time>
      </trkpt>
      <trkpt lat="43.53513" lon="6.74848">
        <ele>283.25</ele>
        <time>2011-05-19T10:03:09Z</time>
      </trkpt>
      <trkpt lat="43.53534" lon="6.74867">
        <ele>280.84</ele>
        <time>2011-05-19T10:03:12Z</time>
      </trkpt>
      <trkpt lat="43.53565" lon="6.74885">
        <ele>278.92</ele>
        <time>2011-05-19T10:03:16Z</time>
      </trkpt>
      <trkpt lat="43.53623" lon="6.74894">
        <ele>283.73</ele>
        <time>2011-05-19T10:03:25Z</time>
      </trkpt>
      <trkpt lat="43.53645" lon="6.74895">
        <ele>287.57</ele>
        <time>2011-05-19T10:03:34Z</time>
      </trkpt>
      <trkpt lat="43.5365" lon="6.74896">
        <ele>283.73</ele>
        <time>2011-05-19T10:03:36Z</time>
      </trkpt>
      <trkpt lat="43.53654" lon="6.74897">
        <ele>286.61</ele>
        <time>2011-05-19T10:03:38Z</time>
      </trkpt>
      <trkpt lat="43.53683" lon="6.74906">
        <ele>289.97</ele>
        <time>2011-05-19T10:03:52Z</time>
      </trkpt>
      <trkpt lat="43.53717" lon="6.74937">
        <ele>289.01</ele>
        <time>2011-05-19T10:04:08Z</time>
      </trkpt>
      <trkpt lat="43.53748" lon="6.74983">
        <ele>288.53</ele>
        <time>2011-05-19T10:04:24Z</time>
      </trkpt>
      <trkpt lat="43.53752" lon="6.74987">
        <ele>290.46</ele>
        <time>2011-05-19T10:04:26Z</time>
      </trkpt>
      <trkpt lat="43.53789" lon="6.7502">
        <ele>292.86</ele>
        <time>2011-05-19T10:04:42Z</time>
      </trkpt>
      <trkpt lat="43.538" lon="6.75031">
        <ele>294.3</ele>
        <time>2011-05-19T10:04:47Z</time>
      </trkpt>
      <trkpt lat="43.53821" lon="6.75027">
        <ele>296.22</ele>
        <time>2011-05-19T10:04:58Z</time>
      </trkpt>
      <trkpt lat="43.53845" lon="6.75031">
        <ele>296.7</ele>
        <time>2011-05-19T10:05:08Z</time>
      </trkpt>
      <trkpt lat="43.53864" lon="6.75069">
        <ele>300.07</ele>
        <time>2011-05-19T10:05:22Z</time>
      </trkpt>
      <trkpt lat="43.5386" lon="6.75106">
        <ele>301.51</ele>
        <time>2011-05-19T10:05:36Z</time>
      </trkpt>
      <trkpt lat="43.53843" lon="6.75147">
        <ele>304.39</ele>
        <time>2011-05-19T10:05:55Z</time>
      </trkpt>
      <trkpt lat="43.53844" lon="6.75161">
        <ele>305.36</ele>
        <time>2011-05-19T10:06:01Z</time>
      </trkpt>
      <trkpt lat="43.53847" lon="6.75171">
        <ele>308.72</ele>
        <time>2011-05-19T10:06:06Z</time>
      </trkpt>
      <trkpt lat="43.53848" lon="6.75176">
        <ele>304.88</ele>
        <time>2011-05-19T10:06:08Z</time>
      </trkpt>
      <trkpt lat="43.5385" lon="6.75181">
        <ele>307.76</ele>
        <time>2011-05-19T10:06:10Z</time>
      </trkpt>
      <trkpt lat="43.5387" lon="6.75227">
        <ele>308.24</ele>
        <time>2011-05-19T10:06:30Z</time>
      </trkpt>
      <trkpt lat="43.53893" lon="6.75255">
        <ele>308.24</ele>
        <time>2011-05-19T10:06:43Z</time>
      </trkpt>
      <trkpt lat="43.539" lon="6.75258">
        <ele>309.68</ele>
        <time>2011-05-19T10:06:46Z</time>
      </trkpt>
      <trkpt lat="43.53924" lon="6.75272">
        <ele>310.16</ele>
        <time>2011-05-19T10:06:57Z</time>
      </trkpt>
      <trkpt lat="43.53951" lon="6.75273">
        <ele>314.97</ele>
        <time>2011-05-19T10:07:09Z</time>
      </trkpt>
      <trkpt lat="43.53953" lon="6.75273">
        <ele>313.53</ele>
        <time>2011-05-19T10:07:10Z</time>
      </trkpt>
      <trkpt lat="43.53958" lon="6.75272">
        <ele>312.57</ele>
        <time>2011-05-19T10:07:12Z</time>
      </trkpt>
      <trkpt lat="43.53964" lon="6.7527">
        <ele>313.53</ele>
        <time>2011-05-19T10:07:15Z</time>
      </trkpt>
      <trkpt lat="43.54004" lon="6.75254">
        <ele>313.05</ele>
        <time>2011-05-19T10:07:31Z</time>
      </trkpt>
      <trkpt lat="43.54024" lon="6.75238">
        <ele>317.37</ele>
        <time>2011-05-19T10:07:39Z</time>
      </trkpt>
      <trkpt lat="43.54062" lon="6.75244">
        <ele>318.33</ele>
        <time>2011-05-19T10:07:55Z</time>
      </trkpt>
      <trkpt lat="43.5409" lon="6.7526">
        <ele>322.18</ele>
        <time>2011-05-19T10:08:09Z</time>
      </trkpt>
      <trkpt lat="43.54129" lon="6.75261">
        <ele>326.02</ele>
        <time>2011-05-19T10:08:29Z</time>
      </trkpt>
      <trkpt lat="43.54135" lon="6.75256">
        <ele>326.02</ele>
        <time>2011-05-19T10:08:33Z</time>
      </trkpt>
      <trkpt lat="43.54154" lon="6.7523">
        <ele>326.99</ele>
        <time>2011-05-19T10:08:48Z</time>
      </trkpt>
      <trkpt lat="43.54165" lon="6.7522">
        <ele>329.39</ele>
        <time>2011-05-19T10:08:54Z</time>
      </trkpt>
      <trkpt lat="43.54175" lon="6.75215">
        <ele>326.5</ele>
        <time>2011-05-19T10:08:59Z</time>
      </trkpt>
      <trkpt lat="43.54176" lon="6.75214">
        <ele>326.5</ele>
        <time>2011-05-19T10:09:00Z</time>
      </trkpt>
      <trkpt lat="43.5418" lon="6.75212">
        <ele>327.95</ele>
        <time>2011-05-19T10:09:02Z</time>
      </trkpt>
      <trkpt lat="43.54228" lon="6.75199">
        <ele>331.79</ele>
        <time>2011-05-19T10:09:22Z</time>
      </trkpt>
      <trkpt lat="43.54265" lon="6.75194">
        <ele>334.68</ele>
        <time>2011-05-19T10:09:40Z</time>
      </trkpt>
      <trkpt lat="43.54269" lon="6.75194">
        <ele>331.79</ele>
        <time>2011-05-19T10:09:42Z</time>
      </trkpt>
      <trkpt lat="43.54284" lon="6.75194">
        <ele>333.71</ele>
        <time>2011-05-19T10:09:49Z</time>
      </trkpt>
      <trkpt lat="43.54295" lon="6.75193">
        <ele>333.23</ele>
        <time>2011-05-19T10:09:54Z</time>
      </trkpt>
      <trkpt lat="43.54299" lon="6.75193">
        <ele>336.6</ele>
        <time>2011-05-19T10:09:56Z</time>
      </trkpt>
      <trkpt lat="43.54301" lon="6.75193">
        <ele>335.64</ele>
        <time>2011-05-19T10:09:57Z</time>
      </trkpt>
      <trkpt lat="43.5432" lon="6.75195">
        <ele>338.52</ele>
        <time>2011-05-19T10:10:07Z</time>
      </trkpt>
      <trkpt lat="43.54324" lon="6.75197">
        <ele>336.6</ele>
        <time>2011-05-19T10:10:10Z</time>
      </trkpt>
      <trkpt lat="43.54334" lon="6.7521">
        <ele>341.41</ele>
        <time>2011-05-19T10:10:18Z</time>
      </trkpt>
      <trkpt lat="43.54354" lon="6.75213">
        <ele>340.92</ele>
        <time>2011-05-19T10:10:32Z</time>
      </trkpt>
      <trkpt lat="43.54373" lon="6.75201">
        <ele>343.81</ele>
        <time>2011-05-19T10:10:44Z</time>
      </trkpt>
      <trkpt lat="43.54378" lon="6.75197">
        <ele>339.48</ele>
        <time>2011-05-19T10:10:47Z</time>
      </trkpt>
      <trkpt lat="43.54388" lon="6.75192">
        <ele>342.37</ele>
        <time>2011-05-19T10:10:52Z</time>
      </trkpt>
      <trkpt lat="43.54425" lon="6.75186">
        <ele>340.92</ele>
        <time>2011-05-19T10:11:09Z</time>
      </trkpt>
      <trkpt lat="43.54427" lon="6.75185">
        <ele>344.77</ele>
        <time>2011-05-19T10:11:10Z</time>
      </trkpt>
      <trkpt lat="43.54437" lon="6.75178">
        <ele>341.41</ele>
        <time>2011-05-19T10:11:14Z</time>
      </trkpt>
      <trkpt lat="43.54441" lon="6.75173">
        <ele>345.25</ele>
        <time>2011-05-19T10:11:16Z</time>
      </trkpt>
      <trkpt lat="43.54443" lon="6.75171">
        <ele>343.33</ele>
        <time>2011-05-19T10:11:17Z</time>
      </trkpt>
      <trkpt lat="43.54465" lon="6.75131">
        <ele>339.48</ele>
        <time>2011-05-19T10:11:28Z</time>
      </trkpt>
      <trkpt lat="43.54483" lon="6.75096">
        <ele>334.68</ele>
        <time>2011-05-19T10:11:38Z</time>
      </trkpt>
      <trkpt lat="43.54489" lon="6.7508">
        <ele>336.6</ele>
        <time>2011-05-19T10:11:41Z</time>
      </trkpt>
      <trkpt lat="43.54493" lon="6.75041">
        <ele>332.75</ele>
        <time>2011-05-19T10:11:46Z</time>
      </trkpt>
      <trkpt lat="43.54496" lon="6.75003">
        <ele>335.16</ele>
        <time>2011-05-19T10:11:50Z</time>
      </trkpt>
      <trkpt lat="43.54502" lon="6.74954">
        <ele>336.12</ele>
        <time>2011-05-19T10:12:03Z</time>
      </trkpt>
      <trkpt lat="43.54502" lon="6.74951">
        <ele>333.23</ele>
        <time>2011-05-19T10:12:04Z</time>
      </trkpt>
      <trkpt lat="43.54503" lon="6.74936">
        <ele>336.6</ele>
        <time>2011-05-19T10:12:09Z</time>
      </trkpt>
      <trkpt lat="43.54502" lon="6.74904">
        <ele>340.44</ele>
        <time>2011-05-19T10:12:21Z</time>
      </trkpt>
      <trkpt lat="43.54504" lon="6.74892">
        <ele>337.08</ele>
        <time>2011-05-19T10:12:26Z</time>
      </trkpt>
      <trkpt lat="43.5451" lon="6.74846">
        <ele>337.56</ele>
        <time>2011-05-19T10:12:38Z</time>
      </trkpt>
      <trkpt lat="43.54525" lon="6.74784">
        <ele>335.64</ele>
        <time>2011-05-19T10:12:51Z</time>
      </trkpt>
      <trkpt lat="43.54528" lon="6.7478">
        <ele>338.52</ele>
        <time>2011-05-19T10:12:53Z</time>
      </trkpt>
      <trkpt lat="43.54529" lon="6.74774">
        <ele>339</ele>
        <time>2011-05-19T10:12:55Z</time>
      </trkpt>
      <trkpt lat="43.54527" lon="6.74766">
        <ele>335.64</ele>
        <time>2011-05-19T10:12:58Z</time>
      </trkpt>
      <trkpt lat="43.54526" lon="6.74756">
        <ele>336.12</ele>
        <time>2011-05-19T10:13:04Z</time>
      </trkpt>
      <trkpt lat="43.54522" lon="6.74757">
        <ele>334.2</ele>
        <time>2011-05-19T10:13:07Z</time>
      </trkpt>
      <trkpt lat="43.54522" lon="6.7476">
        <ele>337.56</ele>
        <time>2011-05-19T10:13:09Z</time>
      </trkpt>
      <trkpt lat="43.54522" lon="6.74762">
        <ele>337.08</ele>
        <time>2011-05-19T10:13:10Z</time>
      </trkpt>
      <trkpt lat="43.54523" lon="6.74769">
        <ele>337.56</ele>
        <time>2011-05-19T10:13:14Z</time>
      </trkpt>
      <trkpt lat="43.54524" lon="6.74772">
        <ele>337.08</ele>
        <time>2011-05-19T10:13:16Z</time>
      </trkpt>
      <trkpt lat="43.54541" lon="6.74769">
        <ele>336.6</ele>
        <time>2011-05-19T10:13:26Z</time>
      </trkpt>
      <trkpt lat="43.54542" lon="6.7477">
        <ele>333.23</ele>
        <time>2011-05-19T10:13:28Z</time>
      </trkpt>
      <trkpt lat="43.54543" lon="6.7477">
        <ele>334.68</ele>
        <time>2011-05-19T10:13:29Z</time>
      </trkpt>
      <trkpt lat="43.54569" lon="6.74768">
        <ele>334.68</ele>
        <time>2011-05-19T10:13:44Z</time>
      </trkpt>
      <trkpt lat="43.54584" lon="6.74762">
        <ele>331.31</ele>
        <time>2011-05-19T10:13:48Z</time>
      </trkpt>
      <trkpt lat="43.54592" lon="6.74749">
        <ele>329.87</ele>
        <time>2011-05-19T10:13:51Z</time>
      </trkpt>
      <trkpt lat="43.54619" lon="6.74746">
        <ele>325.54</ele>
        <time>2011-05-19T10:13:57Z</time>
      </trkpt>
      <trkpt lat="43.54669" lon="6.74726">
        <ele>323.62</ele>
        <time>2011-05-19T10:14:05Z</time>
      </trkpt>
      <trkpt lat="43.54678" lon="6.747">
        <ele>318.33</ele>
        <time>2011-05-19T10:14:08Z</time>
      </trkpt>
      <trkpt lat="43.5468" lon="6.74691">
        <ele>320.26</ele>
        <time>2011-05-19T10:14:09Z</time>
      </trkpt>
      <trkpt lat="43.54686" lon="6.74651">
        <ele>319.78</ele>
        <time>2011-05-19T10:14:13Z</time>
      </trkpt>
      <trkpt lat="43.54696" lon="6.74616">
        <ele>314.97</ele>
        <time>2011-05-19T10:14:18Z</time>
      </trkpt>
      <trkpt lat="43.54701" lon="6.74615">
        <ele>315.45</ele>
        <time>2011-05-19T10:14:19Z</time>
      </trkpt>
      <trkpt lat="43.54719" lon="6.74632">
        <ele>312.57</ele>
        <time>2011-05-19T10:14:23Z</time>
      </trkpt>
      <trkpt lat="43.54733" lon="6.74665">
        <ele>309.2</ele>
        <time>2011-05-19T10:14:27Z</time>
      </trkpt>
      <trkpt lat="43.54736" lon="6.74674">
        <ele>311.6</ele>
        <time>2011-05-19T10:14:28Z</time>
      </trkpt>
      <trkpt lat="43.5474" lon="6.74682">
        <ele>309.2</ele>
        <time>2011-05-19T10:14:29Z</time>
      </trkpt>
      <trkpt lat="43.54754" lon="6.74737">
        <ele>304.88</ele>
        <time>2011-05-19T10:14:35Z</time>
      </trkpt>
      <trkpt lat="43.5477" lon="6.7476">
        <ele>301.03</ele>
        <time>2011-05-19T10:14:39Z</time>
      </trkpt>
      <trkpt lat="43.54795" lon="6.74766">
        <ele>297.67</ele>
        <time>2011-05-19T10:14:43Z</time>
      </trkpt>
      <trkpt lat="43.54806" lon="6.74767">
        <ele>292.86</ele>
        <time>2011-05-19T10:14:45Z</time>
      </trkpt>
      <trkpt lat="43.54811" lon="6.74766">
        <ele>296.7</ele>
        <time>2011-05-19T10:14:46Z</time>
      </trkpt>
      <trkpt lat="43.54824" lon="6.74754">
        <ele>293.82</ele>
        <time>2011-05-19T10:14:49Z</time>
      </trkpt>
      <trkpt lat="43.54814" lon="6.74715">
        <ele>289.49</ele>
        <time>2011-05-19T10:14:54Z</time>
      </trkpt>
      <trkpt lat="43.54811" lon="6.74707">
        <ele>292.86</ele>
        <time>2011-05-19T10:14:55Z</time>
      </trkpt>
      <trkpt lat="43.54805" lon="6.74689">
        <ele>290.94</ele>
        <time>2011-05-19T10:14:57Z</time>
      </trkpt>
      <trkpt lat="43.54798" lon="6.74655">
        <ele>289.01</ele>
        <time>2011-05-19T10:15:01Z</time>
      </trkpt>
      <trkpt lat="43.54793" lon="6.74631">
        <ele>289.97</ele>
        <time>2011-05-19T10:15:05Z</time>
      </trkpt>
      <trkpt lat="43.54772" lon="6.74587">
        <ele>286.13</ele>
        <time>2011-05-19T10:15:14Z</time>
      </trkpt>
      <trkpt lat="43.54768" lon="6.74564">
        <ele>286.13</ele>
        <time>2011-05-19T10:15:19Z</time>
      </trkpt>
      <trkpt lat="43.54747" lon="6.74488">
        <ele>283.73</ele>
        <time>2011-05-19T10:15:29Z</time>
      </trkpt>
      <trkpt lat="43.54744" lon="6.74481">
        <ele>286.13</ele>
        <time>2011-05-19T10:15:30Z</time>
      </trkpt>
      <trkpt lat="43.54727" lon="6.74463">
        <ele>281.8</ele>
        <time>2011-05-19T10:15:34Z</time>
      </trkpt>
      <trkpt lat="43.54715" lon="6.74469">
        <ele>282.77</ele>
        <time>2011-05-19T10:15:36Z</time>
      </trkpt>
      <trkpt lat="43.54696" lon="6.74466">
        <ele>279.88</ele>
        <time>2011-05-19T10:15:40Z</time>
      </trkpt>
      <trkpt lat="43.54693" lon="6.74449">
        <ele>280.36</ele>
        <time>2011-05-19T10:15:42Z</time>
      </trkpt>
      <trkpt lat="43.54699" lon="6.74405">
        <ele>278.92</ele>
        <time>2011-05-19T10:15:47Z</time>
      </trkpt>
      <trkpt lat="43.5471" lon="6.74359">
        <ele>278.44</ele>
        <time>2011-05-19T10:15:52Z</time>
      </trkpt>
      <trkpt lat="43.54704" lon="6.74326">
        <ele>276.52</ele>
        <time>2011-05-19T10:15:56Z</time>
      </trkpt>
      <trkpt lat="43.54693" lon="6.74316">
        <ele>276.04</ele>
        <time>2011-05-19T10:15:58Z</time>
      </trkpt>
      <trkpt lat="43.54686" lon="6.74305">
        <ele>277</ele>
        <time>2011-05-19T10:16:00Z</time>
      </trkpt>
      <trkpt lat="43.547" lon="6.74271">
        <ele>275.07</ele>
        <time>2011-05-19T10:16:05Z</time>
      </trkpt>
      <trkpt lat="43.54723" lon="6.74255">
        <ele>274.59</ele>
        <time>2011-05-19T10:16:09Z</time>
      </trkpt>
      <trkpt lat="43.54733" lon="6.74246">
        <ele>273.15</ele>
        <time>2011-05-19T10:16:11Z</time>
      </trkpt>
      <trkpt lat="43.5474" lon="6.74203">
        <ele>270.27</ele>
        <time>2011-05-19T10:16:17Z</time>
      </trkpt>
      <trkpt lat="43.54726" lon="6.74183">
        <ele>269.31</ele>
        <time>2011-05-19T10:16:20Z</time>
      </trkpt>
      <trkpt lat="43.54715" lon="6.74174">
        <ele>271.23</ele>
        <time>2011-05-19T10:16:22Z</time>
      </trkpt>
      <trkpt lat="43.54704" lon="6.74166">
        <ele>269.31</ele>
        <time>2011-05-19T10:16:24Z</time>
      </trkpt>
      <trkpt lat="43.5469" lon="6.74146">
        <ele>269.31</ele>
        <time>2011-05-19T10:16:27Z</time>
      </trkpt>
      <trkpt lat="43.54681" lon="6.74137">
        <ele>265.94</ele>
        <time>2011-05-19T10:16:29Z</time>
      </trkpt>
      <trkpt lat="43.54668" lon="6.74139">
        <ele>265.94</ele>
        <time>2011-05-19T10:16:31Z</time>
      </trkpt>
      <trkpt lat="43.54647" lon="6.7415">
        <ele>265.46</ele>
        <time>2011-05-19T10:16:34Z</time>
      </trkpt>
      <trkpt lat="43.54628" lon="6.74166">
        <ele>263.54</ele>
        <time>2011-05-19T10:16:38Z</time>
      </trkpt>
      <trkpt lat="43.54613" lon="6.74172">
        <ele>263.06</ele>
        <time>2011-05-19T10:16:41Z</time>
      </trkpt>
      <trkpt lat="43.54595" lon="6.7417">
        <ele>261.62</ele>
        <time>2011-05-19T10:16:44Z</time>
      </trkpt>
      <trkpt lat="43.54582" lon="6.74179">
        <ele>260.65</ele>
        <time>2011-05-19T10:16:46Z</time>
      </trkpt>
      <trkpt lat="43.54556" lon="6.74193">
        <ele>261.14</ele>
        <time>2011-05-19T10:16:50Z</time>
      </trkpt>
      <trkpt lat="43.54538" lon="6.74207">
        <ele>258.73</ele>
        <time>2011-05-19T10:16:53Z</time>
      </trkpt>
      <trkpt lat="43.54527" lon="6.74218">
        <ele>256.81</ele>
        <time>2011-05-19T10:16:55Z</time>
      </trkpt>
      <trkpt lat="43.54517" lon="6.7423">
        <ele>256.33</ele>
        <time>2011-05-19T10:16:57Z</time>
      </trkpt>
      <trkpt lat="43.54497" lon="6.74229">
        <ele>255.37</ele>
        <time>2011-05-19T10:17:03Z</time>
      </trkpt>
      <trkpt lat="43.54498" lon="6.74214">
        <ele>252.96</ele>
        <time>2011-05-19T10:17:05Z</time>
      </trkpt>
      <trkpt lat="43.54503" lon="6.74204">
        <ele>252.48</ele>
        <time>2011-05-19T10:17:07Z</time>
      </trkpt>
      <trkpt lat="43.54506" lon="6.742">
        <ele>255.85</ele>
        <time>2011-05-19T10:17:08Z</time>
      </trkpt>
      <trkpt lat="43.54516" lon="6.74183">
        <ele>252.48</ele>
        <time>2011-05-19T10:17:12Z</time>
      </trkpt>
      <trkpt lat="43.54534" lon="6.74115">
        <ele>253.93</ele>
        <time>2011-05-19T10:17:24Z</time>
      </trkpt>
      <trkpt lat="43.54545" lon="6.7409">
        <ele>253.44</ele>
        <time>2011-05-19T10:17:28Z</time>
      </trkpt>
      <trkpt lat="43.54555" lon="6.74074">
        <ele>250.08</ele>
        <time>2011-05-19T10:17:31Z</time>
      </trkpt>
      <trkpt lat="43.54558" lon="6.74069">
        <ele>254.89</ele>
        <time>2011-05-19T10:17:32Z</time>
      </trkpt>
      <trkpt lat="43.54562" lon="6.74065">
        <ele>251.04</ele>
        <time>2011-05-19T10:17:33Z</time>
      </trkpt>
      <trkpt lat="43.54572" lon="6.74051">
        <ele>254.41</ele>
        <time>2011-05-19T10:17:36Z</time>
      </trkpt>
      <trkpt lat="43.54575" lon="6.74046">
        <ele>251.04</ele>
        <time>2011-05-19T10:17:37Z</time>
      </trkpt>
      <trkpt lat="43.54578" lon="6.74041">
        <ele>252.48</ele>
        <time>2011-05-19T10:17:38Z</time>
      </trkpt>
      <trkpt lat="43.54588" lon="6.74027">
        <ele>250.56</ele>
        <time>2011-05-19T10:17:41Z</time>
      </trkpt>
      <trkpt lat="43.54592" lon="6.74021">
        <ele>252</ele>
        <time>2011-05-19T10:17:42Z</time>
      </trkpt>
      <trkpt lat="43.546" lon="6.74007">
        <ele>252</ele>
        <time>2011-05-19T10:17:45Z</time>
      </trkpt>
      <trkpt lat="43.54608" lon="6.73993">
        <ele>250.56</ele>
        <time>2011-05-19T10:17:48Z</time>
      </trkpt>
      <trkpt lat="43.54619" lon="6.7398">
        <ele>252</ele>
        <time>2011-05-19T10:17:51Z</time>
      </trkpt>
      <trkpt lat="43.54623" lon="6.73976">
        <ele>252</ele>
        <time>2011-05-19T10:17:52Z</time>
      </trkpt>
      <trkpt lat="43.5464" lon="6.73961">
        <ele>250.56</ele>
        <time>2011-05-19T10:17:56Z</time>
      </trkpt>
      <trkpt lat="43.5466" lon="6.7394">
        <ele>254.89</ele>
        <time>2011-05-19T10:18:01Z</time>
      </trkpt>
      <trkpt lat="43.54663" lon="6.73936">
        <ele>252.96</ele>
        <time>2011-05-19T10:18:02Z</time>
      </trkpt>
      <trkpt lat="43.5467" lon="6.73927">
        <ele>256.81</ele>
        <time>2011-05-19T10:18:04Z</time>
      </trkpt>
      <trkpt lat="43.54688" lon="6.73906">
        <ele>255.37</ele>
        <time>2011-05-19T10:18:09Z</time>
      </trkpt>
      <trkpt lat="43.54708" lon="6.73888">
        <ele>254.41</ele>
        <time>2011-05-19T10:18:14Z</time>
      </trkpt>
      <trkpt lat="43.54735" lon="6.73867">
        <ele>251.52</ele>
        <time>2011-05-19T10:18:20Z</time>
      </trkpt>
      <trkpt lat="43.54759" lon="6.7382">
        <ele>255.37</ele>
        <time>2011-05-19T10:18:31Z</time>
      </trkpt>
      <trkpt lat="43.54783" lon="6.73779">
        <ele>257.29</ele>
        <time>2011-05-19T10:18:47Z</time>
      </trkpt>
      <trkpt lat="43.54788" lon="6.73777">
        <ele>260.65</ele>
        <time>2011-05-19T10:18:49Z</time>
      </trkpt>
      <trkpt lat="43.54791" lon="6.73776">
        <ele>259.69</ele>
        <time>2011-05-19T10:18:50Z</time>
      </trkpt>
      <trkpt lat="43.548" lon="6.73765">
        <ele>260.17</ele>
        <time>2011-05-19T10:18:55Z</time>
      </trkpt>
      <trkpt lat="43.54801" lon="6.73758">
        <ele>259.21</ele>
        <time>2011-05-19T10:18:57Z</time>
      </trkpt>
      <trkpt lat="43.54802" lon="6.7375">
        <ele>260.65</ele>
        <time>2011-05-19T10:18:59Z</time>
      </trkpt>
      <trkpt lat="43.54802" lon="6.73739">
        <ele>259.21</ele>
        <time>2011-05-19T10:19:02Z</time>
      </trkpt>
      <trkpt lat="43.54802" lon="6.73735">
        <ele>262.1</ele>
        <time>2011-05-19T10:19:03Z</time>
      </trkpt>
      <trkpt lat="43.54801" lon="6.73731">
        <ele>261.14</ele>
        <time>2011-05-19T10:19:04Z</time>
      </trkpt>
      <trkpt lat="43.54805" lon="6.73674">
        <ele>260.17</ele>
        <time>2011-05-19T10:19:21Z</time>
      </trkpt>
      <trkpt lat="43.54814" lon="6.73645">
        <ele>264.02</ele>
        <time>2011-05-19T10:19:29Z</time>
      </trkpt>
      <trkpt lat="43.54813" lon="6.73633">
        <ele>261.62</ele>
        <time>2011-05-19T10:19:32Z</time>
      </trkpt>
      <trkpt lat="43.54808" lon="6.73611">
        <ele>264.5</ele>
        <time>2011-05-19T10:19:37Z</time>
      </trkpt>
      <trkpt lat="43.54804" lon="6.73597">
        <ele>261.14</ele>
        <time>2011-05-19T10:19:41Z</time>
      </trkpt>
      <trkpt lat="43.54799" lon="6.73584">
        <ele>262.1</ele>
        <time>2011-05-19T10:19:45Z</time>
      </trkpt>
      <trkpt lat="43.54796" lon="6.73577">
        <ele>263.06</ele>
        <time>2011-05-19T10:19:47Z</time>
      </trkpt>
      <trkpt lat="43.54791" lon="6.73563">
        <ele>265.46</ele>
        <time>2011-05-19T10:19:51Z</time>
      </trkpt>
      <trkpt lat="43.54763" lon="6.73492">
        <ele>266.42</ele>
        <time>2011-05-19T10:20:09Z</time>
      </trkpt>
      <trkpt lat="43.54754" lon="6.73467">
        <ele>262.58</ele>
        <time>2011-05-19T10:20:14Z</time>
      </trkpt>
      <trkpt lat="43.54731" lon="6.7344">
        <ele>266.42</ele>
        <time>2011-05-19T10:20:21Z</time>
      </trkpt>
      <trkpt lat="43.54724" lon="6.73432">
        <ele>263.54</ele>
        <time>2011-05-19T10:20:23Z</time>
      </trkpt>
      <trkpt lat="43.5472" lon="6.73427">
        <ele>264.02</ele>
        <time>2011-05-19T10:20:24Z</time>
      </trkpt>
      <trkpt lat="43.54709" lon="6.73404">
        <ele>260.17</ele>
        <time>2011-05-19T10:20:28Z</time>
      </trkpt>
      <trkpt lat="43.54708" lon="6.73397">
        <ele>265.46</ele>
        <time>2011-05-19T10:20:29Z</time>
      </trkpt>
      <trkpt lat="43.54705" lon="6.73357">
        <ele>260.65</ele>
        <time>2011-05-19T10:20:34Z</time>
      </trkpt>
      <trkpt lat="43.54704" lon="6.73342">
        <ele>260.65</ele>
        <time>2011-05-19T10:20:36Z</time>
      </trkpt>
      <trkpt lat="43.54704" lon="6.73319">
        <ele>260.65</ele>
        <time>2011-05-19T10:20:40Z</time>
      </trkpt>
      <trkpt lat="43.54702" lon="6.7331">
        <ele>258.73</ele>
        <time>2011-05-19T10:20:42Z</time>
      </trkpt>
      <trkpt lat="43.54695" lon="6.73284">
        <ele>255.37</ele>
        <time>2011-05-19T10:20:47Z</time>
      </trkpt>
      <trkpt lat="43.54693" lon="6.73278">
        <ele>258.73</ele>
        <time>2011-05-19T10:20:48Z</time>
      </trkpt>
      <trkpt lat="43.54687" lon="6.7325">
        <ele>256.81</ele>
        <time>2011-05-19T10:20:52Z</time>
      </trkpt>
      <trkpt lat="43.5469" lon="6.73214">
        <ele>256.33</ele>
        <time>2011-05-19T10:20:56Z</time>
      </trkpt>
      <trkpt lat="43.54699" lon="6.73186">
        <ele>256.81</ele>
        <time>2011-05-19T10:20:59Z</time>
      </trkpt>
      <trkpt lat="43.54702" lon="6.7315">
        <ele>253.44</ele>
        <time>2011-05-19T10:21:03Z</time>
      </trkpt>
      <trkpt lat="43.5469" lon="6.73124">
        <ele>256.33</ele>
        <time>2011-05-19T10:21:07Z</time>
      </trkpt>
      <trkpt lat="43.54677" lon="6.73109">
        <ele>254.41</ele>
        <time>2011-05-19T10:21:11Z</time>
      </trkpt>
      <trkpt lat="43.54658" lon="6.73076">
        <ele>260.17</ele>
        <time>2011-05-19T10:21:19Z</time>
      </trkpt>
      <trkpt lat="43.5463" lon="6.73032">
        <ele>264.02</ele>
        <time>2011-05-19T10:21:31Z</time>
      </trkpt>
      <trkpt lat="43.54622" lon="6.73014">
        <ele>262.1</ele>
        <time>2011-05-19T10:21:36Z</time>
      </trkpt>
      <trkpt lat="43.54619" lon="6.73007">
        <ele>265.46</ele>
        <time>2011-05-19T10:21:38Z</time>
      </trkpt>
      <trkpt lat="43.54618" lon="6.73002">
        <ele>264.98</ele>
        <time>2011-05-19T10:21:39Z</time>
      </trkpt>
      <trkpt lat="43.54616" lon="6.72987">
        <ele>261.62</ele>
        <time>2011-05-19T10:21:42Z</time>
      </trkpt>
      <trkpt lat="43.54616" lon="6.72974">
        <ele>261.62</ele>
        <time>2011-05-19T10:21:44Z</time>
      </trkpt>
      <trkpt lat="43.54614" lon="6.72959">
        <ele>259.21</ele>
        <time>2011-05-19T10:21:46Z</time>
      </trkpt>
      <trkpt lat="43.54603" lon="6.72931">
        <ele>258.73</ele>
        <time>2011-05-19T10:21:50Z</time>
      </trkpt>
      <trkpt lat="43.54596" lon="6.72921">
        <ele>258.25</ele>
        <time>2011-05-19T10:21:52Z</time>
      </trkpt>
      <trkpt lat="43.54583" lon="6.72905">
        <ele>256.81</ele>
        <time>2011-05-19T10:21:56Z</time>
      </trkpt>
      <trkpt lat="43.54575" lon="6.72889">
        <ele>255.37</ele>
        <time>2011-05-19T10:21:59Z</time>
      </trkpt>
      <trkpt lat="43.54572" lon="6.72883">
        <ele>254.89</ele>
        <time>2011-05-19T10:22:00Z</time>
      </trkpt>
      <trkpt lat="43.54571" lon="6.72853">
        <ele>251.52</ele>
        <time>2011-05-19T10:22:04Z</time>
      </trkpt>
      <trkpt lat="43.54585" lon="6.72809">
        <ele>249.12</ele>
        <time>2011-05-19T10:22:09Z</time>
      </trkpt>
      <trkpt lat="43.54588" lon="6.72778">
        <ele>250.56</ele>
        <time>2011-05-19T10:22:13Z</time>
      </trkpt>
      <trkpt lat="43.54585" lon="6.72771">
        <ele>247.68</ele>
        <time>2011-05-19T10:22:15Z</time>
      </trkpt>
      <trkpt lat="43.54584" lon="6.72765">
        <ele>249.6</ele>
        <time>2011-05-19T10:22:22Z</time>
      </trkpt>
      <trkpt lat="43.54583" lon="6.72767">
        <ele>248.64</ele>
        <time>2011-05-19T10:22:29Z</time>
      </trkpt>
      <trkpt lat="43.54584" lon="6.72768">
        <ele>245.75</ele>
        <time>2011-05-19T10:22:31Z</time>
      </trkpt>
      <trkpt lat="43.54584" lon="6.72773">
        <ele>249.6</ele>
        <time>2011-05-19T10:22:34Z</time>
      </trkpt>
      <trkpt lat="43.54587" lon="6.72782">
        <ele>245.75</ele>
        <time>2011-05-19T10:22:45Z</time>
      </trkpt>
      <trkpt lat="43.54587" lon="6.72783">
        <ele>249.12</ele>
        <time>2011-05-19T10:22:46Z</time>
      </trkpt>
      <trkpt lat="43.54587" lon="6.72783">
        <ele>246.23</ele>
        <time>2011-05-19T10:22:49Z</time>
      </trkpt>
      <trkpt lat="43.54587" lon="6.72783">
        <ele>247.68</ele>
        <time>2011-05-19T10:22:50Z</time>
      </trkpt>
      <trkpt lat="43.54587" lon="6.72783">
        <ele>248.16</ele>
        <time>2011-05-19T10:22:59Z</time>
      </trkpt>
      <trkpt lat="43.54587" lon="6.72783">
        <ele>247.68</ele>
        <time>2011-05-19T10:23:03Z</time>
      </trkpt>
      <trkpt lat="43.54586" lon="6.72783">
        <ele>248.16</ele>
        <time>2011-05-19T10:23:16Z</time>
      </trkpt>
      <trkpt lat="43.54585" lon="6.72783">
        <ele>247.2</ele>
        <time>2011-05-19T10:23:43Z</time>
      </trkpt>
      <trkpt lat="43.54587" lon="6.72783">
        <ele>251.04</ele>
        <time>2011-05-19T10:23:54Z</time>
      </trkpt>
      <trkpt lat="43.54587" lon="6.72783">
        <ele>247.68</ele>
        <time>2011-05-19T10:23:55Z</time>
      </trkpt>
      <trkpt lat="43.54586" lon="6.72782">
        <ele>248.64</ele>
        <time>2011-05-19T10:24:01Z</time>
      </trkpt>
      <trkpt lat="43.54586" lon="6.72783">
        <ele>248.16</ele>
        <time>2011-05-19T10:24:10Z</time>
      </trkpt>
      <trkpt lat="43.54586" lon="6.72783">
        <ele>249.12</ele>
        <time>2011-05-19T10:24:12Z</time>
      </trkpt>
      <trkpt lat="43.54588" lon="6.72784">
        <ele>247.68</ele>
        <time>2011-05-19T10:24:36Z</time>
      </trkpt>
      <trkpt lat="43.54588" lon="6.72784">
        <ele>250.08</ele>
        <time>2011-05-19T10:24:48Z</time>
      </trkpt>
      <trkpt lat="43.54588" lon="6.72784">
        <ele>247.2</ele>
        <time>2011-05-19T10:24:52Z</time>
      </trkpt>
      <trkpt lat="43.54588" lon="6.72784">
        <ele>248.16</ele>
        <time>2011-05-19T10:25:02Z</time>
      </trkpt>
      <trkpt lat="43.54588" lon="6.72784">
        <ele>247.2</ele>
        <time>2011-05-19T10:25:04Z</time>
      </trkpt>
      <trkpt lat="43.54589" lon="6.72784">
        <ele>248.64</ele>
        <time>2011-05-19T10:25:18Z</time>
      </trkpt>
      <trkpt lat="43.54587" lon="6.72784">
        <ele>245.27</ele>
        <time>2011-05-19T10:25:38Z</time>
      </trkpt>
      <trkpt lat="43.54587" lon="6.72784">
        <ele>248.64</ele>
        <time>2011-05-19T10:25:42Z</time>
      </trkpt>
      <trkpt lat="43.54586" lon="6.72785">
        <ele>248.16</ele>
        <time>2011-05-19T10:26:00Z</time>
      </trkpt>
      <trkpt lat="43.54586" lon="6.72785">
        <ele>247.2</ele>
        <time>2011-05-19T10:26:29Z</time>
      </trkpt>
      <trkpt lat="43.54586" lon="6.72785">
        <ele>249.6</ele>
        <time>2011-05-19T10:26:31Z</time>
      </trkpt>
      <trkpt lat="43.54586" lon="6.72785">
        <ele>245.75</ele>
        <time>2011-05-19T10:26:44Z</time>
      </trkpt>
      <trkpt lat="43.54586" lon="6.72785">
        <ele>249.12</ele>
        <time>2011-05-19T10:26:45Z</time>
      </trkpt>
      <trkpt lat="43.54586" lon="6.72785">
        <ele>245.27</ele>
        <time>2011-05-19T10:26:51Z</time>
      </trkpt>
      <trkpt lat="43.54586" lon="6.72785">
        <ele>248.64</ele>
        <time>2011-05-19T10:26:52Z</time>
      </trkpt>
      <trkpt lat="43.54586" lon="6.72785">
        <ele>245.75</ele>
        <time>2011-05-19T10:27:25Z</time>
      </trkpt>
      <trkpt lat="43.54586" lon="6.72785">
        <ele>248.64</ele>
        <time>2011-05-19T10:27:30Z</time>
      </trkpt>
      <trkpt lat="43.54586" lon="6.72785">
        <ele>249.12</ele>
        <time>2011-05-19T10:27:36Z</time>
      </trkpt>
      <trkpt lat="43.54586" lon="6.72785">
        <ele>246.23</ele>
        <time>2011-05-19T10:27:41Z</time>
      </trkpt>
      <trkpt lat="43.54586" lon="6.72785">
        <ele>249.6</ele>
        <time>2011-05-19T10:27:47Z</time>
      </trkpt>
      <trkpt lat="43.54586" lon="6.72785">
        <ele>248.16</ele>
        <time>2011-05-19T10:27:50Z</time>
      </trkpt>
      <trkpt lat="43.54586" lon="6.72785">
        <ele>249.6</ele>
        <time>2011-05-19T10:28:00Z</time>
      </trkpt>
      <trkpt lat="43.54586" lon="6.72785">
        <ele>248.16</ele>
        <time>2011-05-19T10:28:05Z</time>
      </trkpt>
      <trkpt lat="43.54586" lon="6.72785">
        <ele>247.68</ele>
        <time>2011-05-19T10:28:13Z</time>
      </trkpt>
      <trkpt lat="43.54586" lon="6.72785">
        <ele>248.64</ele>
        <time>2011-05-19T10:28:15Z</time>
      </trkpt>
      <trkpt lat="43.54586" lon="6.72785">
        <ele>248.16</ele>
        <time>2011-05-19T10:28:19Z</time>
      </trkpt>
      <trkpt lat="43.54586" lon="6.72785">
        <ele>248.64</ele>
        <time>2011-05-19T10:28:28Z</time>
      </trkpt>
      <trkpt lat="43.54586" lon="6.72785">
        <ele>249.12</ele>
        <time>2011-05-19T10:28:35Z</time>
      </trkpt>
      <trkpt lat="43.54586" lon="6.72785">
        <ele>245.75</ele>
        <time>2011-05-19T10:28:37Z</time>
      </trkpt>
      <trkpt lat="43.54586" lon="6.72785">
        <ele>249.12</ele>
        <time>2011-05-19T10:28:40Z</time>
      </trkpt>
      <trkpt lat="43.54586" lon="6.72785">
        <ele>245.75</ele>
        <time>2011-05-19T10:28:42Z</time>
      </trkpt>
      <trkpt lat="43.54586" lon="6.72785">
        <ele>246.72</ele>
        <time>2011-05-19T10:28:43Z</time>
      </trkpt>
      <trkpt lat="43.54586" lon="6.72785">
        <ele>249.6</ele>
        <time>2011-05-19T10:28:48Z</time>
      </trkpt>
      <trkpt lat="43.54586" lon="6.72785">
        <ele>250.56</ele>
        <time>2011-05-19T10:28:54Z</time>
      </trkpt>
      <trkpt lat="43.54586" lon="6.72785">
        <ele>248.16</ele>
        <time>2011-05-19T10:29:01Z</time>
      </trkpt>
      <trkpt lat="43.54586" lon="6.72785">
        <ele>247.2</ele>
        <time>2011-05-19T10:29:25Z</time>
      </trkpt>
      <trkpt lat="43.54586" lon="6.72785">
        <ele>250.56</ele>
        <time>2011-05-19T10:29:30Z</time>
      </trkpt>
      <trkpt lat="43.54586" lon="6.72785">
        <ele>247.68</ele>
        <time>2011-05-19T10:29:41Z</time>
      </trkpt>
      <trkpt lat="43.54586" lon="6.72785">
        <ele>248.16</ele>
        <time>2011-05-19T10:29:42Z</time>
      </trkpt>
      <trkpt lat="43.54586" lon="6.72785">
        <ele>248.16</ele>
        <time>2011-05-19T10:29:53Z</time>
      </trkpt>
      <trkpt lat="43.54586" lon="6.72785">
        <ele>251.52</ele>
        <time>2011-05-19T10:30:07Z</time>
      </trkpt>
      <trkpt lat="43.54586" lon="6.72785">
        <ele>245.75</ele>
        <time>2011-05-19T10:30:08Z</time>
      </trkpt>
      <trkpt lat="43.54586" lon="6.72785">
        <ele>249.12</ele>
        <time>2011-05-19T10:30:11Z</time>
      </trkpt>
      <trkpt lat="43.54586" lon="6.72786">
        <ele>248.64</ele>
        <time>2011-05-19T10:30:30Z</time>
      </trkpt>
      <trkpt lat="43.54586" lon="6.72786">
        <ele>250.08</ele>
        <time>2011-05-19T10:30:38Z</time>
      </trkpt>
      <trkpt lat="43.54586" lon="6.72786">
        <ele>246.72</ele>
        <time>2011-05-19T10:30:41Z</time>
      </trkpt>
      <trkpt lat="43.54586" lon="6.72786">
        <ele>250.08</ele>
        <time>2011-05-19T10:30:42Z</time>
      </trkpt>
      <trkpt lat="43.54586" lon="6.72786">
        <ele>246.23</ele>
        <time>2011-05-19T10:31:12Z</time>
      </trkpt>
      <trkpt lat="43.54586" lon="6.72786">
        <ele>249.6</ele>
        <time>2011-05-19T10:31:17Z</time>
      </trkpt>
      <trkpt lat="43.54586" lon="6.72786">
        <ele>246.72</ele>
        <time>2011-05-19T10:31:22Z</time>
      </trkpt>
      <trkpt lat="43.54586" lon="6.72786">
        <ele>251.04</ele>
        <time>2011-05-19T10:31:31Z</time>
      </trkpt>
      <trkpt lat="43.54586" lon="6.72786">
        <ele>247.2</ele>
        <time>2011-05-19T10:31:32Z</time>
      </trkpt>
      <trkpt lat="43.54586" lon="6.72786">
        <ele>247.68</ele>
        <time>2011-05-19T10:31:38Z</time>
      </trkpt>
      <trkpt lat="43.54586" lon="6.72786">
        <ele>247.68</ele>
        <time>2011-05-19T10:32:22Z</time>
      </trkpt>
      <trkpt lat="43.54585" lon="6.72786">
        <ele>250.08</ele>
        <time>2011-05-19T10:32:38Z</time>
      </trkpt>
      <trkpt lat="43.54585" lon="6.72786">
        <ele>246.72</ele>
        <time>2011-05-19T10:32:42Z</time>
      </trkpt>
      <trkpt lat="43.54585" lon="6.72786">
        <ele>248.16</ele>
        <time>2011-05-19T10:32:43Z</time>
      </trkpt>
      <trkpt lat="43.54585" lon="6.72786">
        <ele>250.56</ele>
        <time>2011-05-19T10:32:51Z</time>
      </trkpt>
      <trkpt lat="43.54585" lon="6.72786">
        <ele>247.68</ele>
        <time>2011-05-19T10:32:56Z</time>
      </trkpt>
      <trkpt lat="43.54585" lon="6.72786">
        <ele>251.52</ele>
        <time>2011-05-19T10:32:58Z</time>
      </trkpt>
      <trkpt lat="43.54585" lon="6.72786">
        <ele>248.16</ele>
        <time>2011-05-19T10:33:02Z</time>
      </trkpt>
      <trkpt lat="43.54585" lon="6.72786">
        <ele>248.64</ele>
        <time>2011-05-19T10:33:03Z</time>
      </trkpt>
      <trkpt lat="43.54585" lon="6.72786">
        <ele>248.16</ele>
        <time>2011-05-19T10:33:45Z</time>
      </trkpt>
      <trkpt lat="43.54585" lon="6.72786">
        <ele>250.08</ele>
        <time>2011-05-19T10:33:51Z</time>
      </trkpt>
      <trkpt lat="43.54586" lon="6.72786">
        <ele>246.23</ele>
        <time>2011-05-19T10:34:00Z</time>
      </trkpt>
      <trkpt lat="43.54586" lon="6.72786">
        <ele>249.6</ele>
        <time>2011-05-19T10:34:02Z</time>
      </trkpt>
      <trkpt lat="43.54586" lon="6.72786">
        <ele>247.2</ele>
        <time>2011-05-19T10:34:09Z</time>
      </trkpt>
      <trkpt lat="43.54586" lon="6.72786">
        <ele>249.12</ele>
        <time>2011-05-19T10:34:12Z</time>
      </trkpt>
      <trkpt lat="43.54585" lon="6.72786">
        <ele>247.2</ele>
        <time>2011-05-19T10:34:33Z</time>
      </trkpt>
      <trkpt lat="43.54585" lon="6.72786">
        <ele>251.52</ele>
        <time>2011-05-19T10:35:07Z</time>
      </trkpt>
      <trkpt lat="43.54585" lon="6.72786">
        <ele>250.56</ele>
        <time>2011-05-19T10:35:08Z</time>
      </trkpt>
      <trkpt lat="43.54585" lon="6.72786">
        <ele>246.72</ele>
        <time>2011-05-19T10:35:10Z</time>
      </trkpt>
      <trkpt lat="43.54585" lon="6.72786">
        <ele>250.56</ele>
        <time>2011-05-19T10:35:32Z</time>
      </trkpt>
      <trkpt lat="43.54585" lon="6.72786">
        <ele>247.2</ele>
        <time>2011-05-19T10:35:43Z</time>
      </trkpt>
      <trkpt lat="43.54585" lon="6.72786">
        <ele>250.08</ele>
        <time>2011-05-19T10:35:48Z</time>
      </trkpt>
      <trkpt lat="43.54585" lon="6.72786">
        <ele>250.56</ele>
        <time>2011-05-19T10:35:49Z</time>
      </trkpt>
      <trkpt lat="43.54585" lon="6.72786">
        <ele>247.2</ele>
        <time>2011-05-19T10:36:15Z</time>
      </trkpt>
      <trkpt lat="43.54585" lon="6.72786">
        <ele>247.2</ele>
        <time>2011-05-19T10:36:16Z</time>
      </trkpt>
      <trkpt lat="43.54585" lon="6.72786">
        <ele>247.68</ele>
        <time>2011-05-19T10:36:21Z</time>
      </trkpt>
      <trkpt lat="43.54585" lon="6.72786">
        <ele>249.6</ele>
        <time>2011-05-19T10:36:35Z</time>
      </trkpt>
      <trkpt lat="43.54585" lon="6.72786">
        <ele>246.23</ele>
        <time>2011-05-19T10:36:39Z</time>
      </trkpt>
      <trkpt lat="43.54585" lon="6.72786">
        <ele>249.12</ele>
        <time>2011-05-19T10:36:40Z</time>
      </trkpt>
      <trkpt lat="43.54585" lon="6.72786">
        <ele>245.27</ele>
        <time>2011-05-19T10:37:42Z</time>
      </trkpt>
      <trkpt lat="43.54585" lon="6.72786">
        <ele>249.12</ele>
        <time>2011-05-19T10:37:45Z</time>
      </trkpt>
      <trkpt lat="43.54585" lon="6.72786">
        <ele>245.75</ele>
        <time>2011-05-19T10:38:18Z</time>
      </trkpt>
      <trkpt lat="43.54585" lon="6.72786">
        <ele>250.56</ele>
        <time>2011-05-19T10:38:20Z</time>
      </trkpt>
      <trkpt lat="43.54585" lon="6.72786">
        <ele>250.08</ele>
        <time>2011-05-19T10:38:21Z</time>
      </trkpt>
      <trkpt lat="43.54585" lon="6.72786">
        <ele>246.72</ele>
        <time>2011-05-19T10:38:26Z</time>
      </trkpt>
      <trkpt lat="43.54585" lon="6.72786">
        <ele>247.68</ele>
        <time>2011-05-19T10:38:27Z</time>
      </trkpt>
      <trkpt lat="43.54585" lon="6.72786">
        <ele>247.2</ele>
        <time>2011-05-19T10:38:33Z</time>
      </trkpt>
      <trkpt lat="43.54585" lon="6.72786">
        <ele>250.56</ele>
        <time>2011-05-19T10:38:35Z</time>
      </trkpt>
      <trkpt lat="43.54585" lon="6.72786">
        <ele>247.2</ele>
        <time>2011-05-19T10:38:41Z</time>
      </trkpt>
      <trkpt lat="43.54585" lon="6.72786">
        <ele>250.56</ele>
        <time>2011-05-19T10:38:45Z</time>
      </trkpt>
      <trkpt lat="43.54585" lon="6.72786">
        <ele>247.68</ele>
        <time>2011-05-19T10:38:46Z</time>
      </trkpt>
      <trkpt lat="43.54585" lon="6.72786">
        <ele>251.04</ele>
        <time>2011-05-19T10:38:47Z</time>
      </trkpt>
      <trkpt lat="43.54585" lon="6.72786">
        <ele>247.2</ele>
        <time>2011-05-19T10:38:50Z</time>
      </trkpt>
      <trkpt lat="43.54585" lon="6.72786">
        <ele>250.08</ele>
        <time>2011-05-19T10:38:54Z</time>
      </trkpt>
      <trkpt lat="43.54585" lon="6.72786">
        <ele>246.23</ele>
        <time>2011-05-19T10:39:04Z</time>
      </trkpt>
      <trkpt lat="43.54585" lon="6.72786">
        <ele>249.6</ele>
        <time>2011-05-19T10:39:07Z</time>
      </trkpt>
      <trkpt lat="43.54585" lon="6.72786">
        <ele>245.75</ele>
        <time>2011-05-19T10:39:11Z</time>
      </trkpt>
      <trkpt lat="43.54585" lon="6.72786">
        <ele>247.2</ele>
        <time>2011-05-19T10:39:12Z</time>
      </trkpt>
      <trkpt lat="43.54585" lon="6.72786">
        <ele>250.08</ele>
        <time>2011-05-19T10:39:24Z</time>
      </trkpt>
      <trkpt lat="43.54585" lon="6.72786">
        <ele>246.72</ele>
        <time>2011-05-19T10:39:31Z</time>
      </trkpt>
      <trkpt lat="43.54585" lon="6.72786">
        <ele>246.23</ele>
        <time>2011-05-19T10:39:32Z</time>
      </trkpt>
      <trkpt lat="43.54585" lon="6.72786">
        <ele>250.08</ele>
        <time>2011-05-19T10:39:35Z</time>
      </trkpt>
      <trkpt lat="43.54585" lon="6.72786">
        <ele>252.96</ele>
        <time>2011-05-19T10:39:50Z</time>
      </trkpt>
      <trkpt lat="43.54585" lon="6.72786">
        <ele>248.16</ele>
        <time>2011-05-19T10:39:51Z</time>
      </trkpt>
      <trkpt lat="43.54585" lon="6.72786">
        <ele>249.6</ele>
        <time>2011-05-19T10:40:00Z</time>
      </trkpt>
      <trkpt lat="43.54585" lon="6.72786">
        <ele>248.64</ele>
        <time>2011-05-19T10:40:02Z</time>
      </trkpt>
      <trkpt lat="43.54585" lon="6.72786">
        <ele>246.72</ele>
        <time>2011-05-19T10:40:11Z</time>
      </trkpt>
      <trkpt lat="43.54585" lon="6.72786">
        <ele>250.08</ele>
        <time>2011-05-19T10:40:18Z</time>
      </trkpt>
      <trkpt lat="43.54585" lon="6.72786">
        <ele>246.23</ele>
        <time>2011-05-19T10:40:22Z</time>
      </trkpt>
      <trkpt lat="43.54585" lon="6.72786">
        <ele>252</ele>
        <time>2011-05-19T10:40:23Z</time>
      </trkpt>
      <trkpt lat="43.54585" lon="6.72786">
        <ele>248.64</ele>
        <time>2011-05-19T10:40:25Z</time>
      </trkpt>
      <trkpt lat="43.54585" lon="6.72786">
        <ele>248.64</ele>
        <time>2011-05-19T10:40:26Z</time>
      </trkpt>
      <trkpt lat="43.54585" lon="6.72787">
        <ele>249.12</ele>
        <time>2011-05-19T10:40:50Z</time>
      </trkpt>
      <trkpt lat="43.54585" lon="6.72787">
        <ele>246.23</ele>
        <time>2011-05-19T10:41:03Z</time>
      </trkpt>
      <trkpt lat="43.54585" lon="6.72787">
        <ele>246.72</ele>
        <time>2011-05-19T10:41:04Z</time>
      </trkpt>
      <trkpt lat="43.54585" lon="6.72787">
        <ele>249.12</ele>
        <time>2011-05-19T10:41:06Z</time>
      </trkpt>
      <trkpt lat="43.54584" lon="6.72787">
        <ele>247.2</ele>
        <time>2011-05-19T10:41:11Z</time>
      </trkpt>
      <trkpt lat="43.54584" lon="6.72787">
        <ele>246.72</ele>
        <time>2011-05-19T10:41:15Z</time>
      </trkpt>
      <trkpt lat="43.54584" lon="6.72786">
        <ele>247.68</ele>
        <time>2011-05-19T10:41:17Z</time>
      </trkpt>
      <trkpt lat="43.54586" lon="6.72784">
        <ele>249.12</ele>
        <time>2011-05-19T10:41:43Z</time>
      </trkpt>
      <trkpt lat="43.54586" lon="6.72784">
        <ele>246.72</ele>
        <time>2011-05-19T10:41:46Z</time>
      </trkpt>
      <trkpt lat="43.54586" lon="6.72785">
        <ele>248.64</ele>
        <time>2011-05-19T10:42:09Z</time>
      </trkpt>
      <trkpt lat="43.54585" lon="6.72785">
        <ele>248.64</ele>
        <time>2011-05-19T10:42:24Z</time>
      </trkpt>
      <trkpt lat="43.54585" lon="6.72786">
        <ele>248.64</ele>
        <time>2011-05-19T10:42:28Z</time>
      </trkpt>
      <trkpt lat="43.54587" lon="6.72785">
        <ele>246.72</ele>
        <time>2011-05-19T10:42:40Z</time>
      </trkpt>
      <trkpt lat="43.54588" lon="6.72785">
        <ele>250.08</ele>
        <time>2011-05-19T10:42:42Z</time>
      </trkpt>
      <trkpt lat="43.54587" lon="6.72786">
        <ele>246.23</ele>
        <time>2011-05-19T10:42:46Z</time>
      </trkpt>
      <trkpt lat="43.54585" lon="6.72784">
        <ele>249.12</ele>
        <time>2011-05-19T10:42:57Z</time>
      </trkpt>
      <trkpt lat="43.54585" lon="6.72783">
        <ele>244.79</ele>
        <time>2011-05-19T10:42:59Z</time>
      </trkpt>
      <trkpt lat="43.54585" lon="6.72783">
        <ele>249.12</ele>
        <time>2011-05-19T10:43:00Z</time>
      </trkpt>
      <trkpt lat="43.54588" lon="6.72782">
        <ele>249.12</ele>
        <time>2011-05-19T10:43:13Z</time>
      </trkpt>
      <trkpt lat="43.54588" lon="6.72782">
        <ele>247.2</ele>
        <time>2011-05-19T10:43:15Z</time>
      </trkpt>
      <trkpt lat="43.54589" lon="6.72782">
        <ele>246.72</ele>
        <time>2011-05-19T10:43:16Z</time>
      </trkpt>
      <trkpt lat="43.54591" lon="6.72784">
        <ele>245.75</ele>
        <time>2011-05-19T10:43:19Z</time>
      </trkpt>
      <trkpt lat="43.54591" lon="6.72784">
        <ele>249.6</ele>
        <time>2011-05-19T10:43:20Z</time>
      </trkpt>
      <trkpt lat="43.54597" lon="6.72786">
        <ele>250.56</ele>
        <time>2011-05-19T10:43:33Z</time>
      </trkpt>
      <trkpt lat="43.54597" lon="6.72786">
        <ele>247.2</ele>
        <time>2011-05-19T10:43:40Z</time>
      </trkpt>
      <trkpt lat="43.54597" lon="6.72785">
        <ele>250.08</ele>
        <time>2011-05-19T10:43:58Z</time>
      </trkpt>
      <trkpt lat="43.54597" lon="6.72785">
        <ele>250.08</ele>
        <time>2011-05-19T10:43:59Z</time>
      </trkpt>
      <trkpt lat="43.54597" lon="6.72785">
        <ele>248.64</ele>
        <time>2011-05-19T10:44:02Z</time>
      </trkpt>
      <trkpt lat="43.54598" lon="6.72785">
        <ele>248.64</ele>
        <time>2011-05-19T10:44:09Z</time>
      </trkpt>
      <trkpt lat="43.54595" lon="6.72787">
        <ele>252</ele>
        <time>2011-05-19T10:44:41Z</time>
      </trkpt>
      <trkpt lat="43.54594" lon="6.72788">
        <ele>248.64</ele>
        <time>2011-05-19T10:44:43Z</time>
      </trkpt>
      <trkpt lat="43.54594" lon="6.72788">
        <ele>248.16</ele>
        <time>2011-05-19T10:44:44Z</time>
      </trkpt>
      <trkpt lat="43.54588" lon="6.72789">
        <ele>248.16</ele>
        <time>2011-05-19T10:44:49Z</time>
      </trkpt>
      <trkpt lat="43.54585" lon="6.72784">
        <ele>246.23</ele>
        <time>2011-05-19T10:45:01Z</time>
      </trkpt>
      <trkpt lat="43.54584" lon="6.72783">
        <ele>251.04</ele>
        <time>2011-05-19T10:45:05Z</time>
      </trkpt>
      <trkpt lat="43.54584" lon="6.72783">
        <ele>247.68</ele>
        <time>2011-05-19T10:45:10Z</time>
      </trkpt>
      <trkpt lat="43.54584" lon="6.72784">
        <ele>249.12</ele>
        <time>2011-05-19T10:45:30Z</time>
      </trkpt>
      <trkpt lat="43.54586" lon="6.72785">
        <ele>250.08</ele>
        <time>2011-05-19T10:45:48Z</time>
      </trkpt>
      <trkpt lat="43.54586" lon="6.72784">
        <ele>246.72</ele>
        <time>2011-05-19T10:46:02Z</time>
      </trkpt>
      <trkpt lat="43.54586" lon="6.72784">
        <ele>251.04</ele>
        <time>2011-05-19T10:46:06Z</time>
      </trkpt>
      <trkpt lat="43.54586" lon="6.72784">
        <ele>247.68</ele>
        <time>2011-05-19T10:46:07Z</time>
      </trkpt>
      <trkpt lat="43.54586" lon="6.72783">
        <ele>247.68</ele>
        <time>2011-05-19T10:46:22Z</time>
      </trkpt>
      <trkpt lat="43.54586" lon="6.72783">
        <ele>249.12</ele>
        <time>2011-05-19T10:46:26Z</time>
      </trkpt>
      <trkpt lat="43.54586" lon="6.72783">
        <ele>245.75</ele>
        <time>2011-05-19T10:46:33Z</time>
      </trkpt>
      <trkpt lat="43.54586" lon="6.72783">
        <ele>250.08</ele>
        <time>2011-05-19T10:46:35Z</time>
      </trkpt>
      <trkpt lat="43.54586" lon="6.72783">
        <ele>246.23</ele>
        <time>2011-05-19T10:46:39Z</time>
      </trkpt>
      <trkpt lat="43.54586" lon="6.72783">
        <ele>250.08</ele>
        <time>2011-05-19T10:46:47Z</time>
      </trkpt>
      <trkpt lat="43.54586" lon="6.72783">
        <ele>247.2</ele>
        <time>2011-05-19T10:46:54Z</time>
      </trkpt>
      <trkpt lat="43.54586" lon="6.72783">
        <ele>247.2</ele>
        <time>2011-05-19T10:46:55Z</time>
      </trkpt>
      <trkpt lat="43.54586" lon="6.72783">
        <ele>249.6</ele>
        <time>2011-05-19T10:46:57Z</time>
      </trkpt>
      <trkpt lat="43.54583" lon="6.72781">
        <ele>247.68</ele>
        <time>2011-05-19T10:47:11Z</time>
      </trkpt>
      <trkpt lat="43.54583" lon="6.72782">
        <ele>249.12</ele>
        <time>2011-05-19T10:47:24Z</time>
      </trkpt>
      <trkpt lat="43.54582" lon="6.72782">
        <ele>246.72</ele>
        <time>2011-05-19T10:47:33Z</time>
      </trkpt>
      <trkpt lat="43.54583" lon="6.72781">
        <ele>248.16</ele>
        <time>2011-05-19T10:47:36Z</time>
      </trkpt>
      <trkpt lat="43.54584" lon="6.72779">
        <ele>247.2</ele>
        <time>2011-05-19T10:47:52Z</time>
      </trkpt>
      <trkpt lat="43.54584" lon="6.72779">
        <ele>250.08</ele>
        <time>2011-05-19T10:47:54Z</time>
      </trkpt>
      <trkpt lat="43.54584" lon="6.72779">
        <ele>246.23</ele>
        <time>2011-05-19T10:47:55Z</time>
      </trkpt>
      <trkpt lat="43.54584" lon="6.72779">
        <ele>248.64</ele>
        <time>2011-05-19T10:47:56Z</time>
      </trkpt>
      <trkpt lat="43.54584" lon="6.72778">
        <ele>247.68</ele>
        <time>2011-05-19T10:48:04Z</time>
      </trkpt>
      <trkpt lat="43.54585" lon="6.72766">
        <ele>247.68</ele>
        <time>2011-05-19T10:48:10Z</time>
      </trkpt>
      <trkpt lat="43.54584" lon="6.72758">
        <ele>246.23</ele>
        <time>2011-05-19T10:48:12Z</time>
      </trkpt>
      <trkpt lat="43.54581" lon="6.72713">
        <ele>245.75</ele>
        <time>2011-05-19T10:48:22Z</time>
      </trkpt>
      <trkpt lat="43.54561" lon="6.72677">
        <ele>246.72</ele>
        <time>2011-05-19T10:48:32Z</time>
      </trkpt>
      <trkpt lat="43.54558" lon="6.72676">
        <ele>249.6</ele>
        <time>2011-05-19T10:48:33Z</time>
      </trkpt>
      <trkpt lat="43.54555" lon="6.72674">
        <ele>246.23</ele>
        <time>2011-05-19T10:48:34Z</time>
      </trkpt>
      <trkpt lat="43.54548" lon="6.72672">
        <ele>248.64</ele>
        <time>2011-05-19T10:48:37Z</time>
      </trkpt>
      <trkpt lat="43.54526" lon="6.72668">
        <ele>252</ele>
        <time>2011-05-19T10:48:49Z</time>
      </trkpt>
      <trkpt lat="43.54524" lon="6.72668">
        <ele>252</ele>
        <time>2011-05-19T10:48:50Z</time>
      </trkpt>
      <trkpt lat="43.54516" lon="6.7264">
        <ele>254.89</ele>
        <time>2011-05-19T10:49:03Z</time>
      </trkpt>
      <trkpt lat="43.54517" lon="6.72624">
        <ele>251.52</ele>
        <time>2011-05-19T10:49:09Z</time>
      </trkpt>
      <trkpt lat="43.54518" lon="6.72614">
        <ele>255.85</ele>
        <time>2011-05-19T10:49:13Z</time>
      </trkpt>
      <trkpt lat="43.5452" lon="6.72599">
        <ele>255.85</ele>
        <time>2011-05-19T10:49:19Z</time>
      </trkpt>
      <trkpt lat="43.54522" lon="6.72575">
        <ele>260.65</ele>
        <time>2011-05-19T10:49:28Z</time>
      </trkpt>
      <trkpt lat="43.54522" lon="6.72573">
        <ele>257.77</ele>
        <time>2011-05-19T10:49:29Z</time>
      </trkpt>
      <trkpt lat="43.54527" lon="6.72551">
        <ele>261.62</ele>
        <time>2011-05-19T10:49:37Z</time>
      </trkpt>
      <trkpt lat="43.54527" lon="6.72548">
        <ele>258.73</ele>
        <time>2011-05-19T10:49:38Z</time>
      </trkpt>
      <trkpt lat="43.54535" lon="6.72521">
        <ele>263.06</ele>
        <time>2011-05-19T10:49:49Z</time>
      </trkpt>
      <trkpt lat="43.54536" lon="6.72519">
        <ele>262.58</ele>
        <time>2011-05-19T10:49:50Z</time>
      </trkpt>
      <trkpt lat="43.54538" lon="6.7251">
        <ele>263.06</ele>
        <time>2011-05-19T10:49:54Z</time>
      </trkpt>
      <trkpt lat="43.54546" lon="6.72472">
        <ele>266.9</ele>
        <time>2011-05-19T10:50:10Z</time>
      </trkpt>
      <trkpt lat="43.54545" lon="6.72469">
        <ele>263.06</ele>
        <time>2011-05-19T10:50:11Z</time>
      </trkpt>
      <trkpt lat="43.54545" lon="6.72466">
        <ele>263.06</ele>
        <time>2011-05-19T10:50:12Z</time>
      </trkpt>
      <trkpt lat="43.54545" lon="6.72464">
        <ele>268.35</ele>
        <time>2011-05-19T10:50:13Z</time>
      </trkpt>
      <trkpt lat="43.54545" lon="6.72461">
        <ele>266.42</ele>
        <time>2011-05-19T10:50:14Z</time>
      </trkpt>
      <trkpt lat="43.54542" lon="6.72446">
        <ele>269.31</ele>
        <time>2011-05-19T10:50:20Z</time>
      </trkpt>
      <trkpt lat="43.54536" lon="6.72423">
        <ele>269.79</ele>
        <time>2011-05-19T10:50:31Z</time>
      </trkpt>
      <trkpt lat="43.5453" lon="6.72395">
        <ele>272.67</ele>
        <time>2011-05-19T10:50:44Z</time>
      </trkpt>
      <trkpt lat="43.54528" lon="6.72383">
        <ele>269.79</ele>
        <time>2011-05-19T10:50:51Z</time>
      </trkpt>
      <trkpt lat="43.54528" lon="6.72381">
        <ele>273.63</ele>
        <time>2011-05-19T10:50:52Z</time>
      </trkpt>
      <trkpt lat="43.54527" lon="6.72379">
        <ele>274.11</ele>
        <time>2011-05-19T10:50:53Z</time>
      </trkpt>
      <trkpt lat="43.54525" lon="6.72363">
        <ele>275.56</ele>
        <time>2011-05-19T10:51:00Z</time>
      </trkpt>
      <trkpt lat="43.54533" lon="6.72334">
        <ele>277</ele>
        <time>2011-05-19T10:51:15Z</time>
      </trkpt>
      <trkpt lat="43.54543" lon="6.72308">
        <ele>279.4</ele>
        <time>2011-05-19T10:51:30Z</time>
      </trkpt>
      <trkpt lat="43.54544" lon="6.72306">
        <ele>279.88</ele>
        <time>2011-05-19T10:51:31Z</time>
      </trkpt>
      <trkpt lat="43.54554" lon="6.72287">
        <ele>283.25</ele>
        <time>2011-05-19T10:51:43Z</time>
      </trkpt>
      <trkpt lat="43.54557" lon="6.72282">
        <ele>279.88</ele>
        <time>2011-05-19T10:51:46Z</time>
      </trkpt>
      <trkpt lat="43.54565" lon="6.72266">
        <ele>283.73</ele>
        <time>2011-05-19T10:51:55Z</time>
      </trkpt>
      <trkpt lat="43.54574" lon="6.72246">
        <ele>283.25</ele>
        <time>2011-05-19T10:52:06Z</time>
      </trkpt>
      <trkpt lat="43.54578" lon="6.72232">
        <ele>286.61</ele>
        <time>2011-05-19T10:52:13Z</time>
      </trkpt>
      <trkpt lat="43.54581" lon="6.72212">
        <ele>285.65</ele>
        <time>2011-05-19T10:52:22Z</time>
      </trkpt>
      <trkpt lat="43.54584" lon="6.72199">
        <ele>289.01</ele>
        <time>2011-05-19T10:52:28Z</time>
      </trkpt>
      <trkpt lat="43.54588" lon="6.72174">
        <ele>288.05</ele>
        <time>2011-05-19T10:52:40Z</time>
      </trkpt>
      <trkpt lat="43.54589" lon="6.72168">
        <ele>290.46</ele>
        <time>2011-05-19T10:52:43Z</time>
      </trkpt>
      <trkpt lat="43.5459" lon="6.72156">
        <ele>289.49</ele>
        <time>2011-05-19T10:52:49Z</time>
      </trkpt>
      <trkpt lat="43.54591" lon="6.72152">
        <ele>290.94</ele>
        <time>2011-05-19T10:52:51Z</time>
      </trkpt>
      <trkpt lat="43.54592" lon="6.7214">
        <ele>295.74</ele>
        <time>2011-05-19T10:52:57Z</time>
      </trkpt>
      <trkpt lat="43.54594" lon="6.72132">
        <ele>292.86</ele>
        <time>2011-05-19T10:53:01Z</time>
      </trkpt>
      <trkpt lat="43.54598" lon="6.72111">
        <ele>297.18</ele>
        <time>2011-05-19T10:53:11Z</time>
      </trkpt>
      <trkpt lat="43.54607" lon="6.72085">
        <ele>299.11</ele>
        <time>2011-05-19T10:53:25Z</time>
      </trkpt>
      <trkpt lat="43.54606" lon="6.72073">
        <ele>299.59</ele>
        <time>2011-05-19T10:53:31Z</time>
      </trkpt>
      <trkpt lat="43.54604" lon="6.7207">
        <ele>299.11</ele>
        <time>2011-05-19T10:53:33Z</time>
      </trkpt>
      <trkpt lat="43.54601" lon="6.7207">
        <ele>296.22</ele>
        <time>2011-05-19T10:53:35Z</time>
      </trkpt>
      <trkpt lat="43.5459" lon="6.72094">
        <ele>303.91</ele>
        <time>2011-05-19T10:53:49Z</time>
      </trkpt>
      <trkpt lat="43.54589" lon="6.72096">
        <ele>301.03</ele>
        <time>2011-05-19T10:53:50Z</time>
      </trkpt>
      <trkpt lat="43.54587" lon="6.72108">
        <ele>303.91</ele>
        <time>2011-05-19T10:53:57Z</time>
      </trkpt>
      <trkpt lat="43.54581" lon="6.72124">
        <ele>305.84</ele>
        <time>2011-05-19T10:54:06Z</time>
      </trkpt>
      <trkpt lat="43.54571" lon="6.72147">
        <ele>309.2</ele>
        <time>2011-05-19T10:54:19Z</time>
      </trkpt>
      <trkpt lat="43.5457" lon="6.72148">
        <ele>308.72</ele>
        <time>2011-05-19T10:54:20Z</time>
      </trkpt>
      <trkpt lat="43.54568" lon="6.72151">
        <ele>307.76</ele>
        <time>2011-05-19T10:54:22Z</time>
      </trkpt>
      <trkpt lat="43.54556" lon="6.72173">
        <ele>312.09</ele>
        <time>2011-05-19T10:54:35Z</time>
      </trkpt>
      <trkpt lat="43.54555" lon="6.72175">
        <ele>311.12</ele>
        <time>2011-05-19T10:54:36Z</time>
      </trkpt>
      <trkpt lat="43.5455" lon="6.7219">
        <ele>314.49</ele>
        <time>2011-05-19T10:54:44Z</time>
      </trkpt>
      <trkpt lat="43.54547" lon="6.72197">
        <ele>310.64</ele>
        <time>2011-05-19T10:54:47Z</time>
      </trkpt>
      <trkpt lat="43.54547" lon="6.72199">
        <ele>314.49</ele>
        <time>2011-05-19T10:54:48Z</time>
      </trkpt>
      <trkpt lat="43.54535" lon="6.7222">
        <ele>316.41</ele>
        <time>2011-05-19T10:54:59Z</time>
      </trkpt>
      <trkpt lat="43.54533" lon="6.72224">
        <ele>314.97</ele>
        <time>2011-05-19T10:55:01Z</time>
      </trkpt>
      <trkpt lat="43.54517" lon="6.72244">
        <ele>317.37</ele>
        <time>2011-05-19T10:55:14Z</time>
      </trkpt>
      <trkpt lat="43.54488" lon="6.72262">
        <ele>319.3</ele>
        <time>2011-05-19T10:55:30Z</time>
      </trkpt>
      <trkpt lat="43.5446" lon="6.723">
        <ele>320.74</ele>
        <time>2011-05-19T10:55:46Z</time>
      </trkpt>
      <trkpt lat="43.54451" lon="6.7231">
        <ele>317.37</ele>
        <time>2011-05-19T10:55:50Z</time>
      </trkpt>
      <trkpt lat="43.54443" lon="6.72316">
        <ele>320.74</ele>
        <time>2011-05-19T10:55:54Z</time>
      </trkpt>
      <trkpt lat="43.54439" lon="6.72316">
        <ele>322.18</ele>
        <time>2011-05-19T10:55:56Z</time>
      </trkpt>
      <trkpt lat="43.54432" lon="6.72312">
        <ele>319.78</ele>
        <time>2011-05-19T10:56:00Z</time>
      </trkpt>
      <trkpt lat="43.54411" lon="6.72276">
        <ele>318.81</ele>
        <time>2011-05-19T10:56:13Z</time>
      </trkpt>
      <trkpt lat="43.54399" lon="6.72248">
        <ele>320.26</ele>
        <time>2011-05-19T10:56:19Z</time>
      </trkpt>
      <trkpt lat="43.54392" lon="6.72225">
        <ele>323.14</ele>
        <time>2011-05-19T10:56:23Z</time>
      </trkpt>
      <trkpt lat="43.54391" lon="6.7222">
        <ele>318.33</ele>
        <time>2011-05-19T10:56:24Z</time>
      </trkpt>
      <trkpt lat="43.54379" lon="6.72181">
        <ele>318.81</ele>
        <time>2011-05-19T10:56:31Z</time>
      </trkpt>
      <trkpt lat="43.54373" lon="6.72155">
        <ele>314.97</ele>
        <time>2011-05-19T10:56:35Z</time>
      </trkpt>
      <trkpt lat="43.54371" lon="6.72148">
        <ele>314.97</ele>
        <time>2011-05-19T10:56:36Z</time>
      </trkpt>
      <trkpt lat="43.54367" lon="6.72129">
        <ele>315.45</ele>
        <time>2011-05-19T10:56:38Z</time>
      </trkpt>
      <trkpt lat="43.54355" lon="6.72079">
        <ele>314.01</ele>
        <time>2011-05-19T10:56:44Z</time>
      </trkpt>
      <trkpt lat="43.54352" lon="6.72063">
        <ele>316.41</ele>
        <time>2011-05-19T10:56:46Z</time>
      </trkpt>
      <trkpt lat="43.54335" lon="6.71973">
        <ele>314.97</ele>
        <time>2011-05-19T10:56:58Z</time>
      </trkpt>
      <trkpt lat="43.54332" lon="6.71958">
        <ele>314.01</ele>
        <time>2011-05-19T10:57:00Z</time>
      </trkpt>
      <trkpt lat="43.54329" lon="6.71935">
        <ele>314.49</ele>
        <time>2011-05-19T10:57:03Z</time>
      </trkpt>
      <trkpt lat="43.54319" lon="6.71901">
        <ele>312.57</ele>
        <time>2011-05-19T10:57:08Z</time>
      </trkpt>
      <trkpt lat="43.54307" lon="6.71882">
        <ele>314.97</ele>
        <time>2011-05-19T10:57:12Z</time>
      </trkpt>
      <trkpt lat="43.54298" lon="6.71862">
        <ele>312.09</ele>
        <time>2011-05-19T10:57:16Z</time>
      </trkpt>
      <trkpt lat="43.54296" lon="6.71856">
        <ele>313.05</ele>
        <time>2011-05-19T10:57:17Z</time>
      </trkpt>
      <trkpt lat="43.54274" lon="6.71812">
        <ele>312.57</ele>
        <time>2011-05-19T10:57:29Z</time>
      </trkpt>
      <trkpt lat="43.5426" lon="6.71786">
        <ele>311.12</ele>
        <time>2011-05-19T10:57:40Z</time>
      </trkpt>
      <trkpt lat="43.54259" lon="6.71776">
        <ele>313.05</ele>
        <time>2011-05-19T10:57:44Z</time>
      </trkpt>
      <trkpt lat="43.54258" lon="6.71766">
        <ele>312.57</ele>
        <time>2011-05-19T10:57:51Z</time>
      </trkpt>
      <trkpt lat="43.54258" lon="6.71763">
        <ele>310.16</ele>
        <time>2011-05-19T10:57:53Z</time>
      </trkpt>
      <trkpt lat="43.54256" lon="6.71757">
        <ele>312.09</ele>
        <time>2011-05-19T10:58:01Z</time>
      </trkpt>
      <trkpt lat="43.54258" lon="6.71768">
        <ele>312.57</ele>
        <time>2011-05-19T10:58:07Z</time>
      </trkpt>
      <trkpt lat="43.54259" lon="6.71774">
        <ele>312.57</ele>
        <time>2011-05-19T10:58:09Z</time>
      </trkpt>
      <trkpt lat="43.54267" lon="6.71798">
        <ele>310.64</ele>
        <time>2011-05-19T10:58:20Z</time>
      </trkpt>
      <trkpt lat="43.54269" lon="6.71805">
        <ele>312.57</ele>
        <time>2011-05-19T10:58:23Z</time>
      </trkpt>
      <trkpt lat="43.54272" lon="6.71813">
        <ele>314.97</ele>
        <time>2011-05-19T10:58:26Z</time>
      </trkpt>
      <trkpt lat="43.54274" lon="6.71813">
        <ele>312.57</ele>
        <time>2011-05-19T10:58:28Z</time>
      </trkpt>
      <trkpt lat="43.54268" lon="6.718">
        <ele>313.05</ele>
        <time>2011-05-19T10:58:33Z</time>
      </trkpt>
      <trkpt lat="43.54258" lon="6.71773">
        <ele>309.2</ele>
        <time>2011-05-19T10:58:42Z</time>
      </trkpt>
      <trkpt lat="43.54257" lon="6.71766">
        <ele>314.49</ele>
        <time>2011-05-19T10:58:44Z</time>
      </trkpt>
      <trkpt lat="43.54257" lon="6.71763">
        <ele>313.05</ele>
        <time>2011-05-19T10:58:45Z</time>
      </trkpt>
      <trkpt lat="43.54256" lon="6.7174">
        <ele>309.68</ele>
        <time>2011-05-19T10:58:52Z</time>
      </trkpt>
      <trkpt lat="43.54262" lon="6.71715">
        <ele>309.68</ele>
        <time>2011-05-19T10:58:58Z</time>
      </trkpt>
      <trkpt lat="43.54264" lon="6.71703">
        <ele>307.28</ele>
        <time>2011-05-19T10:59:00Z</time>
      </trkpt>
      <trkpt lat="43.54252" lon="6.71677">
        <ele>305.84</ele>
        <time>2011-05-19T10:59:09Z</time>
      </trkpt>
      <trkpt lat="43.54238" lon="6.71656">
        <ele>309.2</ele>
        <time>2011-05-19T10:59:17Z</time>
      </trkpt>
      <trkpt lat="43.54236" lon="6.71652">
        <ele>305.36</ele>
        <time>2011-05-19T10:59:18Z</time>
      </trkpt>
      <trkpt lat="43.54235" lon="6.71647">
        <ele>306.8</ele>
        <time>2011-05-19T10:59:19Z</time>
      </trkpt>
      <trkpt lat="43.54242" lon="6.71611">
        <ele>306.8</ele>
        <time>2011-05-19T10:59:27Z</time>
      </trkpt>
      <trkpt lat="43.54245" lon="6.71608">
        <ele>305.84</ele>
        <time>2011-05-19T10:59:29Z</time>
      </trkpt>
      <trkpt lat="43.54247" lon="6.71606">
        <ele>304.39</ele>
        <time>2011-05-19T10:59:31Z</time>
      </trkpt>
      <trkpt lat="43.54241" lon="6.71595">
        <ele>301.99</ele>
        <time>2011-05-19T10:59:36Z</time>
      </trkpt>
      <trkpt lat="43.54218" lon="6.71559">
        <ele>301.03</ele>
        <time>2011-05-19T10:59:47Z</time>
      </trkpt>
      <trkpt lat="43.54215" lon="6.71557">
        <ele>303.43</ele>
        <time>2011-05-19T10:59:49Z</time>
      </trkpt>
      <trkpt lat="43.5421" lon="6.71557">
        <ele>304.39</ele>
        <time>2011-05-19T10:59:52Z</time>
      </trkpt>
      <trkpt lat="43.54203" lon="6.7156">
        <ele>304.88</ele>
        <time>2011-05-19T10:59:56Z</time>
      </trkpt>
      <trkpt lat="43.54189" lon="6.71562">
        <ele>303.91</ele>
        <time>2011-05-19T11:00:01Z</time>
      </trkpt>
      <trkpt lat="43.5417" lon="6.71553">
        <ele>306.32</ele>
        <time>2011-05-19T11:00:09Z</time>
      </trkpt>
      <trkpt lat="43.54167" lon="6.71552">
        <ele>302.95</ele>
        <time>2011-05-19T11:00:10Z</time>
      </trkpt>
      <trkpt lat="43.54149" lon="6.71532">
        <ele>306.32</ele>
        <time>2011-05-19T11:00:22Z</time>
      </trkpt>
      <trkpt lat="43.54142" lon="6.71511">
        <ele>310.16</ele>
        <time>2011-05-19T11:00:31Z</time>
      </trkpt>
      <trkpt lat="43.5414" lon="6.7149">
        <ele>308.24</ele>
        <time>2011-05-19T11:00:40Z</time>
      </trkpt>
      <trkpt lat="43.5414" lon="6.71485">
        <ele>312.09</ele>
        <time>2011-05-19T11:00:42Z</time>
      </trkpt>
      <trkpt lat="43.5414" lon="6.71483">
        <ele>307.76</ele>
        <time>2011-05-19T11:00:43Z</time>
      </trkpt>
      <trkpt lat="43.54141" lon="6.71474">
        <ele>312.09</ele>
        <time>2011-05-19T11:00:47Z</time>
      </trkpt>
      <trkpt lat="43.54144" lon="6.71459">
        <ele>307.76</ele>
        <time>2011-05-19T11:00:54Z</time>
      </trkpt>
      <trkpt lat="43.54144" lon="6.71457">
        <ele>309.68</ele>
        <time>2011-05-19T11:00:55Z</time>
      </trkpt>
      <trkpt lat="43.54144" lon="6.71454">
        <ele>306.32</ele>
        <time>2011-05-19T11:00:56Z</time>
      </trkpt>
      <trkpt lat="43.54145" lon="6.71449">
        <ele>309.68</ele>
        <time>2011-05-19T11:00:58Z</time>
      </trkpt>
      <trkpt lat="43.54146" lon="6.71447">
        <ele>313.53</ele>
        <time>2011-05-19T11:00:59Z</time>
      </trkpt>
      <trkpt lat="43.54146" lon="6.71445">
        <ele>310.16</ele>
        <time>2011-05-19T11:01:00Z</time>
      </trkpt>
      <trkpt lat="43.54148" lon="6.71437">
        <ele>309.2</ele>
        <time>2011-05-19T11:01:04Z</time>
      </trkpt>
      <trkpt lat="43.54148" lon="6.71437">
        <ele>310.64</ele>
        <time>2011-05-19T11:01:07Z</time>
      </trkpt>
      <trkpt lat="43.54149" lon="6.71422">
        <ele>314.01</ele>
        <time>2011-05-19T11:01:13Z</time>
      </trkpt>
      <trkpt lat="43.54149" lon="6.7142">
        <ele>310.16</ele>
        <time>2011-05-19T11:01:14Z</time>
      </trkpt>
      <trkpt lat="43.54151" lon="6.71409">
        <ele>307.28</ele>
        <time>2011-05-19T11:01:19Z</time>
      </trkpt>
      <trkpt lat="43.54146" lon="6.71405">
        <ele>306.32</ele>
        <time>2011-05-19T11:01:23Z</time>
      </trkpt>
      <trkpt lat="43.54144" lon="6.71403">
        <ele>307.28</ele>
        <time>2011-05-19T11:01:24Z</time>
      </trkpt>
      <trkpt lat="43.5414" lon="6.714">
        <ele>307.76</ele>
        <time>2011-05-19T11:01:26Z</time>
      </trkpt>
      <trkpt lat="43.54135" lon="6.71396">
        <ele>306.32</ele>
        <time>2011-05-19T11:01:28Z</time>
      </trkpt>
      <trkpt lat="43.54128" lon="6.71393">
        <ele>302.95</ele>
        <time>2011-05-19T11:01:30Z</time>
      </trkpt>
      <trkpt lat="43.54124" lon="6.71392">
        <ele>305.36</ele>
        <time>2011-05-19T11:01:31Z</time>
      </trkpt>
      <trkpt lat="43.54116" lon="6.71392">
        <ele>301.99</ele>
        <time>2011-05-19T11:01:33Z</time>
      </trkpt>
      <trkpt lat="43.54102" lon="6.71393">
        <ele>301.03</ele>
        <time>2011-05-19T11:01:36Z</time>
      </trkpt>
      <trkpt lat="43.54093" lon="6.71392">
        <ele>298.15</ele>
        <time>2011-05-19T11:01:38Z</time>
      </trkpt>
      <trkpt lat="43.54075" lon="6.71389">
        <ele>293.34</ele>
        <time>2011-05-19T11:01:43Z</time>
      </trkpt>
      <trkpt lat="43.54068" lon="6.71376">
        <ele>290.94</ele>
        <time>2011-05-19T11:01:46Z</time>
      </trkpt>
      <trkpt lat="43.54067" lon="6.71369">
        <ele>291.9</ele>
        <time>2011-05-19T11:01:47Z</time>
      </trkpt>
      <trkpt lat="43.54071" lon="6.7133">
        <ele>294.78</ele>
        <time>2011-05-19T11:01:57Z</time>
      </trkpt>
      <trkpt lat="43.54069" lon="6.7133">
        <ele>294.3</ele>
        <time>2011-05-19T11:02:07Z</time>
      </trkpt>
      <trkpt lat="43.54069" lon="6.71331">
        <ele>291.42</ele>
        <time>2011-05-19T11:02:09Z</time>
      </trkpt>
      <trkpt lat="43.54068" lon="6.7133">
        <ele>295.26</ele>
        <time>2011-05-19T11:02:16Z</time>
      </trkpt>
      <trkpt lat="43.54068" lon="6.7133">
        <ele>291.42</ele>
        <time>2011-05-19T11:02:18Z</time>
      </trkpt>
      <trkpt lat="43.54068" lon="6.71329">
        <ele>294.78</ele>
        <time>2011-05-19T11:02:22Z</time>
      </trkpt>
      <trkpt lat="43.54068" lon="6.71329">
        <ele>292.38</ele>
        <time>2011-05-19T11:02:25Z</time>
      </trkpt>
      <trkpt lat="43.5407" lon="6.71329">
        <ele>295.26</ele>
        <time>2011-05-19T11:02:38Z</time>
      </trkpt>
      <trkpt lat="43.54071" lon="6.71329">
        <ele>291.9</ele>
        <time>2011-05-19T11:02:40Z</time>
      </trkpt>
      <trkpt lat="43.54071" lon="6.7133">
        <ele>296.22</ele>
        <time>2011-05-19T11:02:42Z</time>
      </trkpt>
      <trkpt lat="43.54071" lon="6.7133">
        <ele>292.38</ele>
        <time>2011-05-19T11:02:43Z</time>
      </trkpt>
      <trkpt lat="43.54072" lon="6.71331">
        <ele>292.38</ele>
        <time>2011-05-19T11:02:44Z</time>
      </trkpt>
      <trkpt lat="43.54072" lon="6.71332">
        <ele>296.7</ele>
        <time>2011-05-19T11:02:48Z</time>
      </trkpt>
      <trkpt lat="43.54072" lon="6.71332">
        <ele>293.82</ele>
        <time>2011-05-19T11:02:49Z</time>
      </trkpt>
      <trkpt lat="43.54074" lon="6.71334">
        <ele>291.9</ele>
        <time>2011-05-19T11:02:55Z</time>
      </trkpt>
      <trkpt lat="43.54075" lon="6.71335">
        <ele>295.26</ele>
        <time>2011-05-19T11:02:57Z</time>
      </trkpt>
      <trkpt lat="43.54075" lon="6.71335">
        <ele>290.94</ele>
        <time>2011-05-19T11:02:58Z</time>
      </trkpt>
      <trkpt lat="43.54075" lon="6.71336">
        <ele>294.78</ele>
        <time>2011-05-19T11:02:59Z</time>
      </trkpt>
      <trkpt lat="43.54075" lon="6.71338">
        <ele>289.97</ele>
        <time>2011-05-19T11:03:03Z</time>
      </trkpt>
      <trkpt lat="43.54075" lon="6.71339">
        <ele>293.34</ele>
        <time>2011-05-19T11:03:06Z</time>
      </trkpt>
      <trkpt lat="43.54076" lon="6.7134">
        <ele>289.97</ele>
        <time>2011-05-19T11:03:08Z</time>
      </trkpt>
      <trkpt lat="43.54076" lon="6.7134">
        <ele>293.34</ele>
        <time>2011-05-19T11:03:09Z</time>
      </trkpt>
      <trkpt lat="43.54077" lon="6.71341">
        <ele>289.97</ele>
        <time>2011-05-19T11:03:11Z</time>
      </trkpt>
      <trkpt lat="43.54078" lon="6.71342">
        <ele>294.3</ele>
        <time>2011-05-19T11:03:14Z</time>
      </trkpt>
      <trkpt lat="43.54078" lon="6.71342">
        <ele>290.94</ele>
        <time>2011-05-19T11:03:15Z</time>
      </trkpt>
      <trkpt lat="43.54079" lon="6.71344">
        <ele>294.3</ele>
        <time>2011-05-19T11:03:19Z</time>
      </trkpt>
      <trkpt lat="43.54079" lon="6.71344">
        <ele>290.94</ele>
        <time>2011-05-19T11:03:20Z</time>
      </trkpt>
      <trkpt lat="43.54079" lon="6.71345">
        <ele>294.78</ele>
        <time>2011-05-19T11:03:21Z</time>
      </trkpt>
      <trkpt lat="43.5408" lon="6.71345">
        <ele>291.42</ele>
        <time>2011-05-19T11:03:24Z</time>
      </trkpt>
      <trkpt lat="43.54081" lon="6.71345">
        <ele>292.38</ele>
        <time>2011-05-19T11:03:25Z</time>
      </trkpt>
      <trkpt lat="43.54082" lon="6.71346">
        <ele>293.34</ele>
        <time>2011-05-19T11:03:27Z</time>
      </trkpt>
      <trkpt lat="43.54088" lon="6.71346">
        <ele>292.38</ele>
        <time>2011-05-19T11:03:45Z</time>
      </trkpt>
      <trkpt lat="43.54087" lon="6.71344">
        <ele>290.46</ele>
        <time>2011-05-19T11:03:51Z</time>
      </trkpt>
      <trkpt lat="43.54087" lon="6.71344">
        <ele>295.26</ele>
        <time>2011-05-19T11:03:53Z</time>
      </trkpt>
      <trkpt lat="43.54086" lon="6.71344">
        <ele>290.94</ele>
        <time>2011-05-19T11:03:54Z</time>
      </trkpt>
      <trkpt lat="43.54087" lon="6.71344">
        <ele>295.26</ele>
        <time>2011-05-19T11:04:05Z</time>
      </trkpt>
      <trkpt lat="43.54087" lon="6.71344">
        <ele>294.3</ele>
        <time>2011-05-19T11:04:06Z</time>
      </trkpt>
      <trkpt lat="43.54087" lon="6.71345">
        <ele>290.94</ele>
        <time>2011-05-19T11:04:09Z</time>
      </trkpt>
      <trkpt lat="43.54087" lon="6.71345">
        <ele>294.3</ele>
        <time>2011-05-19T11:04:11Z</time>
      </trkpt>
      <trkpt lat="43.54087" lon="6.71345">
        <ele>290.46</ele>
        <time>2011-05-19T11:04:14Z</time>
      </trkpt>
      <trkpt lat="43.54087" lon="6.71344">
        <ele>293.82</ele>
        <time>2011-05-19T11:04:15Z</time>
      </trkpt>
      <trkpt lat="43.54088" lon="6.71343">
        <ele>289.97</ele>
        <time>2011-05-19T11:04:21Z</time>
      </trkpt>
      <trkpt lat="43.54088" lon="6.71343">
        <ele>293.34</ele>
        <time>2011-05-19T11:04:23Z</time>
      </trkpt>
      <trkpt lat="43.54088" lon="6.71343">
        <ele>293.34</ele>
        <time>2011-05-19T11:04:24Z</time>
      </trkpt>
      <trkpt lat="43.54086" lon="6.71344">
        <ele>290.46</ele>
        <time>2011-05-19T11:04:36Z</time>
      </trkpt>
      <trkpt lat="43.54086" lon="6.71344">
        <ele>295.74</ele>
        <time>2011-05-19T11:04:37Z</time>
      </trkpt>
      <trkpt lat="43.54086" lon="6.71344">
        <ele>292.38</ele>
        <time>2011-05-19T11:04:38Z</time>
      </trkpt>
      <trkpt lat="43.54088" lon="6.71344">
        <ele>292.38</ele>
        <time>2011-05-19T11:04:56Z</time>
      </trkpt>
      <trkpt lat="43.54089" lon="6.71344">
        <ele>291.9</ele>
        <time>2011-05-19T11:05:01Z</time>
      </trkpt>
      <trkpt lat="43.54089" lon="6.71344">
        <ele>290.94</ele>
        <time>2011-05-19T11:05:09Z</time>
      </trkpt>
      <trkpt lat="43.5409" lon="6.71346">
        <ele>292.86</ele>
        <time>2011-05-19T11:05:16Z</time>
      </trkpt>
      <trkpt lat="43.5409" lon="6.71346">
        <ele>289.49</ele>
        <time>2011-05-19T11:05:20Z</time>
      </trkpt>
      <trkpt lat="43.5409" lon="6.71346">
        <ele>293.34</ele>
        <time>2011-05-19T11:05:22Z</time>
      </trkpt>
      <trkpt lat="43.5409" lon="6.71344">
        <ele>289.49</ele>
        <time>2011-05-19T11:05:27Z</time>
      </trkpt>
      <trkpt lat="43.54091" lon="6.71344">
        <ele>292.86</ele>
        <time>2011-05-19T11:05:29Z</time>
      </trkpt>
      <trkpt lat="43.54091" lon="6.71344">
        <ele>293.82</ele>
        <time>2011-05-19T11:05:31Z</time>
      </trkpt>
      <trkpt lat="43.54091" lon="6.7134">
        <ele>289.01</ele>
        <time>2011-05-19T11:05:44Z</time>
      </trkpt>
      <trkpt lat="43.54091" lon="6.71339">
        <ele>292.38</ele>
        <time>2011-05-19T11:05:45Z</time>
      </trkpt>
      <trkpt lat="43.54077" lon="6.71336">
        <ele>293.82</ele>
        <time>2011-05-19T11:06:09Z</time>
      </trkpt>
      <trkpt lat="43.54076" lon="6.71336">
        <ele>292.38</ele>
        <time>2011-05-19T11:06:10Z</time>
      </trkpt>
      <trkpt lat="43.54071" lon="6.71329">
        <ele>289.01</ele>
        <time>2011-05-19T11:06:23Z</time>
      </trkpt>
      <trkpt lat="43.54071" lon="6.71329">
        <ele>293.82</ele>
        <time>2011-05-19T11:06:25Z</time>
      </trkpt>
      <trkpt lat="43.54071" lon="6.71329">
        <ele>292.38</ele>
        <time>2011-05-19T11:06:26Z</time>
      </trkpt>
      <trkpt lat="43.54072" lon="6.71331">
        <ele>291.9</ele>
        <time>2011-05-19T11:06:31Z</time>
      </trkpt>
      <trkpt lat="43.54072" lon="6.71334">
        <ele>290.94</ele>
        <time>2011-05-19T11:06:36Z</time>
      </trkpt>
      <trkpt lat="43.54072" lon="6.71334">
        <ele>291.9</ele>
        <time>2011-05-19T11:06:40Z</time>
      </trkpt>
      <trkpt lat="43.54072" lon="6.71334">
        <ele>288.53</ele>
        <time>2011-05-19T11:06:42Z</time>
      </trkpt>
      <trkpt lat="43.54072" lon="6.71334">
        <ele>294.78</ele>
        <time>2011-05-19T11:06:44Z</time>
      </trkpt>
      <trkpt lat="43.54073" lon="6.71334">
        <ele>289.97</ele>
        <time>2011-05-19T11:06:46Z</time>
      </trkpt>
      <trkpt lat="43.54073" lon="6.71334">
        <ele>290.46</ele>
        <time>2011-05-19T11:06:47Z</time>
      </trkpt>
      <trkpt lat="43.54073" lon="6.71334">
        <ele>294.3</ele>
        <time>2011-05-19T11:06:48Z</time>
      </trkpt>
      <trkpt lat="43.54073" lon="6.71333">
        <ele>291.42</ele>
        <time>2011-05-19T11:06:49Z</time>
      </trkpt>
      <trkpt lat="43.54076" lon="6.71326">
        <ele>294.3</ele>
        <time>2011-05-19T11:07:08Z</time>
      </trkpt>
      <trkpt lat="43.54076" lon="6.71325">
        <ele>291.42</ele>
        <time>2011-05-19T11:07:09Z</time>
      </trkpt>
      <trkpt lat="43.54075" lon="6.71325">
        <ele>294.3</ele>
        <time>2011-05-19T11:07:11Z</time>
      </trkpt>
      <trkpt lat="43.54075" lon="6.71324">
        <ele>289.97</ele>
        <time>2011-05-19T11:07:13Z</time>
      </trkpt>
      <trkpt lat="43.54075" lon="6.71325">
        <ele>292.38</ele>
        <time>2011-05-19T11:07:20Z</time>
      </trkpt>
      <trkpt lat="43.5407" lon="6.71324">
        <ele>292.86</ele>
        <time>2011-05-19T11:07:30Z</time>
      </trkpt>
      <trkpt lat="43.54066" lon="6.71322">
        <ele>294.3</ele>
        <time>2011-05-19T11:07:33Z</time>
      </trkpt>
      <trkpt lat="43.54063" lon="6.71323">
        <ele>291.42</ele>
        <time>2011-05-19T11:07:34Z</time>
      </trkpt>
      <trkpt lat="43.54052" lon="6.71325">
        <ele>291.42</ele>
        <time>2011-05-19T11:07:39Z</time>
      </trkpt>
      <trkpt lat="43.54049" lon="6.71325">
        <ele>291.9</ele>
        <time>2011-05-19T11:07:41Z</time>
      </trkpt>
      <trkpt lat="43.54047" lon="6.71325">
        <ele>289.97</ele>
        <time>2011-05-19T11:07:42Z</time>
      </trkpt>
      <trkpt lat="43.54043" lon="6.71325">
        <ele>292.86</ele>
        <time>2011-05-19T11:07:45Z</time>
      </trkpt>
      <trkpt lat="43.5404" lon="6.71327">
        <ele>294.3</ele>
        <time>2011-05-19T11:07:47Z</time>
      </trkpt>
      <trkpt lat="43.54038" lon="6.71332">
        <ele>289.01</ele>
        <time>2011-05-19T11:07:53Z</time>
      </trkpt>
      <trkpt lat="43.54038" lon="6.71332">
        <ele>292.38</ele>
        <time>2011-05-19T11:07:54Z</time>
      </trkpt>
      <trkpt lat="43.54038" lon="6.71332">
        <ele>293.82</ele>
        <time>2011-05-19T11:08:02Z</time>
      </trkpt>
      <trkpt lat="43.54038" lon="6.71332">
        <ele>290.94</ele>
        <time>2011-05-19T11:08:04Z</time>
      </trkpt>
      <trkpt lat="43.54037" lon="6.71332">
        <ele>294.78</ele>
        <time>2011-05-19T11:08:05Z</time>
      </trkpt>
      <trkpt lat="43.54037" lon="6.71332">
        <ele>290.46</ele>
        <time>2011-05-19T11:08:06Z</time>
      </trkpt>
      <trkpt lat="43.54037" lon="6.71332">
        <ele>294.3</ele>
        <time>2011-05-19T11:08:10Z</time>
      </trkpt>
      <trkpt lat="43.54037" lon="6.71332">
        <ele>292.86</ele>
        <time>2011-05-19T11:08:13Z</time>
      </trkpt>
      <trkpt lat="43.54037" lon="6.71332">
        <ele>292.86</ele>
        <time>2011-05-19T11:08:44Z</time>
      </trkpt>
      <trkpt lat="43.54037" lon="6.71328">
        <ele>294.3</ele>
        <time>2011-05-19T11:08:56Z</time>
      </trkpt>
      <trkpt lat="43.54037" lon="6.71328">
        <ele>292.86</ele>
        <time>2011-05-19T11:08:58Z</time>
      </trkpt>
      <trkpt lat="43.54038" lon="6.71308">
        <ele>293.82</ele>
        <time>2011-05-19T11:09:07Z</time>
      </trkpt>
      <trkpt lat="43.54037" lon="6.71297">
        <ele>296.7</ele>
        <time>2011-05-19T11:09:12Z</time>
      </trkpt>
      <trkpt lat="43.54036" lon="6.71295">
        <ele>295.26</ele>
        <time>2011-05-19T11:09:13Z</time>
      </trkpt>
      <trkpt lat="43.54036" lon="6.71271">
        <ele>296.7</ele>
        <time>2011-05-19T11:09:25Z</time>
      </trkpt>
      <trkpt lat="43.54036" lon="6.71269">
        <ele>293.82</ele>
        <time>2011-05-19T11:09:26Z</time>
      </trkpt>
      <trkpt lat="43.54036" lon="6.71267">
        <ele>294.3</ele>
        <time>2011-05-19T11:09:27Z</time>
      </trkpt>
      <trkpt lat="43.54036" lon="6.71263">
        <ele>295.26</ele>
        <time>2011-05-19T11:09:29Z</time>
      </trkpt>
      <trkpt lat="43.54036" lon="6.71221">
        <ele>297.18</ele>
        <time>2011-05-19T11:09:49Z</time>
      </trkpt>
      <trkpt lat="43.54037" lon="6.71194">
        <ele>295.26</ele>
        <time>2011-05-19T11:10:02Z</time>
      </trkpt>
      <trkpt lat="43.54037" lon="6.7119">
        <ele>296.7</ele>
        <time>2011-05-19T11:10:04Z</time>
      </trkpt>
      <trkpt lat="43.54036" lon="6.71175">
        <ele>297.67</ele>
        <time>2011-05-19T11:10:11Z</time>
      </trkpt>
      <trkpt lat="43.54037" lon="6.7117">
        <ele>301.03</ele>
        <time>2011-05-19T11:10:14Z</time>
      </trkpt>
      <trkpt lat="43.54037" lon="6.71168">
        <ele>299.11</ele>
        <time>2011-05-19T11:10:15Z</time>
      </trkpt>
      <trkpt lat="43.54037" lon="6.71163">
        <ele>298.63</ele>
        <time>2011-05-19T11:10:17Z</time>
      </trkpt>
      <trkpt lat="43.54038" lon="6.71157">
        <ele>294.3</ele>
        <time>2011-05-19T11:10:20Z</time>
      </trkpt>
      <trkpt lat="43.54038" lon="6.71154">
        <ele>299.59</ele>
        <time>2011-05-19T11:10:21Z</time>
      </trkpt>
      <trkpt lat="43.54036" lon="6.71129">
        <ele>302.95</ele>
        <time>2011-05-19T11:10:33Z</time>
      </trkpt>
      <trkpt lat="43.54035" lon="6.71127">
        <ele>299.59</ele>
        <time>2011-05-19T11:10:34Z</time>
      </trkpt>
      <trkpt lat="43.54028" lon="6.71092">
        <ele>303.43</ele>
        <time>2011-05-19T11:10:52Z</time>
      </trkpt>
      <trkpt lat="43.54025" lon="6.71087">
        <ele>300.07</ele>
        <time>2011-05-19T11:10:55Z</time>
      </trkpt>
      <trkpt lat="43.54016" lon="6.71072">
        <ele>304.39</ele>
        <time>2011-05-19T11:11:05Z</time>
      </trkpt>
      <trkpt lat="43.54015" lon="6.7107">
        <ele>299.11</ele>
        <time>2011-05-19T11:11:06Z</time>
      </trkpt>
      <trkpt lat="43.54007" lon="6.7106">
        <ele>303.91</ele>
        <time>2011-05-19T11:11:13Z</time>
      </trkpt>
      <trkpt lat="43.53993" lon="6.71047">
        <ele>304.88</ele>
        <time>2011-05-19T11:11:22Z</time>
      </trkpt>
      <trkpt lat="43.53984" lon="6.71037">
        <ele>302.47</ele>
        <time>2011-05-19T11:11:27Z</time>
      </trkpt>
      <trkpt lat="43.5398" lon="6.71033">
        <ele>306.32</ele>
        <time>2011-05-19T11:11:29Z</time>
      </trkpt>
      <trkpt lat="43.53972" lon="6.71026">
        <ele>306.32</ele>
        <time>2011-05-19T11:11:33Z</time>
      </trkpt>
      <trkpt lat="43.53954" lon="6.71008">
        <ele>302.47</ele>
        <time>2011-05-19T11:11:42Z</time>
      </trkpt>
      <trkpt lat="43.53931" lon="6.70985">
        <ele>302.47</ele>
        <time>2011-05-19T11:11:49Z</time>
      </trkpt>
      <trkpt lat="43.53905" lon="6.7096">
        <ele>299.11</ele>
        <time>2011-05-19T11:11:53Z</time>
      </trkpt>
      <trkpt lat="43.53888" lon="6.70944">
        <ele>303.43</ele>
        <time>2011-05-19T11:11:56Z</time>
      </trkpt>
      <trkpt lat="43.53882" lon="6.70938">
        <ele>301.03</ele>
        <time>2011-05-19T11:11:57Z</time>
      </trkpt>
      <trkpt lat="43.5387" lon="6.70927">
        <ele>299.11</ele>
        <time>2011-05-19T11:11:59Z</time>
      </trkpt>
      <trkpt lat="43.53846" lon="6.70904">
        <ele>299.11</ele>
        <time>2011-05-19T11:12:03Z</time>
      </trkpt>
      <trkpt lat="43.53826" lon="6.70846">
        <ele>300.07</ele>
        <time>2011-05-19T11:12:11Z</time>
      </trkpt>
      <trkpt lat="43.53828" lon="6.70827">
        <ele>298.63</ele>
        <time>2011-05-19T11:12:14Z</time>
      </trkpt>
      <trkpt lat="43.53828" lon="6.70814">
        <ele>302.47</ele>
        <time>2011-05-19T11:12:16Z</time>
      </trkpt>
      <trkpt lat="43.53829" lon="6.70769">
        <ele>299.11</ele>
        <time>2011-05-19T11:12:23Z</time>
      </trkpt>
      <trkpt lat="43.53829" lon="6.70743">
        <ele>302.47</ele>
        <time>2011-05-19T11:12:27Z</time>
      </trkpt>
      <trkpt lat="43.53829" lon="6.70736">
        <ele>300.55</ele>
        <time>2011-05-19T11:12:28Z</time>
      </trkpt>
      <trkpt lat="43.53823" lon="6.70706">
        <ele>303.43</ele>
        <time>2011-05-19T11:12:33Z</time>
      </trkpt>
      <trkpt lat="43.53812" lon="6.70671">
        <ele>300.07</ele>
        <time>2011-05-19T11:12:39Z</time>
      </trkpt>
      <trkpt lat="43.53756" lon="6.706">
        <ele>300.07</ele>
        <time>2011-05-19T11:12:53Z</time>
      </trkpt>
      <trkpt lat="43.53725" lon="6.70586">
        <ele>303.43</ele>
        <time>2011-05-19T11:12:59Z</time>
      </trkpt>
      <trkpt lat="43.5372" lon="6.70583">
        <ele>299.59</ele>
        <time>2011-05-19T11:13:00Z</time>
      </trkpt>
      <trkpt lat="43.53698" lon="6.70572">
        <ele>297.67</ele>
        <time>2011-05-19T11:13:04Z</time>
      </trkpt>
      <trkpt lat="43.53688" lon="6.70565">
        <ele>297.18</ele>
        <time>2011-05-19T11:13:06Z</time>
      </trkpt>
      <trkpt lat="43.53666" lon="6.70541">
        <ele>301.99</ele>
        <time>2011-05-19T11:13:12Z</time>
      </trkpt>
      <trkpt lat="43.53633" lon="6.70496">
        <ele>298.63</ele>
        <time>2011-05-19T11:13:25Z</time>
      </trkpt>
      <trkpt lat="43.5363" lon="6.70493">
        <ele>301.99</ele>
        <time>2011-05-19T11:13:26Z</time>
      </trkpt>
      <trkpt lat="43.5362" lon="6.7048">
        <ele>299.59</ele>
        <time>2011-05-19T11:13:30Z</time>
      </trkpt>
      <trkpt lat="43.53617" lon="6.70477">
        <ele>302.95</ele>
        <time>2011-05-19T11:13:31Z</time>
      </trkpt>
      <trkpt lat="43.53615" lon="6.70474">
        <ele>301.51</ele>
        <time>2011-05-19T11:13:32Z</time>
      </trkpt>
      <trkpt lat="43.53593" lon="6.70443">
        <ele>301.03</ele>
        <time>2011-05-19T11:13:41Z</time>
      </trkpt>
      <trkpt lat="43.53588" lon="6.70434">
        <ele>301.99</ele>
        <time>2011-05-19T11:13:43Z</time>
      </trkpt>
      <trkpt lat="43.5357" lon="6.70362">
        <ele>298.15</ele>
        <time>2011-05-19T11:13:56Z</time>
      </trkpt>
      <trkpt lat="43.53568" lon="6.70347">
        <ele>301.03</ele>
        <time>2011-05-19T11:13:58Z</time>
      </trkpt>
      <trkpt lat="43.53566" lon="6.70321">
        <ele>297.67</ele>
        <time>2011-05-19T11:14:01Z</time>
      </trkpt>
      <trkpt lat="43.53566" lon="6.70302">
        <ele>296.7</ele>
        <time>2011-05-19T11:14:03Z</time>
      </trkpt>
      <trkpt lat="43.53571" lon="6.70239">
        <ele>293.34</ele>
        <time>2011-05-19T11:14:09Z</time>
      </trkpt>
      <trkpt lat="43.5359" lon="6.7017">
        <ele>292.86</ele>
        <time>2011-05-19T11:14:16Z</time>
      </trkpt>
      <trkpt lat="43.53595" lon="6.70155">
        <ele>289.01</ele>
        <time>2011-05-19T11:14:18Z</time>
      </trkpt>
      <trkpt lat="43.53598" lon="6.70147">
        <ele>292.38</ele>
        <time>2011-05-19T11:14:19Z</time>
      </trkpt>
      <trkpt lat="43.53605" lon="6.70127">
        <ele>288.05</ele>
        <time>2011-05-19T11:14:22Z</time>
      </trkpt>
      <trkpt lat="43.53607" lon="6.7012">
        <ele>292.38</ele>
        <time>2011-05-19T11:14:23Z</time>
      </trkpt>
      <trkpt lat="43.53615" lon="6.70096">
        <ele>289.01</ele>
        <time>2011-05-19T11:14:26Z</time>
      </trkpt>
      <trkpt lat="43.53629" lon="6.70059">
        <ele>291.42</ele>
        <time>2011-05-19T11:14:31Z</time>
      </trkpt>
      <trkpt lat="43.53643" lon="6.70053">
        <ele>289.01</ele>
        <time>2011-05-19T11:14:36Z</time>
      </trkpt>
      <trkpt lat="43.53661" lon="6.70035">
        <ele>290.46</ele>
        <time>2011-05-19T11:14:49Z</time>
      </trkpt>
      <trkpt lat="43.53665" lon="6.7003">
        <ele>293.82</ele>
        <time>2011-05-19T11:14:51Z</time>
      </trkpt>
      <trkpt lat="43.53669" lon="6.70025">
        <ele>288.53</ele>
        <time>2011-05-19T11:14:53Z</time>
      </trkpt>
      <trkpt lat="43.53671" lon="6.70022">
        <ele>288.53</ele>
        <time>2011-05-19T11:14:54Z</time>
      </trkpt>
      <trkpt lat="43.53674" lon="6.70019">
        <ele>293.34</ele>
        <time>2011-05-19T11:14:55Z</time>
      </trkpt>
      <trkpt lat="43.53676" lon="6.70016">
        <ele>288.05</ele>
        <time>2011-05-19T11:14:56Z</time>
      </trkpt>
      <trkpt lat="43.53687" lon="6.70003">
        <ele>291.42</ele>
        <time>2011-05-19T11:15:01Z</time>
      </trkpt>
      <trkpt lat="43.53693" lon="6.69992">
        <ele>290.46</ele>
        <time>2011-05-19T11:15:04Z</time>
      </trkpt>
      <trkpt lat="43.53696" lon="6.69989">
        <ele>287.09</ele>
        <time>2011-05-19T11:15:05Z</time>
      </trkpt>
      <trkpt lat="43.53698" lon="6.69985">
        <ele>287.09</ele>
        <time>2011-05-19T11:15:06Z</time>
      </trkpt>
      <trkpt lat="43.537" lon="6.69981">
        <ele>290.94</ele>
        <time>2011-05-19T11:15:07Z</time>
      </trkpt>
      <trkpt lat="43.53702" lon="6.69977">
        <ele>288.05</ele>
        <time>2011-05-19T11:15:08Z</time>
      </trkpt>
      <trkpt lat="43.53709" lon="6.69967">
        <ele>289.49</ele>
        <time>2011-05-19T11:15:11Z</time>
      </trkpt>
      <trkpt lat="43.53734" lon="6.69926">
        <ele>290.46</ele>
        <time>2011-05-19T11:15:24Z</time>
      </trkpt>
      <trkpt lat="43.53745" lon="6.69911">
        <ele>294.3</ele>
        <time>2011-05-19T11:15:30Z</time>
      </trkpt>
      <trkpt lat="43.53746" lon="6.6991">
        <ele>289.49</ele>
        <time>2011-05-19T11:15:31Z</time>
      </trkpt>
      <trkpt lat="43.53749" lon="6.69907">
        <ele>288.53</ele>
        <time>2011-05-19T11:15:33Z</time>
      </trkpt>
      <trkpt lat="43.53752" lon="6.69903">
        <ele>291.9</ele>
        <time>2011-05-19T11:15:40Z</time>
      </trkpt>
      <trkpt lat="43.53752" lon="6.69903">
        <ele>290.46</ele>
        <time>2011-05-19T11:15:44Z</time>
      </trkpt>
      <trkpt lat="43.53753" lon="6.69901">
        <ele>290.46</ele>
        <time>2011-05-19T11:15:50Z</time>
      </trkpt>
      <trkpt lat="43.53753" lon="6.69899">
        <ele>291.42</ele>
        <time>2011-05-19T11:15:52Z</time>
      </trkpt>
      <trkpt lat="43.53763" lon="6.69875">
        <ele>291.9</ele>
        <time>2011-05-19T11:16:01Z</time>
      </trkpt>
      <trkpt lat="43.53764" lon="6.69873">
        <ele>288.05</ele>
        <time>2011-05-19T11:16:02Z</time>
      </trkpt>
      <trkpt lat="43.53765" lon="6.6987">
        <ele>291.42</ele>
        <time>2011-05-19T11:16:03Z</time>
      </trkpt>
      <trkpt lat="43.53793" lon="6.69822">
        <ele>290.94</ele>
        <time>2011-05-19T11:16:19Z</time>
      </trkpt>
      <trkpt lat="43.53801" lon="6.69809">
        <ele>294.3</ele>
        <time>2011-05-19T11:16:23Z</time>
      </trkpt>
      <trkpt lat="43.53803" lon="6.69806">
        <ele>290.46</ele>
        <time>2011-05-19T11:16:24Z</time>
      </trkpt>
      <trkpt lat="43.5384" lon="6.69754">
        <ele>291.42</ele>
        <time>2011-05-19T11:16:40Z</time>
      </trkpt>
      <trkpt lat="43.53848" lon="6.69737">
        <ele>288.05</ele>
        <time>2011-05-19T11:16:44Z</time>
      </trkpt>
      <trkpt lat="43.53853" lon="6.69728">
        <ele>291.42</ele>
        <time>2011-05-19T11:16:54Z</time>
      </trkpt>
      <trkpt lat="43.53853" lon="6.69728">
        <ele>287.09</ele>
        <time>2011-05-19T11:17:00Z</time>
      </trkpt>
      <trkpt lat="43.53853" lon="6.69728">
        <ele>288.53</ele>
        <time>2011-05-19T11:17:01Z</time>
      </trkpt>
      <trkpt lat="43.53852" lon="6.69727">
        <ele>289.49</ele>
        <time>2011-05-19T11:17:03Z</time>
      </trkpt>
      <trkpt lat="43.53851" lon="6.69727">
        <ele>285.17</ele>
        <time>2011-05-19T11:17:04Z</time>
      </trkpt>
      <trkpt lat="43.53851" lon="6.69727">
        <ele>286.13</ele>
        <time>2011-05-19T11:17:05Z</time>
      </trkpt>
      <trkpt lat="43.53851" lon="6.69728">
        <ele>290.46</ele>
        <time>2011-05-19T11:17:06Z</time>
      </trkpt>
      <trkpt lat="43.53851" lon="6.69728">
        <ele>290.46</ele>
        <time>2011-05-19T11:17:07Z</time>
      </trkpt>
      <trkpt lat="43.53851" lon="6.69728">
        <ele>287.09</ele>
        <time>2011-05-19T11:17:08Z</time>
      </trkpt>
      <trkpt lat="43.53851" lon="6.69727">
        <ele>290.46</ele>
        <time>2011-05-19T11:17:09Z</time>
      </trkpt>
      <trkpt lat="43.53851" lon="6.69727">
        <ele>287.09</ele>
        <time>2011-05-19T11:17:12Z</time>
      </trkpt>
      <trkpt lat="43.53851" lon="6.69727">
        <ele>289.97</ele>
        <time>2011-05-19T11:17:17Z</time>
      </trkpt>
      <trkpt lat="43.53844" lon="6.6973">
        <ele>290.94</ele>
        <time>2011-05-19T11:17:31Z</time>
      </trkpt>
      <trkpt lat="43.53843" lon="6.69732">
        <ele>287.57</ele>
        <time>2011-05-19T11:17:34Z</time>
      </trkpt>
      <trkpt lat="43.53845" lon="6.69733">
        <ele>290.94</ele>
        <time>2011-05-19T11:17:36Z</time>
      </trkpt>
      <trkpt lat="43.53846" lon="6.69733">
        <ele>287.09</ele>
        <time>2011-05-19T11:17:38Z</time>
      </trkpt>
      <trkpt lat="43.53845" lon="6.69733">
        <ele>290.94</ele>
        <time>2011-05-19T11:17:40Z</time>
      </trkpt>
      <trkpt lat="43.53844" lon="6.69734">
        <ele>287.57</ele>
        <time>2011-05-19T11:17:43Z</time>
      </trkpt>
      <trkpt lat="43.53845" lon="6.69732">
        <ele>289.97</ele>
        <time>2011-05-19T11:17:46Z</time>
      </trkpt>
      <trkpt lat="43.53848" lon="6.6973">
        <ele>290.46</ele>
        <time>2011-05-19T11:18:05Z</time>
      </trkpt>
      <trkpt lat="43.5385" lon="6.6973">
        <ele>287.57</ele>
        <time>2011-05-19T11:18:07Z</time>
      </trkpt>
      <trkpt lat="43.5385" lon="6.6973">
        <ele>290.46</ele>
        <time>2011-05-19T11:18:08Z</time>
      </trkpt>
      <trkpt lat="43.53851" lon="6.6973">
        <ele>290.46</ele>
        <time>2011-05-19T11:18:09Z</time>
      </trkpt>
      <trkpt lat="43.53851" lon="6.6973">
        <ele>287.09</ele>
        <time>2011-05-19T11:18:10Z</time>
      </trkpt>
      <trkpt lat="43.53852" lon="6.69731">
        <ele>292.86</ele>
        <time>2011-05-19T11:18:16Z</time>
      </trkpt>
      <trkpt lat="43.53852" lon="6.69731">
        <ele>292.38</ele>
        <time>2011-05-19T11:18:17Z</time>
      </trkpt>
      <trkpt lat="43.53852" lon="6.69732">
        <ele>290.94</ele>
        <time>2011-05-19T11:18:22Z</time>
      </trkpt>
      <trkpt lat="43.53851" lon="6.69731">
        <ele>287.57</ele>
        <time>2011-05-19T11:18:24Z</time>
      </trkpt>
      <trkpt lat="43.5385" lon="6.6973">
        <ele>288.53</ele>
        <time>2011-05-19T11:18:28Z</time>
      </trkpt>
      <trkpt lat="43.5385" lon="6.69728">
        <ele>288.53</ele>
        <time>2011-05-19T11:18:43Z</time>
      </trkpt>
      <trkpt lat="43.5385" lon="6.69728">
        <ele>289.01</ele>
        <time>2011-05-19T11:18:45Z</time>
      </trkpt>
      <trkpt lat="43.53851" lon="6.69728">
        <ele>287.57</ele>
        <time>2011-05-19T11:18:54Z</time>
      </trkpt>
      <trkpt lat="43.53851" lon="6.69728">
        <ele>290.94</ele>
        <time>2011-05-19T11:19:00Z</time>
      </trkpt>
      <trkpt lat="43.53851" lon="6.69729">
        <ele>286.61</ele>
        <time>2011-05-19T11:19:02Z</time>
      </trkpt>
      <trkpt lat="43.53851" lon="6.69729">
        <ele>287.57</ele>
        <time>2011-05-19T11:19:03Z</time>
      </trkpt>
      <trkpt lat="43.53852" lon="6.69729">
        <ele>290.94</ele>
        <time>2011-05-19T11:19:08Z</time>
      </trkpt>
      <trkpt lat="43.53853" lon="6.69729">
        <ele>288.05</ele>
        <time>2011-05-19T11:19:12Z</time>
      </trkpt>
      <trkpt lat="43.53855" lon="6.69729">
        <ele>290.94</ele>
        <time>2011-05-19T11:19:19Z</time>
      </trkpt>
      <trkpt lat="43.53855" lon="6.69729">
        <ele>290.94</ele>
        <time>2011-05-19T11:19:20Z</time>
      </trkpt>
      <trkpt lat="43.53856" lon="6.6973">
        <ele>288.05</ele>
        <time>2011-05-19T11:19:25Z</time>
      </trkpt>
      <trkpt lat="43.53856" lon="6.69731">
        <ele>289.49</ele>
        <time>2011-05-19T11:19:28Z</time>
      </trkpt>
      <trkpt lat="43.53857" lon="6.69731">
        <ele>290.94</ele>
        <time>2011-05-19T11:19:38Z</time>
      </trkpt>
      <trkpt lat="43.53857" lon="6.6973">
        <ele>286.13</ele>
        <time>2011-05-19T11:19:52Z</time>
      </trkpt>
      <trkpt lat="43.53856" lon="6.6973">
        <ele>289.49</ele>
        <time>2011-05-19T11:19:53Z</time>
      </trkpt>
      <trkpt lat="43.53856" lon="6.69729">
        <ele>285.65</ele>
        <time>2011-05-19T11:19:54Z</time>
      </trkpt>
      <trkpt lat="43.53856" lon="6.69728">
        <ele>290.94</ele>
        <time>2011-05-19T11:19:55Z</time>
      </trkpt>
      <trkpt lat="43.53854" lon="6.69727">
        <ele>286.13</ele>
        <time>2011-05-19T11:19:57Z</time>
      </trkpt>
      <trkpt lat="43.53854" lon="6.69727">
        <ele>290.46</ele>
        <time>2011-05-19T11:19:58Z</time>
      </trkpt>
      <trkpt lat="43.5385" lon="6.69728">
        <ele>287.57</ele>
        <time>2011-05-19T11:20:09Z</time>
      </trkpt>
      <trkpt lat="43.53849" lon="6.69732">
        <ele>290.46</ele>
        <time>2011-05-19T11:20:16Z</time>
      </trkpt>
      <trkpt lat="43.53852" lon="6.69728">
        <ele>287.57</ele>
        <time>2011-05-19T11:20:25Z</time>
      </trkpt>
      <trkpt lat="43.53852" lon="6.69727">
        <ele>288.53</ele>
        <time>2011-05-19T11:20:30Z</time>
      </trkpt>
      <trkpt lat="43.53858" lon="6.6972">
        <ele>286.13</ele>
        <time>2011-05-19T11:20:35Z</time>
      </trkpt>
      <trkpt lat="43.53862" lon="6.69713">
        <ele>289.97</ele>
        <time>2011-05-19T11:20:37Z</time>
      </trkpt>
      <trkpt lat="43.53875" lon="6.69707">
        <ele>285.17</ele>
        <time>2011-05-19T11:20:41Z</time>
      </trkpt>
      <trkpt lat="43.53882" lon="6.69709">
        <ele>283.25</ele>
        <time>2011-05-19T11:20:43Z</time>
      </trkpt>
      <trkpt lat="43.53886" lon="6.69711">
        <ele>283.25</ele>
        <time>2011-05-19T11:20:44Z</time>
      </trkpt>
      <trkpt lat="43.53893" lon="6.69715">
        <ele>284.69</ele>
        <time>2011-05-19T11:20:46Z</time>
      </trkpt>
      <trkpt lat="43.539" lon="6.69716">
        <ele>281.32</ele>
        <time>2011-05-19T11:20:49Z</time>
      </trkpt>
      <trkpt lat="43.53902" lon="6.69714">
        <ele>284.69</ele>
        <time>2011-05-19T11:20:50Z</time>
      </trkpt>
      <trkpt lat="43.53906" lon="6.69698">
        <ele>284.69</ele>
        <time>2011-05-19T11:20:55Z</time>
      </trkpt>
      <trkpt lat="43.53906" lon="6.69686">
        <ele>282.28</ele>
        <time>2011-05-19T11:20:58Z</time>
      </trkpt>
      <trkpt lat="43.53898" lon="6.69671">
        <ele>281.32</ele>
        <time>2011-05-19T11:21:03Z</time>
      </trkpt>
      <trkpt lat="43.53886" lon="6.69672">
        <ele>283.25</ele>
        <time>2011-05-19T11:21:08Z</time>
      </trkpt>
      <trkpt lat="43.53882" lon="6.69679">
        <ele>284.69</ele>
        <time>2011-05-19T11:21:12Z</time>
      </trkpt>
      <trkpt lat="43.53887" lon="6.69684">
        <ele>283.25</ele>
        <time>2011-05-19T11:21:16Z</time>
      </trkpt>
      <trkpt lat="43.53888" lon="6.69684">
        <ele>279.4</ele>
        <time>2011-05-19T11:21:17Z</time>
      </trkpt>
      <trkpt lat="43.5389" lon="6.69684">
        <ele>281.32</ele>
        <time>2011-05-19T11:21:18Z</time>
      </trkpt>
      <trkpt lat="43.53894" lon="6.6968">
        <ele>283.25</ele>
        <time>2011-05-19T11:21:21Z</time>
      </trkpt>
      <trkpt lat="43.53896" lon="6.69675">
        <ele>283.25</ele>
        <time>2011-05-19T11:21:23Z</time>
      </trkpt>
      <trkpt lat="43.53896" lon="6.69671">
        <ele>282.28</ele>
        <time>2011-05-19T11:21:25Z</time>
      </trkpt>
      <trkpt lat="43.53895" lon="6.6967">
        <ele>282.28</ele>
        <time>2011-05-19T11:21:26Z</time>
      </trkpt>
      <trkpt lat="43.53873" lon="6.69672">
        <ele>280.84</ele>
        <time>2011-05-19T11:21:36Z</time>
      </trkpt>
      <trkpt lat="43.53871" lon="6.69672">
        <ele>281.8</ele>
        <time>2011-05-19T11:21:38Z</time>
      </trkpt>
      <trkpt lat="43.53863" lon="6.69679">
        <ele>278.44</ele>
        <time>2011-05-19T11:21:45Z</time>
      </trkpt>
      <trkpt lat="43.53862" lon="6.69681">
        <ele>280.36</ele>
        <time>2011-05-19T11:21:46Z</time>
      </trkpt>
      <trkpt lat="43.53846" lon="6.69696">
        <ele>279.4</ele>
        <time>2011-05-19T11:21:53Z</time>
      </trkpt>
      <trkpt lat="43.53841" lon="6.69701">
        <ele>276.04</ele>
        <time>2011-05-19T11:21:55Z</time>
      </trkpt>
      <trkpt lat="43.53834" lon="6.6971">
        <ele>277</ele>
        <time>2011-05-19T11:21:59Z</time>
      </trkpt>
      <trkpt lat="43.53817" lon="6.69705">
        <ele>277</ele>
        <time>2011-05-19T11:22:09Z</time>
      </trkpt>
      <trkpt lat="43.53815" lon="6.69704">
        <ele>270.75</ele>
        <time>2011-05-19T11:22:10Z</time>
      </trkpt>
      <trkpt lat="43.53814" lon="6.69703">
        <ele>272.19</ele>
        <time>2011-05-19T11:22:11Z</time>
      </trkpt>
      <trkpt lat="43.53814" lon="6.69696">
        <ele>269.79</ele>
        <time>2011-05-19T11:22:15Z</time>
      </trkpt>
      <trkpt lat="43.53816" lon="6.69691">
        <ele>272.19</ele>
        <time>2011-05-19T11:22:17Z</time>
      </trkpt>
      <trkpt lat="43.53826" lon="6.69681">
        <ele>269.31</ele>
        <time>2011-05-19T11:22:24Z</time>
      </trkpt>
      <trkpt lat="43.53847" lon="6.69656">
        <ele>266.42</ele>
        <time>2011-05-19T11:22:35Z</time>
      </trkpt>
      <trkpt lat="43.5385" lon="6.69653">
        <ele>267.38</ele>
        <time>2011-05-19T11:22:36Z</time>
      </trkpt>
      <trkpt lat="43.53895" lon="6.69634">
        <ele>263.54</ele>
        <time>2011-05-19T11:22:50Z</time>
      </trkpt>
      <trkpt lat="43.53901" lon="6.6963">
        <ele>264.5</ele>
        <time>2011-05-19T11:22:52Z</time>
      </trkpt>
      <trkpt lat="43.53902" lon="6.69608">
        <ele>265.46</ele>
        <time>2011-05-19T11:22:56Z</time>
      </trkpt>
      <trkpt lat="43.53897" lon="6.69602">
        <ele>261.14</ele>
        <time>2011-05-19T11:22:58Z</time>
      </trkpt>
      <trkpt lat="43.53885" lon="6.69603">
        <ele>261.14</ele>
        <time>2011-05-19T11:23:01Z</time>
      </trkpt>
      <trkpt lat="43.53808" lon="6.69653">
        <ele>261.14</ele>
        <time>2011-05-19T11:23:16Z</time>
      </trkpt>
      <trkpt lat="43.53797" lon="6.69659">
        <ele>259.21</ele>
        <time>2011-05-19T11:23:18Z</time>
      </trkpt>
      <trkpt lat="43.53748" lon="6.6969">
        <ele>253.93</ele>
        <time>2011-05-19T11:23:29Z</time>
      </trkpt>
      <trkpt lat="43.53744" lon="6.69694">
        <ele>255.85</ele>
        <time>2011-05-19T11:23:30Z</time>
      </trkpt>
      <trkpt lat="43.53736" lon="6.69701">
        <ele>257.29</ele>
        <time>2011-05-19T11:23:32Z</time>
      </trkpt>
      <trkpt lat="43.53726" lon="6.69713">
        <ele>257.29</ele>
        <time>2011-05-19T11:23:35Z</time>
      </trkpt>
      <trkpt lat="43.53719" lon="6.69721">
        <ele>253.93</ele>
        <time>2011-05-19T11:23:37Z</time>
      </trkpt>
      <trkpt lat="43.53716" lon="6.69724">
        <ele>255.37</ele>
        <time>2011-05-19T11:23:38Z</time>
      </trkpt>
      <trkpt lat="43.53707" lon="6.69735">
        <ele>255.85</ele>
        <time>2011-05-19T11:23:42Z</time>
      </trkpt>
      <trkpt lat="43.53703" lon="6.69733">
        <ele>252.96</ele>
        <time>2011-05-19T11:23:45Z</time>
      </trkpt>
      <trkpt lat="43.53704" lon="6.69728">
        <ele>252.96</ele>
        <time>2011-05-19T11:23:46Z</time>
      </trkpt>
      <trkpt lat="43.53723" lon="6.69706">
        <ele>257.29</ele>
        <time>2011-05-19T11:23:51Z</time>
      </trkpt>
      <trkpt lat="43.53728" lon="6.69701">
        <ele>252</ele>
        <time>2011-05-19T11:23:52Z</time>
      </trkpt>
      <trkpt lat="43.53737" lon="6.69689">
        <ele>253.44</ele>
        <time>2011-05-19T11:23:54Z</time>
      </trkpt>
      <trkpt lat="43.53751" lon="6.69666">
        <ele>249.6</ele>
        <time>2011-05-19T11:23:57Z</time>
      </trkpt>
      <trkpt lat="43.53769" lon="6.69643">
        <ele>246.72</ele>
        <time>2011-05-19T11:24:00Z</time>
      </trkpt>
      <trkpt lat="43.53776" lon="6.69636">
        <ele>247.68</ele>
        <time>2011-05-19T11:24:01Z</time>
      </trkpt>
      <trkpt lat="43.53796" lon="6.69615">
        <ele>244.79</ele>
        <time>2011-05-19T11:24:04Z</time>
      </trkpt>
      <trkpt lat="43.53807" lon="6.69602">
        <ele>243.35</ele>
        <time>2011-05-19T11:24:06Z</time>
      </trkpt>
      <trkpt lat="43.53831" lon="6.69577">
        <ele>243.35</ele>
        <time>2011-05-19T11:24:10Z</time>
      </trkpt>
      <trkpt lat="43.53879" lon="6.69562">
        <ele>239.99</ele>
        <time>2011-05-19T11:24:16Z</time>
      </trkpt>
      <trkpt lat="43.53942" lon="6.69571">
        <ele>234.22</ele>
        <time>2011-05-19T11:24:23Z</time>
      </trkpt>
      <trkpt lat="43.53952" lon="6.69574">
        <ele>234.7</ele>
        <time>2011-05-19T11:24:24Z</time>
      </trkpt>
      <trkpt lat="43.53982" lon="6.69577">
        <ele>229.89</ele>
        <time>2011-05-19T11:24:27Z</time>
      </trkpt>
      <trkpt lat="43.54027" lon="6.69575">
        <ele>230.37</ele>
        <time>2011-05-19T11:24:33Z</time>
      </trkpt>
      <trkpt lat="43.54039" lon="6.69552">
        <ele>228.93</ele>
        <time>2011-05-19T11:24:39Z</time>
      </trkpt>
      <trkpt lat="43.54035" lon="6.69545">
        <ele>227.01</ele>
        <time>2011-05-19T11:24:40Z</time>
      </trkpt>
      <trkpt lat="43.54026" lon="6.69531">
        <ele>230.85</ele>
        <time>2011-05-19T11:24:42Z</time>
      </trkpt>
      <trkpt lat="43.5402" lon="6.69524">
        <ele>229.89</ele>
        <time>2011-05-19T11:24:43Z</time>
      </trkpt>
      <trkpt lat="43.54011" lon="6.6951">
        <ele>226.05</ele>
        <time>2011-05-19T11:24:45Z</time>
      </trkpt>
      <trkpt lat="43.54006" lon="6.69502">
        <ele>229.89</ele>
        <time>2011-05-19T11:24:46Z</time>
      </trkpt>
      <trkpt lat="43.53992" lon="6.69481">
        <ele>223.16</ele>
        <time>2011-05-19T11:24:49Z</time>
      </trkpt>
      <trkpt lat="43.53988" lon="6.69474">
        <ele>227.01</ele>
        <time>2011-05-19T11:24:50Z</time>
      </trkpt>
      <trkpt lat="43.53971" lon="6.69446">
        <ele>224.61</ele>
        <time>2011-05-19T11:24:54Z</time>
      </trkpt>
      <trkpt lat="43.53943" lon="6.69421">
        <ele>225.57</ele>
        <time>2011-05-19T11:25:00Z</time>
      </trkpt>
      <trkpt lat="43.53932" lon="6.69417">
        <ele>227.01</ele>
        <time>2011-05-19T11:25:02Z</time>
      </trkpt>
      <trkpt lat="43.53922" lon="6.69414">
        <ele>226.53</ele>
        <time>2011-05-19T11:25:04Z</time>
      </trkpt>
      <trkpt lat="43.53901" lon="6.69377">
        <ele>228.93</ele>
        <time>2011-05-19T11:25:11Z</time>
      </trkpt>
      <trkpt lat="43.53902" lon="6.69369">
        <ele>224.61</ele>
        <time>2011-05-19T11:25:12Z</time>
      </trkpt>
      <trkpt lat="43.53906" lon="6.69354">
        <ele>228.45</ele>
        <time>2011-05-19T11:25:14Z</time>
      </trkpt>
      <trkpt lat="43.53909" lon="6.69347">
        <ele>225.09</ele>
        <time>2011-05-19T11:25:15Z</time>
      </trkpt>
      <trkpt lat="43.53912" lon="6.69341">
        <ele>227.01</ele>
        <time>2011-05-19T11:25:16Z</time>
      </trkpt>
      <trkpt lat="43.53922" lon="6.69319">
        <ele>228.45</ele>
        <time>2011-05-19T11:25:20Z</time>
      </trkpt>
      <trkpt lat="43.53915" lon="6.69281">
        <ele>231.81</ele>
        <time>2011-05-19T11:25:29Z</time>
      </trkpt>
      <trkpt lat="43.53908" lon="6.69279">
        <ele>230.85</ele>
        <time>2011-05-19T11:25:31Z</time>
      </trkpt>
      <trkpt lat="43.5388" lon="6.69272">
        <ele>231.81</ele>
        <time>2011-05-19T11:25:40Z</time>
      </trkpt>
      <trkpt lat="43.53871" lon="6.69263">
        <ele>233.26</ele>
        <time>2011-05-19T11:25:44Z</time>
      </trkpt>
      <trkpt lat="43.53859" lon="6.69227">
        <ele>236.14</ele>
        <time>2011-05-19T11:25:55Z</time>
      </trkpt>
      <trkpt lat="43.53845" lon="6.69204">
        <ele>239.99</ele>
        <time>2011-05-19T11:26:04Z</time>
      </trkpt>
      <trkpt lat="43.53845" lon="6.692">
        <ele>238.06</ele>
        <time>2011-05-19T11:26:05Z</time>
      </trkpt>
      <trkpt lat="43.53844" lon="6.69197">
        <ele>235.18</ele>
        <time>2011-05-19T11:26:06Z</time>
      </trkpt>
      <trkpt lat="43.53844" lon="6.69193">
        <ele>239.99</ele>
        <time>2011-05-19T11:26:07Z</time>
      </trkpt>
      <trkpt lat="43.53844" lon="6.69189">
        <ele>239.51</ele>
        <time>2011-05-19T11:26:08Z</time>
      </trkpt>
      <trkpt lat="43.5383" lon="6.69141">
        <ele>241.91</ele>
        <time>2011-05-19T11:26:23Z</time>
      </trkpt>
      <trkpt lat="43.5382" lon="6.6914">
        <ele>239.02</ele>
        <time>2011-05-19T11:26:27Z</time>
      </trkpt>
      <trkpt lat="43.53809" lon="6.69142">
        <ele>239.02</ele>
        <time>2011-05-19T11:26:31Z</time>
      </trkpt>
      <trkpt lat="43.53802" lon="6.69143">
        <ele>242.87</ele>
        <time>2011-05-19T11:26:34Z</time>
      </trkpt>
      <trkpt lat="43.538" lon="6.69144">
        <ele>242.39</ele>
        <time>2011-05-19T11:26:35Z</time>
      </trkpt>
      <trkpt lat="43.53773" lon="6.69129">
        <ele>245.75</ele>
        <time>2011-05-19T11:26:48Z</time>
      </trkpt>
      <trkpt lat="43.53765" lon="6.6912">
        <ele>242.39</ele>
        <time>2011-05-19T11:26:51Z</time>
      </trkpt>
      <trkpt lat="43.53758" lon="6.69081">
        <ele>243.83</ele>
        <time>2011-05-19T11:26:57Z</time>
      </trkpt>
      <trkpt lat="43.53762" lon="6.68963">
        <ele>243.83</ele>
        <time>2011-05-19T11:27:17Z</time>
      </trkpt>
      <trkpt lat="43.53762" lon="6.68939">
        <ele>245.27</ele>
        <time>2011-05-19T11:27:23Z</time>
      </trkpt>
      <trkpt lat="43.53762" lon="6.6893">
        <ele>243.83</ele>
        <time>2011-05-19T11:27:26Z</time>
      </trkpt>
      <trkpt lat="43.53755" lon="6.68924">
        <ele>243.35</ele>
        <time>2011-05-19T11:27:36Z</time>
      </trkpt>
      <trkpt lat="43.53755" lon="6.68924">
        <ele>246.72</ele>
        <time>2011-05-19T11:27:43Z</time>
      </trkpt>
      <trkpt lat="43.53755" lon="6.68924">
        <ele>241.43</ele>
        <time>2011-05-19T11:27:44Z</time>
      </trkpt>
      <trkpt lat="43.53755" lon="6.68925">
        <ele>245.75</ele>
        <time>2011-05-19T11:27:45Z</time>
      </trkpt>
      <trkpt lat="43.53755" lon="6.68925">
        <ele>242.39</ele>
        <time>2011-05-19T11:27:48Z</time>
      </trkpt>
      <trkpt lat="43.53755" lon="6.68926">
        <ele>242.39</ele>
        <time>2011-05-19T11:27:55Z</time>
      </trkpt>
      <trkpt lat="43.53755" lon="6.68927">
        <ele>244.31</ele>
        <time>2011-05-19T11:27:57Z</time>
      </trkpt>
      <trkpt lat="43.53755" lon="6.68926">
        <ele>241.43</ele>
        <time>2011-05-19T11:28:01Z</time>
      </trkpt>
      <trkpt lat="43.53755" lon="6.68926">
        <ele>241.91</ele>
        <time>2011-05-19T11:28:02Z</time>
      </trkpt>
      <trkpt lat="43.53755" lon="6.68926">
        <ele>245.27</ele>
        <time>2011-05-19T11:28:04Z</time>
      </trkpt>
      <trkpt lat="43.53755" lon="6.68926">
        <ele>245.27</ele>
        <time>2011-05-19T11:28:17Z</time>
      </trkpt>
      <trkpt lat="43.53755" lon="6.68926">
        <ele>243.35</ele>
        <time>2011-05-19T11:28:19Z</time>
      </trkpt>
      <trkpt lat="43.53755" lon="6.68926">
        <ele>246.72</ele>
        <time>2011-05-19T11:28:25Z</time>
      </trkpt>
      <trkpt lat="43.53755" lon="6.68926">
        <ele>243.35</ele>
        <time>2011-05-19T11:28:34Z</time>
      </trkpt>
      <trkpt lat="43.53755" lon="6.68926">
        <ele>247.2</ele>
        <time>2011-05-19T11:28:36Z</time>
      </trkpt>
      <trkpt lat="43.53755" lon="6.68926">
        <ele>243.83</ele>
        <time>2011-05-19T11:28:37Z</time>
      </trkpt>
      <trkpt lat="43.53755" lon="6.68926">
        <ele>245.27</ele>
        <time>2011-05-19T11:28:43Z</time>
      </trkpt>
      <trkpt lat="43.53755" lon="6.68926">
        <ele>244.79</ele>
        <time>2011-05-19T11:28:53Z</time>
      </trkpt>
      <trkpt lat="43.53755" lon="6.68926">
        <ele>242.87</ele>
        <time>2011-05-19T11:29:13Z</time>
      </trkpt>
      <trkpt lat="43.53755" lon="6.68926">
        <ele>246.23</ele>
        <time>2011-05-19T11:29:14Z</time>
      </trkpt>
      <trkpt lat="43.53755" lon="6.68926">
        <ele>242.87</ele>
        <time>2011-05-19T11:29:19Z</time>
      </trkpt>
      <trkpt lat="43.53755" lon="6.68926">
        <ele>246.72</ele>
        <time>2011-05-19T11:29:31Z</time>
      </trkpt>
      <trkpt lat="43.53755" lon="6.68926">
        <ele>243.83</ele>
        <time>2011-05-19T11:29:33Z</time>
      </trkpt>
      <trkpt lat="43.53755" lon="6.68926">
        <ele>244.79</ele>
        <time>2011-05-19T11:29:40Z</time>
      </trkpt>
      <trkpt lat="43.53755" lon="6.68926">
        <ele>244.79</ele>
        <time>2011-05-19T11:30:02Z</time>
      </trkpt>
      <trkpt lat="43.53755" lon="6.68926">
        <ele>242.39</ele>
        <time>2011-05-19T11:30:08Z</time>
      </trkpt>
      <trkpt lat="43.53755" lon="6.68926">
        <ele>247.68</ele>
        <time>2011-05-19T11:30:10Z</time>
      </trkpt>
      <trkpt lat="43.53755" lon="6.68926">
        <ele>242.39</ele>
        <time>2011-05-19T11:30:11Z</time>
      </trkpt>
      <trkpt lat="43.53755" lon="6.68926">
        <ele>245.75</ele>
        <time>2011-05-19T11:30:16Z</time>
      </trkpt>
      <trkpt lat="43.53755" lon="6.68926">
        <ele>242.87</ele>
        <time>2011-05-19T11:30:24Z</time>
      </trkpt>
      <trkpt lat="43.53755" lon="6.68926">
        <ele>246.23</ele>
        <time>2011-05-19T11:30:33Z</time>
      </trkpt>
      <trkpt lat="43.53755" lon="6.68926">
        <ele>242.87</ele>
        <time>2011-05-19T11:30:36Z</time>
      </trkpt>
      <trkpt lat="43.53755" lon="6.68926">
        <ele>244.31</ele>
        <time>2011-05-19T11:30:42Z</time>
      </trkpt>
      <trkpt lat="43.53755" lon="6.68926">
        <ele>240.95</ele>
        <time>2011-05-19T11:30:45Z</time>
      </trkpt>
      <trkpt lat="43.53755" lon="6.68926">
        <ele>244.79</ele>
        <time>2011-05-19T11:30:46Z</time>
      </trkpt>
      <trkpt lat="43.53755" lon="6.68926">
        <ele>245.27</ele>
        <time>2011-05-19T11:30:53Z</time>
      </trkpt>
      <trkpt lat="43.53755" lon="6.68925">
        <ele>240.47</ele>
        <time>2011-05-19T11:30:56Z</time>
      </trkpt>
      <trkpt lat="43.53755" lon="6.68925">
        <ele>245.75</ele>
        <time>2011-05-19T11:31:00Z</time>
      </trkpt>
      <trkpt lat="43.53755" lon="6.68925">
        <ele>245.75</ele>
        <time>2011-05-19T11:31:01Z</time>
      </trkpt>
      <trkpt lat="43.53755" lon="6.68925">
        <ele>244.31</ele>
        <time>2011-05-19T11:31:03Z</time>
      </trkpt>
      <trkpt lat="43.53755" lon="6.68925">
        <ele>244.31</ele>
        <time>2011-05-19T11:31:10Z</time>
      </trkpt>
      <trkpt lat="43.53755" lon="6.68925">
        <ele>243.35</ele>
        <time>2011-05-19T11:31:12Z</time>
      </trkpt>
      <trkpt lat="43.53756" lon="6.68925">
        <ele>242.87</ele>
        <time>2011-05-19T11:31:28Z</time>
      </trkpt>
      <trkpt lat="43.53756" lon="6.68925">
        <ele>244.79</ele>
        <time>2011-05-19T11:31:36Z</time>
      </trkpt>
      <trkpt lat="43.53756" lon="6.68925">
        <ele>247.68</ele>
        <time>2011-05-19T11:31:42Z</time>
      </trkpt>
      <trkpt lat="43.53756" lon="6.68925">
        <ele>244.31</ele>
        <time>2011-05-19T11:31:43Z</time>
      </trkpt>
      <trkpt lat="43.53755" lon="6.68925">
        <ele>244.79</ele>
        <time>2011-05-19T11:31:49Z</time>
      </trkpt>
      <trkpt lat="43.53755" lon="6.68924">
        <ele>248.16</ele>
        <time>2011-05-19T11:31:54Z</time>
      </trkpt>
      <trkpt lat="43.53755" lon="6.68924">
        <ele>241.91</ele>
        <time>2011-05-19T11:31:56Z</time>
      </trkpt>
      <trkpt lat="43.53755" lon="6.68924">
        <ele>243.35</ele>
        <time>2011-05-19T11:31:57Z</time>
      </trkpt>
      <trkpt lat="43.53755" lon="6.68924">
        <ele>242.87</ele>
        <time>2011-05-19T11:32:01Z</time>
      </trkpt>
      <trkpt lat="43.53755" lon="6.68924">
        <ele>246.72</ele>
        <time>2011-05-19T11:32:02Z</time>
      </trkpt>
      <trkpt lat="43.53755" lon="6.68924">
        <ele>243.35</ele>
        <time>2011-05-19T11:32:03Z</time>
      </trkpt>
      <trkpt lat="43.53755" lon="6.68924">
        <ele>244.31</ele>
        <time>2011-05-19T11:32:05Z</time>
      </trkpt>
      <trkpt lat="43.53747" lon="6.68909">
        <ele>240.95</ele>
        <time>2011-05-19T11:32:13Z</time>
      </trkpt>
      <trkpt lat="43.53737" lon="6.68902">
        <ele>244.31</ele>
        <time>2011-05-19T11:32:16Z</time>
      </trkpt>
      <trkpt lat="43.53666" lon="6.68889">
        <ele>243.83</ele>
        <time>2011-05-19T11:32:31Z</time>
      </trkpt>
      <trkpt lat="43.53648" lon="6.68888">
        <ele>237.58</ele>
        <time>2011-05-19T11:32:34Z</time>
      </trkpt>
      <trkpt lat="43.53643" lon="6.68888">
        <ele>242.39</ele>
        <time>2011-05-19T11:32:35Z</time>
      </trkpt>
      <trkpt lat="43.53615" lon="6.68888">
        <ele>247.2</ele>
        <time>2011-05-19T11:32:41Z</time>
      </trkpt>
      <trkpt lat="43.5361" lon="6.68888">
        <ele>244.79</ele>
        <time>2011-05-19T11:32:42Z</time>
      </trkpt>
      <trkpt lat="43.53579" lon="6.68913">
        <ele>244.79</ele>
        <time>2011-05-19T11:32:52Z</time>
      </trkpt>
      <trkpt lat="43.53546" lon="6.68934">
        <ele>243.83</ele>
        <time>2011-05-19T11:33:01Z</time>
      </trkpt>
      <trkpt lat="43.53525" lon="6.68943">
        <ele>244.31</ele>
        <time>2011-05-19T11:33:06Z</time>
      </trkpt>
      <trkpt lat="43.53513" lon="6.68949">
        <ele>246.72</ele>
        <time>2011-05-19T11:33:09Z</time>
      </trkpt>
      <trkpt lat="43.53505" lon="6.68953">
        <ele>242.87</ele>
        <time>2011-05-19T11:33:11Z</time>
      </trkpt>
      <trkpt lat="43.53482" lon="6.68961">
        <ele>246.23</ele>
        <time>2011-05-19T11:33:17Z</time>
      </trkpt>
      <trkpt lat="43.53429" lon="6.68973">
        <ele>247.2</ele>
        <time>2011-05-19T11:33:30Z</time>
      </trkpt>
      <trkpt lat="43.53396" lon="6.68992">
        <ele>249.12</ele>
        <time>2011-05-19T11:33:40Z</time>
      </trkpt>
      <trkpt lat="43.53371" lon="6.69004">
        <ele>248.16</ele>
        <time>2011-05-19T11:33:48Z</time>
      </trkpt>
      <trkpt lat="43.53334" lon="6.69023">
        <ele>252</ele>
        <time>2011-05-19T11:33:59Z</time>
      </trkpt>
      <trkpt lat="43.53331" lon="6.69025">
        <ele>250.08</ele>
        <time>2011-05-19T11:34:00Z</time>
      </trkpt>
      <trkpt lat="43.53315" lon="6.69036">
        <ele>251.04</ele>
        <time>2011-05-19T11:34:05Z</time>
      </trkpt>
      <trkpt lat="43.53285" lon="6.69069">
        <ele>251.04</ele>
        <time>2011-05-19T11:34:17Z</time>
      </trkpt>
      <trkpt lat="43.53251" lon="6.69095">
        <ele>254.89</ele>
        <time>2011-05-19T11:34:30Z</time>
      </trkpt>
      <trkpt lat="43.53248" lon="6.69097">
        <ele>253.93</ele>
        <time>2011-05-19T11:34:31Z</time>
      </trkpt>
      <trkpt lat="43.5322" lon="6.69113">
        <ele>257.29</ele>
        <time>2011-05-19T11:34:41Z</time>
      </trkpt>
      <trkpt lat="43.53217" lon="6.69114">
        <ele>253.93</ele>
        <time>2011-05-19T11:34:42Z</time>
      </trkpt>
      <trkpt lat="43.53187" lon="6.69124">
        <ele>255.85</ele>
        <time>2011-05-19T11:34:52Z</time>
      </trkpt>
      <trkpt lat="43.5318" lon="6.69127">
        <ele>253.93</ele>
        <time>2011-05-19T11:34:55Z</time>
      </trkpt>
      <trkpt lat="43.53167" lon="6.69136">
        <ele>255.85</ele>
        <time>2011-05-19T11:35:04Z</time>
      </trkpt>
      <trkpt lat="43.53166" lon="6.69142">
        <ele>253.93</ele>
        <time>2011-05-19T11:35:14Z</time>
      </trkpt>
      <trkpt lat="43.53168" lon="6.69143">
        <ele>258.25</ele>
        <time>2011-05-19T11:35:24Z</time>
      </trkpt>
      <trkpt lat="43.53169" lon="6.69143">
        <ele>254.89</ele>
        <time>2011-05-19T11:35:26Z</time>
      </trkpt>
      <trkpt lat="43.53173" lon="6.69145">
        <ele>258.25</ele>
        <time>2011-05-19T11:36:01Z</time>
      </trkpt>
      <trkpt lat="43.53174" lon="6.69145">
        <ele>254.41</ele>
        <time>2011-05-19T11:36:05Z</time>
      </trkpt>
      <trkpt lat="43.53173" lon="6.69147">
        <ele>255.37</ele>
        <time>2011-05-19T11:36:16Z</time>
      </trkpt>
      <trkpt lat="43.53171" lon="6.69146">
        <ele>254.41</ele>
        <time>2011-05-19T11:36:24Z</time>
      </trkpt>
      <trkpt lat="43.53161" lon="6.69141">
        <ele>256.81</ele>
        <time>2011-05-19T11:36:30Z</time>
      </trkpt>
      <trkpt lat="43.531" lon="6.69131">
        <ele>257.29</ele>
        <time>2011-05-19T11:36:50Z</time>
      </trkpt>
      <trkpt lat="43.5307" lon="6.69116">
        <ele>257.29</ele>
        <time>2011-05-19T11:37:01Z</time>
      </trkpt>
      <trkpt lat="43.53054" lon="6.6911">
        <ele>260.65</ele>
        <time>2011-05-19T11:37:06Z</time>
      </trkpt>
      <trkpt lat="43.53048" lon="6.69108">
        <ele>256.81</ele>
        <time>2011-05-19T11:37:08Z</time>
      </trkpt>
      <trkpt lat="43.53042" lon="6.69106">
        <ele>260.17</ele>
        <time>2011-05-19T11:37:10Z</time>
      </trkpt>
      <trkpt lat="43.53039" lon="6.69105">
        <ele>258.73</ele>
        <time>2011-05-19T11:37:11Z</time>
      </trkpt>
      <trkpt lat="43.53" lon="6.69093">
        <ele>262.1</ele>
        <time>2011-05-19T11:37:25Z</time>
      </trkpt>
      <trkpt lat="43.52967" lon="6.69086">
        <ele>263.06</ele>
        <time>2011-05-19T11:37:37Z</time>
      </trkpt>
      <trkpt lat="43.52941" lon="6.69107">
        <ele>265.94</ele>
        <time>2011-05-19T11:37:49Z</time>
      </trkpt>
      <trkpt lat="43.5291" lon="6.69148">
        <ele>262.58</ele>
        <time>2011-05-19T11:38:05Z</time>
      </trkpt>
      <trkpt lat="43.52905" lon="6.69152">
        <ele>265.46</ele>
        <time>2011-05-19T11:38:07Z</time>
      </trkpt>
      <trkpt lat="43.52903" lon="6.69154">
        <ele>265.46</ele>
        <time>2011-05-19T11:38:08Z</time>
      </trkpt>
      <trkpt lat="43.52894" lon="6.69161">
        <ele>269.31</ele>
        <time>2011-05-19T11:38:12Z</time>
      </trkpt>
      <trkpt lat="43.52891" lon="6.69162">
        <ele>266.9</ele>
        <time>2011-05-19T11:38:13Z</time>
      </trkpt>
      <trkpt lat="43.52873" lon="6.69187">
        <ele>267.86</ele>
        <time>2011-05-19T11:38:23Z</time>
      </trkpt>
      <trkpt lat="43.52869" lon="6.69198">
        <ele>269.79</ele>
        <time>2011-05-19T11:38:26Z</time>
      </trkpt>
      <trkpt lat="43.52867" lon="6.69206">
        <ele>268.35</ele>
        <time>2011-05-19T11:38:28Z</time>
      </trkpt>
      <trkpt lat="43.5286" lon="6.69227">
        <ele>266.42</ele>
        <time>2011-05-19T11:38:34Z</time>
      </trkpt>
      <trkpt lat="43.52859" lon="6.69231">
        <ele>269.79</ele>
        <time>2011-05-19T11:38:35Z</time>
      </trkpt>
      <trkpt lat="43.52858" lon="6.69234">
        <ele>268.35</ele>
        <time>2011-05-19T11:38:36Z</time>
      </trkpt>
      <trkpt lat="43.52856" lon="6.69242">
        <ele>267.38</ele>
        <time>2011-05-19T11:38:38Z</time>
      </trkpt>
      <trkpt lat="43.52844" lon="6.69278">
        <ele>270.27</ele>
        <time>2011-05-19T11:38:48Z</time>
      </trkpt>
      <trkpt lat="43.52842" lon="6.69285">
        <ele>267.86</ele>
        <time>2011-05-19T11:38:50Z</time>
      </trkpt>
      <trkpt lat="43.52839" lon="6.69292">
        <ele>270.75</ele>
        <time>2011-05-19T11:38:52Z</time>
      </trkpt>
      <trkpt lat="43.52831" lon="6.69312">
        <ele>271.23</ele>
        <time>2011-05-19T11:38:58Z</time>
      </trkpt>
      <trkpt lat="43.52821" lon="6.6934">
        <ele>271.71</ele>
        <time>2011-05-19T11:39:06Z</time>
      </trkpt>
      <trkpt lat="43.52813" lon="6.69358">
        <ele>273.15</ele>
        <time>2011-05-19T11:39:11Z</time>
      </trkpt>
      <trkpt lat="43.52809" lon="6.69365">
        <ele>272.19</ele>
        <time>2011-05-19T11:39:13Z</time>
      </trkpt>
      <trkpt lat="43.52803" lon="6.69375">
        <ele>270.27</ele>
        <time>2011-05-19T11:39:16Z</time>
      </trkpt>
      <trkpt lat="43.52792" lon="6.69389">
        <ele>275.07</ele>
        <time>2011-05-19T11:39:21Z</time>
      </trkpt>
      <trkpt lat="43.52756" lon="6.69423">
        <ele>274.59</ele>
        <time>2011-05-19T11:39:38Z</time>
      </trkpt>
      <trkpt lat="43.52745" lon="6.69434">
        <ele>278.44</ele>
        <time>2011-05-19T11:39:44Z</time>
      </trkpt>
      <trkpt lat="43.52716" lon="6.69458">
        <ele>278.92</ele>
        <time>2011-05-19T11:40:00Z</time>
      </trkpt>
      <trkpt lat="43.52712" lon="6.69461">
        <ele>276.04</ele>
        <time>2011-05-19T11:40:02Z</time>
      </trkpt>
      <trkpt lat="43.52706" lon="6.69465">
        <ele>278.44</ele>
        <time>2011-05-19T11:40:05Z</time>
      </trkpt>
      <trkpt lat="43.52673" lon="6.69491">
        <ele>283.25</ele>
        <time>2011-05-19T11:40:23Z</time>
      </trkpt>
      <trkpt lat="43.5267" lon="6.69495">
        <ele>279.88</ele>
        <time>2011-05-19T11:40:25Z</time>
      </trkpt>
      <trkpt lat="43.52665" lon="6.695">
        <ele>282.77</ele>
        <time>2011-05-19T11:40:28Z</time>
      </trkpt>
      <trkpt lat="43.52636" lon="6.69532">
        <ele>283.25</ele>
        <time>2011-05-19T11:40:46Z</time>
      </trkpt>
      <trkpt lat="43.52631" lon="6.69539">
        <ele>285.65</ele>
        <time>2011-05-19T11:40:49Z</time>
      </trkpt>
      <trkpt lat="43.52617" lon="6.69562">
        <ele>288.53</ele>
        <time>2011-05-19T11:40:59Z</time>
      </trkpt>
      <trkpt lat="43.52615" lon="6.69564">
        <ele>284.21</ele>
        <time>2011-05-19T11:41:00Z</time>
      </trkpt>
      <trkpt lat="43.5261" lon="6.6957">
        <ele>289.49</ele>
        <time>2011-05-19T11:41:03Z</time>
      </trkpt>
      <trkpt lat="43.52609" lon="6.69572">
        <ele>285.17</ele>
        <time>2011-05-19T11:41:04Z</time>
      </trkpt>
      <trkpt lat="43.52605" lon="6.69576">
        <ele>288.05</ele>
        <time>2011-05-19T11:41:06Z</time>
      </trkpt>
      <trkpt lat="43.52604" lon="6.69578">
        <ele>288.05</ele>
        <time>2011-05-19T11:41:07Z</time>
      </trkpt>
      <trkpt lat="43.52581" lon="6.69596">
        <ele>291.42</ele>
        <time>2011-05-19T11:41:19Z</time>
      </trkpt>
      <trkpt lat="43.52577" lon="6.69598">
        <ele>287.57</ele>
        <time>2011-05-19T11:41:21Z</time>
      </trkpt>
      <trkpt lat="43.52573" lon="6.69601">
        <ele>290.94</ele>
        <time>2011-05-19T11:41:23Z</time>
      </trkpt>
      <trkpt lat="43.52571" lon="6.69602">
        <ele>290.46</ele>
        <time>2011-05-19T11:41:24Z</time>
      </trkpt>
      <trkpt lat="43.52541" lon="6.69628">
        <ele>289.97</ele>
        <time>2011-05-19T11:41:41Z</time>
      </trkpt>
      <trkpt lat="43.52539" lon="6.69631">
        <ele>291.42</ele>
        <time>2011-05-19T11:41:43Z</time>
      </trkpt>
      <trkpt lat="43.52523" lon="6.69649">
        <ele>290.94</ele>
        <time>2011-05-19T11:41:57Z</time>
      </trkpt>
      <trkpt lat="43.52514" lon="6.69659">
        <ele>293.82</ele>
        <time>2011-05-19T11:42:04Z</time>
      </trkpt>
      <trkpt lat="43.52491" lon="6.69684">
        <ele>297.18</ele>
        <time>2011-05-19T11:42:20Z</time>
      </trkpt>
      <trkpt lat="43.5249" lon="6.69685">
        <ele>296.22</ele>
        <time>2011-05-19T11:42:21Z</time>
      </trkpt>
      <trkpt lat="43.52486" lon="6.69689">
        <ele>293.34</ele>
        <time>2011-05-19T11:42:24Z</time>
      </trkpt>
      <trkpt lat="43.52484" lon="6.69691">
        <ele>296.22</ele>
        <time>2011-05-19T11:42:25Z</time>
      </trkpt>
      <trkpt lat="43.52474" lon="6.69704">
        <ele>299.59</ele>
        <time>2011-05-19T11:42:32Z</time>
      </trkpt>
      <trkpt lat="43.52446" lon="6.69727">
        <ele>301.51</ele>
        <time>2011-05-19T11:42:50Z</time>
      </trkpt>
      <trkpt lat="43.52417" lon="6.69747">
        <ele>305.36</ele>
        <time>2011-05-19T11:43:08Z</time>
      </trkpt>
      <trkpt lat="43.52413" lon="6.69752">
        <ele>301.99</ele>
        <time>2011-05-19T11:43:11Z</time>
      </trkpt>
      <trkpt lat="43.52406" lon="6.69762">
        <ele>306.32</ele>
        <time>2011-05-19T11:43:17Z</time>
      </trkpt>
      <trkpt lat="43.52405" lon="6.69764">
        <ele>305.84</ele>
        <time>2011-05-19T11:43:18Z</time>
      </trkpt>
      <trkpt lat="43.52383" lon="6.69776">
        <ele>309.2</ele>
        <time>2011-05-19T11:43:32Z</time>
      </trkpt>
      <trkpt lat="43.52364" lon="6.69765">
        <ele>313.53</ele>
        <time>2011-05-19T11:43:44Z</time>
      </trkpt>
      <trkpt lat="43.52362" lon="6.69764">
        <ele>309.68</ele>
        <time>2011-05-19T11:43:46Z</time>
      </trkpt>
      <trkpt lat="43.5236" lon="6.69763">
        <ele>313.53</ele>
        <time>2011-05-19T11:43:47Z</time>
      </trkpt>
      <trkpt lat="43.52344" lon="6.69752">
        <ele>312.57</ele>
        <time>2011-05-19T11:44:00Z</time>
      </trkpt>
      <trkpt lat="43.52317" lon="6.69746">
        <ele>314.97</ele>
        <time>2011-05-19T11:44:17Z</time>
      </trkpt>
      <trkpt lat="43.52298" lon="6.69723">
        <ele>317.85</ele>
        <time>2011-05-19T11:44:35Z</time>
      </trkpt>
      <trkpt lat="43.52279" lon="6.69708">
        <ele>320.26</ele>
        <time>2011-05-19T11:44:51Z</time>
      </trkpt>
      <trkpt lat="43.52278" lon="6.69707">
        <ele>320.26</ele>
        <time>2011-05-19T11:44:52Z</time>
      </trkpt>
      <trkpt lat="43.52255" lon="6.69709">
        <ele>322.66</ele>
        <time>2011-05-19T11:45:06Z</time>
      </trkpt>
      <trkpt lat="43.52233" lon="6.69705">
        <ele>326.02</ele>
        <time>2011-05-19T11:45:19Z</time>
      </trkpt>
      <trkpt lat="43.52207" lon="6.69695">
        <ele>326.99</ele>
        <time>2011-05-19T11:45:37Z</time>
      </trkpt>
      <trkpt lat="43.52188" lon="6.69695">
        <ele>330.83</ele>
        <time>2011-05-19T11:45:49Z</time>
      </trkpt>
      <trkpt lat="43.52161" lon="6.69697">
        <ele>331.31</ele>
        <time>2011-05-19T11:46:05Z</time>
      </trkpt>
      <trkpt lat="43.52127" lon="6.69726">
        <ele>331.79</ele>
        <time>2011-05-19T11:46:25Z</time>
      </trkpt>
      <trkpt lat="43.52097" lon="6.69739">
        <ele>335.16</ele>
        <time>2011-05-19T11:46:44Z</time>
      </trkpt>
      <trkpt lat="43.5208" lon="6.69745">
        <ele>338.52</ele>
        <time>2011-05-19T11:46:56Z</time>
      </trkpt>
      <trkpt lat="43.52067" lon="6.69752">
        <ele>340.92</ele>
        <time>2011-05-19T11:47:05Z</time>
      </trkpt>
      <trkpt lat="43.52056" lon="6.69749">
        <ele>344.29</ele>
        <time>2011-05-19T11:47:13Z</time>
      </trkpt>
      <trkpt lat="43.52048" lon="6.69746">
        <ele>340.44</ele>
        <time>2011-05-19T11:47:19Z</time>
      </trkpt>
      <trkpt lat="43.52047" lon="6.69745">
        <ele>344.29</ele>
        <time>2011-05-19T11:47:20Z</time>
      </trkpt>
      <trkpt lat="43.52042" lon="6.69738">
        <ele>344.29</ele>
        <time>2011-05-19T11:47:31Z</time>
      </trkpt>
      <trkpt lat="43.52042" lon="6.69738">
        <ele>343.33</ele>
        <time>2011-05-19T11:47:39Z</time>
      </trkpt>
      <trkpt lat="43.52043" lon="6.69739">
        <ele>342.37</ele>
        <time>2011-05-19T11:47:47Z</time>
      </trkpt>
      <trkpt lat="43.52044" lon="6.69738">
        <ele>345.25</ele>
        <time>2011-05-19T11:47:50Z</time>
      </trkpt>
      <trkpt lat="43.52044" lon="6.69738">
        <ele>342.37</ele>
        <time>2011-05-19T11:47:54Z</time>
      </trkpt>
      <trkpt lat="43.52044" lon="6.69738">
        <ele>345.25</ele>
        <time>2011-05-19T11:47:59Z</time>
      </trkpt>
      <trkpt lat="43.52044" lon="6.69739">
        <ele>346.21</ele>
        <time>2011-05-19T11:48:01Z</time>
      </trkpt>
      <trkpt lat="43.52044" lon="6.69739">
        <ele>341.89</ele>
        <time>2011-05-19T11:48:04Z</time>
      </trkpt>
      <trkpt lat="43.52044" lon="6.69738">
        <ele>343.81</ele>
        <time>2011-05-19T11:48:07Z</time>
      </trkpt>
      <trkpt lat="43.52044" lon="6.69738">
        <ele>344.29</ele>
        <time>2011-05-19T11:48:27Z</time>
      </trkpt>
      <trkpt lat="43.52044" lon="6.69738">
        <ele>342.37</ele>
        <time>2011-05-19T11:48:51Z</time>
      </trkpt>
      <trkpt lat="43.52044" lon="6.69738">
        <ele>345.73</ele>
        <time>2011-05-19T11:48:52Z</time>
      </trkpt>
      <trkpt lat="43.52044" lon="6.69738">
        <ele>342.37</ele>
        <time>2011-05-19T11:48:54Z</time>
      </trkpt>
      <trkpt lat="43.52044" lon="6.69738">
        <ele>343.81</ele>
        <time>2011-05-19T11:48:57Z</time>
      </trkpt>
      <trkpt lat="43.52045" lon="6.69738">
        <ele>340.44</ele>
        <time>2011-05-19T11:49:06Z</time>
      </trkpt>
      <trkpt lat="43.52045" lon="6.69738">
        <ele>341.89</ele>
        <time>2011-05-19T11:49:07Z</time>
      </trkpt>
      <trkpt lat="43.52045" lon="6.69737">
        <ele>342.85</ele>
        <time>2011-05-19T11:49:09Z</time>
      </trkpt>
      <trkpt lat="43.52045" lon="6.69737">
        <ele>346.21</ele>
        <time>2011-05-19T11:49:12Z</time>
      </trkpt>
      <trkpt lat="43.52045" lon="6.69737">
        <ele>344.77</ele>
        <time>2011-05-19T11:49:13Z</time>
      </trkpt>
      <trkpt lat="43.52047" lon="6.69743">
        <ele>342.85</ele>
        <time>2011-05-19T11:49:19Z</time>
      </trkpt>
      <trkpt lat="43.52048" lon="6.69747">
        <ele>343.33</ele>
        <time>2011-05-19T11:49:22Z</time>
      </trkpt>
      <trkpt lat="43.5205" lon="6.6975">
        <ele>341.89</ele>
        <time>2011-05-19T11:49:25Z</time>
      </trkpt>
      <trkpt lat="43.5205" lon="6.69751">
        <ele>345.25</ele>
        <time>2011-05-19T11:49:35Z</time>
      </trkpt>
      <trkpt lat="43.5205" lon="6.69751">
        <ele>344.29</ele>
        <time>2011-05-19T11:49:36Z</time>
      </trkpt>
      <trkpt lat="43.5205" lon="6.69751">
        <ele>342.37</ele>
        <time>2011-05-19T11:49:38Z</time>
      </trkpt>
      <trkpt lat="43.5205" lon="6.69751">
        <ele>346.69</ele>
        <time>2011-05-19T11:49:55Z</time>
      </trkpt>
      <trkpt lat="43.5205" lon="6.69751">
        <ele>342.85</ele>
        <time>2011-05-19T11:49:56Z</time>
      </trkpt>
      <trkpt lat="43.5205" lon="6.69751">
        <ele>347.17</ele>
        <time>2011-05-19T11:49:58Z</time>
      </trkpt>
      <trkpt lat="43.5205" lon="6.69751">
        <ele>341.89</ele>
        <time>2011-05-19T11:49:59Z</time>
      </trkpt>
      <trkpt lat="43.5205" lon="6.69751">
        <ele>345.73</ele>
        <time>2011-05-19T11:50:00Z</time>
      </trkpt>
      <trkpt lat="43.5205" lon="6.69751">
        <ele>341.89</ele>
        <time>2011-05-19T11:50:05Z</time>
      </trkpt>
      <trkpt lat="43.5205" lon="6.69751">
        <ele>345.25</ele>
        <time>2011-05-19T11:50:15Z</time>
      </trkpt>
      <trkpt lat="43.5205" lon="6.69751">
        <ele>345.25</ele>
        <time>2011-05-19T11:50:19Z</time>
      </trkpt>
      <trkpt lat="43.5205" lon="6.69751">
        <ele>341.41</ele>
        <time>2011-05-19T11:50:20Z</time>
      </trkpt>
      <trkpt lat="43.5205" lon="6.69751">
        <ele>344.29</ele>
        <time>2011-05-19T11:50:21Z</time>
      </trkpt>
      <trkpt lat="43.52051" lon="6.69753">
        <ele>342.85</ele>
        <time>2011-05-19T11:51:11Z</time>
      </trkpt>
      <trkpt lat="43.52051" lon="6.69753">
        <ele>346.21</ele>
        <time>2011-05-19T11:51:15Z</time>
      </trkpt>
      <trkpt lat="43.52051" lon="6.69753">
        <ele>345.25</ele>
        <time>2011-05-19T11:51:16Z</time>
      </trkpt>
      <trkpt lat="43.52051" lon="6.69753">
        <ele>341.89</ele>
        <time>2011-05-19T11:51:17Z</time>
      </trkpt>
      <trkpt lat="43.52051" lon="6.69753">
        <ele>344.29</ele>
        <time>2011-05-19T11:51:18Z</time>
      </trkpt>
      <trkpt lat="43.52052" lon="6.69753">
        <ele>345.25</ele>
        <time>2011-05-19T11:51:24Z</time>
      </trkpt>
      <trkpt lat="43.52052" lon="6.69753">
        <ele>341.41</ele>
        <time>2011-05-19T11:51:26Z</time>
      </trkpt>
      <trkpt lat="43.52052" lon="6.69753">
        <ele>345.73</ele>
        <time>2011-05-19T11:51:30Z</time>
      </trkpt>
      <trkpt lat="43.52052" lon="6.69753">
        <ele>345.25</ele>
        <time>2011-05-19T11:51:31Z</time>
      </trkpt>
      <trkpt lat="43.52052" lon="6.69753">
        <ele>344.77</ele>
        <time>2011-05-19T11:51:43Z</time>
      </trkpt>
      <trkpt lat="43.52052" lon="6.69753">
        <ele>344.77</ele>
        <time>2011-05-19T11:51:59Z</time>
      </trkpt>
      <trkpt lat="43.52052" lon="6.69753">
        <ele>346.21</ele>
        <time>2011-05-19T11:52:05Z</time>
      </trkpt>
      <trkpt lat="43.52052" lon="6.69753">
        <ele>344.77</ele>
        <time>2011-05-19T11:52:11Z</time>
      </trkpt>
      <trkpt lat="43.52051" lon="6.69753">
        <ele>343.33</ele>
        <time>2011-05-19T11:52:42Z</time>
      </trkpt>
      <trkpt lat="43.52051" lon="6.69753">
        <ele>344.29</ele>
        <time>2011-05-19T11:52:48Z</time>
      </trkpt>
      <trkpt lat="43.52051" lon="6.69753">
        <ele>347.65</ele>
        <time>2011-05-19T11:53:04Z</time>
      </trkpt>
      <trkpt lat="43.52051" lon="6.69753">
        <ele>343.81</ele>
        <time>2011-05-19T11:53:06Z</time>
      </trkpt>
      <trkpt lat="43.52051" lon="6.69753">
        <ele>345.73</ele>
        <time>2011-05-19T11:53:11Z</time>
      </trkpt>
      <trkpt lat="43.52051" lon="6.69753">
        <ele>343.81</ele>
        <time>2011-05-19T11:53:15Z</time>
      </trkpt>
      <trkpt lat="43.52051" lon="6.69753">
        <ele>347.65</ele>
        <time>2011-05-19T11:53:18Z</time>
      </trkpt>
      <trkpt lat="43.52051" lon="6.69753">
        <ele>343.33</ele>
        <time>2011-05-19T11:53:19Z</time>
      </trkpt>
      <trkpt lat="43.52051" lon="6.69753">
        <ele>348.13</ele>
        <time>2011-05-19T11:53:21Z</time>
      </trkpt>
      <trkpt lat="43.52051" lon="6.69753">
        <ele>344.29</ele>
        <time>2011-05-19T11:53:22Z</time>
      </trkpt>
      <trkpt lat="43.52048" lon="6.6975">
        <ele>345.25</ele>
        <time>2011-05-19T11:53:34Z</time>
      </trkpt>
      <trkpt lat="43.52046" lon="6.69749">
        <ele>346.21</ele>
        <time>2011-05-19T11:53:52Z</time>
      </trkpt>
      <trkpt lat="43.52046" lon="6.69749">
        <ele>345.25</ele>
        <time>2011-05-19T11:53:54Z</time>
      </trkpt>
      <trkpt lat="43.52046" lon="6.69749">
        <ele>345.73</ele>
        <time>2011-05-19T11:54:11Z</time>
      </trkpt>
      <trkpt lat="43.52046" lon="6.69749">
        <ele>342.37</ele>
        <time>2011-05-19T11:54:18Z</time>
      </trkpt>
      <trkpt lat="43.52046" lon="6.69749">
        <ele>346.21</ele>
        <time>2011-05-19T11:54:19Z</time>
      </trkpt>
      <trkpt lat="43.52046" lon="6.69749">
        <ele>346.21</ele>
        <time>2011-05-19T11:54:24Z</time>
      </trkpt>
      <trkpt lat="43.52046" lon="6.69748">
        <ele>343.33</ele>
        <time>2011-05-19T11:54:29Z</time>
      </trkpt>
      <trkpt lat="43.52046" lon="6.69748">
        <ele>346.21</ele>
        <time>2011-05-19T11:54:30Z</time>
      </trkpt>
      <trkpt lat="43.52046" lon="6.69748">
        <ele>344.29</ele>
        <time>2011-05-19T11:54:34Z</time>
      </trkpt>
      <trkpt lat="43.52046" lon="6.69748">
        <ele>345.73</ele>
        <time>2011-05-19T11:54:49Z</time>
      </trkpt>
      <trkpt lat="43.52046" lon="6.69748">
        <ele>344.29</ele>
        <time>2011-05-19T11:54:52Z</time>
      </trkpt>
      <trkpt lat="43.52046" lon="6.69748">
        <ele>347.17</ele>
        <time>2011-05-19T11:54:54Z</time>
      </trkpt>
      <trkpt lat="43.52046" lon="6.69748">
        <ele>346.21</ele>
        <time>2011-05-19T11:54:55Z</time>
      </trkpt>
      <trkpt lat="43.52046" lon="6.69748">
        <ele>344.77</ele>
        <time>2011-05-19T11:54:57Z</time>
      </trkpt>
      <trkpt lat="43.52047" lon="6.69749">
        <ele>346.21</ele>
        <time>2011-05-19T11:55:00Z</time>
      </trkpt>
      <trkpt lat="43.52049" lon="6.69751">
        <ele>343.33</ele>
        <time>2011-05-19T11:55:04Z</time>
      </trkpt>
      <trkpt lat="43.52049" lon="6.69751">
        <ele>346.69</ele>
        <time>2011-05-19T11:55:05Z</time>
      </trkpt>
      <trkpt lat="43.52048" lon="6.69751">
        <ele>346.69</ele>
        <time>2011-05-19T11:55:21Z</time>
      </trkpt>
      <trkpt lat="43.52048" lon="6.69751">
        <ele>345.73</ele>
        <time>2011-05-19T11:55:24Z</time>
      </trkpt>
      <trkpt lat="43.52048" lon="6.69751">
        <ele>344.29</ele>
        <time>2011-05-19T11:55:28Z</time>
      </trkpt>
      <trkpt lat="43.52048" lon="6.69751">
        <ele>345.73</ele>
        <time>2011-05-19T11:55:33Z</time>
      </trkpt>
      <trkpt lat="43.52048" lon="6.6975">
        <ele>343.81</ele>
        <time>2011-05-19T11:56:06Z</time>
      </trkpt>
      <trkpt lat="43.52045" lon="6.69743">
        <ele>343.33</ele>
        <time>2011-05-19T11:56:12Z</time>
      </trkpt>
      <trkpt lat="43.52044" lon="6.6974">
        <ele>348.62</ele>
        <time>2011-05-19T11:56:14Z</time>
      </trkpt>
      <trkpt lat="43.52043" lon="6.69739">
        <ele>344.29</ele>
        <time>2011-05-19T11:56:15Z</time>
      </trkpt>
      <trkpt lat="43.52044" lon="6.69739">
        <ele>348.13</ele>
        <time>2011-05-19T11:56:21Z</time>
      </trkpt>
      <trkpt lat="43.52044" lon="6.6974">
        <ele>345.25</ele>
        <time>2011-05-19T11:56:23Z</time>
      </trkpt>
      <trkpt lat="43.52044" lon="6.6974">
        <ele>343.81</ele>
        <time>2011-05-19T11:56:25Z</time>
      </trkpt>
      <trkpt lat="43.52044" lon="6.6974">
        <ele>348.62</ele>
        <time>2011-05-19T11:56:27Z</time>
      </trkpt>
      <trkpt lat="43.52044" lon="6.69741">
        <ele>344.29</ele>
        <time>2011-05-19T11:56:28Z</time>
      </trkpt>
      <trkpt lat="43.52041" lon="6.69745">
        <ele>343.33</ele>
        <time>2011-05-19T11:56:36Z</time>
      </trkpt>
      <trkpt lat="43.52037" lon="6.69741">
        <ele>346.69</ele>
        <time>2011-05-19T11:56:42Z</time>
      </trkpt>
      <trkpt lat="43.52037" lon="6.69741">
        <ele>343.33</ele>
        <time>2011-05-19T11:56:46Z</time>
      </trkpt>
      <trkpt lat="43.52038" lon="6.69746">
        <ele>343.81</ele>
        <time>2011-05-19T11:56:57Z</time>
      </trkpt>
      <trkpt lat="43.52039" lon="6.69746">
        <ele>347.17</ele>
        <time>2011-05-19T11:57:00Z</time>
      </trkpt>
      <trkpt lat="43.5204" lon="6.69745">
        <ele>342.85</ele>
        <time>2011-05-19T11:57:02Z</time>
      </trkpt>
      <trkpt lat="43.5204" lon="6.69745">
        <ele>347.17</ele>
        <time>2011-05-19T11:57:03Z</time>
      </trkpt>
      <trkpt lat="43.5204" lon="6.69744">
        <ele>343.33</ele>
        <time>2011-05-19T11:57:04Z</time>
      </trkpt>
      <trkpt lat="43.52041" lon="6.69743">
        <ele>345.25</ele>
        <time>2011-05-19T11:57:05Z</time>
      </trkpt>
      <trkpt lat="43.52041" lon="6.69747">
        <ele>345.25</ele>
        <time>2011-05-19T11:57:17Z</time>
      </trkpt>
      <trkpt lat="43.52017" lon="6.69747">
        <ele>342.37</ele>
        <time>2011-05-19T11:57:30Z</time>
      </trkpt>
      <trkpt lat="43.52009" lon="6.69747">
        <ele>340.92</ele>
        <time>2011-05-19T11:57:32Z</time>
      </trkpt>
      <trkpt lat="43.51987" lon="6.69745">
        <ele>339.48</ele>
        <time>2011-05-19T11:57:36Z</time>
      </trkpt>
      <trkpt lat="43.51981" lon="6.69744">
        <ele>339.96</ele>
        <time>2011-05-19T11:57:37Z</time>
      </trkpt>
      <trkpt lat="43.5196" lon="6.69744">
        <ele>340.92</ele>
        <time>2011-05-19T11:57:40Z</time>
      </trkpt>
      <trkpt lat="43.51951" lon="6.69745">
        <ele>338.04</ele>
        <time>2011-05-19T11:57:41Z</time>
      </trkpt>
      <trkpt lat="43.51929" lon="6.69744">
        <ele>334.68</ele>
        <time>2011-05-19T11:57:44Z</time>
      </trkpt>
      <trkpt lat="43.51896" lon="6.69725">
        <ele>331.31</ele>
        <time>2011-05-19T11:57:50Z</time>
      </trkpt>
      <trkpt lat="43.51874" lon="6.69712">
        <ele>327.95</ele>
        <time>2011-05-19T11:57:54Z</time>
      </trkpt>
      <trkpt lat="43.51868" lon="6.69708">
        <ele>331.31</ele>
        <time>2011-05-19T11:57:55Z</time>
      </trkpt>
      <trkpt lat="43.51848" lon="6.69698">
        <ele>328.43</ele>
        <time>2011-05-19T11:57:58Z</time>
      </trkpt>
      <trkpt lat="43.51802" lon="6.69686">
        <ele>326.02</ele>
        <time>2011-05-19T11:58:08Z</time>
      </trkpt>
      <trkpt lat="43.518" lon="6.69685">
        <ele>325.06</ele>
        <time>2011-05-19T11:58:09Z</time>
      </trkpt>
      <trkpt lat="43.51796" lon="6.69672">
        <ele>325.54</ele>
        <time>2011-05-19T11:58:18Z</time>
      </trkpt>
      <trkpt lat="43.51798" lon="6.69672">
        <ele>327.47</ele>
        <time>2011-05-19T11:58:26Z</time>
      </trkpt>
      <trkpt lat="43.51823" lon="6.69676">
        <ele>322.66</ele>
        <time>2011-05-19T11:58:40Z</time>
      </trkpt>
      <trkpt lat="43.51827" lon="6.69676">
        <ele>325.06</ele>
        <time>2011-05-19T11:58:41Z</time>
      </trkpt>
      <trkpt lat="43.51841" lon="6.69679">
        <ele>323.62</ele>
        <time>2011-05-19T11:58:44Z</time>
      </trkpt>
      <trkpt lat="43.51863" lon="6.69682">
        <ele>319.78</ele>
        <time>2011-05-19T11:58:49Z</time>
      </trkpt>
      <trkpt lat="43.51917" lon="6.69667">
        <ele>317.85</ele>
        <time>2011-05-19T11:58:58Z</time>
      </trkpt>
      <trkpt lat="43.51932" lon="6.69654">
        <ele>314.97</ele>
        <time>2011-05-19T11:59:02Z</time>
      </trkpt>
      <trkpt lat="43.51934" lon="6.69639">
        <ele>313.05</ele>
        <time>2011-05-19T11:59:04Z</time>
      </trkpt>
      <trkpt lat="43.51933" lon="6.69612">
        <ele>312.09</ele>
        <time>2011-05-19T11:59:07Z</time>
      </trkpt>
      <trkpt lat="43.51933" lon="6.69602">
        <ele>312.09</ele>
        <time>2011-05-19T11:59:08Z</time>
      </trkpt>
      <trkpt lat="43.51934" lon="6.69593">
        <ele>309.68</ele>
        <time>2011-05-19T11:59:09Z</time>
      </trkpt>
      <trkpt lat="43.51935" lon="6.69563">
        <ele>308.72</ele>
        <time>2011-05-19T11:59:12Z</time>
      </trkpt>
      <trkpt lat="43.51935" lon="6.69522">
        <ele>308.24</ele>
        <time>2011-05-19T11:59:16Z</time>
      </trkpt>
      <trkpt lat="43.51933" lon="6.69471">
        <ele>304.88</ele>
        <time>2011-05-19T11:59:20Z</time>
      </trkpt>
      <trkpt lat="43.51931" lon="6.69434">
        <ele>301.03</ele>
        <time>2011-05-19T11:59:23Z</time>
      </trkpt>
      <trkpt lat="43.51931" lon="6.69411">
        <ele>299.59</ele>
        <time>2011-05-19T11:59:25Z</time>
      </trkpt>
      <trkpt lat="43.51931" lon="6.69367">
        <ele>298.15</ele>
        <time>2011-05-19T11:59:29Z</time>
      </trkpt>
      <trkpt lat="43.5193" lon="6.69358">
        <ele>298.15</ele>
        <time>2011-05-19T11:59:30Z</time>
      </trkpt>
      <trkpt lat="43.51917" lon="6.69331">
        <ele>292.86</ele>
        <time>2011-05-19T11:59:37Z</time>
      </trkpt>
      <trkpt lat="43.51914" lon="6.69343">
        <ele>292.86</ele>
        <time>2011-05-19T11:59:40Z</time>
      </trkpt>
      <trkpt lat="43.51917" lon="6.69363">
        <ele>291.42</ele>
        <time>2011-05-19T11:59:43Z</time>
      </trkpt>
      <trkpt lat="43.51915" lon="6.6938">
        <ele>289.49</ele>
        <time>2011-05-19T11:59:45Z</time>
      </trkpt>
      <trkpt lat="43.51884" lon="6.69453">
        <ele>289.49</ele>
        <time>2011-05-19T11:59:54Z</time>
      </trkpt>
      <trkpt lat="43.5187" lon="6.69477">
        <ele>286.13</ele>
        <time>2011-05-19T11:59:57Z</time>
      </trkpt>
      <trkpt lat="43.51852" lon="6.69492">
        <ele>281.8</ele>
        <time>2011-05-19T12:00:00Z</time>
      </trkpt>
      <trkpt lat="43.51847" lon="6.69495">
        <ele>282.28</ele>
        <time>2011-05-19T12:00:01Z</time>
      </trkpt>
      <trkpt lat="43.51838" lon="6.69497">
        <ele>281.8</ele>
        <time>2011-05-19T12:00:03Z</time>
      </trkpt>
      <trkpt lat="43.51823" lon="6.69504">
        <ele>282.77</ele>
        <time>2011-05-19T12:00:06Z</time>
      </trkpt>
      <trkpt lat="43.51806" lon="6.69509">
        <ele>276.52</ele>
        <time>2011-05-19T12:00:09Z</time>
      </trkpt>
      <trkpt lat="43.51801" lon="6.69508">
        <ele>277.48</ele>
        <time>2011-05-19T12:00:10Z</time>
      </trkpt>
      <trkpt lat="43.5177" lon="6.69488">
        <ele>271.23</ele>
        <time>2011-05-19T12:00:18Z</time>
      </trkpt>
      <trkpt lat="43.51766" lon="6.69485">
        <ele>271.23</ele>
        <time>2011-05-19T12:00:19Z</time>
      </trkpt>
      <trkpt lat="43.51758" lon="6.6948">
        <ele>271.23</ele>
        <time>2011-05-19T12:00:21Z</time>
      </trkpt>
      <trkpt lat="43.51736" lon="6.69486">
        <ele>264.5</ele>
        <time>2011-05-19T12:00:26Z</time>
      </trkpt>
      <trkpt lat="43.51731" lon="6.6949">
        <ele>268.35</ele>
        <time>2011-05-19T12:00:27Z</time>
      </trkpt>
      <trkpt lat="43.51721" lon="6.69501">
        <ele>269.31</ele>
        <time>2011-05-19T12:00:29Z</time>
      </trkpt>
      <trkpt lat="43.51702" lon="6.69516">
        <ele>264.98</ele>
        <time>2011-05-19T12:00:33Z</time>
      </trkpt>
      <trkpt lat="43.51688" lon="6.69525">
        <ele>260.17</ele>
        <time>2011-05-19T12:00:36Z</time>
      </trkpt>
      <trkpt lat="43.51676" lon="6.69527">
        <ele>263.06</ele>
        <time>2011-05-19T12:00:38Z</time>
      </trkpt>
      <trkpt lat="43.51655" lon="6.69524">
        <ele>260.65</ele>
        <time>2011-05-19T12:00:41Z</time>
      </trkpt>
      <trkpt lat="43.51633" lon="6.69519">
        <ele>257.77</ele>
        <time>2011-05-19T12:00:44Z</time>
      </trkpt>
      <trkpt lat="43.5161" lon="6.6952">
        <ele>252.96</ele>
        <time>2011-05-19T12:00:47Z</time>
      </trkpt>
      <trkpt lat="43.51595" lon="6.69523">
        <ele>251.52</ele>
        <time>2011-05-19T12:00:49Z</time>
      </trkpt>
      <trkpt lat="43.51582" lon="6.69529">
        <ele>252.96</ele>
        <time>2011-05-19T12:00:51Z</time>
      </trkpt>
      <trkpt lat="43.51562" lon="6.69546">
        <ele>250.08</ele>
        <time>2011-05-19T12:00:55Z</time>
      </trkpt>
      <trkpt lat="43.51538" lon="6.69568">
        <ele>246.72</ele>
        <time>2011-05-19T12:01:00Z</time>
      </trkpt>
      <trkpt lat="43.51534" lon="6.69573">
        <ele>244.79</ele>
        <time>2011-05-19T12:01:01Z</time>
      </trkpt>
      <trkpt lat="43.5152" lon="6.69596">
        <ele>242.87</ele>
        <time>2011-05-19T12:01:05Z</time>
      </trkpt>
      <trkpt lat="43.51516" lon="6.69602">
        <ele>243.83</ele>
        <time>2011-05-19T12:01:06Z</time>
      </trkpt>
      <trkpt lat="43.51509" lon="6.69611">
        <ele>241.43</ele>
        <time>2011-05-19T12:01:08Z</time>
      </trkpt>
      <trkpt lat="43.5149" lon="6.69647">
        <ele>236.14</ele>
        <time>2011-05-19T12:01:16Z</time>
      </trkpt>
      <trkpt lat="43.51489" lon="6.6965">
        <ele>236.14</ele>
        <time>2011-05-19T12:01:17Z</time>
      </trkpt>
      <trkpt lat="43.51485" lon="6.69657">
        <ele>236.14</ele>
        <time>2011-05-19T12:01:21Z</time>
      </trkpt>
      <trkpt lat="43.51479" lon="6.69658">
        <ele>236.14</ele>
        <time>2011-05-19T12:01:31Z</time>
      </trkpt>
      <trkpt lat="43.51479" lon="6.69659">
        <ele>235.66</ele>
        <time>2011-05-19T12:01:39Z</time>
      </trkpt>
      <trkpt lat="43.51479" lon="6.69658">
        <ele>233.26</ele>
        <time>2011-05-19T12:01:41Z</time>
      </trkpt>
      <trkpt lat="43.51478" lon="6.69657">
        <ele>235.66</ele>
        <time>2011-05-19T12:01:44Z</time>
      </trkpt>
      <trkpt lat="43.51478" lon="6.69655">
        <ele>234.22</ele>
        <time>2011-05-19T12:01:50Z</time>
      </trkpt>
      <trkpt lat="43.51478" lon="6.69655">
        <ele>237.58</ele>
        <time>2011-05-19T12:01:57Z</time>
      </trkpt>
      <trkpt lat="43.51478" lon="6.69655">
        <ele>237.1</ele>
        <time>2011-05-19T12:01:58Z</time>
      </trkpt>
      <trkpt lat="43.51478" lon="6.69655">
        <ele>234.22</ele>
        <time>2011-05-19T12:01:59Z</time>
      </trkpt>
      <trkpt lat="43.51478" lon="6.69655">
        <ele>234.7</ele>
        <time>2011-05-19T12:02:00Z</time>
      </trkpt>
      <trkpt lat="43.51478" lon="6.69655">
        <ele>235.18</ele>
        <time>2011-05-19T12:02:19Z</time>
      </trkpt>
      <trkpt lat="43.51478" lon="6.69655">
        <ele>235.18</ele>
        <time>2011-05-19T12:02:26Z</time>
      </trkpt>
      <trkpt lat="43.51478" lon="6.69655">
        <ele>231.33</ele>
        <time>2011-05-19T12:02:30Z</time>
      </trkpt>
      <trkpt lat="43.51478" lon="6.69653">
        <ele>234.7</ele>
        <time>2011-05-19T12:02:31Z</time>
      </trkpt>
      <trkpt lat="43.51477" lon="6.69646">
        <ele>235.18</ele>
        <time>2011-05-19T12:02:38Z</time>
      </trkpt>
      <trkpt lat="43.51477" lon="6.69646">
        <ele>231.81</ele>
        <time>2011-05-19T12:02:41Z</time>
      </trkpt>
      <trkpt lat="43.51475" lon="6.6962">
        <ele>235.18</ele>
        <time>2011-05-19T12:02:49Z</time>
      </trkpt>
      <trkpt lat="43.51475" lon="6.69614">
        <ele>232.78</ele>
        <time>2011-05-19T12:02:50Z</time>
      </trkpt>
      <trkpt lat="43.51475" lon="6.69578">
        <ele>232.3</ele>
        <time>2011-05-19T12:02:56Z</time>
      </trkpt>
      <trkpt lat="43.51475" lon="6.69564">
        <ele>230.37</ele>
        <time>2011-05-19T12:02:58Z</time>
      </trkpt>
      <trkpt lat="43.5149" lon="6.6952">
        <ele>231.81</ele>
        <time>2011-05-19T12:03:04Z</time>
      </trkpt>
      <trkpt lat="43.51493" lon="6.69514">
        <ele>227.01</ele>
        <time>2011-05-19T12:03:05Z</time>
      </trkpt>
      <trkpt lat="43.51495" lon="6.69509">
        <ele>227.49</ele>
        <time>2011-05-19T12:03:06Z</time>
      </trkpt>
      <trkpt lat="43.51502" lon="6.69482">
        <ele>225.57</ele>
        <time>2011-05-19T12:03:10Z</time>
      </trkpt>
      <trkpt lat="43.51504" lon="6.69468">
        <ele>224.12</ele>
        <time>2011-05-19T12:03:12Z</time>
      </trkpt>
      <trkpt lat="43.51501" lon="6.6944">
        <ele>221.24</ele>
        <time>2011-05-19T12:03:16Z</time>
      </trkpt>
      <trkpt lat="43.51499" lon="6.69433">
        <ele>221.72</ele>
        <time>2011-05-19T12:03:17Z</time>
      </trkpt>
      <trkpt lat="43.51497" lon="6.69428">
        <ele>218.84</ele>
        <time>2011-05-19T12:03:18Z</time>
      </trkpt>
      <trkpt lat="43.51493" lon="6.69419">
        <ele>221.24</ele>
        <time>2011-05-19T12:03:20Z</time>
      </trkpt>
      <trkpt lat="43.5148" lon="6.69407">
        <ele>213.55</ele>
        <time>2011-05-19T12:03:24Z</time>
      </trkpt>
      <trkpt lat="43.51459" lon="6.69401">
        <ele>217.88</ele>
        <time>2011-05-19T12:03:28Z</time>
      </trkpt>
      <trkpt lat="43.51454" lon="6.69401">
        <ele>211.63</ele>
        <time>2011-05-19T12:03:29Z</time>
      </trkpt>
      <trkpt lat="43.51449" lon="6.69402">
        <ele>216.91</ele>
        <time>2011-05-19T12:03:30Z</time>
      </trkpt>
      <trkpt lat="43.51444" lon="6.69404">
        <ele>211.15</ele>
        <time>2011-05-19T12:03:31Z</time>
      </trkpt>
      <trkpt lat="43.5142" lon="6.69427">
        <ele>207.78</ele>
        <time>2011-05-19T12:03:37Z</time>
      </trkpt>
      <trkpt lat="43.51417" lon="6.69433">
        <ele>209.7</ele>
        <time>2011-05-19T12:03:38Z</time>
      </trkpt>
      <trkpt lat="43.51409" lon="6.6946">
        <ele>204.9</ele>
        <time>2011-05-19T12:03:42Z</time>
      </trkpt>
      <trkpt lat="43.51407" lon="6.69467">
        <ele>205.38</ele>
        <time>2011-05-19T12:03:43Z</time>
      </trkpt>
      <trkpt lat="43.51397" lon="6.695">
        <ele>202.49</ele>
        <time>2011-05-19T12:03:48Z</time>
      </trkpt>
      <trkpt lat="43.51392" lon="6.69512">
        <ele>197.69</ele>
        <time>2011-05-19T12:03:51Z</time>
      </trkpt>
      <trkpt lat="43.5139" lon="6.69515">
        <ele>201.53</ele>
        <time>2011-05-19T12:03:52Z</time>
      </trkpt>
      <trkpt lat="43.51374" lon="6.69519">
        <ele>197.21</ele>
        <time>2011-05-19T12:03:59Z</time>
      </trkpt>
      <trkpt lat="43.51364" lon="6.69504">
        <ele>195.77</ele>
        <time>2011-05-19T12:04:03Z</time>
      </trkpt>
      <trkpt lat="43.51362" lon="6.69499">
        <ele>193.84</ele>
        <time>2011-05-19T12:04:04Z</time>
      </trkpt>
      <trkpt lat="43.51356" lon="6.69479">
        <ele>191.92</ele>
        <time>2011-05-19T12:04:07Z</time>
      </trkpt>
      <trkpt lat="43.51356" lon="6.6947">
        <ele>193.36</ele>
        <time>2011-05-19T12:04:08Z</time>
      </trkpt>
      <trkpt lat="43.51362" lon="6.69413">
        <ele>186.15</ele>
        <time>2011-05-19T12:04:15Z</time>
      </trkpt>
      <trkpt lat="43.51363" lon="6.69405">
        <ele>187.59</ele>
        <time>2011-05-19T12:04:16Z</time>
      </trkpt>
      <trkpt lat="43.51364" lon="6.69386">
        <ele>185.19</ele>
        <time>2011-05-19T12:04:18Z</time>
      </trkpt>
      <trkpt lat="43.51366" lon="6.69368">
        <ele>185.19</ele>
        <time>2011-05-19T12:04:20Z</time>
      </trkpt>
      <trkpt lat="43.51367" lon="6.69358">
        <ele>188.56</ele>
        <time>2011-05-19T12:04:21Z</time>
      </trkpt>
      <trkpt lat="43.51369" lon="6.69339">
        <ele>182.31</ele>
        <time>2011-05-19T12:04:23Z</time>
      </trkpt>
      <trkpt lat="43.5137" lon="6.6933">
        <ele>182.31</ele>
        <time>2011-05-19T12:04:24Z</time>
      </trkpt>
      <trkpt lat="43.5137" lon="6.69314">
        <ele>182.79</ele>
        <time>2011-05-19T12:04:26Z</time>
      </trkpt>
      <trkpt lat="43.51371" lon="6.69299">
        <ele>178.94</ele>
        <time>2011-05-19T12:04:28Z</time>
      </trkpt>
      <trkpt lat="43.51372" lon="6.69293">
        <ele>178.46</ele>
        <time>2011-05-19T12:04:29Z</time>
      </trkpt>
      <trkpt lat="43.51384" lon="6.6927">
        <ele>178.46</ele>
        <time>2011-05-19T12:04:33Z</time>
      </trkpt>
      <trkpt lat="43.514" lon="6.69257">
        <ele>177.5</ele>
        <time>2011-05-19T12:04:36Z</time>
      </trkpt>
      <trkpt lat="43.51414" lon="6.69246">
        <ele>176.06</ele>
        <time>2011-05-19T12:04:40Z</time>
      </trkpt>
      <trkpt lat="43.51416" lon="6.69244">
        <ele>177.02</ele>
        <time>2011-05-19T12:04:41Z</time>
      </trkpt>
      <trkpt lat="43.51418" lon="6.69232">
        <ele>175.58</ele>
        <time>2011-05-19T12:04:45Z</time>
      </trkpt>
      <trkpt lat="43.51417" lon="6.69214">
        <ele>174.62</ele>
        <time>2011-05-19T12:04:51Z</time>
      </trkpt>
      <trkpt lat="43.51422" lon="6.69193">
        <ele>175.1</ele>
        <time>2011-05-19T12:04:56Z</time>
      </trkpt>
      <trkpt lat="43.5142" lon="6.69176">
        <ele>174.62</ele>
        <time>2011-05-19T12:05:01Z</time>
      </trkpt>
      <trkpt lat="43.51403" lon="6.69166">
        <ele>170.77</ele>
        <time>2011-05-19T12:05:07Z</time>
      </trkpt>
      <trkpt lat="43.51399" lon="6.69164">
        <ele>176.06</ele>
        <time>2011-05-19T12:05:09Z</time>
      </trkpt>
      <trkpt lat="43.51397" lon="6.69164">
        <ele>172.69</ele>
        <time>2011-05-19T12:05:10Z</time>
      </trkpt>
      <trkpt lat="43.51395" lon="6.69164">
        <ele>176.06</ele>
        <time>2011-05-19T12:05:11Z</time>
      </trkpt>
      <trkpt lat="43.51387" lon="6.69164">
        <ele>174.62</ele>
        <time>2011-05-19T12:05:14Z</time>
      </trkpt>
      <trkpt lat="43.51379" lon="6.69167">
        <ele>172.21</ele>
        <time>2011-05-19T12:05:16Z</time>
      </trkpt>
      <trkpt lat="43.51364" lon="6.69171">
        <ele>169.33</ele>
        <time>2011-05-19T12:05:19Z</time>
      </trkpt>
      <trkpt lat="43.51353" lon="6.69175">
        <ele>167.41</ele>
        <time>2011-05-19T12:05:21Z</time>
      </trkpt>
      <trkpt lat="43.51342" lon="6.69181">
        <ele>167.41</ele>
        <time>2011-05-19T12:05:23Z</time>
      </trkpt>
      <trkpt lat="43.51322" lon="6.69197">
        <ele>165.48</ele>
        <time>2011-05-19T12:05:28Z</time>
      </trkpt>
      <trkpt lat="43.51314" lon="6.69198">
        <ele>162.6</ele>
        <time>2011-05-19T12:05:30Z</time>
      </trkpt>
      <trkpt lat="43.51299" lon="6.69191">
        <ele>164.52</ele>
        <time>2011-05-19T12:05:33Z</time>
      </trkpt>
      <trkpt lat="43.51289" lon="6.69183">
        <ele>163.08</ele>
        <time>2011-05-19T12:05:35Z</time>
      </trkpt>
      <trkpt lat="43.5128" lon="6.69177">
        <ele>166.45</ele>
        <time>2011-05-19T12:05:37Z</time>
      </trkpt>
      <trkpt lat="43.51272" lon="6.69174">
        <ele>162.12</ele>
        <time>2011-05-19T12:05:39Z</time>
      </trkpt>
      <trkpt lat="43.51269" lon="6.6917">
        <ele>165.96</ele>
        <time>2011-05-19T12:05:40Z</time>
      </trkpt>
      <trkpt lat="43.51263" lon="6.6916">
        <ele>164.52</ele>
        <time>2011-05-19T12:05:42Z</time>
      </trkpt>
      <trkpt lat="43.51258" lon="6.69145">
        <ele>163.56</ele>
        <time>2011-05-19T12:05:44Z</time>
      </trkpt>
      <trkpt lat="43.51251" lon="6.69134">
        <ele>165</ele>
        <time>2011-05-19T12:05:46Z</time>
      </trkpt>
      <trkpt lat="43.51247" lon="6.6913">
        <ele>157.79</ele>
        <time>2011-05-19T12:05:47Z</time>
      </trkpt>
      <trkpt lat="43.51234" lon="6.69128">
        <ele>162.6</ele>
        <time>2011-05-19T12:05:50Z</time>
      </trkpt>
      <trkpt lat="43.51221" lon="6.69135">
        <ele>160.68</ele>
        <time>2011-05-19T12:05:53Z</time>
      </trkpt>
      <trkpt lat="43.51218" lon="6.69139">
        <ele>160.2</ele>
        <time>2011-05-19T12:05:54Z</time>
      </trkpt>
      <trkpt lat="43.512" lon="6.69156">
        <ele>155.87</ele>
        <time>2011-05-19T12:05:58Z</time>
      </trkpt>
      <trkpt lat="43.51194" lon="6.6916">
        <ele>154.91</ele>
        <time>2011-05-19T12:05:59Z</time>
      </trkpt>
      <trkpt lat="43.51183" lon="6.69166">
        <ele>157.79</ele>
        <time>2011-05-19T12:06:01Z</time>
      </trkpt>
      <trkpt lat="43.51178" lon="6.69168">
        <ele>155.87</ele>
        <time>2011-05-19T12:06:02Z</time>
      </trkpt>
      <trkpt lat="43.51152" lon="6.69185">
        <ele>151.06</ele>
        <time>2011-05-19T12:06:09Z</time>
      </trkpt>
      <trkpt lat="43.5114" lon="6.6917">
        <ele>149.62</ele>
        <time>2011-05-19T12:06:13Z</time>
      </trkpt>
      <trkpt lat="43.51134" lon="6.69148">
        <ele>146.74</ele>
        <time>2011-05-19T12:06:16Z</time>
      </trkpt>
      <trkpt lat="43.51127" lon="6.69126">
        <ele>142.41</ele>
        <time>2011-05-19T12:06:19Z</time>
      </trkpt>
      <trkpt lat="43.51125" lon="6.69119">
        <ele>142.89</ele>
        <time>2011-05-19T12:06:20Z</time>
      </trkpt>
      <trkpt lat="43.51112" lon="6.69085">
        <ele>139.53</ele>
        <time>2011-05-19T12:06:28Z</time>
      </trkpt>
      <trkpt lat="43.5111" lon="6.69082">
        <ele>141.93</ele>
        <time>2011-05-19T12:06:35Z</time>
      </trkpt>
      <trkpt lat="43.5111" lon="6.69082">
        <ele>142.41</ele>
        <time>2011-05-19T12:06:54Z</time>
      </trkpt>
      <trkpt lat="43.5111" lon="6.69083">
        <ele>141.93</ele>
        <time>2011-05-19T12:06:59Z</time>
      </trkpt>
      <trkpt lat="43.51087" lon="6.69078">
        <ele>142.41</ele>
        <time>2011-05-19T12:07:13Z</time>
      </trkpt>
      <trkpt lat="43.51083" lon="6.69079">
        <ele>141.45</ele>
        <time>2011-05-19T12:07:15Z</time>
      </trkpt>
      <trkpt lat="43.51077" lon="6.6908">
        <ele>142.41</ele>
        <time>2011-05-19T12:07:17Z</time>
      </trkpt>
      <trkpt lat="43.51038" lon="6.69107">
        <ele>140.97</ele>
        <time>2011-05-19T12:07:31Z</time>
      </trkpt>
      <trkpt lat="43.51035" lon="6.6911">
        <ele>140.97</ele>
        <time>2011-05-19T12:07:32Z</time>
      </trkpt>
      <trkpt lat="43.51018" lon="6.69122">
        <ele>138.09</ele>
        <time>2011-05-19T12:07:38Z</time>
      </trkpt>
      <trkpt lat="43.51015" lon="6.69123">
        <ele>140.97</ele>
        <time>2011-05-19T12:07:39Z</time>
      </trkpt>
      <trkpt lat="43.51011" lon="6.69123">
        <ele>144.34</ele>
        <time>2011-05-19T12:07:40Z</time>
      </trkpt>
      <trkpt lat="43.51007" lon="6.69123">
        <ele>141.45</ele>
        <time>2011-05-19T12:07:41Z</time>
      </trkpt>
      <trkpt lat="43.50999" lon="6.69121">
        <ele>138.09</ele>
        <time>2011-05-19T12:07:43Z</time>
      </trkpt>
      <trkpt lat="43.50988" lon="6.69117">
        <ele>140.01</ele>
        <time>2011-05-19T12:07:46Z</time>
      </trkpt>
      <trkpt lat="43.50954" lon="6.69107">
        <ele>137.13</ele>
        <time>2011-05-19T12:07:56Z</time>
      </trkpt>
      <trkpt lat="43.50951" lon="6.69107">
        <ele>140.01</ele>
        <time>2011-05-19T12:07:58Z</time>
      </trkpt>
      <trkpt lat="43.50953" lon="6.69107">
        <ele>136.64</ele>
        <time>2011-05-19T12:08:01Z</time>
      </trkpt>
      <trkpt lat="43.50953" lon="6.69108">
        <ele>137.61</ele>
        <time>2011-05-19T12:08:07Z</time>
      </trkpt>
      <trkpt lat="43.50953" lon="6.69108">
        <ele>139.53</ele>
        <time>2011-05-19T12:08:09Z</time>
      </trkpt>
      <trkpt lat="43.50954" lon="6.69108">
        <ele>136.16</ele>
        <time>2011-05-19T12:08:12Z</time>
      </trkpt>
      <trkpt lat="43.50954" lon="6.69107">
        <ele>139.53</ele>
        <time>2011-05-19T12:08:36Z</time>
      </trkpt>
      <trkpt lat="43.50954" lon="6.69107">
        <ele>136.16</ele>
        <time>2011-05-19T12:08:37Z</time>
      </trkpt>
      <trkpt lat="43.50954" lon="6.69107">
        <ele>137.13</ele>
        <time>2011-05-19T12:08:53Z</time>
      </trkpt>
      <trkpt lat="43.50954" lon="6.69107">
        <ele>140.49</ele>
        <time>2011-05-19T12:08:59Z</time>
      </trkpt>
      <trkpt lat="43.50954" lon="6.69107">
        <ele>137.13</ele>
        <time>2011-05-19T12:09:05Z</time>
      </trkpt>
      <trkpt lat="43.50954" lon="6.69107">
        <ele>140.49</ele>
        <time>2011-05-19T12:09:12Z</time>
      </trkpt>
      <trkpt lat="43.50954" lon="6.69107">
        <ele>137.13</ele>
        <time>2011-05-19T12:09:13Z</time>
      </trkpt>
      <trkpt lat="43.50955" lon="6.69107">
        <ele>138.57</ele>
        <time>2011-05-19T12:09:32Z</time>
      </trkpt>
      <trkpt lat="43.50957" lon="6.69109">
        <ele>137.61</ele>
        <time>2011-05-19T12:09:49Z</time>
      </trkpt>
      <trkpt lat="43.50958" lon="6.6911">
        <ele>135.2</ele>
        <time>2011-05-19T12:09:55Z</time>
      </trkpt>
      <trkpt lat="43.50958" lon="6.6911">
        <ele>140.49</ele>
        <time>2011-05-19T12:09:58Z</time>
      </trkpt>
      <trkpt lat="43.50959" lon="6.6911">
        <ele>138.09</ele>
        <time>2011-05-19T12:09:59Z</time>
      </trkpt>
      <trkpt lat="43.50959" lon="6.6911">
        <ele>136.64</ele>
        <time>2011-05-19T12:10:02Z</time>
      </trkpt>
      <trkpt lat="43.5096" lon="6.69109">
        <ele>140.01</ele>
        <time>2011-05-19T12:10:11Z</time>
      </trkpt>
      <trkpt lat="43.5096" lon="6.6911">
        <ele>136.64</ele>
        <time>2011-05-19T12:10:16Z</time>
      </trkpt>
      <trkpt lat="43.50961" lon="6.6911">
        <ele>140.97</ele>
        <time>2011-05-19T12:10:20Z</time>
      </trkpt>
      <trkpt lat="43.50961" lon="6.6911">
        <ele>137.61</ele>
        <time>2011-05-19T12:10:21Z</time>
      </trkpt>
      <trkpt lat="43.50961" lon="6.6911">
        <ele>138.09</ele>
        <time>2011-05-19T12:10:23Z</time>
      </trkpt>
      <trkpt lat="43.50961" lon="6.6911">
        <ele>140.97</ele>
        <time>2011-05-19T12:10:25Z</time>
      </trkpt>
      <trkpt lat="43.50962" lon="6.6911">
        <ele>134.24</ele>
        <time>2011-05-19T12:10:26Z</time>
      </trkpt>
      <trkpt lat="43.50962" lon="6.69109">
        <ele>137.61</ele>
        <time>2011-05-19T12:10:27Z</time>
      </trkpt>
      <trkpt lat="43.50972" lon="6.6911">
        <ele>141.45</ele>
        <time>2011-05-19T12:10:36Z</time>
      </trkpt>
      <trkpt lat="43.51003" lon="6.69121">
        <ele>139.05</ele>
        <time>2011-05-19T12:10:55Z</time>
      </trkpt>
      <trkpt lat="43.51009" lon="6.69122">
        <ele>142.41</ele>
        <time>2011-05-19T12:10:58Z</time>
      </trkpt>
      <trkpt lat="43.51011" lon="6.69123">
        <ele>141.93</ele>
        <time>2011-05-19T12:10:59Z</time>
      </trkpt>
      <trkpt lat="43.51013" lon="6.69123">
        <ele>139.05</ele>
        <time>2011-05-19T12:11:00Z</time>
      </trkpt>
      <trkpt lat="43.51015" lon="6.69123">
        <ele>143.37</ele>
        <time>2011-05-19T12:11:01Z</time>
      </trkpt>
      <trkpt lat="43.51018" lon="6.69122">
        <ele>139.53</ele>
        <time>2011-05-19T12:11:02Z</time>
      </trkpt>
      <trkpt lat="43.51036" lon="6.69109">
        <ele>142.89</ele>
        <time>2011-05-19T12:11:11Z</time>
      </trkpt>
      <trkpt lat="43.51061" lon="6.69085">
        <ele>143.37</ele>
        <time>2011-05-19T12:11:24Z</time>
      </trkpt>
      <trkpt lat="43.51075" lon="6.6908">
        <ele>140.01</ele>
        <time>2011-05-19T12:11:30Z</time>
      </trkpt>
      <trkpt lat="43.51082" lon="6.69079">
        <ele>144.34</ele>
        <time>2011-05-19T12:11:33Z</time>
      </trkpt>
      <trkpt lat="43.51108" lon="6.69082">
        <ele>140.01</ele>
        <time>2011-05-19T12:11:44Z</time>
      </trkpt>
      <trkpt lat="43.5111" lon="6.69083">
        <ele>141.93</ele>
        <time>2011-05-19T12:11:45Z</time>
      </trkpt>
      <trkpt lat="43.51113" lon="6.69088">
        <ele>140.97</ele>
        <time>2011-05-19T12:11:58Z</time>
      </trkpt>
      <trkpt lat="43.51113" lon="6.69088">
        <ele>140.97</ele>
        <time>2011-05-19T12:12:00Z</time>
      </trkpt>
      <trkpt lat="43.51097" lon="6.69106">
        <ele>139.05</ele>
        <time>2011-05-19T12:12:11Z</time>
      </trkpt>
      <trkpt lat="43.51095" lon="6.69109">
        <ele>141.93</ele>
        <time>2011-05-19T12:12:12Z</time>
      </trkpt>
      <trkpt lat="43.51099" lon="6.69159">
        <ele>138.57</ele>
        <time>2011-05-19T12:12:24Z</time>
      </trkpt>
      <trkpt lat="43.51106" lon="6.69198">
        <ele>142.89</ele>
        <time>2011-05-19T12:12:37Z</time>
      </trkpt>
      <trkpt lat="43.51101" lon="6.69206">
        <ele>138.09</ele>
        <time>2011-05-19T12:12:43Z</time>
      </trkpt>
      <trkpt lat="43.511" lon="6.69208">
        <ele>140.97</ele>
        <time>2011-05-19T12:12:44Z</time>
      </trkpt>
      <trkpt lat="43.51099" lon="6.6921">
        <ele>136.64</ele>
        <time>2011-05-19T12:12:45Z</time>
      </trkpt>
      <trkpt lat="43.51096" lon="6.69213">
        <ele>140.01</ele>
        <time>2011-05-19T12:12:47Z</time>
      </trkpt>
      <trkpt lat="43.51095" lon="6.69216">
        <ele>137.61</ele>
        <time>2011-05-19T12:12:48Z</time>
      </trkpt>
      <trkpt lat="43.51095" lon="6.69225">
        <ele>139.53</ele>
        <time>2011-05-19T12:13:00Z</time>
      </trkpt>
      <trkpt lat="43.51094" lon="6.69223">
        <ele>139.05</ele>
        <time>2011-05-19T12:13:36Z</time>
      </trkpt>
      <trkpt lat="43.51094" lon="6.69223">
        <ele>141.93</ele>
        <time>2011-05-19T12:13:37Z</time>
      </trkpt>
      <trkpt lat="43.51094" lon="6.69223">
        <ele>137.13</ele>
        <time>2011-05-19T12:13:38Z</time>
      </trkpt>
      <trkpt lat="43.51094" lon="6.69223">
        <ele>140.01</ele>
        <time>2011-05-19T12:13:39Z</time>
      </trkpt>
      <trkpt lat="43.51094" lon="6.69223">
        <ele>140.49</ele>
        <time>2011-05-19T12:13:55Z</time>
      </trkpt>
      <trkpt lat="43.51094" lon="6.69223">
        <ele>138.57</ele>
        <time>2011-05-19T12:14:11Z</time>
      </trkpt>
      <trkpt lat="43.51094" lon="6.69223">
        <ele>138.09</ele>
        <time>2011-05-19T12:14:26Z</time>
      </trkpt>
      <trkpt lat="43.51094" lon="6.69223">
        <ele>141.45</ele>
        <time>2011-05-19T12:14:38Z</time>
      </trkpt>
      <trkpt lat="43.51094" lon="6.69223">
        <ele>140.97</ele>
        <time>2011-05-19T12:14:39Z</time>
      </trkpt>
      <trkpt lat="43.51094" lon="6.69223">
        <ele>136.16</ele>
        <time>2011-05-19T12:14:49Z</time>
      </trkpt>
      <trkpt lat="43.51094" lon="6.69223">
        <ele>139.53</ele>
        <time>2011-05-19T12:14:50Z</time>
      </trkpt>
      <trkpt lat="43.51094" lon="6.69223">
        <ele>138.09</ele>
        <time>2011-05-19T12:14:58Z</time>
      </trkpt>
      <trkpt lat="43.51094" lon="6.69223">
        <ele>140.49</ele>
        <time>2011-05-19T12:15:03Z</time>
      </trkpt>
      <trkpt lat="43.51094" lon="6.69223">
        <ele>137.61</ele>
        <time>2011-05-19T12:15:24Z</time>
      </trkpt>
      <trkpt lat="43.51094" lon="6.69222">
        <ele>139.53</ele>
        <time>2011-05-19T12:15:25Z</time>
      </trkpt>
      <trkpt lat="43.51094" lon="6.6922">
        <ele>137.13</ele>
        <time>2011-05-19T12:15:27Z</time>
      </trkpt>
      <trkpt lat="43.51095" lon="6.69217">
        <ele>139.53</ele>
        <time>2011-05-19T12:15:29Z</time>
      </trkpt>
      <trkpt lat="43.51101" lon="6.69201">
        <ele>144.34</ele>
        <time>2011-05-19T12:15:42Z</time>
      </trkpt>
      <trkpt lat="43.51102" lon="6.69199">
        <ele>141.45</ele>
        <time>2011-05-19T12:15:44Z</time>
      </trkpt>
      <trkpt lat="43.51103" lon="6.6919">
        <ele>139.53</ele>
        <time>2011-05-19T12:16:00Z</time>
      </trkpt>
      <trkpt lat="43.51102" lon="6.69187">
        <ele>140.97</ele>
        <time>2011-05-19T12:16:03Z</time>
      </trkpt>
      <trkpt lat="43.51099" lon="6.69172">
        <ele>142.41</ele>
        <time>2011-05-19T12:16:12Z</time>
      </trkpt>
      <trkpt lat="43.51099" lon="6.69169">
        <ele>139.05</ele>
        <time>2011-05-19T12:16:14Z</time>
      </trkpt>
      <trkpt lat="43.51096" lon="6.69157">
        <ele>140.01</ele>
        <time>2011-05-19T12:16:27Z</time>
      </trkpt>
      <trkpt lat="43.51097" lon="6.69102">
        <ele>140.97</ele>
        <time>2011-05-19T12:16:44Z</time>
      </trkpt>
      <trkpt lat="43.51102" lon="6.69095">
        <ele>139.53</ele>
        <time>2011-05-19T12:16:47Z</time>
      </trkpt>
      <trkpt lat="43.5111" lon="6.69088">
        <ele>142.89</ele>
        <time>2011-05-19T12:16:53Z</time>
      </trkpt>
      <trkpt lat="43.51114" lon="6.69088">
        <ele>140.49</ele>
        <time>2011-05-19T12:16:56Z</time>
      </trkpt>
      <trkpt lat="43.51116" lon="6.69086">
        <ele>141.45</ele>
        <time>2011-05-19T12:16:59Z</time>
      </trkpt>
      <trkpt lat="43.51118" lon="6.6908">
        <ele>141.45</ele>
        <time>2011-05-19T12:17:06Z</time>
      </trkpt>
      <trkpt lat="43.51121" lon="6.69083">
        <ele>140.97</ele>
        <time>2011-05-19T12:17:09Z</time>
      </trkpt>
      <trkpt lat="43.51123" lon="6.69085">
        <ele>142.41</ele>
        <time>2011-05-19T12:17:11Z</time>
      </trkpt>
      <trkpt lat="43.51127" lon="6.69084">
        <ele>140.01</ele>
        <time>2011-05-19T12:17:16Z</time>
      </trkpt>
      <trkpt lat="43.51116" lon="6.6908">
        <ele>140.49</ele>
        <time>2011-05-19T12:17:24Z</time>
      </trkpt>
      <trkpt lat="43.51112" lon="6.69081">
        <ele>141.93</ele>
        <time>2011-05-19T12:17:28Z</time>
      </trkpt>
      <trkpt lat="43.51115" lon="6.69089">
        <ele>141.45</ele>
        <time>2011-05-19T12:17:32Z</time>
      </trkpt>
      <trkpt lat="43.51121" lon="6.69104">
        <ele>144.82</ele>
        <time>2011-05-19T12:17:40Z</time>
      </trkpt>
      <trkpt lat="43.51122" lon="6.69109">
        <ele>140.97</ele>
        <time>2011-05-19T12:17:43Z</time>
      </trkpt>
      <trkpt lat="43.51123" lon="6.69111">
        <ele>140.49</ele>
        <time>2011-05-19T12:17:44Z</time>
      </trkpt>
      <trkpt lat="43.51123" lon="6.69112">
        <ele>143.85</ele>
        <time>2011-05-19T12:17:45Z</time>
      </trkpt>
      <trkpt lat="43.51125" lon="6.69118">
        <ele>142.89</ele>
        <time>2011-05-19T12:17:49Z</time>
      </trkpt>
      <trkpt lat="43.51128" lon="6.69128">
        <ele>146.26</ele>
        <time>2011-05-19T12:17:57Z</time>
      </trkpt>
      <trkpt lat="43.51129" lon="6.6913">
        <ele>141.45</ele>
        <time>2011-05-19T12:17:59Z</time>
      </trkpt>
      <trkpt lat="43.5113" lon="6.69133">
        <ele>144.82</ele>
        <time>2011-05-19T12:18:03Z</time>
      </trkpt>
      <trkpt lat="43.51129" lon="6.69129">
        <ele>141.45</ele>
        <time>2011-05-19T12:18:16Z</time>
      </trkpt>
      <trkpt lat="43.51129" lon="6.69129">
        <ele>144.82</ele>
        <time>2011-05-19T12:18:18Z</time>
      </trkpt>
      <trkpt lat="43.5112" lon="6.691">
        <ele>140.97</ele>
        <time>2011-05-19T12:18:28Z</time>
      </trkpt>
      <trkpt lat="43.51116" lon="6.69092">
        <ele>140.97</ele>
        <time>2011-05-19T12:18:30Z</time>
      </trkpt>
      <trkpt lat="43.5111" lon="6.69084">
        <ele>138.57</ele>
        <time>2011-05-19T12:18:32Z</time>
      </trkpt>
      <trkpt lat="43.51103" lon="6.69079">
        <ele>142.89</ele>
        <time>2011-05-19T12:18:34Z</time>
      </trkpt>
      <trkpt lat="43.51099" lon="6.69078">
        <ele>140.49</ele>
        <time>2011-05-19T12:18:35Z</time>
      </trkpt>
      <trkpt lat="43.51093" lon="6.69078">
        <ele>143.85</ele>
        <time>2011-05-19T12:18:37Z</time>
      </trkpt>
      <trkpt lat="43.51075" lon="6.69081">
        <ele>140.49</ele>
        <time>2011-05-19T12:18:42Z</time>
      </trkpt>
      <trkpt lat="43.51072" lon="6.69082">
        <ele>140.49</ele>
        <time>2011-05-19T12:18:43Z</time>
      </trkpt>
      <trkpt lat="43.51029" lon="6.69116">
        <ele>140.01</ele>
        <time>2011-05-19T12:18:56Z</time>
      </trkpt>
      <trkpt lat="43.50988" lon="6.69119">
        <ele>141.45</ele>
        <time>2011-05-19T12:19:07Z</time>
      </trkpt>
      <trkpt lat="43.5098" lon="6.69116">
        <ele>136.64</ele>
        <time>2011-05-19T12:19:09Z</time>
      </trkpt>
      <trkpt lat="43.50961" lon="6.6911">
        <ele>137.13</ele>
        <time>2011-05-19T12:19:13Z</time>
      </trkpt>
      <trkpt lat="43.50937" lon="6.69104">
        <ele>132.32</ele>
        <time>2011-05-19T12:19:19Z</time>
      </trkpt>
      <trkpt lat="43.50933" lon="6.69103">
        <ele>133.28</ele>
        <time>2011-05-19T12:19:20Z</time>
      </trkpt>
      <trkpt lat="43.50928" lon="6.691">
        <ele>131.84</ele>
        <time>2011-05-19T12:19:22Z</time>
      </trkpt>
      <trkpt lat="43.50922" lon="6.6905">
        <ele>129.92</ele>
        <time>2011-05-19T12:19:28Z</time>
      </trkpt>
      <trkpt lat="43.50914" lon="6.69022">
        <ele>125.11</ele>
        <time>2011-05-19T12:19:31Z</time>
      </trkpt>
      <trkpt lat="43.50911" lon="6.69012">
        <ele>128.95</ele>
        <time>2011-05-19T12:19:32Z</time>
      </trkpt>
      <trkpt lat="43.509" lon="6.68989">
        <ele>132.8</ele>
        <time>2011-05-19T12:19:35Z</time>
      </trkpt>
      <trkpt lat="43.50884" lon="6.68974">
        <ele>129.92</ele>
        <time>2011-05-19T12:19:39Z</time>
      </trkpt>
      <trkpt lat="43.50875" lon="6.68969">
        <ele>131.36</ele>
        <time>2011-05-19T12:19:41Z</time>
      </trkpt>
      <trkpt lat="43.50859" lon="6.68962">
        <ele>129.92</ele>
        <time>2011-05-19T12:19:44Z</time>
      </trkpt>
      <trkpt lat="43.50837" lon="6.68958">
        <ele>127.99</ele>
        <time>2011-05-19T12:19:48Z</time>
      </trkpt>
      <trkpt lat="43.50805" lon="6.68963">
        <ele>128.47</ele>
        <time>2011-05-19T12:19:54Z</time>
      </trkpt>
      <trkpt lat="43.50793" lon="6.68969">
        <ele>123.67</ele>
        <time>2011-05-19T12:19:56Z</time>
      </trkpt>
      <trkpt lat="43.50765" lon="6.68999">
        <ele>127.03</ele>
        <time>2011-05-19T12:20:02Z</time>
      </trkpt>
      <trkpt lat="43.5075" lon="6.69012">
        <ele>122.71</ele>
        <time>2011-05-19T12:20:05Z</time>
      </trkpt>
      <trkpt lat="43.50739" lon="6.69017">
        <ele>122.71</ele>
        <time>2011-05-19T12:20:07Z</time>
      </trkpt>
      <trkpt lat="43.50713" lon="6.69016">
        <ele>122.71</ele>
        <time>2011-05-19T12:20:11Z</time>
      </trkpt>
      <trkpt lat="43.50702" lon="6.6901">
        <ele>119.34</ele>
        <time>2011-05-19T12:20:13Z</time>
      </trkpt>
      <trkpt lat="43.50687" lon="6.69009">
        <ele>117.42</ele>
        <time>2011-05-19T12:20:16Z</time>
      </trkpt>
      <trkpt lat="43.50667" lon="6.69014">
        <ele>117.9</ele>
        <time>2011-05-19T12:20:20Z</time>
      </trkpt>
      <trkpt lat="43.50649" lon="6.69012">
        <ele>114.53</ele>
        <time>2011-05-19T12:20:23Z</time>
      </trkpt>
      <trkpt lat="43.50629" lon="6.69002">
        <ele>109.73</ele>
        <time>2011-05-19T12:20:26Z</time>
      </trkpt>
      <trkpt lat="43.50617" lon="6.68991">
        <ele>111.65</ele>
        <time>2011-05-19T12:20:28Z</time>
      </trkpt>
      <trkpt lat="43.50599" lon="6.68971">
        <ele>110.21</ele>
        <time>2011-05-19T12:20:31Z</time>
      </trkpt>
      <trkpt lat="43.50586" lon="6.68958">
        <ele>107.32</ele>
        <time>2011-05-19T12:20:33Z</time>
      </trkpt>
      <trkpt lat="43.50572" lon="6.68946">
        <ele>105.88</ele>
        <time>2011-05-19T12:20:35Z</time>
      </trkpt>
      <trkpt lat="43.50538" lon="6.68917">
        <ele>108.77</ele>
        <time>2011-05-19T12:20:42Z</time>
      </trkpt>
      <trkpt lat="43.50531" lon="6.68911">
        <ele>102.52</ele>
        <time>2011-05-19T12:20:44Z</time>
      </trkpt>
      <trkpt lat="43.50529" lon="6.68909">
        <ele>103.48</ele>
        <time>2011-05-19T12:20:45Z</time>
      </trkpt>
      <trkpt lat="43.50526" lon="6.68905">
        <ele>103.96</ele>
        <time>2011-05-19T12:20:47Z</time>
      </trkpt>
      <trkpt lat="43.50522" lon="6.68909">
        <ele>106.36</ele>
        <time>2011-05-19T12:20:58Z</time>
      </trkpt>
      <trkpt lat="43.50522" lon="6.68909">
        <ele>104.44</ele>
        <time>2011-05-19T12:21:00Z</time>
      </trkpt>
      <trkpt lat="43.50522" lon="6.68909">
        <ele>105.4</ele>
        <time>2011-05-19T12:21:02Z</time>
      </trkpt>
      <trkpt lat="43.50522" lon="6.68909">
        <ele>101.08</ele>
        <time>2011-05-19T12:21:03Z</time>
      </trkpt>
      <trkpt lat="43.50522" lon="6.68909">
        <ele>106.36</ele>
        <time>2011-05-19T12:21:04Z</time>
      </trkpt>
      <trkpt lat="43.50522" lon="6.68909">
        <ele>103</ele>
        <time>2011-05-19T12:21:05Z</time>
      </trkpt>
      <trkpt lat="43.50522" lon="6.68909">
        <ele>106.36</ele>
        <time>2011-05-19T12:21:06Z</time>
      </trkpt>
      <trkpt lat="43.50522" lon="6.68909">
        <ele>103.48</ele>
        <time>2011-05-19T12:21:10Z</time>
      </trkpt>
      <trkpt lat="43.50522" lon="6.68909">
        <ele>103.48</ele>
        <time>2011-05-19T12:21:11Z</time>
      </trkpt>
      <trkpt lat="43.50544" lon="6.68946">
        <ele>103.48</ele>
        <time>2011-05-19T12:21:22Z</time>
      </trkpt>
      <trkpt lat="43.50556" lon="6.68963">
        <ele>102.04</ele>
        <time>2011-05-19T12:21:25Z</time>
      </trkpt>
      <trkpt lat="43.50593" lon="6.69023">
        <ele>99.63</ele>
        <time>2011-05-19T12:21:34Z</time>
      </trkpt>
      <trkpt lat="43.50604" lon="6.69039">
        <ele>103.48</ele>
        <time>2011-05-19T12:21:37Z</time>
      </trkpt>
      <trkpt lat="43.50608" lon="6.69044">
        <ele>101.08</ele>
        <time>2011-05-19T12:21:38Z</time>
      </trkpt>
      <trkpt lat="43.50622" lon="6.69072">
        <ele>104.44</ele>
        <time>2011-05-19T12:21:44Z</time>
      </trkpt>
      <trkpt lat="43.50623" lon="6.6908">
        <ele>102.52</ele>
        <time>2011-05-19T12:21:46Z</time>
      </trkpt>
      <trkpt lat="43.50629" lon="6.69111">
        <ele>102.52</ele>
        <time>2011-05-19T12:21:53Z</time>
      </trkpt>
      <trkpt lat="43.50644" lon="6.69142">
        <ele>103.48</ele>
        <time>2011-05-19T12:22:02Z</time>
      </trkpt>
      <trkpt lat="43.50654" lon="6.69163">
        <ele>107.32</ele>
        <time>2011-05-19T12:22:08Z</time>
      </trkpt>
      <trkpt lat="43.50656" lon="6.69167">
        <ele>104.92</ele>
        <time>2011-05-19T12:22:09Z</time>
      </trkpt>
      <trkpt lat="43.50659" lon="6.69172">
        <ele>104.44</ele>
        <time>2011-05-19T12:22:11Z</time>
      </trkpt>
      <trkpt lat="43.50662" lon="6.6918">
        <ele>108.77</ele>
        <time>2011-05-19T12:22:14Z</time>
      </trkpt>
      <trkpt lat="43.50663" lon="6.69183">
        <ele>108.77</ele>
        <time>2011-05-19T12:22:15Z</time>
      </trkpt>
      <trkpt lat="43.50664" lon="6.69186">
        <ele>105.4</ele>
        <time>2011-05-19T12:22:16Z</time>
      </trkpt>
      <trkpt lat="43.50666" lon="6.69189">
        <ele>106.84</ele>
        <time>2011-05-19T12:22:17Z</time>
      </trkpt>
      <trkpt lat="43.50668" lon="6.69196">
        <ele>107.81</ele>
        <time>2011-05-19T12:22:19Z</time>
      </trkpt>
      <trkpt lat="43.5069" lon="6.69257">
        <ele>110.21</ele>
        <time>2011-05-19T12:22:34Z</time>
      </trkpt>
      <trkpt lat="43.50691" lon="6.69261">
        <ele>107.32</ele>
        <time>2011-05-19T12:22:35Z</time>
      </trkpt>
      <trkpt lat="43.50695" lon="6.6927">
        <ele>108.77</ele>
        <time>2011-05-19T12:22:37Z</time>
      </trkpt>
      <trkpt lat="43.507" lon="6.69277">
        <ele>107.81</ele>
        <time>2011-05-19T12:22:39Z</time>
      </trkpt>
      <trkpt lat="43.50705" lon="6.69282">
        <ele>111.17</ele>
        <time>2011-05-19T12:22:41Z</time>
      </trkpt>
      <trkpt lat="43.50732" lon="6.693">
        <ele>112.61</ele>
        <time>2011-05-19T12:22:55Z</time>
      </trkpt>
      <trkpt lat="43.50741" lon="6.69312">
        <ele>109.25</ele>
        <time>2011-05-19T12:23:01Z</time>
      </trkpt>
      <trkpt lat="43.50746" lon="6.69321">
        <ele>115.5</ele>
        <time>2011-05-19T12:23:05Z</time>
      </trkpt>
      <trkpt lat="43.50748" lon="6.69323">
        <ele>110.69</ele>
        <time>2011-05-19T12:23:06Z</time>
      </trkpt>
      <trkpt lat="43.50751" lon="6.69326">
        <ele>114.53</ele>
        <time>2011-05-19T12:23:08Z</time>
      </trkpt>
      <trkpt lat="43.50752" lon="6.69328">
        <ele>111.17</ele>
        <time>2011-05-19T12:23:09Z</time>
      </trkpt>
      <trkpt lat="43.50757" lon="6.69333">
        <ele>112.61</ele>
        <time>2011-05-19T12:23:12Z</time>
      </trkpt>
      <trkpt lat="43.50764" lon="6.69344">
        <ele>115.5</ele>
        <time>2011-05-19T12:23:18Z</time>
      </trkpt>
      <trkpt lat="43.50765" lon="6.69345">
        <ele>115.5</ele>
        <time>2011-05-19T12:23:19Z</time>
      </trkpt>
      <trkpt lat="43.50781" lon="6.69358">
        <ele>119.34</ele>
        <time>2011-05-19T12:23:29Z</time>
      </trkpt>
      <trkpt lat="43.50782" lon="6.69359">
        <ele>115.5</ele>
        <time>2011-05-19T12:23:30Z</time>
      </trkpt>
      <trkpt lat="43.50784" lon="6.6936">
        <ele>119.34</ele>
        <time>2011-05-19T12:23:31Z</time>
      </trkpt>
      <trkpt lat="43.50803" lon="6.69374">
        <ele>120.3</ele>
        <time>2011-05-19T12:23:44Z</time>
      </trkpt>
      <trkpt lat="43.50812" lon="6.69383">
        <ele>121.26</ele>
        <time>2011-05-19T12:23:50Z</time>
      </trkpt>
      <trkpt lat="43.5084" lon="6.69433">
        <ele>120.3</ele>
        <time>2011-05-19T12:24:06Z</time>
      </trkpt>
      <trkpt lat="43.50848" lon="6.6947">
        <ele>123.67</ele>
        <time>2011-05-19T12:24:19Z</time>
      </trkpt>
      <trkpt lat="43.50848" lon="6.69473">
        <ele>122.71</ele>
        <time>2011-05-19T12:24:20Z</time>
      </trkpt>
      <trkpt lat="43.50851" lon="6.69478">
        <ele>121.26</ele>
        <time>2011-05-19T12:24:22Z</time>
      </trkpt>
      <trkpt lat="43.50884" lon="6.69513">
        <ele>121.26</ele>
        <time>2011-05-19T12:24:38Z</time>
      </trkpt>
      <trkpt lat="43.50888" lon="6.69518">
        <ele>124.15</ele>
        <time>2011-05-19T12:24:40Z</time>
      </trkpt>
      <trkpt lat="43.50891" lon="6.69521">
        <ele>121.26</ele>
        <time>2011-05-19T12:24:42Z</time>
      </trkpt>
      <trkpt lat="43.50892" lon="6.69523">
        <ele>125.11</ele>
        <time>2011-05-19T12:24:43Z</time>
      </trkpt>
      <trkpt lat="43.50904" lon="6.69547">
        <ele>121.74</ele>
        <time>2011-05-19T12:24:52Z</time>
      </trkpt>
      <trkpt lat="43.50904" lon="6.69583">
        <ele>125.11</ele>
        <time>2011-05-19T12:25:03Z</time>
      </trkpt>
      <trkpt lat="43.50915" lon="6.69607">
        <ele>128.95</ele>
        <time>2011-05-19T12:25:14Z</time>
      </trkpt>
      <trkpt lat="43.50938" lon="6.6963">
        <ele>125.59</ele>
        <time>2011-05-19T12:25:28Z</time>
      </trkpt>
      <trkpt lat="43.50942" lon="6.69638">
        <ele>128.47</ele>
        <time>2011-05-19T12:25:31Z</time>
      </trkpt>
      <trkpt lat="43.50951" lon="6.69655">
        <ele>132.8</ele>
        <time>2011-05-19T12:25:38Z</time>
      </trkpt>
      <trkpt lat="43.50954" lon="6.69662">
        <ele>129.43</ele>
        <time>2011-05-19T12:25:41Z</time>
      </trkpt>
      <trkpt lat="43.50955" lon="6.69665">
        <ele>129.92</ele>
        <time>2011-05-19T12:25:42Z</time>
      </trkpt>
      <trkpt lat="43.50956" lon="6.69671">
        <ele>126.07</ele>
        <time>2011-05-19T12:25:44Z</time>
      </trkpt>
      <trkpt lat="43.50957" lon="6.69676">
        <ele>131.36</ele>
        <time>2011-05-19T12:25:46Z</time>
      </trkpt>
      <trkpt lat="43.50957" lon="6.69679">
        <ele>129.92</ele>
        <time>2011-05-19T12:25:47Z</time>
      </trkpt>
      <trkpt lat="43.50957" lon="6.69681">
        <ele>133.76</ele>
        <time>2011-05-19T12:25:48Z</time>
      </trkpt>
      <trkpt lat="43.50958" lon="6.69684">
        <ele>130.4</ele>
        <time>2011-05-19T12:25:49Z</time>
      </trkpt>
      <trkpt lat="43.50958" lon="6.69688">
        <ele>133.76</ele>
        <time>2011-05-19T12:25:51Z</time>
      </trkpt>
      <trkpt lat="43.50958" lon="6.6969">
        <ele>133.76</ele>
        <time>2011-05-19T12:25:52Z</time>
      </trkpt>
      <trkpt lat="43.50959" lon="6.69694">
        <ele>130.4</ele>
        <time>2011-05-19T12:25:54Z</time>
      </trkpt>
      <trkpt lat="43.50958" lon="6.69697">
        <ele>134.24</ele>
        <time>2011-05-19T12:25:55Z</time>
      </trkpt>
      <trkpt lat="43.50956" lon="6.69717">
        <ele>137.61</ele>
        <time>2011-05-19T12:26:03Z</time>
      </trkpt>
      <trkpt lat="43.50954" lon="6.69728">
        <ele>135.2</ele>
        <time>2011-05-19T12:26:08Z</time>
      </trkpt>
      <trkpt lat="43.50945" lon="6.69759">
        <ele>140.01</ele>
        <time>2011-05-19T12:26:22Z</time>
      </trkpt>
      <trkpt lat="43.50944" lon="6.69761">
        <ele>136.64</ele>
        <time>2011-05-19T12:26:23Z</time>
      </trkpt>
      <trkpt lat="43.50942" lon="6.6977">
        <ele>140.49</ele>
        <time>2011-05-19T12:26:27Z</time>
      </trkpt>
      <trkpt lat="43.50941" lon="6.69772">
        <ele>140.49</ele>
        <time>2011-05-19T12:26:28Z</time>
      </trkpt>
      <trkpt lat="43.50932" lon="6.698">
        <ele>138.57</ele>
        <time>2011-05-19T12:26:41Z</time>
      </trkpt>
      <trkpt lat="43.50931" lon="6.69804">
        <ele>140.01</ele>
        <time>2011-05-19T12:26:43Z</time>
      </trkpt>
      <trkpt lat="43.5092" lon="6.69825">
        <ele>143.37</ele>
        <time>2011-05-19T12:26:54Z</time>
      </trkpt>
      <trkpt lat="43.50919" lon="6.69826">
        <ele>140.01</ele>
        <time>2011-05-19T12:26:55Z</time>
      </trkpt>
      <trkpt lat="43.50911" lon="6.69848">
        <ele>141.93</ele>
        <time>2011-05-19T12:27:05Z</time>
      </trkpt>
      <trkpt lat="43.50902" lon="6.69867">
        <ele>137.61</ele>
        <time>2011-05-19T12:27:12Z</time>
      </trkpt>
      <trkpt lat="43.50881" lon="6.69931">
        <ele>132.8</ele>
        <time>2011-05-19T12:27:25Z</time>
      </trkpt>
      <trkpt lat="43.50873" lon="6.69952">
        <ele>137.61</ele>
        <time>2011-05-19T12:27:27Z</time>
      </trkpt>
      <trkpt lat="43.50869" lon="6.69962">
        <ele>135.68</ele>
        <time>2011-05-19T12:27:28Z</time>
      </trkpt>
      <trkpt lat="43.50858" lon="6.69986">
        <ele>131.36</ele>
        <time>2011-05-19T12:27:31Z</time>
      </trkpt>
      <trkpt lat="43.50855" lon="6.69995">
        <ele>131.36</ele>
        <time>2011-05-19T12:27:32Z</time>
      </trkpt>
      <trkpt lat="43.50851" lon="6.70004">
        <ele>132.32</ele>
        <time>2011-05-19T12:27:33Z</time>
      </trkpt>
      <trkpt lat="43.50846" lon="6.70055">
        <ele>132.32</ele>
        <time>2011-05-19T12:27:38Z</time>
      </trkpt>
      <trkpt lat="43.50857" lon="6.70084">
        <ele>129.92</ele>
        <time>2011-05-19T12:27:42Z</time>
      </trkpt>
      <trkpt lat="43.50861" lon="6.70086">
        <ele>135.2</ele>
        <time>2011-05-19T12:27:43Z</time>
      </trkpt>
      <trkpt lat="43.50866" lon="6.70086">
        <ele>132.8</ele>
        <time>2011-05-19T12:27:44Z</time>
      </trkpt>
      <trkpt lat="43.50899" lon="6.70087">
        <ele>131.36</ele>
        <time>2011-05-19T12:27:56Z</time>
      </trkpt>
      <trkpt lat="43.50906" lon="6.70091">
        <ele>134.72</ele>
        <time>2011-05-19T12:27:59Z</time>
      </trkpt>
      <trkpt lat="43.50908" lon="6.70092">
        <ele>129.92</ele>
        <time>2011-05-19T12:28:00Z</time>
      </trkpt>
      <trkpt lat="43.5091" lon="6.70092">
        <ele>134.24</ele>
        <time>2011-05-19T12:28:01Z</time>
      </trkpt>
      <trkpt lat="43.50912" lon="6.70093">
        <ele>129.92</ele>
        <time>2011-05-19T12:28:02Z</time>
      </trkpt>
      <trkpt lat="43.50916" lon="6.70095">
        <ele>132.8</ele>
        <time>2011-05-19T12:28:04Z</time>
      </trkpt>
      <trkpt lat="43.50921" lon="6.70098">
        <ele>136.64</ele>
        <time>2011-05-19T12:28:07Z</time>
      </trkpt>
      <trkpt lat="43.50923" lon="6.70099">
        <ele>136.64</ele>
        <time>2011-05-19T12:28:08Z</time>
      </trkpt>
      <trkpt lat="43.50926" lon="6.70101">
        <ele>134.72</ele>
        <time>2011-05-19T12:28:10Z</time>
      </trkpt>
      <trkpt lat="43.50928" lon="6.70103">
        <ele>131.36</ele>
        <time>2011-05-19T12:28:11Z</time>
      </trkpt>
      <trkpt lat="43.50928" lon="6.70106">
        <ele>134.72</ele>
        <time>2011-05-19T12:28:12Z</time>
      </trkpt>
      <trkpt lat="43.50928" lon="6.70122">
        <ele>135.2</ele>
        <time>2011-05-19T12:28:17Z</time>
      </trkpt>
      <trkpt lat="43.50928" lon="6.70135">
        <ele>134.24</ele>
        <time>2011-05-19T12:28:21Z</time>
      </trkpt>
      <trkpt lat="43.50932" lon="6.7015">
        <ele>137.61</ele>
        <time>2011-05-19T12:28:26Z</time>
      </trkpt>
      <trkpt lat="43.50933" lon="6.70153">
        <ele>132.32</ele>
        <time>2011-05-19T12:28:27Z</time>
      </trkpt>
      <trkpt lat="43.50936" lon="6.70158">
        <ele>136.64</ele>
        <time>2011-05-19T12:28:29Z</time>
      </trkpt>
      <trkpt lat="43.50937" lon="6.70161">
        <ele>137.13</ele>
        <time>2011-05-19T12:28:30Z</time>
      </trkpt>
      <trkpt lat="43.50945" lon="6.7019">
        <ele>138.09</ele>
        <time>2011-05-19T12:28:41Z</time>
      </trkpt>
      <trkpt lat="43.50943" lon="6.70196">
        <ele>140.49</ele>
        <time>2011-05-19T12:28:43Z</time>
      </trkpt>
      <trkpt lat="43.50939" lon="6.702">
        <ele>134.72</ele>
        <time>2011-05-19T12:28:45Z</time>
      </trkpt>
      <trkpt lat="43.50931" lon="6.70206">
        <ele>138.57</ele>
        <time>2011-05-19T12:28:48Z</time>
      </trkpt>
      <trkpt lat="43.50914" lon="6.70213">
        <ele>141.93</ele>
        <time>2011-05-19T12:28:54Z</time>
      </trkpt>
      <trkpt lat="43.50911" lon="6.70215">
        <ele>140.49</ele>
        <time>2011-05-19T12:28:55Z</time>
      </trkpt>
      <trkpt lat="43.50903" lon="6.70223">
        <ele>140.49</ele>
        <time>2011-05-19T12:28:58Z</time>
      </trkpt>
      <trkpt lat="43.50896" lon="6.70238">
        <ele>136.16</ele>
        <time>2011-05-19T12:29:01Z</time>
      </trkpt>
      <trkpt lat="43.50894" lon="6.70244">
        <ele>137.13</ele>
        <time>2011-05-19T12:29:02Z</time>
      </trkpt>
      <trkpt lat="43.5089" lon="6.70257">
        <ele>135.68</ele>
        <time>2011-05-19T12:29:04Z</time>
      </trkpt>
      <trkpt lat="43.50878" lon="6.70282">
        <ele>139.05</ele>
        <time>2011-05-19T12:29:08Z</time>
      </trkpt>
      <trkpt lat="43.50871" lon="6.70293">
        <ele>139.05</ele>
        <time>2011-05-19T12:29:10Z</time>
      </trkpt>
      <trkpt lat="43.50865" lon="6.70305">
        <ele>136.64</ele>
        <time>2011-05-19T12:29:12Z</time>
      </trkpt>
      <trkpt lat="43.50862" lon="6.70311">
        <ele>135.2</ele>
        <time>2011-05-19T12:29:13Z</time>
      </trkpt>
      <trkpt lat="43.50839" lon="6.70361">
        <ele>139.05</ele>
        <time>2011-05-19T12:29:22Z</time>
      </trkpt>
      <trkpt lat="43.50837" lon="6.70366">
        <ele>135.2</ele>
        <time>2011-05-19T12:29:23Z</time>
      </trkpt>
      <trkpt lat="43.50831" lon="6.70375">
        <ele>135.2</ele>
        <time>2011-05-19T12:29:25Z</time>
      </trkpt>
      <trkpt lat="43.50821" lon="6.70383">
        <ele>138.57</ele>
        <time>2011-05-19T12:29:28Z</time>
      </trkpt>
      <trkpt lat="43.50803" lon="6.7039">
        <ele>134.72</ele>
        <time>2011-05-19T12:29:32Z</time>
      </trkpt>
      <trkpt lat="43.50769" lon="6.70416">
        <ele>134.72</ele>
        <time>2011-05-19T12:29:40Z</time>
      </trkpt>
      <trkpt lat="43.50758" lon="6.70428">
        <ele>130.4</ele>
        <time>2011-05-19T12:29:43Z</time>
      </trkpt>
      <trkpt lat="43.50755" lon="6.70433">
        <ele>134.72</ele>
        <time>2011-05-19T12:29:44Z</time>
      </trkpt>
      <trkpt lat="43.5075" lon="6.70442">
        <ele>131.84</ele>
        <time>2011-05-19T12:29:46Z</time>
      </trkpt>
      <trkpt lat="43.50745" lon="6.70457">
        <ele>133.28</ele>
        <time>2011-05-19T12:29:49Z</time>
      </trkpt>
      <trkpt lat="43.50744" lon="6.70463">
        <ele>128.95</ele>
        <time>2011-05-19T12:29:50Z</time>
      </trkpt>
      <trkpt lat="43.50744" lon="6.70469">
        <ele>128.95</ele>
        <time>2011-05-19T12:29:51Z</time>
      </trkpt>
      <trkpt lat="43.50743" lon="6.70498">
        <ele>125.11</ele>
        <time>2011-05-19T12:29:55Z</time>
      </trkpt>
      <trkpt lat="43.50743" lon="6.70505">
        <ele>125.11</ele>
        <time>2011-05-19T12:29:56Z</time>
      </trkpt>
      <trkpt lat="43.50745" lon="6.70518">
        <ele>125.11</ele>
        <time>2011-05-19T12:29:58Z</time>
      </trkpt>
      <trkpt lat="43.50748" lon="6.70535">
        <ele>124.63</ele>
        <time>2011-05-19T12:30:01Z</time>
      </trkpt>
      <trkpt lat="43.50752" lon="6.70552">
        <ele>119.34</ele>
        <time>2011-05-19T12:30:04Z</time>
      </trkpt>
      <trkpt lat="43.50754" lon="6.70557">
        <ele>122.22</ele>
        <time>2011-05-19T12:30:05Z</time>
      </trkpt>
      <trkpt lat="43.50756" lon="6.70586">
        <ele>117.9</ele>
        <time>2011-05-19T12:30:10Z</time>
      </trkpt>
      <trkpt lat="43.50749" lon="6.70595">
        <ele>121.26</ele>
        <time>2011-05-19T12:30:12Z</time>
      </trkpt>
      <trkpt lat="43.50745" lon="6.706">
        <ele>113.57</ele>
        <time>2011-05-19T12:30:13Z</time>
      </trkpt>
      <trkpt lat="43.50731" lon="6.70611">
        <ele>112.61</ele>
        <time>2011-05-19T12:30:16Z</time>
      </trkpt>
      <trkpt lat="43.50726" lon="6.70613">
        <ele>112.13</ele>
        <time>2011-05-19T12:30:17Z</time>
      </trkpt>
      <trkpt lat="43.50713" lon="6.70616">
        <ele>110.69</ele>
        <time>2011-05-19T12:30:20Z</time>
      </trkpt>
      <trkpt lat="43.50707" lon="6.70616">
        <ele>111.17</ele>
        <time>2011-05-19T12:30:22Z</time>
      </trkpt>
      <trkpt lat="43.50698" lon="6.70615">
        <ele>108.29</ele>
        <time>2011-05-19T12:30:26Z</time>
      </trkpt>
      <trkpt lat="43.50695" lon="6.70613">
        <ele>109.73</ele>
        <time>2011-05-19T12:30:28Z</time>
      </trkpt>
      <trkpt lat="43.50692" lon="6.70609">
        <ele>110.69</ele>
        <time>2011-05-19T12:30:30Z</time>
      </trkpt>
      <trkpt lat="43.50691" lon="6.70607">
        <ele>107.32</ele>
        <time>2011-05-19T12:30:31Z</time>
      </trkpt>
      <trkpt lat="43.50689" lon="6.70616">
        <ele>106.84</ele>
        <time>2011-05-19T12:30:38Z</time>
      </trkpt>
      <trkpt lat="43.50691" lon="6.70616">
        <ele>110.21</ele>
        <time>2011-05-19T12:30:39Z</time>
      </trkpt>
      <trkpt lat="43.50692" lon="6.70614">
        <ele>106.84</ele>
        <time>2011-05-19T12:30:40Z</time>
      </trkpt>
      <trkpt lat="43.50688" lon="6.70615">
        <ele>108.77</ele>
        <time>2011-05-19T12:30:47Z</time>
      </trkpt>
      <trkpt lat="43.50689" lon="6.70605">
        <ele>108.29</ele>
        <time>2011-05-19T12:30:54Z</time>
      </trkpt>
      <trkpt lat="43.5067" lon="6.70594">
        <ele>107.81</ele>
        <time>2011-05-19T12:31:00Z</time>
      </trkpt>
      <trkpt lat="43.50653" lon="6.70598">
        <ele>106.36</ele>
        <time>2011-05-19T12:31:04Z</time>
      </trkpt>
      <trkpt lat="43.50644" lon="6.70604">
        <ele>105.88</ele>
        <time>2011-05-19T12:31:06Z</time>
      </trkpt>
      <trkpt lat="43.50623" lon="6.70609">
        <ele>105.88</ele>
        <time>2011-05-19T12:31:10Z</time>
      </trkpt>
      <trkpt lat="43.50579" lon="6.7059">
        <ele>99.63</ele>
        <time>2011-05-19T12:31:17Z</time>
      </trkpt>
      <trkpt lat="43.50543" lon="6.70562">
        <ele>101.56</ele>
        <time>2011-05-19T12:31:23Z</time>
      </trkpt>
      <trkpt lat="43.5051" lon="6.7055">
        <ele>99.15</ele>
        <time>2011-05-19T12:31:28Z</time>
      </trkpt>
      <trkpt lat="43.50488" lon="6.70534">
        <ele>99.15</ele>
        <time>2011-05-19T12:31:34Z</time>
      </trkpt>
      <trkpt lat="43.50483" lon="6.70527">
        <ele>99.15</ele>
        <time>2011-05-19T12:31:36Z</time>
      </trkpt>
      <trkpt lat="43.5047" lon="6.70525">
        <ele>98.67</ele>
        <time>2011-05-19T12:31:48Z</time>
      </trkpt>
      <trkpt lat="43.5047" lon="6.70525">
        <ele>98.19</ele>
        <time>2011-05-19T12:32:00Z</time>
      </trkpt>
      <trkpt lat="43.50463" lon="6.70554">
        <ele>96.27</ele>
        <time>2011-05-19T12:32:12Z</time>
      </trkpt>
      <trkpt lat="43.50454" lon="6.70574">
        <ele>97.23</ele>
        <time>2011-05-19T12:32:20Z</time>
      </trkpt>
      <trkpt lat="43.5043" lon="6.70556">
        <ele>98.67</ele>
        <time>2011-05-19T12:32:32Z</time>
      </trkpt>
      <trkpt lat="43.50409" lon="6.70537">
        <ele>99.63</ele>
        <time>2011-05-19T12:32:45Z</time>
      </trkpt>
      <trkpt lat="43.50404" lon="6.70534">
        <ele>99.63</ele>
        <time>2011-05-19T12:32:59Z</time>
      </trkpt>
      <trkpt lat="43.50385" lon="6.70523">
        <ele>100.11</ele>
        <time>2011-05-19T12:33:22Z</time>
      </trkpt>
      <trkpt lat="43.50368" lon="6.70511">
        <ele>98.67</ele>
        <time>2011-05-19T12:33:32Z</time>
      </trkpt>
      <trkpt lat="43.50364" lon="6.70514">
        <ele>99.15</ele>
        <time>2011-05-19T12:33:45Z</time>
      </trkpt>
      <trkpt lat="43.50364" lon="6.70514">
        <ele>98.67</ele>
        <time>2011-05-19T12:34:40Z</time>
      </trkpt>
      <trkpt lat="43.50364" lon="6.70514">
        <ele>97.71</ele>
        <time>2011-05-19T12:35:52Z</time>
      </trkpt>
      <trkpt lat="43.50364" lon="6.70514">
        <ele>98.19</ele>
        <time>2011-05-19T12:35:54Z</time>
      </trkpt>
      <trkpt lat="43.50364" lon="6.70515">
        <ele>98.67</ele>
        <time>2011-05-19T12:35:56Z</time>
      </trkpt>
      <trkpt lat="43.50369" lon="6.70524">
        <ele>98.67</ele>
        <time>2011-05-19T12:36:01Z</time>
      </trkpt>
      <trkpt lat="43.5038" lon="6.70529">
        <ele>100.11</ele>
        <time>2011-05-19T12:36:07Z</time>
      </trkpt>
      <trkpt lat="43.50425" lon="6.70574">
        <ele>101.56</ele>
        <time>2011-05-19T12:36:29Z</time>
      </trkpt>
      <trkpt lat="43.50445" lon="6.70616">
        <ele>104.92</ele>
        <time>2011-05-19T12:36:43Z</time>
      </trkpt>
      <trkpt lat="43.50446" lon="6.70619">
        <ele>103.48</ele>
        <time>2011-05-19T12:36:44Z</time>
      </trkpt>
      <trkpt lat="43.50457" lon="6.70686">
        <ele>107.32</ele>
        <time>2011-05-19T12:37:04Z</time>
      </trkpt>
      <trkpt lat="43.50474" lon="6.70759">
        <ele>110.21</ele>
        <time>2011-05-19T12:37:26Z</time>
      </trkpt>
      <trkpt lat="43.50493" lon="6.70811">
        <ele>113.57</ele>
        <time>2011-05-19T12:37:43Z</time>
      </trkpt>
      <trkpt lat="43.50505" lon="6.70844">
        <ele>115.5</ele>
        <time>2011-05-19T12:37:54Z</time>
      </trkpt>
      <trkpt lat="43.50521" lon="6.70919">
        <ele>118.38</ele>
        <time>2011-05-19T12:38:18Z</time>
      </trkpt>
      <trkpt lat="43.50524" lon="6.70932">
        <ele>118.86</ele>
        <time>2011-05-19T12:38:22Z</time>
      </trkpt>
      <trkpt lat="43.50539" lon="6.71019">
        <ele>122.22</ele>
        <time>2011-05-19T12:38:48Z</time>
      </trkpt>
      <trkpt lat="43.50553" lon="6.71093">
        <ele>125.59</ele>
        <time>2011-05-19T12:39:10Z</time>
      </trkpt>
      <trkpt lat="43.5056" lon="6.71141">
        <ele>127.03</ele>
        <time>2011-05-19T12:39:25Z</time>
      </trkpt>
      <trkpt lat="43.50561" lon="6.71144">
        <ele>123.67</ele>
        <time>2011-05-19T12:39:26Z</time>
      </trkpt>
      <trkpt lat="43.50562" lon="6.71147">
        <ele>127.51</ele>
        <time>2011-05-19T12:39:27Z</time>
      </trkpt>
      <trkpt lat="43.50569" lon="6.71186">
        <ele>130.4</ele>
        <time>2011-05-19T12:39:39Z</time>
      </trkpt>
      <trkpt lat="43.50582" lon="6.71251">
        <ele>133.76</ele>
        <time>2011-05-19T12:39:59Z</time>
      </trkpt>
      <trkpt lat="43.50585" lon="6.71263">
        <ele>130.4</ele>
        <time>2011-05-19T12:40:03Z</time>
      </trkpt>
      <trkpt lat="43.50588" lon="6.71272">
        <ele>133.76</ele>
        <time>2011-05-19T12:40:06Z</time>
      </trkpt>
      <trkpt lat="43.50607" lon="6.71315">
        <ele>137.13</ele>
        <time>2011-05-19T12:40:21Z</time>
      </trkpt>
      <trkpt lat="43.50612" lon="6.71324">
        <ele>133.76</ele>
        <time>2011-05-19T12:40:24Z</time>
      </trkpt>
      <trkpt lat="43.50624" lon="6.71345">
        <ele>137.13</ele>
        <time>2011-05-19T12:40:32Z</time>
      </trkpt>
      <trkpt lat="43.5063" lon="6.71355">
        <ele>133.28</ele>
        <time>2011-05-19T12:40:36Z</time>
      </trkpt>
      <trkpt lat="43.50632" lon="6.71358">
        <ele>137.61</ele>
        <time>2011-05-19T12:40:37Z</time>
      </trkpt>
      <trkpt lat="43.50647" lon="6.71383">
        <ele>140.49</ele>
        <time>2011-05-19T12:40:46Z</time>
      </trkpt>
      <trkpt lat="43.5065" lon="6.71389">
        <ele>136.64</ele>
        <time>2011-05-19T12:40:48Z</time>
      </trkpt>
      <trkpt lat="43.50654" lon="6.71399">
        <ele>140.97</ele>
        <time>2011-05-19T12:40:51Z</time>
      </trkpt>
      <trkpt lat="43.50656" lon="6.71402">
        <ele>140.49</ele>
        <time>2011-05-19T12:40:52Z</time>
      </trkpt>
      <trkpt lat="43.50657" lon="6.71405">
        <ele>137.13</ele>
        <time>2011-05-19T12:40:53Z</time>
      </trkpt>
      <trkpt lat="43.50659" lon="6.71408">
        <ele>138.09</ele>
        <time>2011-05-19T12:40:54Z</time>
      </trkpt>
      <trkpt lat="43.50662" lon="6.71415">
        <ele>140.49</ele>
        <time>2011-05-19T12:40:56Z</time>
      </trkpt>
      <trkpt lat="43.50672" lon="6.71437">
        <ele>142.89</ele>
        <time>2011-05-19T12:41:03Z</time>
      </trkpt>
      <trkpt lat="43.50679" lon="6.71453">
        <ele>139.53</ele>
        <time>2011-05-19T12:41:08Z</time>
      </trkpt>
      <trkpt lat="43.50688" lon="6.71471">
        <ele>143.37</ele>
        <time>2011-05-19T12:41:14Z</time>
      </trkpt>
      <trkpt lat="43.50707" lon="6.71506">
        <ele>145.3</ele>
        <time>2011-05-19T12:41:26Z</time>
      </trkpt>
      <trkpt lat="43.50712" lon="6.71514">
        <ele>141.93</ele>
        <time>2011-05-19T12:41:29Z</time>
      </trkpt>
      <trkpt lat="43.50713" lon="6.71517">
        <ele>144.82</ele>
        <time>2011-05-19T12:41:30Z</time>
      </trkpt>
      <trkpt lat="43.50723" lon="6.71533">
        <ele>148.18</ele>
        <time>2011-05-19T12:41:36Z</time>
      </trkpt>
      <trkpt lat="43.50733" lon="6.71546">
        <ele>144.34</ele>
        <time>2011-05-19T12:41:41Z</time>
      </trkpt>
      <trkpt lat="43.50734" lon="6.71548">
        <ele>144.82</ele>
        <time>2011-05-19T12:41:42Z</time>
      </trkpt>
      <trkpt lat="43.50738" lon="6.71553">
        <ele>145.78</ele>
        <time>2011-05-19T12:41:44Z</time>
      </trkpt>
      <trkpt lat="43.50752" lon="6.71569">
        <ele>147.7</ele>
        <time>2011-05-19T12:41:51Z</time>
      </trkpt>
      <trkpt lat="43.50767" lon="6.71582">
        <ele>151.06</ele>
        <time>2011-05-19T12:41:58Z</time>
      </trkpt>
      <trkpt lat="43.50769" lon="6.71584">
        <ele>149.62</ele>
        <time>2011-05-19T12:41:59Z</time>
      </trkpt>
      <trkpt lat="43.50803" lon="6.71596">
        <ele>151.06</ele>
        <time>2011-05-19T12:42:13Z</time>
      </trkpt>
      <trkpt lat="43.5082" lon="6.71593">
        <ele>154.43</ele>
        <time>2011-05-19T12:42:20Z</time>
      </trkpt>
      <trkpt lat="43.50822" lon="6.71592">
        <ele>150.1</ele>
        <time>2011-05-19T12:42:21Z</time>
      </trkpt>
      <trkpt lat="43.50829" lon="6.71588">
        <ele>152.03</ele>
        <time>2011-05-19T12:42:24Z</time>
      </trkpt>
      <trkpt lat="43.50861" lon="6.71564">
        <ele>154.91</ele>
        <time>2011-05-19T12:42:38Z</time>
      </trkpt>
      <trkpt lat="43.50874" lon="6.7155">
        <ele>155.87</ele>
        <time>2011-05-19T12:42:45Z</time>
      </trkpt>
      <trkpt lat="43.50879" lon="6.71546">
        <ele>154.91</ele>
        <time>2011-05-19T12:42:47Z</time>
      </trkpt>
      <trkpt lat="43.509" lon="6.71534">
        <ele>158.75</ele>
        <time>2011-05-19T12:42:56Z</time>
      </trkpt>
      <trkpt lat="43.50944" lon="6.71558">
        <ele>160.68</ele>
        <time>2011-05-19T12:43:15Z</time>
      </trkpt>
      <trkpt lat="43.50971" lon="6.71614">
        <ele>164.04</ele>
        <time>2011-05-19T12:43:34Z</time>
      </trkpt>
      <trkpt lat="43.50993" lon="6.71666">
        <ele>166.93</ele>
        <time>2011-05-19T12:43:52Z</time>
      </trkpt>
      <trkpt lat="43.50995" lon="6.71669">
        <ele>166.93</ele>
        <time>2011-05-19T12:43:53Z</time>
      </trkpt>
      <trkpt lat="43.51028" lon="6.71738">
        <ele>168.37</ele>
        <time>2011-05-19T12:44:18Z</time>
      </trkpt>
      <trkpt lat="43.51058" lon="6.718">
        <ele>171.73</ele>
        <time>2011-05-19T12:44:40Z</time>
      </trkpt>
      <trkpt lat="43.51099" lon="6.71861">
        <ele>174.62</ele>
        <time>2011-05-19T12:45:05Z</time>
      </trkpt>
      <trkpt lat="43.51135" lon="6.71926">
        <ele>177.5</ele>
        <time>2011-05-19T12:45:29Z</time>
      </trkpt>
      <trkpt lat="43.51136" lon="6.71991">
        <ele>180.87</ele>
        <time>2011-05-19T12:45:49Z</time>
      </trkpt>
      <trkpt lat="43.51133" lon="6.72049">
        <ele>182.31</ele>
        <time>2011-05-19T12:46:08Z</time>
      </trkpt>
      <trkpt lat="43.51141" lon="6.72075">
        <ele>184.71</ele>
        <time>2011-05-19T12:46:17Z</time>
      </trkpt>
      <trkpt lat="43.51188" lon="6.72128">
        <ele>186.63</ele>
        <time>2011-05-19T12:46:45Z</time>
      </trkpt>
      <trkpt lat="43.51223" lon="6.72168">
        <ele>190.48</ele>
        <time>2011-05-19T12:47:08Z</time>
      </trkpt>
      <trkpt lat="43.51263" lon="6.72156">
        <ele>191.92</ele>
        <time>2011-05-19T12:47:27Z</time>
      </trkpt>
      <trkpt lat="43.5129" lon="6.72117">
        <ele>194.8</ele>
        <time>2011-05-19T12:47:45Z</time>
      </trkpt>
      <trkpt lat="43.5132" lon="6.72105">
        <ele>198.17</ele>
        <time>2011-05-19T12:48:01Z</time>
      </trkpt>
      <trkpt lat="43.51348" lon="6.72122">
        <ele>199.61</ele>
        <time>2011-05-19T12:48:16Z</time>
      </trkpt>
      <trkpt lat="43.51386" lon="6.72159">
        <ele>202.49</ele>
        <time>2011-05-19T12:48:39Z</time>
      </trkpt>
      <trkpt lat="43.51422" lon="6.72188">
        <ele>203.46</ele>
        <time>2011-05-19T12:49:00Z</time>
      </trkpt>
      <trkpt lat="43.51446" lon="6.72194">
        <ele>205.86</ele>
        <time>2011-05-19T12:49:12Z</time>
      </trkpt>
      <trkpt lat="43.51464" lon="6.72201">
        <ele>205.38</ele>
        <time>2011-05-19T12:49:23Z</time>
      </trkpt>
      <trkpt lat="43.51476" lon="6.72201">
        <ele>207.3</ele>
        <time>2011-05-19T12:49:37Z</time>
      </trkpt>
      <trkpt lat="43.51477" lon="6.72202">
        <ele>207.78</ele>
        <time>2011-05-19T12:49:49Z</time>
      </trkpt>
      <trkpt lat="43.51477" lon="6.72203">
        <ele>208.26</ele>
        <time>2011-05-19T12:50:14Z</time>
      </trkpt>
      <trkpt lat="43.51477" lon="6.72204">
        <ele>207.3</ele>
        <time>2011-05-19T12:50:51Z</time>
      </trkpt>
      <trkpt lat="43.51477" lon="6.72203">
        <ele>207.78</ele>
        <time>2011-05-19T12:51:39Z</time>
      </trkpt>
      <trkpt lat="43.51477" lon="6.72203">
        <ele>207.3</ele>
        <time>2011-05-19T12:52:08Z</time>
      </trkpt>
      <trkpt lat="43.51477" lon="6.72202">
        <ele>206.82</ele>
        <time>2011-05-19T12:53:19Z</time>
      </trkpt>
      <trkpt lat="43.51477" lon="6.72203">
        <ele>206.82</ele>
        <time>2011-05-19T12:54:56Z</time>
      </trkpt>
      <trkpt lat="43.51477" lon="6.72203">
        <ele>207.3</ele>
        <time>2011-05-19T12:56:20Z</time>
      </trkpt>
      <trkpt lat="43.51476" lon="6.72201">
        <ele>206.82</ele>
        <time>2011-05-19T12:57:01Z</time>
      </trkpt>
      <trkpt lat="43.51475" lon="6.72199">
        <ele>206.34</ele>
        <time>2011-05-19T12:57:04Z</time>
      </trkpt>
      <trkpt lat="43.51476" lon="6.72194">
        <ele>207.78</ele>
        <time>2011-05-19T12:57:09Z</time>
      </trkpt>
      <trkpt lat="43.51482" lon="6.72183">
        <ele>206.82</ele>
        <time>2011-05-19T12:57:15Z</time>
      </trkpt>
      <trkpt lat="43.51506" lon="6.72173">
        <ele>210.19</ele>
        <time>2011-05-19T12:57:27Z</time>
      </trkpt>
      <trkpt lat="43.51561" lon="6.7217">
        <ele>213.07</ele>
        <time>2011-05-19T12:57:49Z</time>
      </trkpt>
      <trkpt lat="43.51615" lon="6.72178">
        <ele>215.47</ele>
        <time>2011-05-19T12:58:10Z</time>
      </trkpt>
      <trkpt lat="43.51667" lon="6.72191">
        <ele>219.32</ele>
        <time>2011-05-19T12:58:30Z</time>
      </trkpt>
      <trkpt lat="43.51726" lon="6.72196">
        <ele>220.28</ele>
        <time>2011-05-19T12:58:50Z</time>
      </trkpt>
      <trkpt lat="43.51762" lon="6.72236">
        <ele>221.72</ele>
        <time>2011-05-19T12:59:07Z</time>
      </trkpt>
      <trkpt lat="43.51802" lon="6.7229">
        <ele>223.16</ele>
        <time>2011-05-19T12:59:28Z</time>
      </trkpt>
      <trkpt lat="43.51811" lon="6.72302">
        <ele>222.68</ele>
        <time>2011-05-19T12:59:35Z</time>
      </trkpt>
      <trkpt lat="43.51811" lon="6.72308">
        <ele>223.16</ele>
        <time>2011-05-19T12:59:51Z</time>
      </trkpt>
      <trkpt lat="43.51806" lon="6.72306">
        <ele>223.64</ele>
        <time>2011-05-19T13:00:00Z</time>
      </trkpt>
      <trkpt lat="43.51806" lon="6.72307">
        <ele>222.68</ele>
        <time>2011-05-19T13:00:05Z</time>
      </trkpt>
      <trkpt lat="43.51809" lon="6.72312">
        <ele>223.16</ele>
        <time>2011-05-19T13:00:21Z</time>
      </trkpt>
      <trkpt lat="43.51808" lon="6.72312">
        <ele>222.2</ele>
        <time>2011-05-19T13:00:33Z</time>
      </trkpt>
      <trkpt lat="43.51808" lon="6.72312">
        <ele>224.12</ele>
        <time>2011-05-19T13:00:35Z</time>
      </trkpt>
      <trkpt lat="43.51804" lon="6.72348">
        <ele>221.72</ele>
        <time>2011-05-19T13:00:52Z</time>
      </trkpt>
      <trkpt lat="43.51801" lon="6.72378">
        <ele>220.76</ele>
        <time>2011-05-19T13:01:05Z</time>
      </trkpt>
      <trkpt lat="43.51781" lon="6.72401">
        <ele>219.8</ele>
        <time>2011-05-19T13:01:19Z</time>
      </trkpt>
      <trkpt lat="43.51758" lon="6.72424">
        <ele>216.43</ele>
        <time>2011-05-19T13:01:33Z</time>
      </trkpt>
      <trkpt lat="43.51735" lon="6.7245">
        <ele>215.47</ele>
        <time>2011-05-19T13:01:50Z</time>
      </trkpt>
      <trkpt lat="43.51734" lon="6.72452">
        <ele>214.51</ele>
        <time>2011-05-19T13:01:52Z</time>
      </trkpt>
      <trkpt lat="43.51728" lon="6.72462">
        <ele>214.51</ele>
        <time>2011-05-19T13:02:07Z</time>
      </trkpt>
      <trkpt lat="43.51724" lon="6.72479">
        <ele>214.51</ele>
        <time>2011-05-19T13:02:28Z</time>
      </trkpt>
      <trkpt lat="43.51726" lon="6.72501">
        <ele>216.43</ele>
        <time>2011-05-19T13:02:40Z</time>
      </trkpt>
      <trkpt lat="43.51725" lon="6.72518">
        <ele>217.88</ele>
        <time>2011-05-19T13:02:55Z</time>
      </trkpt>
      <trkpt lat="43.51713" lon="6.72534">
        <ele>219.8</ele>
        <time>2011-05-19T13:03:16Z</time>
      </trkpt>
      <trkpt lat="43.51711" lon="6.72544">
        <ele>222.2</ele>
        <time>2011-05-19T13:03:28Z</time>
      </trkpt>
      <trkpt lat="43.5171" lon="6.72547">
        <ele>222.2</ele>
        <time>2011-05-19T13:03:32Z</time>
      </trkpt>
      <trkpt lat="43.51705" lon="6.7256">
        <ele>223.64</ele>
        <time>2011-05-19T13:03:47Z</time>
      </trkpt>
      <trkpt lat="43.51698" lon="6.72575">
        <ele>224.61</ele>
        <time>2011-05-19T13:04:02Z</time>
      </trkpt>
      <trkpt lat="43.5169" lon="6.72593">
        <ele>227.01</ele>
        <time>2011-05-19T13:04:24Z</time>
      </trkpt>
      <trkpt lat="43.51687" lon="6.72601">
        <ele>228.45</ele>
        <time>2011-05-19T13:04:32Z</time>
      </trkpt>
      <trkpt lat="43.5168" lon="6.72619">
        <ele>229.41</ele>
        <time>2011-05-19T13:04:52Z</time>
      </trkpt>
      <trkpt lat="43.51672" lon="6.72635">
        <ele>229.89</ele>
        <time>2011-05-19T13:05:10Z</time>
      </trkpt>
      <trkpt lat="43.51671" lon="6.72638">
        <ele>230.37</ele>
        <time>2011-05-19T13:05:13Z</time>
      </trkpt>
      <trkpt lat="43.51661" lon="6.72656">
        <ele>231.33</ele>
        <time>2011-05-19T13:05:31Z</time>
      </trkpt>
      <trkpt lat="43.51651" lon="6.72671">
        <ele>232.78</ele>
        <time>2011-05-19T13:05:47Z</time>
      </trkpt>
      <trkpt lat="43.51641" lon="6.72685">
        <ele>231.81</ele>
        <time>2011-05-19T13:06:03Z</time>
      </trkpt>
      <trkpt lat="43.51637" lon="6.72697">
        <ele>229.41</ele>
        <time>2011-05-19T13:06:23Z</time>
      </trkpt>
      <trkpt lat="43.51639" lon="6.72711">
        <ele>227.49</ele>
        <time>2011-05-19T13:06:38Z</time>
      </trkpt>
      <trkpt lat="43.51636" lon="6.72728">
        <ele>225.57</ele>
        <time>2011-05-19T13:06:58Z</time>
      </trkpt>
      <trkpt lat="43.51637" lon="6.72737">
        <ele>222.68</ele>
        <time>2011-05-19T13:07:18Z</time>
      </trkpt>
      <trkpt lat="43.51639" lon="6.72742">
        <ele>221.72</ele>
        <time>2011-05-19T13:07:34Z</time>
      </trkpt>
      <trkpt lat="43.51638" lon="6.72747">
        <ele>219.8</ele>
        <time>2011-05-19T13:07:52Z</time>
      </trkpt>
      <trkpt lat="43.51638" lon="6.72747">
        <ele>219.8</ele>
        <time>2011-05-19T13:07:53Z</time>
      </trkpt>
      <trkpt lat="43.51642" lon="6.72753">
        <ele>216.91</ele>
        <time>2011-05-19T13:08:06Z</time>
      </trkpt>
      <trkpt lat="43.51642" lon="6.72758">
        <ele>216.43</ele>
        <time>2011-05-19T13:08:25Z</time>
      </trkpt>
      <trkpt lat="43.51644" lon="6.72763">
        <ele>214.99</ele>
        <time>2011-05-19T13:08:42Z</time>
      </trkpt>
      <trkpt lat="43.51644" lon="6.72765">
        <ele>214.51</ele>
        <time>2011-05-19T13:08:56Z</time>
      </trkpt>
      <trkpt lat="43.51645" lon="6.72769">
        <ele>212.11</ele>
        <time>2011-05-19T13:09:26Z</time>
      </trkpt>
      <trkpt lat="43.51647" lon="6.72773">
        <ele>210.67</ele>
        <time>2011-05-19T13:09:44Z</time>
      </trkpt>
      <trkpt lat="43.51649" lon="6.72777">
        <ele>208.74</ele>
        <time>2011-05-19T13:09:55Z</time>
      </trkpt>
      <trkpt lat="43.51653" lon="6.7278">
        <ele>208.26</ele>
        <time>2011-05-19T13:10:24Z</time>
      </trkpt>
      <trkpt lat="43.51654" lon="6.72781">
        <ele>204.9</ele>
        <time>2011-05-19T13:10:49Z</time>
      </trkpt>
      <trkpt lat="43.51657" lon="6.72786">
        <ele>202.98</ele>
        <time>2011-05-19T13:11:17Z</time>
      </trkpt>
      <trkpt lat="43.51658" lon="6.72793">
        <ele>201.05</ele>
        <time>2011-05-19T13:11:39Z</time>
      </trkpt>
      <trkpt lat="43.51662" lon="6.72798">
        <ele>199.13</ele>
        <time>2011-05-19T13:12:02Z</time>
      </trkpt>
      <trkpt lat="43.51662" lon="6.72798">
        <ele>199.13</ele>
        <time>2011-05-19T13:12:03Z</time>
      </trkpt>
      <trkpt lat="43.51667" lon="6.72803">
        <ele>199.13</ele>
        <time>2011-05-19T13:12:25Z</time>
      </trkpt>
      <trkpt lat="43.51669" lon="6.72807">
        <ele>197.21</ele>
        <time>2011-05-19T13:12:40Z</time>
      </trkpt>
      <trkpt lat="43.51676" lon="6.7281">
        <ele>193.84</ele>
        <time>2011-05-19T13:13:17Z</time>
      </trkpt>
      <trkpt lat="43.51686" lon="6.72813">
        <ele>191.92</ele>
        <time>2011-05-19T13:13:41Z</time>
      </trkpt>
      <trkpt lat="43.51684" lon="6.72818">
        <ele>192.88</ele>
        <time>2011-05-19T13:13:55Z</time>
      </trkpt>
      <trkpt lat="43.51684" lon="6.72819">
        <ele>192.88</ele>
        <time>2011-05-19T13:14:17Z</time>
      </trkpt>
      <trkpt lat="43.5168" lon="6.7282">
        <ele>192.4</ele>
        <time>2011-05-19T13:14:34Z</time>
      </trkpt>
      <trkpt lat="43.51673" lon="6.72832">
        <ele>192.88</ele>
        <time>2011-05-19T13:15:03Z</time>
      </trkpt>
      <trkpt lat="43.51678" lon="6.72843">
        <ele>191.92</ele>
        <time>2011-05-19T13:15:18Z</time>
      </trkpt>
      <trkpt lat="43.51682" lon="6.72849">
        <ele>191.44</ele>
        <time>2011-05-19T13:15:33Z</time>
      </trkpt>
      <trkpt lat="43.51686" lon="6.72853">
        <ele>190.48</ele>
        <time>2011-05-19T13:15:49Z</time>
      </trkpt>
      <trkpt lat="43.51685" lon="6.72859">
        <ele>190</ele>
        <time>2011-05-19T13:16:07Z</time>
      </trkpt>
      <trkpt lat="43.51684" lon="6.72864">
        <ele>186.15</ele>
        <time>2011-05-19T13:16:32Z</time>
      </trkpt>
      <trkpt lat="43.51682" lon="6.72876">
        <ele>184.71</ele>
        <time>2011-05-19T13:16:54Z</time>
      </trkpt>
      <trkpt lat="43.51677" lon="6.72886">
        <ele>181.35</ele>
        <time>2011-05-19T13:17:14Z</time>
      </trkpt>
      <trkpt lat="43.51674" lon="6.72896">
        <ele>178.46</ele>
        <time>2011-05-19T13:17:32Z</time>
      </trkpt>
      <trkpt lat="43.51678" lon="6.72903">
        <ele>177.98</ele>
        <time>2011-05-19T13:17:48Z</time>
      </trkpt>
      <trkpt lat="43.5169" lon="6.72919">
        <ele>176.54</ele>
        <time>2011-05-19T13:18:09Z</time>
      </trkpt>
      <trkpt lat="43.51699" lon="6.72926">
        <ele>173.66</ele>
        <time>2011-05-19T13:18:28Z</time>
      </trkpt>
      <trkpt lat="43.517" lon="6.72934">
        <ele>172.21</ele>
        <time>2011-05-19T13:18:42Z</time>
      </trkpt>
      <trkpt lat="43.51701" lon="6.72937">
        <ele>170.77</ele>
        <time>2011-05-19T13:18:58Z</time>
      </trkpt>
      <trkpt lat="43.51701" lon="6.72946">
        <ele>170.77</ele>
        <time>2011-05-19T13:19:10Z</time>
      </trkpt>
      <trkpt lat="43.51701" lon="6.72946">
        <ele>170.29</ele>
        <time>2011-05-19T13:19:15Z</time>
      </trkpt>
      <trkpt lat="43.51691" lon="6.72959">
        <ele>168.85</ele>
        <time>2011-05-19T13:19:22Z</time>
      </trkpt>
      <trkpt lat="43.51678" lon="6.72981">
        <ele>169.33</ele>
        <time>2011-05-19T13:19:31Z</time>
      </trkpt>
      <trkpt lat="43.51668" lon="6.73008">
        <ele>169.33</ele>
        <time>2011-05-19T13:19:46Z</time>
      </trkpt>
      <trkpt lat="43.51652" lon="6.73039">
        <ele>169.33</ele>
        <time>2011-05-19T13:20:04Z</time>
      </trkpt>
      <trkpt lat="43.51632" lon="6.73069">
        <ele>170.77</ele>
        <time>2011-05-19T13:20:24Z</time>
      </trkpt>
      <trkpt lat="43.51617" lon="6.73083">
        <ele>169.81</ele>
        <time>2011-05-19T13:20:38Z</time>
      </trkpt>
      <trkpt lat="43.51594" lon="6.73087">
        <ele>169.33</ele>
        <time>2011-05-19T13:20:51Z</time>
      </trkpt>
      <trkpt lat="43.5157" lon="6.73091">
        <ele>167.89</ele>
        <time>2011-05-19T13:21:06Z</time>
      </trkpt>
      <trkpt lat="43.51551" lon="6.73087">
        <ele>168.37</ele>
        <time>2011-05-19T13:21:18Z</time>
      </trkpt>
      <trkpt lat="43.51531" lon="6.7308">
        <ele>168.37</ele>
        <time>2011-05-19T13:21:33Z</time>
      </trkpt>
      <trkpt lat="43.51527" lon="6.7308">
        <ele>166.93</ele>
        <time>2011-05-19T13:21:50Z</time>
      </trkpt>
      <trkpt lat="43.515" lon="6.73071">
        <ele>164.52</ele>
        <time>2011-05-19T13:22:04Z</time>
      </trkpt>
      <trkpt lat="43.5148" lon="6.7307">
        <ele>163.56</ele>
        <time>2011-05-19T13:22:14Z</time>
      </trkpt>
      <trkpt lat="43.51472" lon="6.73076">
        <ele>163.56</ele>
        <time>2011-05-19T13:22:20Z</time>
      </trkpt>
      <trkpt lat="43.51444" lon="6.73112">
        <ele>162.6</ele>
        <time>2011-05-19T13:22:34Z</time>
      </trkpt>
      <trkpt lat="43.51424" lon="6.73135">
        <ele>161.64</ele>
        <time>2011-05-19T13:22:46Z</time>
      </trkpt>
      <trkpt lat="43.51407" lon="6.73158">
        <ele>159.72</ele>
        <time>2011-05-19T13:23:01Z</time>
      </trkpt>
      <trkpt lat="43.51388" lon="6.73178">
        <ele>157.31</ele>
        <time>2011-05-19T13:23:16Z</time>
      </trkpt>
      <trkpt lat="43.51387" lon="6.73186">
        <ele>156.83</ele>
        <time>2011-05-19T13:23:24Z</time>
      </trkpt>
      <trkpt lat="43.51386" lon="6.73178">
        <ele>157.31</ele>
        <time>2011-05-19T13:23:37Z</time>
      </trkpt>
      <trkpt lat="43.51387" lon="6.7318">
        <ele>157.79</ele>
        <time>2011-05-19T13:24:14Z</time>
      </trkpt>
      <trkpt lat="43.51388" lon="6.73184">
        <ele>156.83</ele>
        <time>2011-05-19T13:24:30Z</time>
      </trkpt>
      <trkpt lat="43.51388" lon="6.73223">
        <ele>158.27</ele>
        <time>2011-05-19T13:24:45Z</time>
      </trkpt>
      <trkpt lat="43.51372" lon="6.7325">
        <ele>159.24</ele>
        <time>2011-05-19T13:24:56Z</time>
      </trkpt>
      <trkpt lat="43.51344" lon="6.73293">
        <ele>158.27</ele>
        <time>2011-05-19T13:25:09Z</time>
      </trkpt>
      <trkpt lat="43.5134" lon="6.73304">
        <ele>156.83</ele>
        <time>2011-05-19T13:25:11Z</time>
      </trkpt>
      <trkpt lat="43.51335" lon="6.73323">
        <ele>157.31</ele>
        <time>2011-05-19T13:25:14Z</time>
      </trkpt>
      <trkpt lat="43.51335" lon="6.73371">
        <ele>155.39</ele>
        <time>2011-05-19T13:25:19Z</time>
      </trkpt>
      <trkpt lat="43.51333" lon="6.7346">
        <ele>151.54</ele>
        <time>2011-05-19T13:25:31Z</time>
      </trkpt>
      <trkpt lat="43.51335" lon="6.73479">
        <ele>153.95</ele>
        <time>2011-05-19T13:25:34Z</time>
      </trkpt>
      <trkpt lat="43.51323" lon="6.73557">
        <ele>152.51</ele>
        <time>2011-05-19T13:25:50Z</time>
      </trkpt>
      <trkpt lat="43.51315" lon="6.73563">
        <ele>151.06</ele>
        <time>2011-05-19T13:25:53Z</time>
      </trkpt>
      <trkpt lat="43.51318" lon="6.73562">
        <ele>151.54</ele>
        <time>2011-05-19T13:26:02Z</time>
      </trkpt>
      <trkpt lat="43.51318" lon="6.73571">
        <ele>152.03</ele>
        <time>2011-05-19T13:26:15Z</time>
      </trkpt>
      <trkpt lat="43.51319" lon="6.73572">
        <ele>151.54</ele>
        <time>2011-05-19T13:26:31Z</time>
      </trkpt>
      <trkpt lat="43.51318" lon="6.73572">
        <ele>151.54</ele>
        <time>2011-05-19T13:26:57Z</time>
      </trkpt>
      <trkpt lat="43.51319" lon="6.73574">
        <ele>150.58</ele>
        <time>2011-05-19T13:28:57Z</time>
      </trkpt>
      <trkpt lat="43.51318" lon="6.73573">
        <ele>151.54</ele>
        <time>2011-05-19T13:29:51Z</time>
      </trkpt>
      <trkpt lat="43.51317" lon="6.73565">
        <ele>151.06</ele>
        <time>2011-05-19T13:30:02Z</time>
      </trkpt>
      <trkpt lat="43.51302" lon="6.73568">
        <ele>149.14</ele>
        <time>2011-05-19T13:30:08Z</time>
      </trkpt>
      <trkpt lat="43.51278" lon="6.73585">
        <ele>146.26</ele>
        <time>2011-05-19T13:30:11Z</time>
      </trkpt>
      <trkpt lat="43.51273" lon="6.73592">
        <ele>145.78</ele>
        <time>2011-05-19T13:30:12Z</time>
      </trkpt>
      <trkpt lat="43.51262" lon="6.73609">
        <ele>145.3</ele>
        <time>2011-05-19T13:30:14Z</time>
      </trkpt>
      <trkpt lat="43.5125" lon="6.73628">
        <ele>143.37</ele>
        <time>2011-05-19T13:30:16Z</time>
      </trkpt>
      <trkpt lat="43.51236" lon="6.73643">
        <ele>141.93</ele>
        <time>2011-05-19T13:30:18Z</time>
      </trkpt>
      <trkpt lat="43.51221" lon="6.73656">
        <ele>140.97</ele>
        <time>2011-05-19T13:30:20Z</time>
      </trkpt>
      <trkpt lat="43.51145" lon="6.737">
        <ele>141.93</ele>
        <time>2011-05-19T13:30:32Z</time>
      </trkpt>
      <trkpt lat="43.51085" lon="6.73741">
        <ele>144.82</ele>
        <time>2011-05-19T13:30:46Z</time>
      </trkpt>
      <trkpt lat="43.51046" lon="6.73788">
        <ele>146.74</ele>
        <time>2011-05-19T13:31:01Z</time>
      </trkpt>
      <trkpt lat="43.50992" lon="6.7384">
        <ele>148.18</ele>
        <time>2011-05-19T13:31:20Z</time>
      </trkpt>
      <trkpt lat="43.5094" lon="6.73871">
        <ele>151.06</ele>
        <time>2011-05-19T13:31:38Z</time>
      </trkpt>
      <trkpt lat="43.50919" lon="6.73886">
        <ele>152.51</ele>
        <time>2011-05-19T13:31:47Z</time>
      </trkpt>
      <trkpt lat="43.50884" lon="6.73924">
        <ele>155.39</ele>
        <time>2011-05-19T13:32:07Z</time>
      </trkpt>
      <trkpt lat="43.50851" lon="6.73954">
        <ele>157.79</ele>
        <time>2011-05-19T13:32:27Z</time>
      </trkpt>
      <trkpt lat="43.50805" lon="6.73973">
        <ele>157.79</ele>
        <time>2011-05-19T13:32:51Z</time>
      </trkpt>
      <trkpt lat="43.50764" lon="6.74006">
        <ele>158.75</ele>
        <time>2011-05-19T13:33:09Z</time>
      </trkpt>
      <trkpt lat="43.50744" lon="6.74055">
        <ele>160.2</ele>
        <time>2011-05-19T13:33:24Z</time>
      </trkpt>
      <trkpt lat="43.50743" lon="6.74094">
        <ele>160.68</ele>
        <time>2011-05-19T13:33:32Z</time>
      </trkpt>
      <trkpt lat="43.5075" lon="6.7415">
        <ele>158.75</ele>
        <time>2011-05-19T13:33:40Z</time>
      </trkpt>
      <trkpt lat="43.5076" lon="6.74193">
        <ele>157.31</ele>
        <time>2011-05-19T13:33:45Z</time>
      </trkpt>
      <trkpt lat="43.50772" lon="6.74227">
        <ele>156.83</ele>
        <time>2011-05-19T13:33:49Z</time>
      </trkpt>
      <trkpt lat="43.5078" lon="6.74261">
        <ele>157.31</ele>
        <time>2011-05-19T13:33:53Z</time>
      </trkpt>
      <trkpt lat="43.50779" lon="6.74288">
        <ele>158.75</ele>
        <time>2011-05-19T13:33:57Z</time>
      </trkpt>
      <trkpt lat="43.50767" lon="6.74359">
        <ele>161.64</ele>
        <time>2011-05-19T13:34:14Z</time>
      </trkpt>
      <trkpt lat="43.50776" lon="6.74408">
        <ele>165</ele>
        <time>2011-05-19T13:34:31Z</time>
      </trkpt>
      <trkpt lat="43.508" lon="6.74455">
        <ele>167.41</ele>
        <time>2011-05-19T13:34:50Z</time>
      </trkpt>
      <trkpt lat="43.50816" lon="6.745">
        <ele>170.77</ele>
        <time>2011-05-19T13:35:10Z</time>
      </trkpt>
      <trkpt lat="43.50827" lon="6.74545">
        <ele>174.14</ele>
        <time>2011-05-19T13:35:30Z</time>
      </trkpt>
      <trkpt lat="43.50833" lon="6.74553">
        <ele>175.1</ele>
        <time>2011-05-19T13:35:35Z</time>
      </trkpt>
      <trkpt lat="43.5086" lon="6.74569">
        <ele>177.5</ele>
        <time>2011-05-19T13:35:54Z</time>
      </trkpt>
      <trkpt lat="43.50887" lon="6.7459">
        <ele>180.38</ele>
        <time>2011-05-19T13:36:11Z</time>
      </trkpt>
      <trkpt lat="43.50928" lon="6.74626">
        <ele>183.75</ele>
        <time>2011-05-19T13:36:38Z</time>
      </trkpt>
      <trkpt lat="43.50958" lon="6.7464">
        <ele>186.15</ele>
        <time>2011-05-19T13:36:58Z</time>
      </trkpt>
      <trkpt lat="43.50975" lon="6.74657">
        <ele>188.08</ele>
        <time>2011-05-19T13:37:12Z</time>
      </trkpt>
      <trkpt lat="43.5098" lon="6.74653">
        <ele>187.59</ele>
        <time>2011-05-19T13:37:20Z</time>
      </trkpt>
      <trkpt lat="43.50982" lon="6.74648">
        <ele>188.08</ele>
        <time>2011-05-19T13:37:24Z</time>
      </trkpt>
      <trkpt lat="43.50983" lon="6.74645">
        <ele>187.59</ele>
        <time>2011-05-19T13:37:47Z</time>
      </trkpt>
      <trkpt lat="43.50983" lon="6.74645">
        <ele>187.11</ele>
        <time>2011-05-19T13:38:07Z</time>
      </trkpt>
      <trkpt lat="43.50983" lon="6.74649">
        <ele>188.08</ele>
        <time>2011-05-19T13:39:16Z</time>
      </trkpt>
      <trkpt lat="43.50976" lon="6.74662">
        <ele>187.59</ele>
        <time>2011-05-19T13:39:25Z</time>
      </trkpt>
      <trkpt lat="43.50983" lon="6.74703">
        <ele>186.63</ele>
        <time>2011-05-19T13:39:41Z</time>
      </trkpt>
      <trkpt lat="43.51015" lon="6.74751">
        <ele>185.19</ele>
        <time>2011-05-19T13:39:56Z</time>
      </trkpt>
      <trkpt lat="43.51042" lon="6.74786">
        <ele>181.83</ele>
        <time>2011-05-19T13:40:03Z</time>
      </trkpt>
      <trkpt lat="43.51051" lon="6.74801">
        <ele>180.87</ele>
        <time>2011-05-19T13:40:05Z</time>
      </trkpt>
      <trkpt lat="43.51057" lon="6.74813">
        <ele>179.9</ele>
        <time>2011-05-19T13:40:07Z</time>
      </trkpt>
      <trkpt lat="43.5106" lon="6.74825">
        <ele>179.42</ele>
        <time>2011-05-19T13:40:09Z</time>
      </trkpt>
      <trkpt lat="43.51065" lon="6.74849">
        <ele>177.98</ele>
        <time>2011-05-19T13:40:12Z</time>
      </trkpt>
      <trkpt lat="43.5107" lon="6.74867">
        <ele>176.54</ele>
        <time>2011-05-19T13:40:14Z</time>
      </trkpt>
      <trkpt lat="43.51077" lon="6.7489">
        <ele>175.58</ele>
        <time>2011-05-19T13:40:17Z</time>
      </trkpt>
      <trkpt lat="43.51102" lon="6.74907">
        <ele>172.69</ele>
        <time>2011-05-19T13:40:22Z</time>
      </trkpt>
      <trkpt lat="43.51124" lon="6.74931">
        <ele>171.25</ele>
        <time>2011-05-19T13:40:27Z</time>
      </trkpt>
      <trkpt lat="43.51142" lon="6.74976">
        <ele>167.89</ele>
        <time>2011-05-19T13:40:33Z</time>
      </trkpt>
      <trkpt lat="43.51148" lon="6.74991">
        <ele>166.93</ele>
        <time>2011-05-19T13:40:35Z</time>
      </trkpt>
      <trkpt lat="43.51153" lon="6.75007">
        <ele>165.96</ele>
        <time>2011-05-19T13:40:37Z</time>
      </trkpt>
      <trkpt lat="43.51152" lon="6.75039">
        <ele>162.6</ele>
        <time>2011-05-19T13:40:41Z</time>
      </trkpt>
      <trkpt lat="43.51141" lon="6.7507">
        <ele>160.68</ele>
        <time>2011-05-19T13:40:45Z</time>
      </trkpt>
      <trkpt lat="43.51149" lon="6.75121">
        <ele>157.31</ele>
        <time>2011-05-19T13:40:51Z</time>
      </trkpt>
      <trkpt lat="43.51176" lon="6.75166">
        <ele>152.99</ele>
        <time>2011-05-19T13:40:57Z</time>
      </trkpt>
      <trkpt lat="43.51183" lon="6.75198">
        <ele>149.62</ele>
        <time>2011-05-19T13:41:01Z</time>
      </trkpt>
      <trkpt lat="43.51181" lon="6.75216">
        <ele>148.18</ele>
        <time>2011-05-19T13:41:03Z</time>
      </trkpt>
      <trkpt lat="43.51171" lon="6.75245">
        <ele>145.3</ele>
        <time>2011-05-19T13:41:07Z</time>
      </trkpt>
      <trkpt lat="43.51168" lon="6.75264">
        <ele>143.37</ele>
        <time>2011-05-19T13:41:11Z</time>
      </trkpt>
      <trkpt lat="43.51169" lon="6.75274">
        <ele>142.41</ele>
        <time>2011-05-19T13:41:14Z</time>
      </trkpt>
      <trkpt lat="43.51172" lon="6.75281">
        <ele>141.93</ele>
        <time>2011-05-19T13:41:17Z</time>
      </trkpt>
      <trkpt lat="43.51188" lon="6.75285">
        <ele>141.45</ele>
        <time>2011-05-19T13:41:32Z</time>
      </trkpt>
      <trkpt lat="43.51211" lon="6.75302">
        <ele>140.49</ele>
        <time>2011-05-19T13:41:44Z</time>
      </trkpt>
      <trkpt lat="43.51221" lon="6.75313">
        <ele>140.49</ele>
        <time>2011-05-19T13:41:47Z</time>
      </trkpt>
      <trkpt lat="43.51232" lon="6.75372">
        <ele>135.68</ele>
        <time>2011-05-19T13:41:55Z</time>
      </trkpt>
      <trkpt lat="43.51231" lon="6.75381">
        <ele>136.16</ele>
        <time>2011-05-19T13:41:56Z</time>
      </trkpt>
      <trkpt lat="43.51225" lon="6.75399">
        <ele>135.2</ele>
        <time>2011-05-19T13:41:58Z</time>
      </trkpt>
      <trkpt lat="43.51216" lon="6.7547">
        <ele>131.84</ele>
        <time>2011-05-19T13:42:06Z</time>
      </trkpt>
      <trkpt lat="43.5122" lon="6.75527">
        <ele>126.55</ele>
        <time>2011-05-19T13:42:12Z</time>
      </trkpt>
      <trkpt lat="43.51207" lon="6.7554">
        <ele>125.59</ele>
        <time>2011-05-19T13:42:14Z</time>
      </trkpt>
      <trkpt lat="43.51149" lon="6.75557">
        <ele>124.15</ele>
        <time>2011-05-19T13:42:23Z</time>
      </trkpt>
      <trkpt lat="43.51148" lon="6.7556">
        <ele>124.63</ele>
        <time>2011-05-19T13:42:35Z</time>
      </trkpt>
      <trkpt lat="43.51147" lon="6.75559">
        <ele>124.15</ele>
        <time>2011-05-19T13:42:40Z</time>
      </trkpt>
      <trkpt lat="43.51143" lon="6.75556">
        <ele>124.63</ele>
        <time>2011-05-19T13:42:44Z</time>
      </trkpt>
      <trkpt lat="43.51116" lon="6.75554">
        <ele>126.07</ele>
        <time>2011-05-19T13:42:56Z</time>
      </trkpt>
      <trkpt lat="43.51114" lon="6.75557">
        <ele>126.55</ele>
        <time>2011-05-19T13:43:12Z</time>
      </trkpt>
      <trkpt lat="43.51115" lon="6.75557">
        <ele>126.55</ele>
        <time>2011-05-19T13:43:31Z</time>
      </trkpt>
      <trkpt lat="43.51118" lon="6.75559">
        <ele>126.07</ele>
        <time>2011-05-19T13:43:48Z</time>
      </trkpt>
      <trkpt lat="43.51114" lon="6.75553">
        <ele>126.55</ele>
        <time>2011-05-19T13:44:24Z</time>
      </trkpt>
      <trkpt lat="43.51115" lon="6.75556">
        <ele>126.07</ele>
        <time>2011-05-19T13:44:57Z</time>
      </trkpt>
      <trkpt lat="43.51117" lon="6.75551">
        <ele>125.59</ele>
        <time>2011-05-19T13:45:38Z</time>
      </trkpt>
      <trkpt lat="43.51118" lon="6.7555">
        <ele>126.07</ele>
        <time>2011-05-19T13:45:49Z</time>
      </trkpt>
      <trkpt lat="43.51128" lon="6.75527">
        <ele>124.15</ele>
        <time>2011-05-19T13:46:01Z</time>
      </trkpt>
      <trkpt lat="43.51141" lon="6.75501">
        <ele>122.22</ele>
        <time>2011-05-19T13:46:12Z</time>
      </trkpt>
      <trkpt lat="43.51149" lon="6.75479">
        <ele>121.26</ele>
        <time>2011-05-19T13:46:21Z</time>
      </trkpt>
      <trkpt lat="43.51143" lon="6.75456">
        <ele>118.86</ele>
        <time>2011-05-19T13:46:25Z</time>
      </trkpt>
      <trkpt lat="43.51126" lon="6.75437">
        <ele>117.42</ele>
        <time>2011-05-19T13:46:28Z</time>
      </trkpt>
      <trkpt lat="43.51105" lon="6.7539">
        <ele>112.61</ele>
        <time>2011-05-19T13:46:33Z</time>
      </trkpt>
      <trkpt lat="43.51102" lon="6.75368">
        <ele>110.69</ele>
        <time>2011-05-19T13:46:35Z</time>
      </trkpt>
      <trkpt lat="43.51104" lon="6.7535">
        <ele>109.25</ele>
        <time>2011-05-19T13:46:37Z</time>
      </trkpt>
      <trkpt lat="43.51092" lon="6.75338">
        <ele>107.32</ele>
        <time>2011-05-19T13:46:44Z</time>
      </trkpt>
      <trkpt lat="43.51091" lon="6.75342">
        <ele>106.84</ele>
        <time>2011-05-19T13:46:45Z</time>
      </trkpt>
      <trkpt lat="43.51086" lon="6.75389">
        <ele>102.04</ele>
        <time>2011-05-19T13:46:49Z</time>
      </trkpt>
      <trkpt lat="43.5109" lon="6.75449">
        <ele>98.19</ele>
        <time>2011-05-19T13:46:54Z</time>
      </trkpt>
      <trkpt lat="43.51089" lon="6.75467">
        <ele>96.27</ele>
        <time>2011-05-19T13:46:56Z</time>
      </trkpt>
      <trkpt lat="43.51071" lon="6.75494">
        <ele>92.42</ele>
        <time>2011-05-19T13:47:00Z</time>
      </trkpt>
      <trkpt lat="43.51038" lon="6.75519">
        <ele>88.1</ele>
        <time>2011-05-19T13:47:04Z</time>
      </trkpt>
      <trkpt lat="43.51016" lon="6.75547">
        <ele>83.77</ele>
        <time>2011-05-19T13:47:07Z</time>
      </trkpt>
      <trkpt lat="43.5101" lon="6.75557">
        <ele>82.81</ele>
        <time>2011-05-19T13:47:08Z</time>
      </trkpt>
      <trkpt lat="43.50994" lon="6.75593">
        <ele>78.97</ele>
        <time>2011-05-19T13:47:12Z</time>
      </trkpt>
      <trkpt lat="43.50988" lon="6.75607">
        <ele>77.04</ele>
        <time>2011-05-19T13:47:15Z</time>
      </trkpt>
      <trkpt lat="43.50974" lon="6.75589">
        <ele>73.68</ele>
        <time>2011-05-19T13:47:21Z</time>
      </trkpt>
      <trkpt lat="43.50969" lon="6.75523">
        <ele>69.35</ele>
        <time>2011-05-19T13:47:27Z</time>
      </trkpt>
      <trkpt lat="43.50967" lon="6.7551">
        <ele>69.35</ele>
        <time>2011-05-19T13:47:28Z</time>
      </trkpt>
      <trkpt lat="43.5096" lon="6.75471">
        <ele>66.95</ele>
        <time>2011-05-19T13:47:31Z</time>
      </trkpt>
      <trkpt lat="43.5094" lon="6.75435">
        <ele>64.55</ele>
        <time>2011-05-19T13:47:35Z</time>
      </trkpt>
      <trkpt lat="43.50905" lon="6.75411">
        <ele>65.99</ele>
        <time>2011-05-19T13:47:40Z</time>
      </trkpt>
      <trkpt lat="43.5087" lon="6.75373">
        <ele>63.1</ele>
        <time>2011-05-19T13:47:48Z</time>
      </trkpt>
      <trkpt lat="43.50865" lon="6.7537">
        <ele>63.1</ele>
        <time>2011-05-19T13:47:49Z</time>
      </trkpt>
      <trkpt lat="43.50846" lon="6.75372">
        <ele>60.7</ele>
        <time>2011-05-19T13:47:52Z</time>
      </trkpt>
      <trkpt lat="43.50795" lon="6.75387">
        <ele>55.89</ele>
        <time>2011-05-19T13:47:58Z</time>
      </trkpt>
      <trkpt lat="43.50753" lon="6.75421">
        <ele>51.57</ele>
        <time>2011-05-19T13:48:04Z</time>
      </trkpt>
      <trkpt lat="43.50746" lon="6.75429">
        <ele>51.09</ele>
        <time>2011-05-19T13:48:05Z</time>
      </trkpt>
      <trkpt lat="43.50708" lon="6.75461">
        <ele>47.72</ele>
        <time>2011-05-19T13:48:10Z</time>
      </trkpt>
      <trkpt lat="43.507" lon="6.75467">
        <ele>47.24</ele>
        <time>2011-05-19T13:48:11Z</time>
      </trkpt>
      <trkpt lat="43.50632" lon="6.75486">
        <ele>43.88</ele>
        <time>2011-05-19T13:48:18Z</time>
      </trkpt>
      <trkpt lat="43.50603" lon="6.75495">
        <ele>42.44</ele>
        <time>2011-05-19T13:48:21Z</time>
      </trkpt>
      <trkpt lat="43.5052" lon="6.7555">
        <ele>41.47</ele>
        <time>2011-05-19T13:48:32Z</time>
      </trkpt>
      <trkpt lat="43.50507" lon="6.75563">
        <ele>42.44</ele>
        <time>2011-05-19T13:48:35Z</time>
      </trkpt>
      <trkpt lat="43.50483" lon="6.75619">
        <ele>40.99</ele>
        <time>2011-05-19T13:48:49Z</time>
      </trkpt>
      <trkpt lat="43.50473" lon="6.75633">
        <ele>40.99</ele>
        <time>2011-05-19T13:49:03Z</time>
      </trkpt>
      <trkpt lat="43.50473" lon="6.75633">
        <ele>40.03</ele>
        <time>2011-05-19T13:49:04Z</time>
      </trkpt>
      <trkpt lat="43.50469" lon="6.75656">
        <ele>40.03</ele>
        <time>2011-05-19T13:49:12Z</time>
      </trkpt>
      <trkpt lat="43.50456" lon="6.75662">
        <ele>40.51</ele>
        <time>2011-05-19T13:49:16Z</time>
      </trkpt>
      <trkpt lat="43.50423" lon="6.75633">
        <ele>40.51</ele>
        <time>2011-05-19T13:49:29Z</time>
      </trkpt>
      <trkpt lat="43.5042" lon="6.75616">
        <ele>40.99</ele>
        <time>2011-05-19T13:49:39Z</time>
      </trkpt>
      <trkpt lat="43.5042" lon="6.75616">
        <ele>40.51</ele>
        <time>2011-05-19T13:49:56Z</time>
      </trkpt>
      <trkpt lat="43.5042" lon="6.75616">
        <ele>40.03</ele>
        <time>2011-05-19T13:50:26Z</time>
      </trkpt>
      <trkpt lat="43.50421" lon="6.75619">
        <ele>39.55</ele>
        <time>2011-05-19T13:50:46Z</time>
      </trkpt>
      <trkpt lat="43.50421" lon="6.75623">
        <ele>40.51</ele>
        <time>2011-05-19T13:51:57Z</time>
      </trkpt>
      <trkpt lat="43.50419" lon="6.75623">
        <ele>40.03</ele>
        <time>2011-05-19T13:52:23Z</time>
      </trkpt>
      <trkpt lat="43.50419" lon="6.75616">
        <ele>40.51</ele>
        <time>2011-05-19T13:52:44Z</time>
      </trkpt>
      <trkpt lat="43.50419" lon="6.75618">
        <ele>40.03</ele>
        <time>2011-05-19T13:53:56Z</time>
      </trkpt>
      <trkpt lat="43.5042" lon="6.75623">
        <ele>40.03</ele>
        <time>2011-05-19T13:54:20Z</time>
      </trkpt>
      <trkpt lat="43.5042" lon="6.75623">
        <ele>40.03</ele>
        <time>2011-05-19T13:54:39Z</time>
      </trkpt>
    </trkseg>
  </trk>
</gpx>